<?xml version="1.0" encoding="UTF-8" standalone="no" ?>
<gpx xmlns="http://www.topografix.com/GPX/1/1" xmlns:xsi="http://www.w3.org/2001/XMLSchema-instance" xsi:schemaLocation="http://www.topografix.com/GPX/1/1 http://www.topografix.com/GPX/1/1/gpx.xsd" version="1.1" creator="VisuGPX - https://www.visugpx.com">
  <metadata>
    <name>Balade en boucle </name>
    <desc><![CDATA[gpx récupéré]]></desc>
  </metadata>
  <trk>
    <name><![CDATA[2022 11 20 Balade]]></name>
    <desc><![CDATA[gpx récupéré]]></desc>
    <trkseg>
      <trkpt lat="45.83336" lon="4.70819">
        <ele>311.09998</ele>
        <time>2022-11-20T12:48:35.509Z</time>
      </trkpt>
      <trkpt lat="45.83319" lon="4.70731">
        <ele>310.61121</ele>
        <time>2022-11-20T12:48:50.000Z</time>
      </trkpt>
      <trkpt lat="45.83332" lon="4.70703">
        <ele>310.55847</ele>
        <time>2022-11-20T12:48:55.000Z</time>
      </trkpt>
      <trkpt lat="45.83331" lon="4.70696">
        <ele>310.53979</ele>
        <time>2022-11-20T12:48:56.000Z</time>
      </trkpt>
      <trkpt lat="45.83329" lon="4.7069">
        <ele>310.50592</ele>
        <time>2022-11-20T12:48:57.000Z</time>
      </trkpt>
      <trkpt lat="45.83351" lon="4.70537">
        <ele>311.8165</ele>
        <time>2022-11-20T12:49:15.000Z</time>
      </trkpt>
      <trkpt lat="45.8335" lon="4.70529">
        <ele>314.28287</ele>
        <time>2022-11-20T12:49:16.000Z</time>
      </trkpt>
      <trkpt lat="45.83347" lon="4.70519">
        <ele>315.97864</ele>
        <time>2022-11-20T12:49:17.000Z</time>
      </trkpt>
      <trkpt lat="45.83348" lon="4.70511">
        <ele>317.15079</ele>
        <time>2022-11-20T12:49:18.000Z</time>
      </trkpt>
      <trkpt lat="45.83348" lon="4.70504">
        <ele>318.01105</ele>
        <time>2022-11-20T12:49:19.000Z</time>
      </trkpt>
      <trkpt lat="45.83347" lon="4.70495">
        <ele>318.69833</ele>
        <time>2022-11-20T12:49:20.000Z</time>
      </trkpt>
      <trkpt lat="45.83347" lon="4.70495">
        <ele>318.69833</ele>
        <time>2022-11-20T12:49:20.000Z</time>
      </trkpt>
      <trkpt lat="45.83332" lon="4.70387">
        <ele>319.0145</ele>
        <time>2022-11-20T12:49:32.000Z</time>
      </trkpt>
      <trkpt lat="45.83332" lon="4.70387">
        <ele>319.0145</ele>
        <time>2022-11-20T12:49:32.000Z</time>
      </trkpt>
      <trkpt lat="45.83325" lon="4.70377">
        <ele>319.2634</ele>
        <time>2022-11-20T12:49:33.000Z</time>
      </trkpt>
      <trkpt lat="45.83316" lon="4.70369">
        <ele>319.45786</ele>
        <time>2022-11-20T12:49:34.000Z</time>
      </trkpt>
      <trkpt lat="45.83314" lon="4.7036">
        <ele>319.60254</ele>
        <time>2022-11-20T12:49:35.000Z</time>
      </trkpt>
      <trkpt lat="45.8331" lon="4.70349">
        <ele>319.69769</ele>
        <time>2022-11-20T12:49:36.000Z</time>
      </trkpt>
      <trkpt lat="45.83308" lon="4.70341">
        <ele>319.78766</ele>
        <time>2022-11-20T12:49:37.000Z</time>
      </trkpt>
      <trkpt lat="45.833" lon="4.7033">
        <ele>319.85532</ele>
        <time>2022-11-20T12:49:38.000Z</time>
      </trkpt>
      <trkpt lat="45.83298" lon="4.70322">
        <ele>319.9306</ele>
        <time>2022-11-20T12:49:39.000Z</time>
      </trkpt>
      <trkpt lat="45.83296" lon="4.70311">
        <ele>320.013</ele>
        <time>2022-11-20T12:49:40.000Z</time>
      </trkpt>
      <trkpt lat="45.83297" lon="4.70301">
        <ele>320.54892</ele>
        <time>2022-11-20T12:49:41.000Z</time>
      </trkpt>
      <trkpt lat="45.833" lon="4.70293">
        <ele>321.14853</ele>
        <time>2022-11-20T12:49:42.000Z</time>
      </trkpt>
      <trkpt lat="45.83301" lon="4.70284">
        <ele>321.7406</ele>
        <time>2022-11-20T12:49:43.000Z</time>
      </trkpt>
      <trkpt lat="45.83305" lon="4.70277">
        <ele>322.33768</ele>
        <time>2022-11-20T12:49:44.000Z</time>
      </trkpt>
      <trkpt lat="45.83308" lon="4.70269">
        <ele>322.94589</ele>
        <time>2022-11-20T12:49:45.000Z</time>
      </trkpt>
      <trkpt lat="45.83336" lon="4.70275">
        <ele>322.44659</ele>
        <time>2022-11-20T12:49:46.000Z</time>
      </trkpt>
      <trkpt lat="45.83338" lon="4.70267">
        <ele>321.37894</ele>
        <time>2022-11-20T12:49:47.000Z</time>
      </trkpt>
      <trkpt lat="45.83341" lon="4.7026">
        <ele>320.33121</ele>
        <time>2022-11-20T12:49:48.000Z</time>
      </trkpt>
      <trkpt lat="45.83345" lon="4.70253">
        <ele>319.31876</ele>
        <time>2022-11-20T12:49:49.000Z</time>
      </trkpt>
      <trkpt lat="45.83349" lon="4.70245">
        <ele>318.32907</ele>
        <time>2022-11-20T12:49:50.000Z</time>
      </trkpt>
      <trkpt lat="45.83352" lon="4.70237">
        <ele>317.33643</ele>
        <time>2022-11-20T12:49:51.000Z</time>
      </trkpt>
      <trkpt lat="45.83355" lon="4.70229">
        <ele>316.49112</ele>
        <time>2022-11-20T12:49:52.000Z</time>
      </trkpt>
      <trkpt lat="45.83357" lon="4.70221">
        <ele>315.62799</ele>
        <time>2022-11-20T12:49:53.000Z</time>
      </trkpt>
      <trkpt lat="45.83359" lon="4.70213">
        <ele>314.69525</ele>
        <time>2022-11-20T12:49:54.000Z</time>
      </trkpt>
      <trkpt lat="45.83362" lon="4.70205">
        <ele>313.78537</ele>
        <time>2022-11-20T12:49:55.000Z</time>
      </trkpt>
      <trkpt lat="45.83365" lon="4.70196">
        <ele>312.91522</ele>
        <time>2022-11-20T12:49:56.000Z</time>
      </trkpt>
      <trkpt lat="45.83368" lon="4.70188">
        <ele>312.08286</ele>
        <time>2022-11-20T12:49:57.000Z</time>
      </trkpt>
      <trkpt lat="45.8337" lon="4.70179">
        <ele>311.27176</ele>
        <time>2022-11-20T12:49:58.000Z</time>
      </trkpt>
      <trkpt lat="45.83374" lon="4.70171">
        <ele>310.44009</ele>
        <time>2022-11-20T12:49:59.000Z</time>
      </trkpt>
      <trkpt lat="45.83376" lon="4.70163">
        <ele>309.58548</ele>
        <time>2022-11-20T12:50:00.000Z</time>
      </trkpt>
      <trkpt lat="45.83379" lon="4.70154">
        <ele>308.69043</ele>
        <time>2022-11-20T12:50:01.000Z</time>
      </trkpt>
      <trkpt lat="45.83381" lon="4.70146">
        <ele>307.80438</ele>
        <time>2022-11-20T12:50:02.000Z</time>
      </trkpt>
      <trkpt lat="45.83383" lon="4.70137">
        <ele>306.9072</ele>
        <time>2022-11-20T12:50:03.000Z</time>
      </trkpt>
      <trkpt lat="45.83385" lon="4.70128">
        <ele>305.98651</ele>
        <time>2022-11-20T12:50:04.000Z</time>
      </trkpt>
      <trkpt lat="45.83386" lon="4.7012">
        <ele>305.0451</ele>
        <time>2022-11-20T12:50:05.000Z</time>
      </trkpt>
      <trkpt lat="45.83387" lon="4.7011">
        <ele>304.80832</ele>
        <time>2022-11-20T12:50:06.000Z</time>
      </trkpt>
      <trkpt lat="45.83388" lon="4.70101">
        <ele>304.60004</ele>
        <time>2022-11-20T12:50:07.000Z</time>
      </trkpt>
      <trkpt lat="45.83389" lon="4.70091">
        <ele>304.41394</ele>
        <time>2022-11-20T12:50:08.000Z</time>
      </trkpt>
      <trkpt lat="45.8339" lon="4.70081">
        <ele>304.23041</ele>
        <time>2022-11-20T12:50:09.000Z</time>
      </trkpt>
      <trkpt lat="45.83391" lon="4.70071">
        <ele>304.06879</ele>
        <time>2022-11-20T12:50:10.000Z</time>
      </trkpt>
      <trkpt lat="45.83392" lon="4.70061">
        <ele>303.85284</ele>
        <time>2022-11-20T12:50:11.000Z</time>
      </trkpt>
      <trkpt lat="45.83392" lon="4.70051">
        <ele>303.65018</ele>
        <time>2022-11-20T12:50:12.000Z</time>
      </trkpt>
      <trkpt lat="45.83393" lon="4.7004">
        <ele>303.45624</ele>
        <time>2022-11-20T12:50:13.000Z</time>
      </trkpt>
      <trkpt lat="45.83394" lon="4.70029">
        <ele>303.36481</ele>
        <time>2022-11-20T12:50:14.000Z</time>
      </trkpt>
      <trkpt lat="45.83394" lon="4.70017">
        <ele>303.24405</ele>
        <time>2022-11-20T12:50:15.000Z</time>
      </trkpt>
      <trkpt lat="45.83395" lon="4.70006">
        <ele>303.12616</ele>
        <time>2022-11-20T12:50:16.000Z</time>
      </trkpt>
      <trkpt lat="45.83396" lon="4.69995">
        <ele>303.00439</ele>
        <time>2022-11-20T12:50:17.000Z</time>
      </trkpt>
      <trkpt lat="45.83398" lon="4.69984">
        <ele>302.81293</ele>
        <time>2022-11-20T12:50:18.000Z</time>
      </trkpt>
      <trkpt lat="45.83399" lon="4.69972">
        <ele>302.62408</ele>
        <time>2022-11-20T12:50:19.000Z</time>
      </trkpt>
      <trkpt lat="45.83401" lon="4.6996">
        <ele>302.44998</ele>
        <time>2022-11-20T12:50:20.000Z</time>
      </trkpt>
      <trkpt lat="45.83402" lon="4.69948">
        <ele>302.28738</ele>
        <time>2022-11-20T12:50:21.000Z</time>
      </trkpt>
      <trkpt lat="45.83403" lon="4.69937">
        <ele>302.09415</ele>
        <time>2022-11-20T12:50:22.000Z</time>
      </trkpt>
      <trkpt lat="45.83403" lon="4.69927">
        <ele>301.84433</ele>
        <time>2022-11-20T12:50:23.000Z</time>
      </trkpt>
      <trkpt lat="45.834" lon="4.69917">
        <ele>301.62033</ele>
        <time>2022-11-20T12:50:24.000Z</time>
      </trkpt>
      <trkpt lat="45.83396" lon="4.69908">
        <ele>301.42056</ele>
        <time>2022-11-20T12:50:25.000Z</time>
      </trkpt>
      <trkpt lat="45.83392" lon="4.699">
        <ele>301.26553</ele>
        <time>2022-11-20T12:50:26.000Z</time>
      </trkpt>
      <trkpt lat="45.83389" lon="4.69893">
        <ele>301.11517</ele>
        <time>2022-11-20T12:50:27.000Z</time>
      </trkpt>
      <trkpt lat="45.83389" lon="4.69886">
        <ele>300.99194</ele>
        <time>2022-11-20T12:50:28.000Z</time>
      </trkpt>
      <trkpt lat="45.83388" lon="4.69879">
        <ele>300.88467</ele>
        <time>2022-11-20T12:50:29.000Z</time>
      </trkpt>
      <trkpt lat="45.8339" lon="4.69875">
        <ele>300.77414</ele>
        <time>2022-11-20T12:50:30.000Z</time>
      </trkpt>
      <trkpt lat="45.83391" lon="4.69869">
        <ele>300.72125</ele>
        <time>2022-11-20T12:50:31.000Z</time>
      </trkpt>
      <trkpt lat="45.83392" lon="4.69867">
        <ele>300.69333</ele>
        <time>2022-11-20T12:50:32.000Z</time>
      </trkpt>
      <trkpt lat="45.83392" lon="4.69864">
        <ele>300.67731</ele>
        <time>2022-11-20T12:50:33.000Z</time>
      </trkpt>
      <trkpt lat="45.83394" lon="4.69859">
        <ele>300.67511</ele>
        <time>2022-11-20T12:50:34.000Z</time>
      </trkpt>
      <trkpt lat="45.83395" lon="4.69855">
        <ele>300.69562</ele>
        <time>2022-11-20T12:50:35.000Z</time>
      </trkpt>
      <trkpt lat="45.83394" lon="4.6985">
        <ele>300.65268</ele>
        <time>2022-11-20T12:50:36.000Z</time>
      </trkpt>
      <trkpt lat="45.83393" lon="4.69845">
        <ele>300.57465</ele>
        <time>2022-11-20T12:50:37.000Z</time>
      </trkpt>
      <trkpt lat="45.83391" lon="4.69839">
        <ele>300.55914</ele>
        <time>2022-11-20T12:50:38.000Z</time>
      </trkpt>
      <trkpt lat="45.8339" lon="4.69832">
        <ele>300.48401</ele>
        <time>2022-11-20T12:50:39.000Z</time>
      </trkpt>
      <trkpt lat="45.83389" lon="4.69825">
        <ele>300.40436</ele>
        <time>2022-11-20T12:50:40.000Z</time>
      </trkpt>
      <trkpt lat="45.83387" lon="4.69818">
        <ele>300.32693</ele>
        <time>2022-11-20T12:50:41.000Z</time>
      </trkpt>
      <trkpt lat="45.83385" lon="4.69811">
        <ele>300.28073</ele>
        <time>2022-11-20T12:50:42.000Z</time>
      </trkpt>
      <trkpt lat="45.83384" lon="4.69803">
        <ele>300.29123</ele>
        <time>2022-11-20T12:50:43.000Z</time>
      </trkpt>
      <trkpt lat="45.83382" lon="4.69795">
        <ele>300.29541</ele>
        <time>2022-11-20T12:50:44.000Z</time>
      </trkpt>
      <trkpt lat="45.83381" lon="4.69787">
        <ele>300.28226</ele>
        <time>2022-11-20T12:50:45.000Z</time>
      </trkpt>
      <trkpt lat="45.83379" lon="4.69779">
        <ele>300.23126</ele>
        <time>2022-11-20T12:50:46.000Z</time>
      </trkpt>
      <trkpt lat="45.83378" lon="4.69771">
        <ele>300.17746</ele>
        <time>2022-11-20T12:50:47.000Z</time>
      </trkpt>
      <trkpt lat="45.83376" lon="4.69763">
        <ele>300.11154</ele>
        <time>2022-11-20T12:50:48.000Z</time>
      </trkpt>
      <trkpt lat="45.83374" lon="4.69755">
        <ele>300.09152</ele>
        <time>2022-11-20T12:50:49.000Z</time>
      </trkpt>
      <trkpt lat="45.83373" lon="4.69747">
        <ele>300.05917</ele>
        <time>2022-11-20T12:50:50.000Z</time>
      </trkpt>
      <trkpt lat="45.83371" lon="4.69738">
        <ele>300.01907</ele>
        <time>2022-11-20T12:50:51.000Z</time>
      </trkpt>
      <trkpt lat="45.83369" lon="4.6973">
        <ele>299.9433</ele>
        <time>2022-11-20T12:50:52.000Z</time>
      </trkpt>
      <trkpt lat="45.83367" lon="4.69722">
        <ele>299.84735</ele>
        <time>2022-11-20T12:50:53.000Z</time>
      </trkpt>
      <trkpt lat="45.83365" lon="4.69713">
        <ele>299.72458</ele>
        <time>2022-11-20T12:50:54.000Z</time>
      </trkpt>
      <trkpt lat="45.83364" lon="4.69706">
        <ele>299.6412</ele>
        <time>2022-11-20T12:50:55.000Z</time>
      </trkpt>
      <trkpt lat="45.83362" lon="4.69697">
        <ele>299.59747</ele>
        <time>2022-11-20T12:50:56.000Z</time>
      </trkpt>
      <trkpt lat="45.8336" lon="4.69689">
        <ele>299.56262</ele>
        <time>2022-11-20T12:50:57.000Z</time>
      </trkpt>
      <trkpt lat="45.83359" lon="4.6968">
        <ele>299.49997</ele>
        <time>2022-11-20T12:50:58.000Z</time>
      </trkpt>
      <trkpt lat="45.83358" lon="4.69672">
        <ele>299.49738</ele>
        <time>2022-11-20T12:50:59.000Z</time>
      </trkpt>
      <trkpt lat="45.83357" lon="4.69664">
        <ele>299.5097</ele>
        <time>2022-11-20T12:51:00.000Z</time>
      </trkpt>
      <trkpt lat="45.83355" lon="4.69656">
        <ele>299.53003</ele>
        <time>2022-11-20T12:51:01.000Z</time>
      </trkpt>
      <trkpt lat="45.83354" lon="4.69647">
        <ele>299.50287</ele>
        <time>2022-11-20T12:51:02.000Z</time>
      </trkpt>
      <trkpt lat="45.83353" lon="4.69639">
        <ele>299.48853</ele>
        <time>2022-11-20T12:51:03.000Z</time>
      </trkpt>
      <trkpt lat="45.83351" lon="4.6963">
        <ele>299.4921</ele>
        <time>2022-11-20T12:51:04.000Z</time>
      </trkpt>
      <trkpt lat="45.8335" lon="4.69622">
        <ele>299.50983</ele>
        <time>2022-11-20T12:51:05.000Z</time>
      </trkpt>
      <trkpt lat="45.83349" lon="4.69613">
        <ele>299.52765</ele>
        <time>2022-11-20T12:51:06.000Z</time>
      </trkpt>
      <trkpt lat="45.83347" lon="4.69605">
        <ele>299.5386</ele>
        <time>2022-11-20T12:51:07.000Z</time>
      </trkpt>
      <trkpt lat="45.83346" lon="4.69597">
        <ele>299.54803</ele>
        <time>2022-11-20T12:51:08.000Z</time>
      </trkpt>
      <trkpt lat="45.83345" lon="4.69589">
        <ele>299.49908</ele>
        <time>2022-11-20T12:51:09.000Z</time>
      </trkpt>
      <trkpt lat="45.83344" lon="4.69581">
        <ele>299.47842</ele>
        <time>2022-11-20T12:51:10.000Z</time>
      </trkpt>
      <trkpt lat="45.83342" lon="4.69573">
        <ele>299.4502</ele>
        <time>2022-11-20T12:51:11.000Z</time>
      </trkpt>
      <trkpt lat="45.83341" lon="4.69566">
        <ele>299.42612</ele>
        <time>2022-11-20T12:51:12.000Z</time>
      </trkpt>
      <trkpt lat="45.8334" lon="4.69558">
        <ele>299.4353</ele>
        <time>2022-11-20T12:51:13.000Z</time>
      </trkpt>
      <trkpt lat="45.83339" lon="4.6955">
        <ele>299.4285</ele>
        <time>2022-11-20T12:51:14.000Z</time>
      </trkpt>
      <trkpt lat="45.83338" lon="4.69543">
        <ele>299.38849</ele>
        <time>2022-11-20T12:51:15.000Z</time>
      </trkpt>
      <trkpt lat="45.83337" lon="4.69535">
        <ele>299.32837</ele>
        <time>2022-11-20T12:51:16.000Z</time>
      </trkpt>
      <trkpt lat="45.83337" lon="4.69527">
        <ele>299.24408</ele>
        <time>2022-11-20T12:51:17.000Z</time>
      </trkpt>
      <trkpt lat="45.83336" lon="4.6952">
        <ele>299.1803</ele>
        <time>2022-11-20T12:51:18.000Z</time>
      </trkpt>
      <trkpt lat="45.83336" lon="4.69511">
        <ele>299.16238</ele>
        <time>2022-11-20T12:51:19.000Z</time>
      </trkpt>
      <trkpt lat="45.83335" lon="4.69504">
        <ele>299.16379</ele>
        <time>2022-11-20T12:51:20.000Z</time>
      </trkpt>
      <trkpt lat="45.83334" lon="4.69496">
        <ele>299.16379</ele>
        <time>2022-11-20T12:51:21.000Z</time>
      </trkpt>
      <trkpt lat="45.83334" lon="4.69489">
        <ele>299.18982</ele>
        <time>2022-11-20T12:51:22.000Z</time>
      </trkpt>
      <trkpt lat="45.83333" lon="4.69481">
        <ele>299.21817</ele>
        <time>2022-11-20T12:51:23.000Z</time>
      </trkpt>
      <trkpt lat="45.83333" lon="4.69473">
        <ele>299.21506</ele>
        <time>2022-11-20T12:51:24.000Z</time>
      </trkpt>
      <trkpt lat="45.83334" lon="4.69466">
        <ele>299.20242</ele>
        <time>2022-11-20T12:51:25.000Z</time>
      </trkpt>
      <trkpt lat="45.83335" lon="4.69457">
        <ele>299.18893</ele>
        <time>2022-11-20T12:51:26.000Z</time>
      </trkpt>
      <trkpt lat="45.83335" lon="4.69449">
        <ele>299.2016</ele>
        <time>2022-11-20T12:51:27.000Z</time>
      </trkpt>
      <trkpt lat="45.83335" lon="4.69442">
        <ele>299.20465</ele>
        <time>2022-11-20T12:51:28.000Z</time>
      </trkpt>
      <trkpt lat="45.83336" lon="4.69434">
        <ele>299.22189</ele>
        <time>2022-11-20T12:51:29.000Z</time>
      </trkpt>
      <trkpt lat="45.83338" lon="4.69426">
        <ele>299.21991</ele>
        <time>2022-11-20T12:51:30.000Z</time>
      </trkpt>
      <trkpt lat="45.83339" lon="4.69419">
        <ele>299.24036</ele>
        <time>2022-11-20T12:51:31.000Z</time>
      </trkpt>
      <trkpt lat="45.8334" lon="4.69411">
        <ele>299.26309</ele>
        <time>2022-11-20T12:51:32.000Z</time>
      </trkpt>
      <trkpt lat="45.83341" lon="4.69404">
        <ele>299.29895</ele>
        <time>2022-11-20T12:51:33.000Z</time>
      </trkpt>
      <trkpt lat="45.83342" lon="4.69397">
        <ele>299.31036</ele>
        <time>2022-11-20T12:51:34.000Z</time>
      </trkpt>
      <trkpt lat="45.83343" lon="4.69388">
        <ele>299.31744</ele>
        <time>2022-11-20T12:51:35.000Z</time>
      </trkpt>
      <trkpt lat="45.83345" lon="4.6938">
        <ele>299.341</ele>
        <time>2022-11-20T12:51:36.000Z</time>
      </trkpt>
      <trkpt lat="45.83346" lon="4.69372">
        <ele>299.3808</ele>
        <time>2022-11-20T12:51:37.000Z</time>
      </trkpt>
      <trkpt lat="45.83346" lon="4.69364">
        <ele>299.42807</ele>
        <time>2022-11-20T12:51:38.000Z</time>
      </trkpt>
      <trkpt lat="45.83347" lon="4.69356">
        <ele>299.45026</ele>
        <time>2022-11-20T12:51:39.000Z</time>
      </trkpt>
      <trkpt lat="45.83348" lon="4.69348">
        <ele>299.45459</ele>
        <time>2022-11-20T12:51:40.000Z</time>
      </trkpt>
      <trkpt lat="45.83349" lon="4.6934">
        <ele>299.46582</ele>
        <time>2022-11-20T12:51:41.000Z</time>
      </trkpt>
      <trkpt lat="45.8335" lon="4.69331">
        <ele>299.50604</ele>
        <time>2022-11-20T12:51:42.000Z</time>
      </trkpt>
      <trkpt lat="45.8335" lon="4.69323">
        <ele>299.52124</ele>
        <time>2022-11-20T12:51:43.000Z</time>
      </trkpt>
      <trkpt lat="45.83351" lon="4.69315">
        <ele>299.55167</ele>
        <time>2022-11-20T12:51:44.000Z</time>
      </trkpt>
      <trkpt lat="45.8335" lon="4.69308">
        <ele>299.60199</ele>
        <time>2022-11-20T12:51:45.000Z</time>
      </trkpt>
      <trkpt lat="45.83351" lon="4.69301">
        <ele>299.66281</ele>
        <time>2022-11-20T12:51:46.000Z</time>
      </trkpt>
      <trkpt lat="45.83351" lon="4.69293">
        <ele>299.71042</ele>
        <time>2022-11-20T12:51:47.000Z</time>
      </trkpt>
      <trkpt lat="45.83352" lon="4.69287">
        <ele>299.75912</ele>
        <time>2022-11-20T12:51:48.000Z</time>
      </trkpt>
      <trkpt lat="45.83352" lon="4.69281">
        <ele>299.79889</ele>
        <time>2022-11-20T12:51:49.000Z</time>
      </trkpt>
      <trkpt lat="45.83353" lon="4.69274">
        <ele>299.85489</ele>
        <time>2022-11-20T12:51:50.000Z</time>
      </trkpt>
      <trkpt lat="45.83354" lon="4.69268">
        <ele>299.90631</ele>
        <time>2022-11-20T12:51:51.000Z</time>
      </trkpt>
      <trkpt lat="45.83354" lon="4.69261">
        <ele>299.95804</ele>
        <time>2022-11-20T12:51:52.000Z</time>
      </trkpt>
      <trkpt lat="45.83355" lon="4.69256">
        <ele>299.99628</ele>
        <time>2022-11-20T12:51:53.000Z</time>
      </trkpt>
      <trkpt lat="45.83356" lon="4.6925">
        <ele>300.04633</ele>
        <time>2022-11-20T12:51:54.000Z</time>
      </trkpt>
      <trkpt lat="45.83356" lon="4.69245">
        <ele>300.09515</ele>
        <time>2022-11-20T12:51:55.000Z</time>
      </trkpt>
      <trkpt lat="45.83357" lon="4.69239">
        <ele>300.11798</ele>
        <time>2022-11-20T12:51:56.000Z</time>
      </trkpt>
      <trkpt lat="45.83357" lon="4.69233">
        <ele>300.1485</ele>
        <time>2022-11-20T12:51:57.000Z</time>
      </trkpt>
      <trkpt lat="45.83358" lon="4.69228">
        <ele>300.11188</ele>
        <time>2022-11-20T12:51:58.000Z</time>
      </trkpt>
      <trkpt lat="45.83358" lon="4.69221">
        <ele>300.09595</ele>
        <time>2022-11-20T12:51:59.000Z</time>
      </trkpt>
      <trkpt lat="45.83359" lon="4.69214">
        <ele>300.0332</ele>
        <time>2022-11-20T12:52:00.000Z</time>
      </trkpt>
      <trkpt lat="45.8336" lon="4.69208">
        <ele>299.97531</ele>
        <time>2022-11-20T12:52:01.000Z</time>
      </trkpt>
      <trkpt lat="45.8336" lon="4.69201">
        <ele>299.87921</ele>
        <time>2022-11-20T12:52:02.000Z</time>
      </trkpt>
      <trkpt lat="45.83361" lon="4.69194">
        <ele>299.7572</ele>
        <time>2022-11-20T12:52:03.000Z</time>
      </trkpt>
      <trkpt lat="45.83363" lon="4.69186">
        <ele>299.63394</ele>
        <time>2022-11-20T12:52:04.000Z</time>
      </trkpt>
      <trkpt lat="45.83363" lon="4.69179">
        <ele>299.46448</ele>
        <time>2022-11-20T12:52:05.000Z</time>
      </trkpt>
      <trkpt lat="45.83364" lon="4.69171">
        <ele>299.2774</ele>
        <time>2022-11-20T12:52:06.000Z</time>
      </trkpt>
      <trkpt lat="45.83364" lon="4.69163">
        <ele>299.07379</ele>
        <time>2022-11-20T12:52:07.000Z</time>
      </trkpt>
      <trkpt lat="45.83364" lon="4.69156">
        <ele>298.86227</ele>
        <time>2022-11-20T12:52:08.000Z</time>
      </trkpt>
      <trkpt lat="45.83365" lon="4.69148">
        <ele>298.65802</ele>
        <time>2022-11-20T12:52:09.000Z</time>
      </trkpt>
      <trkpt lat="45.83366" lon="4.6914">
        <ele>298.43109</ele>
        <time>2022-11-20T12:52:10.000Z</time>
      </trkpt>
      <trkpt lat="45.83366" lon="4.69132">
        <ele>298.17804</ele>
        <time>2022-11-20T12:52:11.000Z</time>
      </trkpt>
      <trkpt lat="45.83367" lon="4.69124">
        <ele>297.97366</ele>
        <time>2022-11-20T12:52:12.000Z</time>
      </trkpt>
      <trkpt lat="45.83369" lon="4.69116">
        <ele>297.74622</ele>
        <time>2022-11-20T12:52:13.000Z</time>
      </trkpt>
      <trkpt lat="45.8337" lon="4.69108">
        <ele>297.53723</ele>
        <time>2022-11-20T12:52:14.000Z</time>
      </trkpt>
      <trkpt lat="45.83371" lon="4.69099">
        <ele>297.32095</ele>
        <time>2022-11-20T12:52:15.000Z</time>
      </trkpt>
      <trkpt lat="45.83372" lon="4.6909">
        <ele>297.15704</ele>
        <time>2022-11-20T12:52:16.000Z</time>
      </trkpt>
      <trkpt lat="45.83373" lon="4.6908">
        <ele>296.9809</ele>
        <time>2022-11-20T12:52:17.000Z</time>
      </trkpt>
      <trkpt lat="45.83374" lon="4.69072">
        <ele>296.96497</ele>
        <time>2022-11-20T12:52:18.000Z</time>
      </trkpt>
      <trkpt lat="45.83376" lon="4.69064">
        <ele>296.90344</ele>
        <time>2022-11-20T12:52:19.000Z</time>
      </trkpt>
      <trkpt lat="45.8338" lon="4.69058">
        <ele>296.83536</ele>
        <time>2022-11-20T12:52:20.000Z</time>
      </trkpt>
      <trkpt lat="45.83384" lon="4.69049">
        <ele>296.73593</ele>
        <time>2022-11-20T12:52:21.000Z</time>
      </trkpt>
      <trkpt lat="45.83388" lon="4.69041">
        <ele>296.63062</ele>
        <time>2022-11-20T12:52:22.000Z</time>
      </trkpt>
      <trkpt lat="45.83393" lon="4.69032">
        <ele>296.52454</ele>
        <time>2022-11-20T12:52:23.000Z</time>
      </trkpt>
      <trkpt lat="45.83396" lon="4.69021">
        <ele>296.41891</ele>
        <time>2022-11-20T12:52:24.000Z</time>
      </trkpt>
      <trkpt lat="45.83399" lon="4.69011">
        <ele>296.25443</ele>
        <time>2022-11-20T12:52:25.000Z</time>
      </trkpt>
      <trkpt lat="45.83403" lon="4.68999">
        <ele>296.05914</ele>
        <time>2022-11-20T12:52:26.000Z</time>
      </trkpt>
      <trkpt lat="45.83407" lon="4.68988">
        <ele>295.84964</ele>
        <time>2022-11-20T12:52:27.000Z</time>
      </trkpt>
      <trkpt lat="45.83409" lon="4.68974">
        <ele>295.65482</ele>
        <time>2022-11-20T12:52:28.000Z</time>
      </trkpt>
      <trkpt lat="45.83412" lon="4.68962">
        <ele>295.41949</ele>
        <time>2022-11-20T12:52:29.000Z</time>
      </trkpt>
      <trkpt lat="45.83415" lon="4.68951">
        <ele>295.15063</ele>
        <time>2022-11-20T12:52:30.000Z</time>
      </trkpt>
      <trkpt lat="45.83418" lon="4.68941">
        <ele>294.88483</ele>
        <time>2022-11-20T12:52:31.000Z</time>
      </trkpt>
      <trkpt lat="45.83422" lon="4.68931">
        <ele>294.54834</ele>
        <time>2022-11-20T12:52:32.000Z</time>
      </trkpt>
      <trkpt lat="45.83422" lon="4.68922">
        <ele>294.15302</ele>
        <time>2022-11-20T12:52:33.000Z</time>
      </trkpt>
      <trkpt lat="45.83421" lon="4.68913">
        <ele>293.76059</ele>
        <time>2022-11-20T12:52:34.000Z</time>
      </trkpt>
      <trkpt lat="45.83419" lon="4.68902">
        <ele>293.33054</ele>
        <time>2022-11-20T12:52:35.000Z</time>
      </trkpt>
      <trkpt lat="45.83416" lon="4.68892">
        <ele>292.84958</ele>
        <time>2022-11-20T12:52:36.000Z</time>
      </trkpt>
      <trkpt lat="45.83413" lon="4.6888">
        <ele>292.28003</ele>
        <time>2022-11-20T12:52:37.000Z</time>
      </trkpt>
      <trkpt lat="45.83411" lon="4.6887">
        <ele>291.556</ele>
        <time>2022-11-20T12:52:38.000Z</time>
      </trkpt>
      <trkpt lat="45.83409" lon="4.68858">
        <ele>290.81918</ele>
        <time>2022-11-20T12:52:39.000Z</time>
      </trkpt>
      <trkpt lat="45.83407" lon="4.68848">
        <ele>290.12091</ele>
        <time>2022-11-20T12:52:40.000Z</time>
      </trkpt>
      <trkpt lat="45.83405" lon="4.68838">
        <ele>289.5285</ele>
        <time>2022-11-20T12:52:41.000Z</time>
      </trkpt>
      <trkpt lat="45.83403" lon="4.68831">
        <ele>288.90619</ele>
        <time>2022-11-20T12:52:42.000Z</time>
      </trkpt>
      <trkpt lat="45.83401" lon="4.68822">
        <ele>288.31503</ele>
        <time>2022-11-20T12:52:43.000Z</time>
      </trkpt>
      <trkpt lat="45.834" lon="4.68814">
        <ele>287.72455</ele>
        <time>2022-11-20T12:52:44.000Z</time>
      </trkpt>
      <trkpt lat="45.83397" lon="4.68807">
        <ele>287.20667</ele>
        <time>2022-11-20T12:52:45.000Z</time>
      </trkpt>
      <trkpt lat="45.83395" lon="4.688">
        <ele>286.73227</ele>
        <time>2022-11-20T12:52:46.000Z</time>
      </trkpt>
      <trkpt lat="45.83393" lon="4.68792">
        <ele>286.28833</ele>
        <time>2022-11-20T12:52:47.000Z</time>
      </trkpt>
      <trkpt lat="45.83391" lon="4.68785">
        <ele>285.84833</ele>
        <time>2022-11-20T12:52:48.000Z</time>
      </trkpt>
      <trkpt lat="45.83388" lon="4.68778">
        <ele>285.44949</ele>
        <time>2022-11-20T12:52:49.000Z</time>
      </trkpt>
      <trkpt lat="45.83385" lon="4.68771">
        <ele>285.09134</ele>
        <time>2022-11-20T12:52:50.000Z</time>
      </trkpt>
      <trkpt lat="45.83382" lon="4.68764">
        <ele>284.75327</ele>
        <time>2022-11-20T12:52:51.000Z</time>
      </trkpt>
      <trkpt lat="45.83379" lon="4.68758">
        <ele>284.46527</ele>
        <time>2022-11-20T12:52:52.000Z</time>
      </trkpt>
      <trkpt lat="45.83376" lon="4.68751">
        <ele>284.25467</ele>
        <time>2022-11-20T12:52:53.000Z</time>
      </trkpt>
      <trkpt lat="45.83372" lon="4.68746">
        <ele>284.04697</ele>
        <time>2022-11-20T12:52:54.000Z</time>
      </trkpt>
      <trkpt lat="45.8337" lon="4.68739">
        <ele>283.91785</ele>
        <time>2022-11-20T12:52:55.000Z</time>
      </trkpt>
      <trkpt lat="45.83366" lon="4.68733">
        <ele>283.72662</ele>
        <time>2022-11-20T12:52:56.000Z</time>
      </trkpt>
      <trkpt lat="45.83363" lon="4.68726">
        <ele>283.63672</ele>
        <time>2022-11-20T12:52:57.000Z</time>
      </trkpt>
      <trkpt lat="45.83361" lon="4.68719">
        <ele>283.60516</ele>
        <time>2022-11-20T12:52:58.000Z</time>
      </trkpt>
      <trkpt lat="45.83358" lon="4.68712">
        <ele>283.586</ele>
        <time>2022-11-20T12:52:59.000Z</time>
      </trkpt>
      <trkpt lat="45.83355" lon="4.68706">
        <ele>283.59058</ele>
        <time>2022-11-20T12:53:00.000Z</time>
      </trkpt>
      <trkpt lat="45.83352" lon="4.687">
        <ele>283.51929</ele>
        <time>2022-11-20T12:53:01.000Z</time>
      </trkpt>
      <trkpt lat="45.83348" lon="4.68694">
        <ele>283.50027</ele>
        <time>2022-11-20T12:53:02.000Z</time>
      </trkpt>
      <trkpt lat="45.83344" lon="4.68688">
        <ele>283.49799</ele>
        <time>2022-11-20T12:53:03.000Z</time>
      </trkpt>
      <trkpt lat="45.83341" lon="4.68681">
        <ele>283.54782</ele>
        <time>2022-11-20T12:53:04.000Z</time>
      </trkpt>
      <trkpt lat="45.83339" lon="4.68674">
        <ele>283.54449</ele>
        <time>2022-11-20T12:53:05.000Z</time>
      </trkpt>
      <trkpt lat="45.83336" lon="4.68667">
        <ele>283.53348</ele>
        <time>2022-11-20T12:53:06.000Z</time>
      </trkpt>
      <trkpt lat="45.83334" lon="4.6866">
        <ele>283.50598</ele>
        <time>2022-11-20T12:53:07.000Z</time>
      </trkpt>
      <trkpt lat="45.83331" lon="4.68653">
        <ele>283.46545</ele>
        <time>2022-11-20T12:53:08.000Z</time>
      </trkpt>
      <trkpt lat="45.83329" lon="4.68646">
        <ele>283.4162</ele>
        <time>2022-11-20T12:53:09.000Z</time>
      </trkpt>
      <trkpt lat="45.83328" lon="4.68638">
        <ele>283.54303</ele>
        <time>2022-11-20T12:53:10.000Z</time>
      </trkpt>
      <trkpt lat="45.83327" lon="4.6863">
        <ele>283.55887</ele>
        <time>2022-11-20T12:53:11.000Z</time>
      </trkpt>
      <trkpt lat="45.83325" lon="4.68623">
        <ele>283.52316</ele>
        <time>2022-11-20T12:53:12.000Z</time>
      </trkpt>
      <trkpt lat="45.83324" lon="4.68615">
        <ele>283.47641</ele>
        <time>2022-11-20T12:53:13.000Z</time>
      </trkpt>
      <trkpt lat="45.83323" lon="4.68608">
        <ele>283.42236</ele>
        <time>2022-11-20T12:53:14.000Z</time>
      </trkpt>
      <trkpt lat="45.83324" lon="4.68599">
        <ele>283.44986</ele>
        <time>2022-11-20T12:53:15.000Z</time>
      </trkpt>
      <trkpt lat="45.83322" lon="4.68593">
        <ele>283.67108</ele>
        <time>2022-11-20T12:53:16.000Z</time>
      </trkpt>
      <trkpt lat="45.83323" lon="4.6859">
        <ele>283.94397</ele>
        <time>2022-11-20T12:53:17.000Z</time>
      </trkpt>
      <trkpt lat="45.83322" lon="4.68581">
        <ele>284.19949</ele>
        <time>2022-11-20T12:53:18.000Z</time>
      </trkpt>
      <trkpt lat="45.83319" lon="4.68573">
        <ele>284.47903</ele>
        <time>2022-11-20T12:53:19.000Z</time>
      </trkpt>
      <trkpt lat="45.83316" lon="4.68566">
        <ele>284.61981</ele>
        <time>2022-11-20T12:53:20.000Z</time>
      </trkpt>
      <trkpt lat="45.83314" lon="4.68559">
        <ele>284.6662</ele>
        <time>2022-11-20T12:53:21.000Z</time>
      </trkpt>
      <trkpt lat="45.83311" lon="4.68553">
        <ele>284.67371</ele>
        <time>2022-11-20T12:53:22.000Z</time>
      </trkpt>
      <trkpt lat="45.8331" lon="4.68547">
        <ele>284.88101</ele>
        <time>2022-11-20T12:53:23.000Z</time>
      </trkpt>
      <trkpt lat="45.83309" lon="4.68542">
        <ele>285.03772</ele>
        <time>2022-11-20T12:53:24.000Z</time>
      </trkpt>
      <trkpt lat="45.8331" lon="4.68537">
        <ele>285.26617</ele>
        <time>2022-11-20T12:53:25.000Z</time>
      </trkpt>
      <trkpt lat="45.83311" lon="4.68532">
        <ele>285.46436</ele>
        <time>2022-11-20T12:53:26.000Z</time>
      </trkpt>
      <trkpt lat="45.83315" lon="4.68529">
        <ele>285.68268</ele>
        <time>2022-11-20T12:53:27.000Z</time>
      </trkpt>
      <trkpt lat="45.83318" lon="4.68527">
        <ele>285.92172</ele>
        <time>2022-11-20T12:53:28.000Z</time>
      </trkpt>
      <trkpt lat="45.83322" lon="4.68525">
        <ele>286.18307</ele>
        <time>2022-11-20T12:53:29.000Z</time>
      </trkpt>
      <trkpt lat="45.83327" lon="4.68527">
        <ele>286.10376</ele>
        <time>2022-11-20T12:53:30.000Z</time>
      </trkpt>
      <trkpt lat="45.8333" lon="4.6853">
        <ele>286.19449</ele>
        <time>2022-11-20T12:53:31.000Z</time>
      </trkpt>
      <trkpt lat="45.83334" lon="4.68534">
        <ele>286.32745</ele>
        <time>2022-11-20T12:53:32.000Z</time>
      </trkpt>
      <trkpt lat="45.83337" lon="4.68537">
        <ele>286.48035</ele>
        <time>2022-11-20T12:53:33.000Z</time>
      </trkpt>
      <trkpt lat="45.83341" lon="4.68542">
        <ele>286.60272</ele>
        <time>2022-11-20T12:53:34.000Z</time>
      </trkpt>
      <trkpt lat="45.83345" lon="4.68544">
        <ele>286.60565</ele>
        <time>2022-11-20T12:53:35.000Z</time>
      </trkpt>
      <trkpt lat="45.8335" lon="4.68546">
        <ele>286.50095</ele>
        <time>2022-11-20T12:53:36.000Z</time>
      </trkpt>
      <trkpt lat="45.83355" lon="4.68548">
        <ele>286.33975</ele>
        <time>2022-11-20T12:53:37.000Z</time>
      </trkpt>
      <trkpt lat="45.83361" lon="4.68547">
        <ele>286.20245</ele>
        <time>2022-11-20T12:53:38.000Z</time>
      </trkpt>
      <trkpt lat="45.83366" lon="4.68545">
        <ele>286.07855</ele>
        <time>2022-11-20T12:53:39.000Z</time>
      </trkpt>
      <trkpt lat="45.83372" lon="4.68542">
        <ele>286.14828</ele>
        <time>2022-11-20T12:53:40.000Z</time>
      </trkpt>
      <trkpt lat="45.83377" lon="4.68539">
        <ele>286.29703</ele>
        <time>2022-11-20T12:53:41.000Z</time>
      </trkpt>
      <trkpt lat="45.83384" lon="4.68536">
        <ele>286.45819</ele>
        <time>2022-11-20T12:53:42.000Z</time>
      </trkpt>
      <trkpt lat="45.8339" lon="4.68532">
        <ele>286.39124</ele>
        <time>2022-11-20T12:53:43.000Z</time>
      </trkpt>
      <trkpt lat="45.83396" lon="4.68528">
        <ele>286.3302</ele>
        <time>2022-11-20T12:53:44.000Z</time>
      </trkpt>
      <trkpt lat="45.83403" lon="4.68524">
        <ele>286.26953</ele>
        <time>2022-11-20T12:53:45.000Z</time>
      </trkpt>
      <trkpt lat="45.83409" lon="4.68521">
        <ele>286.20197</ele>
        <time>2022-11-20T12:53:46.000Z</time>
      </trkpt>
      <trkpt lat="45.83416" lon="4.68517">
        <ele>286.12784</ele>
        <time>2022-11-20T12:53:47.000Z</time>
      </trkpt>
      <trkpt lat="45.83423" lon="4.68513">
        <ele>286.06488</ele>
        <time>2022-11-20T12:53:48.000Z</time>
      </trkpt>
      <trkpt lat="45.83429" lon="4.68508">
        <ele>286.03732</ele>
        <time>2022-11-20T12:53:49.000Z</time>
      </trkpt>
      <trkpt lat="45.83436" lon="4.68504">
        <ele>286.17853</ele>
        <time>2022-11-20T12:53:50.000Z</time>
      </trkpt>
      <trkpt lat="45.83443" lon="4.68501">
        <ele>286.01816</ele>
        <time>2022-11-20T12:53:51.000Z</time>
      </trkpt>
      <trkpt lat="45.8345" lon="4.68497">
        <ele>285.88815</ele>
        <time>2022-11-20T12:53:52.000Z</time>
      </trkpt>
      <trkpt lat="45.83457" lon="4.68493">
        <ele>285.75696</ele>
        <time>2022-11-20T12:53:53.000Z</time>
      </trkpt>
      <trkpt lat="45.83464" lon="4.68489">
        <ele>285.63229</ele>
        <time>2022-11-20T12:53:54.000Z</time>
      </trkpt>
      <trkpt lat="45.83471" lon="4.68486">
        <ele>285.46457</ele>
        <time>2022-11-20T12:53:55.000Z</time>
      </trkpt>
      <trkpt lat="45.83478" lon="4.68481">
        <ele>285.30441</ele>
        <time>2022-11-20T12:53:56.000Z</time>
      </trkpt>
      <trkpt lat="45.83485" lon="4.68476">
        <ele>285.12259</ele>
        <time>2022-11-20T12:53:57.000Z</time>
      </trkpt>
      <trkpt lat="45.83491" lon="4.68471">
        <ele>284.92142</ele>
        <time>2022-11-20T12:53:58.000Z</time>
      </trkpt>
      <trkpt lat="45.83498" lon="4.68466">
        <ele>284.69</ele>
        <time>2022-11-20T12:53:59.000Z</time>
      </trkpt>
      <trkpt lat="45.83505" lon="4.68463">
        <ele>284.33603</ele>
        <time>2022-11-20T12:54:00.000Z</time>
      </trkpt>
      <trkpt lat="45.83512" lon="4.68458">
        <ele>283.98425</ele>
        <time>2022-11-20T12:54:01.000Z</time>
      </trkpt>
      <trkpt lat="45.83518" lon="4.68453">
        <ele>283.66376</ele>
        <time>2022-11-20T12:54:02.000Z</time>
      </trkpt>
      <trkpt lat="45.83525" lon="4.68449">
        <ele>283.34552</ele>
        <time>2022-11-20T12:54:03.000Z</time>
      </trkpt>
      <trkpt lat="45.83531" lon="4.68445">
        <ele>283.00726</ele>
        <time>2022-11-20T12:54:04.000Z</time>
      </trkpt>
      <trkpt lat="45.83537" lon="4.6844">
        <ele>282.67474</ele>
        <time>2022-11-20T12:54:05.000Z</time>
      </trkpt>
      <trkpt lat="45.83544" lon="4.68435">
        <ele>282.33136</ele>
        <time>2022-11-20T12:54:06.000Z</time>
      </trkpt>
      <trkpt lat="45.8355" lon="4.6843">
        <ele>281.96381</ele>
        <time>2022-11-20T12:54:07.000Z</time>
      </trkpt>
      <trkpt lat="45.83555" lon="4.68424">
        <ele>281.62323</ele>
        <time>2022-11-20T12:54:08.000Z</time>
      </trkpt>
      <trkpt lat="45.8356" lon="4.68416">
        <ele>281.24414</ele>
        <time>2022-11-20T12:54:09.000Z</time>
      </trkpt>
      <trkpt lat="45.83565" lon="4.68408">
        <ele>280.8493</ele>
        <time>2022-11-20T12:54:10.000Z</time>
      </trkpt>
      <trkpt lat="45.8357" lon="4.68401">
        <ele>280.91232</ele>
        <time>2022-11-20T12:54:11.000Z</time>
      </trkpt>
      <trkpt lat="45.83574" lon="4.68396">
        <ele>280.68536</ele>
        <time>2022-11-20T12:54:12.000Z</time>
      </trkpt>
      <trkpt lat="45.83578" lon="4.68391">
        <ele>280.42099</ele>
        <time>2022-11-20T12:54:13.000Z</time>
      </trkpt>
      <trkpt lat="45.8358" lon="4.68386">
        <ele>280.16974</ele>
        <time>2022-11-20T12:54:14.000Z</time>
      </trkpt>
      <trkpt lat="45.83582" lon="4.68381">
        <ele>279.95978</ele>
        <time>2022-11-20T12:54:15.000Z</time>
      </trkpt>
      <trkpt lat="45.83582" lon="4.68375">
        <ele>279.78745</ele>
        <time>2022-11-20T12:54:16.000Z</time>
      </trkpt>
      <trkpt lat="45.83583" lon="4.6837">
        <ele>279.6131</ele>
        <time>2022-11-20T12:54:17.000Z</time>
      </trkpt>
      <trkpt lat="45.83584" lon="4.68365">
        <ele>279.45059</ele>
        <time>2022-11-20T12:54:18.000Z</time>
      </trkpt>
      <trkpt lat="45.83583" lon="4.68358">
        <ele>279.2912</ele>
        <time>2022-11-20T12:54:19.000Z</time>
      </trkpt>
      <trkpt lat="45.83583" lon="4.68352">
        <ele>279.18085</ele>
        <time>2022-11-20T12:54:20.000Z</time>
      </trkpt>
      <trkpt lat="45.83583" lon="4.68346">
        <ele>279.07224</ele>
        <time>2022-11-20T12:54:21.000Z</time>
      </trkpt>
      <trkpt lat="45.83583" lon="4.6834">
        <ele>278.96112</ele>
        <time>2022-11-20T12:54:22.000Z</time>
      </trkpt>
      <trkpt lat="45.83582" lon="4.68334">
        <ele>278.86157</ele>
        <time>2022-11-20T12:54:23.000Z</time>
      </trkpt>
      <trkpt lat="45.83582" lon="4.68328">
        <ele>278.77832</ele>
        <time>2022-11-20T12:54:24.000Z</time>
      </trkpt>
      <trkpt lat="45.83582" lon="4.68322">
        <ele>278.70706</ele>
        <time>2022-11-20T12:54:25.000Z</time>
      </trkpt>
      <trkpt lat="45.83582" lon="4.68317">
        <ele>278.6734</ele>
        <time>2022-11-20T12:54:26.000Z</time>
      </trkpt>
      <trkpt lat="45.83582" lon="4.68311">
        <ele>278.67072</ele>
        <time>2022-11-20T12:54:27.000Z</time>
      </trkpt>
      <trkpt lat="45.83582" lon="4.68306">
        <ele>278.63092</ele>
        <time>2022-11-20T12:54:28.000Z</time>
      </trkpt>
      <trkpt lat="45.83583" lon="4.68301">
        <ele>278.57953</ele>
        <time>2022-11-20T12:54:29.000Z</time>
      </trkpt>
      <trkpt lat="45.83584" lon="4.68297">
        <ele>278.54141</ele>
        <time>2022-11-20T12:54:30.000Z</time>
      </trkpt>
      <trkpt lat="45.83585" lon="4.68292">
        <ele>278.30197</ele>
        <time>2022-11-20T12:54:31.000Z</time>
      </trkpt>
      <trkpt lat="45.83587" lon="4.68287">
        <ele>278.29514</ele>
        <time>2022-11-20T12:54:32.000Z</time>
      </trkpt>
      <trkpt lat="45.83588" lon="4.68283">
        <ele>278.33041</ele>
        <time>2022-11-20T12:54:33.000Z</time>
      </trkpt>
      <trkpt lat="45.8359" lon="4.6828">
        <ele>278.38293</ele>
        <time>2022-11-20T12:54:34.000Z</time>
      </trkpt>
      <trkpt lat="45.83591" lon="4.68278">
        <ele>278.43918</ele>
        <time>2022-11-20T12:54:35.000Z</time>
      </trkpt>
      <trkpt lat="45.83594" lon="4.68278">
        <ele>278.4494</ele>
        <time>2022-11-20T12:54:36.000Z</time>
      </trkpt>
      <trkpt lat="45.83596" lon="4.6828">
        <ele>278.48798</ele>
        <time>2022-11-20T12:54:37.000Z</time>
      </trkpt>
      <trkpt lat="45.83599" lon="4.68284">
        <ele>278.52319</ele>
        <time>2022-11-20T12:54:38.000Z</time>
      </trkpt>
      <trkpt lat="45.836" lon="4.6829">
        <ele>278.564</ele>
        <time>2022-11-20T12:54:39.000Z</time>
      </trkpt>
      <trkpt lat="45.83601" lon="4.68295">
        <ele>278.62027</ele>
        <time>2022-11-20T12:54:40.000Z</time>
      </trkpt>
      <trkpt lat="45.83602" lon="4.683">
        <ele>278.69183</ele>
        <time>2022-11-20T12:54:41.000Z</time>
      </trkpt>
      <trkpt lat="45.83605" lon="4.68307">
        <ele>278.76541</ele>
        <time>2022-11-20T12:54:42.000Z</time>
      </trkpt>
      <trkpt lat="45.83608" lon="4.68312">
        <ele>278.83154</ele>
        <time>2022-11-20T12:54:43.000Z</time>
      </trkpt>
      <trkpt lat="45.83611" lon="4.68318">
        <ele>278.87524</ele>
        <time>2022-11-20T12:54:44.000Z</time>
      </trkpt>
      <trkpt lat="45.83614" lon="4.68323">
        <ele>278.90924</ele>
        <time>2022-11-20T12:54:45.000Z</time>
      </trkpt>
      <trkpt lat="45.83618" lon="4.68329">
        <ele>278.96484</ele>
        <time>2022-11-20T12:54:46.000Z</time>
      </trkpt>
      <trkpt lat="45.8362" lon="4.68334">
        <ele>278.99103</ele>
        <time>2022-11-20T12:54:47.000Z</time>
      </trkpt>
      <trkpt lat="45.83623" lon="4.6834">
        <ele>279.02295</ele>
        <time>2022-11-20T12:54:48.000Z</time>
      </trkpt>
      <trkpt lat="45.83626" lon="4.68346">
        <ele>279.19992</ele>
        <time>2022-11-20T12:54:49.000Z</time>
      </trkpt>
      <trkpt lat="45.83629" lon="4.68351">
        <ele>279.24106</ele>
        <time>2022-11-20T12:54:50.000Z</time>
      </trkpt>
      <trkpt lat="45.83632" lon="4.68356">
        <ele>279.27805</ele>
        <time>2022-11-20T12:54:51.000Z</time>
      </trkpt>
      <trkpt lat="45.83636" lon="4.68361">
        <ele>279.32196</ele>
        <time>2022-11-20T12:54:52.000Z</time>
      </trkpt>
      <trkpt lat="45.83639" lon="4.68367">
        <ele>279.353</ele>
        <time>2022-11-20T12:54:53.000Z</time>
      </trkpt>
      <trkpt lat="45.83642" lon="4.68373">
        <ele>279.39175</ele>
        <time>2022-11-20T12:54:54.000Z</time>
      </trkpt>
      <trkpt lat="45.83645" lon="4.68378">
        <ele>279.45242</ele>
        <time>2022-11-20T12:54:55.000Z</time>
      </trkpt>
      <trkpt lat="45.83648" lon="4.68384">
        <ele>279.51807</ele>
        <time>2022-11-20T12:54:56.000Z</time>
      </trkpt>
      <trkpt lat="45.83651" lon="4.6839">
        <ele>279.63428</ele>
        <time>2022-11-20T12:54:57.000Z</time>
      </trkpt>
      <trkpt lat="45.83654" lon="4.68396">
        <ele>279.76093</ele>
        <time>2022-11-20T12:54:58.000Z</time>
      </trkpt>
      <trkpt lat="45.83657" lon="4.68402">
        <ele>279.88358</ele>
        <time>2022-11-20T12:54:59.000Z</time>
      </trkpt>
      <trkpt lat="45.8366" lon="4.68407">
        <ele>280.1062</ele>
        <time>2022-11-20T12:55:00.000Z</time>
      </trkpt>
      <trkpt lat="45.83663" lon="4.68414">
        <ele>280.32205</ele>
        <time>2022-11-20T12:55:01.000Z</time>
      </trkpt>
      <trkpt lat="45.83666" lon="4.68419">
        <ele>280.51773</ele>
        <time>2022-11-20T12:55:02.000Z</time>
      </trkpt>
      <trkpt lat="45.83669" lon="4.68425">
        <ele>280.72803</ele>
        <time>2022-11-20T12:55:03.000Z</time>
      </trkpt>
      <trkpt lat="45.83672" lon="4.68431">
        <ele>281.04114</ele>
        <time>2022-11-20T12:55:04.000Z</time>
      </trkpt>
      <trkpt lat="45.83676" lon="4.68436">
        <ele>281.36264</ele>
        <time>2022-11-20T12:55:05.000Z</time>
      </trkpt>
      <trkpt lat="45.83679" lon="4.68442">
        <ele>281.40338</ele>
        <time>2022-11-20T12:55:06.000Z</time>
      </trkpt>
      <trkpt lat="45.83682" lon="4.68447">
        <ele>281.49957</ele>
        <time>2022-11-20T12:55:07.000Z</time>
      </trkpt>
      <trkpt lat="45.83686" lon="4.68452">
        <ele>281.5842</ele>
        <time>2022-11-20T12:55:08.000Z</time>
      </trkpt>
      <trkpt lat="45.8369" lon="4.68454">
        <ele>281.53799</ele>
        <time>2022-11-20T12:55:09.000Z</time>
      </trkpt>
      <trkpt lat="45.83694" lon="4.68456">
        <ele>281.63586</ele>
        <time>2022-11-20T12:55:10.000Z</time>
      </trkpt>
      <trkpt lat="45.83698" lon="4.68454">
        <ele>281.7558</ele>
        <time>2022-11-20T12:55:11.000Z</time>
      </trkpt>
      <trkpt lat="45.83702" lon="4.6845">
        <ele>281.86597</ele>
        <time>2022-11-20T12:55:12.000Z</time>
      </trkpt>
      <trkpt lat="45.83704" lon="4.68444">
        <ele>281.9549</ele>
        <time>2022-11-20T12:55:13.000Z</time>
      </trkpt>
      <trkpt lat="45.83706" lon="4.68437">
        <ele>281.97891</ele>
        <time>2022-11-20T12:55:14.000Z</time>
      </trkpt>
      <trkpt lat="45.83709" lon="4.6843">
        <ele>282.11359</ele>
        <time>2022-11-20T12:55:15.000Z</time>
      </trkpt>
      <trkpt lat="45.83713" lon="4.68423">
        <ele>282.23569</ele>
        <time>2022-11-20T12:55:16.000Z</time>
      </trkpt>
      <trkpt lat="45.83718" lon="4.68415">
        <ele>282.38428</ele>
        <time>2022-11-20T12:55:17.000Z</time>
      </trkpt>
      <trkpt lat="45.83722" lon="4.68406">
        <ele>282.21423</ele>
        <time>2022-11-20T12:55:18.000Z</time>
      </trkpt>
      <trkpt lat="45.83727" lon="4.68397">
        <ele>282.05228</ele>
        <time>2022-11-20T12:55:19.000Z</time>
      </trkpt>
      <trkpt lat="45.83732" lon="4.68388">
        <ele>281.74475</ele>
        <time>2022-11-20T12:55:20.000Z</time>
      </trkpt>
      <trkpt lat="45.83737" lon="4.68379">
        <ele>281.39227</ele>
        <time>2022-11-20T12:55:21.000Z</time>
      </trkpt>
      <trkpt lat="45.83743" lon="4.6837">
        <ele>281.02979</ele>
        <time>2022-11-20T12:55:22.000Z</time>
      </trkpt>
      <trkpt lat="45.83749" lon="4.68361">
        <ele>280.63919</ele>
        <time>2022-11-20T12:55:23.000Z</time>
      </trkpt>
      <trkpt lat="45.83755" lon="4.6835">
        <ele>280.1308</ele>
        <time>2022-11-20T12:55:24.000Z</time>
      </trkpt>
      <trkpt lat="45.83761" lon="4.6834">
        <ele>279.57309</ele>
        <time>2022-11-20T12:55:25.000Z</time>
      </trkpt>
      <trkpt lat="45.83767" lon="4.68329">
        <ele>279.24075</ele>
        <time>2022-11-20T12:55:26.000Z</time>
      </trkpt>
      <trkpt lat="45.83774" lon="4.68318">
        <ele>278.84393</ele>
        <time>2022-11-20T12:55:27.000Z</time>
      </trkpt>
      <trkpt lat="45.8378" lon="4.68307">
        <ele>278.4122</ele>
        <time>2022-11-20T12:55:28.000Z</time>
      </trkpt>
      <trkpt lat="45.83787" lon="4.68295">
        <ele>277.94409</ele>
        <time>2022-11-20T12:55:29.000Z</time>
      </trkpt>
      <trkpt lat="45.83793" lon="4.68286">
        <ele>277.42969</ele>
        <time>2022-11-20T12:55:30.000Z</time>
      </trkpt>
      <trkpt lat="45.83799" lon="4.68276">
        <ele>276.87207</ele>
        <time>2022-11-20T12:55:31.000Z</time>
      </trkpt>
      <trkpt lat="45.83807" lon="4.68269">
        <ele>276.30682</ele>
        <time>2022-11-20T12:55:32.000Z</time>
      </trkpt>
      <trkpt lat="45.83814" lon="4.68262">
        <ele>275.72809</ele>
        <time>2022-11-20T12:55:33.000Z</time>
      </trkpt>
      <trkpt lat="45.83823" lon="4.68257">
        <ele>275.13422</ele>
        <time>2022-11-20T12:55:34.000Z</time>
      </trkpt>
      <trkpt lat="45.83832" lon="4.68255">
        <ele>274.42114</ele>
        <time>2022-11-20T12:55:35.000Z</time>
      </trkpt>
      <trkpt lat="45.8384" lon="4.68254">
        <ele>273.68951</ele>
        <time>2022-11-20T12:55:36.000Z</time>
      </trkpt>
      <trkpt lat="45.83849" lon="4.68253">
        <ele>272.83789</ele>
        <time>2022-11-20T12:55:37.000Z</time>
      </trkpt>
      <trkpt lat="45.83858" lon="4.68252">
        <ele>272.27805</ele>
        <time>2022-11-20T12:55:38.000Z</time>
      </trkpt>
      <trkpt lat="45.83867" lon="4.68252">
        <ele>271.70938</ele>
        <time>2022-11-20T12:55:39.000Z</time>
      </trkpt>
      <trkpt lat="45.83875" lon="4.68252">
        <ele>271.1507</ele>
        <time>2022-11-20T12:55:40.000Z</time>
      </trkpt>
      <trkpt lat="45.83884" lon="4.68251">
        <ele>270.64737</ele>
        <time>2022-11-20T12:55:41.000Z</time>
      </trkpt>
      <trkpt lat="45.83892" lon="4.68252">
        <ele>270.16266</ele>
        <time>2022-11-20T12:55:42.000Z</time>
      </trkpt>
      <trkpt lat="45.83899" lon="4.68253">
        <ele>269.72928</ele>
        <time>2022-11-20T12:55:43.000Z</time>
      </trkpt>
      <trkpt lat="45.83906" lon="4.68254">
        <ele>269.36029</ele>
        <time>2022-11-20T12:55:44.000Z</time>
      </trkpt>
      <trkpt lat="45.83913" lon="4.68254">
        <ele>269.02716</ele>
        <time>2022-11-20T12:55:45.000Z</time>
      </trkpt>
      <trkpt lat="45.83919" lon="4.68254">
        <ele>268.7312</ele>
        <time>2022-11-20T12:55:46.000Z</time>
      </trkpt>
      <trkpt lat="45.83926" lon="4.68254">
        <ele>268.43625</ele>
        <time>2022-11-20T12:55:47.000Z</time>
      </trkpt>
      <trkpt lat="45.83932" lon="4.68253">
        <ele>268.17709</ele>
        <time>2022-11-20T12:55:48.000Z</time>
      </trkpt>
      <trkpt lat="45.83939" lon="4.68253">
        <ele>267.96683</ele>
        <time>2022-11-20T12:55:49.000Z</time>
      </trkpt>
      <trkpt lat="45.83945" lon="4.68253">
        <ele>267.79584</ele>
        <time>2022-11-20T12:55:50.000Z</time>
      </trkpt>
      <trkpt lat="45.83949" lon="4.68254">
        <ele>267.61212</ele>
        <time>2022-11-20T12:55:51.000Z</time>
      </trkpt>
      <trkpt lat="45.83955" lon="4.68254">
        <ele>267.59918</ele>
        <time>2022-11-20T12:55:52.000Z</time>
      </trkpt>
      <trkpt lat="45.83961" lon="4.68253">
        <ele>267.58704</ele>
        <time>2022-11-20T12:55:53.000Z</time>
      </trkpt>
      <trkpt lat="45.83967" lon="4.68253">
        <ele>267.55011</ele>
        <time>2022-11-20T12:55:54.000Z</time>
      </trkpt>
      <trkpt lat="45.83972" lon="4.68253">
        <ele>267.50842</ele>
        <time>2022-11-20T12:55:55.000Z</time>
      </trkpt>
      <trkpt lat="45.83978" lon="4.68253">
        <ele>267.50995</ele>
        <time>2022-11-20T12:55:56.000Z</time>
      </trkpt>
      <trkpt lat="45.83984" lon="4.68253">
        <ele>267.53717</ele>
        <time>2022-11-20T12:55:57.000Z</time>
      </trkpt>
      <trkpt lat="45.8399" lon="4.68253">
        <ele>267.56091</ele>
        <time>2022-11-20T12:55:58.000Z</time>
      </trkpt>
      <trkpt lat="45.83996" lon="4.68253">
        <ele>267.56635</ele>
        <time>2022-11-20T12:55:59.000Z</time>
      </trkpt>
      <trkpt lat="45.84001" lon="4.68253">
        <ele>267.80542</ele>
        <time>2022-11-20T12:56:00.000Z</time>
      </trkpt>
      <trkpt lat="45.84006" lon="4.68253">
        <ele>268.02856</ele>
        <time>2022-11-20T12:56:01.000Z</time>
      </trkpt>
      <trkpt lat="45.84012" lon="4.68253">
        <ele>268.26163</ele>
        <time>2022-11-20T12:56:02.000Z</time>
      </trkpt>
      <trkpt lat="45.84018" lon="4.68254">
        <ele>268.47723</ele>
        <time>2022-11-20T12:56:03.000Z</time>
      </trkpt>
      <trkpt lat="45.84024" lon="4.68256">
        <ele>268.78278</ele>
        <time>2022-11-20T12:56:04.000Z</time>
      </trkpt>
      <trkpt lat="45.8403" lon="4.68257">
        <ele>269.08612</ele>
        <time>2022-11-20T12:56:05.000Z</time>
      </trkpt>
      <trkpt lat="45.84036" lon="4.68259">
        <ele>268.97232</ele>
        <time>2022-11-20T12:56:06.000Z</time>
      </trkpt>
      <trkpt lat="45.84042" lon="4.6826">
        <ele>268.98984</ele>
        <time>2022-11-20T12:56:07.000Z</time>
      </trkpt>
      <trkpt lat="45.84048" lon="4.68261">
        <ele>269.00787</ele>
        <time>2022-11-20T12:56:08.000Z</time>
      </trkpt>
      <trkpt lat="45.84054" lon="4.68263">
        <ele>269.0311</ele>
        <time>2022-11-20T12:56:09.000Z</time>
      </trkpt>
      <trkpt lat="45.84061" lon="4.68264">
        <ele>269.03525</ele>
        <time>2022-11-20T12:56:10.000Z</time>
      </trkpt>
      <trkpt lat="45.84067" lon="4.68264">
        <ele>269.04523</ele>
        <time>2022-11-20T12:56:11.000Z</time>
      </trkpt>
      <trkpt lat="45.84073" lon="4.68266">
        <ele>268.90262</ele>
        <time>2022-11-20T12:56:12.000Z</time>
      </trkpt>
      <trkpt lat="45.84079" lon="4.68267">
        <ele>268.76163</ele>
        <time>2022-11-20T12:56:13.000Z</time>
      </trkpt>
      <trkpt lat="45.84086" lon="4.68268">
        <ele>268.70059</ele>
        <time>2022-11-20T12:56:14.000Z</time>
      </trkpt>
      <trkpt lat="45.84092" lon="4.68269">
        <ele>268.61505</ele>
        <time>2022-11-20T12:56:15.000Z</time>
      </trkpt>
      <trkpt lat="45.84099" lon="4.68269">
        <ele>268.49994</ele>
        <time>2022-11-20T12:56:16.000Z</time>
      </trkpt>
      <trkpt lat="45.84106" lon="4.6827">
        <ele>268.36127</ele>
        <time>2022-11-20T12:56:17.000Z</time>
      </trkpt>
      <trkpt lat="45.84113" lon="4.68271">
        <ele>268.21942</ele>
        <time>2022-11-20T12:56:18.000Z</time>
      </trkpt>
      <trkpt lat="45.8412" lon="4.68271">
        <ele>268.10034</ele>
        <time>2022-11-20T12:56:19.000Z</time>
      </trkpt>
      <trkpt lat="45.84127" lon="4.68272">
        <ele>267.74298</ele>
        <time>2022-11-20T12:56:20.000Z</time>
      </trkpt>
      <trkpt lat="45.84133" lon="4.68275">
        <ele>267.38065</ele>
        <time>2022-11-20T12:56:21.000Z</time>
      </trkpt>
      <trkpt lat="45.84139" lon="4.68278">
        <ele>267.05548</ele>
        <time>2022-11-20T12:56:22.000Z</time>
      </trkpt>
      <trkpt lat="45.84144" lon="4.68282">
        <ele>266.16544</ele>
        <time>2022-11-20T12:56:23.000Z</time>
      </trkpt>
      <trkpt lat="45.84147" lon="4.68284">
        <ele>265.22821</ele>
        <time>2022-11-20T12:56:24.000Z</time>
      </trkpt>
      <trkpt lat="45.84153" lon="4.68288">
        <ele>264.27811</ele>
        <time>2022-11-20T12:56:25.000Z</time>
      </trkpt>
      <trkpt lat="45.8416" lon="4.68292">
        <ele>263.75067</ele>
        <time>2022-11-20T12:56:26.000Z</time>
      </trkpt>
      <trkpt lat="45.84166" lon="4.68296">
        <ele>263.14447</ele>
        <time>2022-11-20T12:56:27.000Z</time>
      </trkpt>
      <trkpt lat="45.84172" lon="4.683">
        <ele>262.54669</ele>
        <time>2022-11-20T12:56:28.000Z</time>
      </trkpt>
      <trkpt lat="45.84178" lon="4.68304">
        <ele>261.96533</ele>
        <time>2022-11-20T12:56:29.000Z</time>
      </trkpt>
      <trkpt lat="45.84183" lon="4.68307">
        <ele>261.37909</ele>
        <time>2022-11-20T12:56:30.000Z</time>
      </trkpt>
      <trkpt lat="45.84188" lon="4.68312">
        <ele>260.81558</ele>
        <time>2022-11-20T12:56:31.000Z</time>
      </trkpt>
      <trkpt lat="45.84192" lon="4.68316">
        <ele>260.33563</ele>
        <time>2022-11-20T12:56:32.000Z</time>
      </trkpt>
      <trkpt lat="45.84198" lon="4.68319">
        <ele>259.8808</ele>
        <time>2022-11-20T12:56:33.000Z</time>
      </trkpt>
      <trkpt lat="45.84203" lon="4.68322">
        <ele>259.4339</ele>
        <time>2022-11-20T12:56:34.000Z</time>
      </trkpt>
      <trkpt lat="45.84208" lon="4.68322">
        <ele>259.00909</ele>
        <time>2022-11-20T12:56:35.000Z</time>
      </trkpt>
      <trkpt lat="45.84214" lon="4.68323">
        <ele>258.63782</ele>
        <time>2022-11-20T12:56:36.000Z</time>
      </trkpt>
      <trkpt lat="45.8422" lon="4.68326">
        <ele>258.34171</ele>
        <time>2022-11-20T12:56:37.000Z</time>
      </trkpt>
      <trkpt lat="45.84225" lon="4.68325">
        <ele>258.08997</ele>
        <time>2022-11-20T12:56:38.000Z</time>
      </trkpt>
      <trkpt lat="45.84231" lon="4.68327">
        <ele>257.86032</ele>
        <time>2022-11-20T12:56:39.000Z</time>
      </trkpt>
      <trkpt lat="45.84237" lon="4.68327">
        <ele>257.51773</ele>
        <time>2022-11-20T12:56:40.000Z</time>
      </trkpt>
      <trkpt lat="45.84244" lon="4.68326">
        <ele>257.22012</ele>
        <time>2022-11-20T12:56:41.000Z</time>
      </trkpt>
      <trkpt lat="45.84251" lon="4.68325">
        <ele>256.88345</ele>
        <time>2022-11-20T12:56:42.000Z</time>
      </trkpt>
      <trkpt lat="45.84258" lon="4.68325">
        <ele>257.07809</ele>
        <time>2022-11-20T12:56:43.000Z</time>
      </trkpt>
      <trkpt lat="45.84265" lon="4.68323">
        <ele>257.20743</ele>
        <time>2022-11-20T12:56:44.000Z</time>
      </trkpt>
      <trkpt lat="45.84271" lon="4.6832">
        <ele>257.3537</ele>
        <time>2022-11-20T12:56:45.000Z</time>
      </trkpt>
      <trkpt lat="45.84278" lon="4.68318">
        <ele>257.48798</ele>
        <time>2022-11-20T12:56:46.000Z</time>
      </trkpt>
      <trkpt lat="45.84284" lon="4.68318">
        <ele>258.40625</ele>
        <time>2022-11-20T12:56:47.000Z</time>
      </trkpt>
      <trkpt lat="45.84291" lon="4.68321">
        <ele>259.14517</ele>
        <time>2022-11-20T12:56:48.000Z</time>
      </trkpt>
      <trkpt lat="45.84296" lon="4.68324">
        <ele>259.88812</ele>
        <time>2022-11-20T12:56:49.000Z</time>
      </trkpt>
      <trkpt lat="45.84302" lon="4.68329">
        <ele>260.68118</ele>
        <time>2022-11-20T12:56:50.000Z</time>
      </trkpt>
      <trkpt lat="45.84308" lon="4.68332">
        <ele>261.50018</ele>
        <time>2022-11-20T12:56:51.000Z</time>
      </trkpt>
      <trkpt lat="45.84313" lon="4.68339">
        <ele>262.21918</ele>
        <time>2022-11-20T12:56:52.000Z</time>
      </trkpt>
      <trkpt lat="45.84318" lon="4.68342">
        <ele>262.86954</ele>
        <time>2022-11-20T12:56:53.000Z</time>
      </trkpt>
      <trkpt lat="45.84323" lon="4.68346">
        <ele>263.73566</ele>
        <time>2022-11-20T12:56:54.000Z</time>
      </trkpt>
      <trkpt lat="45.84328" lon="4.6835">
        <ele>264.63028</ele>
        <time>2022-11-20T12:56:55.000Z</time>
      </trkpt>
      <trkpt lat="45.84334" lon="4.68356">
        <ele>265.41595</ele>
        <time>2022-11-20T12:56:56.000Z</time>
      </trkpt>
      <trkpt lat="45.84338" lon="4.6836">
        <ele>266.07382</ele>
        <time>2022-11-20T12:56:57.000Z</time>
      </trkpt>
      <trkpt lat="45.84342" lon="4.68364">
        <ele>266.76071</ele>
        <time>2022-11-20T12:56:58.000Z</time>
      </trkpt>
      <trkpt lat="45.84347" lon="4.68368">
        <ele>267.49423</ele>
        <time>2022-11-20T12:56:59.000Z</time>
      </trkpt>
      <trkpt lat="45.84352" lon="4.6837">
        <ele>268.40253</ele>
        <time>2022-11-20T12:57:00.000Z</time>
      </trkpt>
      <trkpt lat="45.84355" lon="4.68374">
        <ele>269.2023</ele>
        <time>2022-11-20T12:57:01.000Z</time>
      </trkpt>
      <trkpt lat="45.8436" lon="4.68379">
        <ele>269.90762</ele>
        <time>2022-11-20T12:57:02.000Z</time>
      </trkpt>
      <trkpt lat="45.84364" lon="4.68384">
        <ele>270.56122</ele>
        <time>2022-11-20T12:57:03.000Z</time>
      </trkpt>
      <trkpt lat="45.84369" lon="4.68388">
        <ele>271.10138</ele>
        <time>2022-11-20T12:57:04.000Z</time>
      </trkpt>
      <trkpt lat="45.84373" lon="4.68392">
        <ele>271.62927</ele>
        <time>2022-11-20T12:57:05.000Z</time>
      </trkpt>
      <trkpt lat="45.84377" lon="4.68396">
        <ele>272.16083</ele>
        <time>2022-11-20T12:57:06.000Z</time>
      </trkpt>
      <trkpt lat="45.84381" lon="4.684">
        <ele>271.8945</ele>
        <time>2022-11-20T12:57:07.000Z</time>
      </trkpt>
      <trkpt lat="45.84386" lon="4.68405">
        <ele>271.79529</ele>
        <time>2022-11-20T12:57:08.000Z</time>
      </trkpt>
      <trkpt lat="45.84389" lon="4.68409">
        <ele>271.66913</ele>
        <time>2022-11-20T12:57:09.000Z</time>
      </trkpt>
      <trkpt lat="45.84394" lon="4.68412">
        <ele>271.53299</ele>
        <time>2022-11-20T12:57:10.000Z</time>
      </trkpt>
      <trkpt lat="45.84398" lon="4.68415">
        <ele>271.39401</ele>
        <time>2022-11-20T12:57:11.000Z</time>
      </trkpt>
      <trkpt lat="45.84402" lon="4.6842">
        <ele>271.2796</ele>
        <time>2022-11-20T12:57:12.000Z</time>
      </trkpt>
      <trkpt lat="45.84407" lon="4.68425">
        <ele>271.23074</ele>
        <time>2022-11-20T12:57:13.000Z</time>
      </trkpt>
      <trkpt lat="45.84411" lon="4.6843">
        <ele>270.99612</ele>
        <time>2022-11-20T12:57:14.000Z</time>
      </trkpt>
      <trkpt lat="45.84416" lon="4.68436">
        <ele>270.68552</ele>
        <time>2022-11-20T12:57:15.000Z</time>
      </trkpt>
      <trkpt lat="45.84419" lon="4.68441">
        <ele>270.46979</ele>
        <time>2022-11-20T12:57:16.000Z</time>
      </trkpt>
      <trkpt lat="45.84423" lon="4.68446">
        <ele>270.29279</ele>
        <time>2022-11-20T12:57:17.000Z</time>
      </trkpt>
      <trkpt lat="45.84428" lon="4.68451">
        <ele>270.04642</ele>
        <time>2022-11-20T12:57:18.000Z</time>
      </trkpt>
      <trkpt lat="45.84433" lon="4.68456">
        <ele>269.3714</ele>
        <time>2022-11-20T12:57:19.000Z</time>
      </trkpt>
      <trkpt lat="45.84436" lon="4.68462">
        <ele>268.78574</ele>
        <time>2022-11-20T12:57:20.000Z</time>
      </trkpt>
      <trkpt lat="45.84441" lon="4.68467">
        <ele>268.28616</ele>
        <time>2022-11-20T12:57:21.000Z</time>
      </trkpt>
      <trkpt lat="45.84443" lon="4.68472">
        <ele>267.89514</ele>
        <time>2022-11-20T12:57:22.000Z</time>
      </trkpt>
      <trkpt lat="45.84446" lon="4.68478">
        <ele>267.55856</ele>
        <time>2022-11-20T12:57:23.000Z</time>
      </trkpt>
      <trkpt lat="45.84449" lon="4.68483">
        <ele>267.33203</ele>
        <time>2022-11-20T12:57:24.000Z</time>
      </trkpt>
      <trkpt lat="45.8445" lon="4.68488">
        <ele>267.27448</ele>
        <time>2022-11-20T12:57:25.000Z</time>
      </trkpt>
      <trkpt lat="45.84453" lon="4.68494">
        <ele>267.26025</ele>
        <time>2022-11-20T12:57:26.000Z</time>
      </trkpt>
      <trkpt lat="45.84454" lon="4.685">
        <ele>267.38156</ele>
        <time>2022-11-20T12:57:27.000Z</time>
      </trkpt>
      <trkpt lat="45.84456" lon="4.68505">
        <ele>267.60052</ele>
        <time>2022-11-20T12:57:28.000Z</time>
      </trkpt>
      <trkpt lat="45.84457" lon="4.68511">
        <ele>267.8584</ele>
        <time>2022-11-20T12:57:29.000Z</time>
      </trkpt>
      <trkpt lat="45.84459" lon="4.68515">
        <ele>268.07523</ele>
        <time>2022-11-20T12:57:30.000Z</time>
      </trkpt>
      <trkpt lat="45.84461" lon="4.6852">
        <ele>268.19476</ele>
        <time>2022-11-20T12:57:31.000Z</time>
      </trkpt>
      <trkpt lat="45.84463" lon="4.68524">
        <ele>268.24518</ele>
        <time>2022-11-20T12:57:32.000Z</time>
      </trkpt>
      <trkpt lat="45.84464" lon="4.68529">
        <ele>268.55023</ele>
        <time>2022-11-20T12:57:33.000Z</time>
      </trkpt>
      <trkpt lat="45.84463" lon="4.68534">
        <ele>268.97043</ele>
        <time>2022-11-20T12:57:34.000Z</time>
      </trkpt>
      <trkpt lat="45.84464" lon="4.68537">
        <ele>269.40326</ele>
        <time>2022-11-20T12:57:35.000Z</time>
      </trkpt>
      <trkpt lat="45.84466" lon="4.68541">
        <ele>269.64044</ele>
        <time>2022-11-20T12:57:36.000Z</time>
      </trkpt>
      <trkpt lat="45.84468" lon="4.68546">
        <ele>269.97589</ele>
        <time>2022-11-20T12:57:37.000Z</time>
      </trkpt>
      <trkpt lat="45.8447" lon="4.6855">
        <ele>270.1467</ele>
        <time>2022-11-20T12:57:38.000Z</time>
      </trkpt>
      <trkpt lat="45.84472" lon="4.68554">
        <ele>270.27908</ele>
        <time>2022-11-20T12:57:39.000Z</time>
      </trkpt>
      <trkpt lat="45.84475" lon="4.68557">
        <ele>270.42297</ele>
        <time>2022-11-20T12:57:40.000Z</time>
      </trkpt>
      <trkpt lat="45.84478" lon="4.68561">
        <ele>270.48322</ele>
        <time>2022-11-20T12:57:41.000Z</time>
      </trkpt>
      <trkpt lat="45.8448" lon="4.68564">
        <ele>270.6268</ele>
        <time>2022-11-20T12:57:42.000Z</time>
      </trkpt>
      <trkpt lat="45.84483" lon="4.68567">
        <ele>270.91534</ele>
        <time>2022-11-20T12:57:43.000Z</time>
      </trkpt>
      <trkpt lat="45.84485" lon="4.68571">
        <ele>271.27145</ele>
        <time>2022-11-20T12:57:44.000Z</time>
      </trkpt>
      <trkpt lat="45.84487" lon="4.68574">
        <ele>271.45105</ele>
        <time>2022-11-20T12:57:45.000Z</time>
      </trkpt>
      <trkpt lat="45.8449" lon="4.68577">
        <ele>271.44904</ele>
        <time>2022-11-20T12:57:46.000Z</time>
      </trkpt>
      <trkpt lat="45.84492" lon="4.68579">
        <ele>271.35556</ele>
        <time>2022-11-20T12:57:47.000Z</time>
      </trkpt>
      <trkpt lat="45.84495" lon="4.68581">
        <ele>271.19821</ele>
        <time>2022-11-20T12:57:48.000Z</time>
      </trkpt>
      <trkpt lat="45.84498" lon="4.68583">
        <ele>270.96381</ele>
        <time>2022-11-20T12:57:49.000Z</time>
      </trkpt>
      <trkpt lat="45.84502" lon="4.68586">
        <ele>270.6391</ele>
        <time>2022-11-20T12:57:50.000Z</time>
      </trkpt>
      <trkpt lat="45.84505" lon="4.68588">
        <ele>270.35248</ele>
        <time>2022-11-20T12:57:51.000Z</time>
      </trkpt>
      <trkpt lat="45.84508" lon="4.6859">
        <ele>270.10965</ele>
        <time>2022-11-20T12:57:52.000Z</time>
      </trkpt>
      <trkpt lat="45.84511" lon="4.68593">
        <ele>269.55997</ele>
        <time>2022-11-20T12:57:53.000Z</time>
      </trkpt>
      <trkpt lat="45.84515" lon="4.68596">
        <ele>269.24054</ele>
        <time>2022-11-20T12:57:54.000Z</time>
      </trkpt>
      <trkpt lat="45.84521" lon="4.68599">
        <ele>268.9104</ele>
        <time>2022-11-20T12:57:55.000Z</time>
      </trkpt>
      <trkpt lat="45.84525" lon="4.68604">
        <ele>268.63361</ele>
        <time>2022-11-20T12:57:56.000Z</time>
      </trkpt>
      <trkpt lat="45.84529" lon="4.68608">
        <ele>268.32068</ele>
        <time>2022-11-20T12:57:57.000Z</time>
      </trkpt>
      <trkpt lat="45.84533" lon="4.68612">
        <ele>268.11017</ele>
        <time>2022-11-20T12:57:58.000Z</time>
      </trkpt>
      <trkpt lat="45.84537" lon="4.68617">
        <ele>268.31891</ele>
        <time>2022-11-20T12:57:59.000Z</time>
      </trkpt>
      <trkpt lat="45.84541" lon="4.68622">
        <ele>268.35593</ele>
        <time>2022-11-20T12:58:00.000Z</time>
      </trkpt>
      <trkpt lat="45.84545" lon="4.68626">
        <ele>268.45926</ele>
        <time>2022-11-20T12:58:01.000Z</time>
      </trkpt>
      <trkpt lat="45.8455" lon="4.68631">
        <ele>268.46307</ele>
        <time>2022-11-20T12:58:02.000Z</time>
      </trkpt>
      <trkpt lat="45.84555" lon="4.68636">
        <ele>268.33398</ele>
        <time>2022-11-20T12:58:03.000Z</time>
      </trkpt>
      <trkpt lat="45.84559" lon="4.6864">
        <ele>268.12485</ele>
        <time>2022-11-20T12:58:04.000Z</time>
      </trkpt>
      <trkpt lat="45.84563" lon="4.68645">
        <ele>267.9072</ele>
        <time>2022-11-20T12:58:05.000Z</time>
      </trkpt>
      <trkpt lat="45.84569" lon="4.6865">
        <ele>267.97974</ele>
        <time>2022-11-20T12:58:06.000Z</time>
      </trkpt>
      <trkpt lat="45.84576" lon="4.68653">
        <ele>267.48087</ele>
        <time>2022-11-20T12:58:07.000Z</time>
      </trkpt>
      <trkpt lat="45.84582" lon="4.68659">
        <ele>266.98785</ele>
        <time>2022-11-20T12:58:08.000Z</time>
      </trkpt>
      <trkpt lat="45.84589" lon="4.68664">
        <ele>266.48663</ele>
        <time>2022-11-20T12:58:09.000Z</time>
      </trkpt>
      <trkpt lat="45.84595" lon="4.68673">
        <ele>266.03583</ele>
        <time>2022-11-20T12:58:10.000Z</time>
      </trkpt>
      <trkpt lat="45.846" lon="4.68684">
        <ele>265.48038</ele>
        <time>2022-11-20T12:58:11.000Z</time>
      </trkpt>
      <trkpt lat="45.84606" lon="4.68696">
        <ele>264.94632</ele>
        <time>2022-11-20T12:58:12.000Z</time>
      </trkpt>
      <trkpt lat="45.84614" lon="4.68708">
        <ele>264.43124</ele>
        <time>2022-11-20T12:58:13.000Z</time>
      </trkpt>
      <trkpt lat="45.84622" lon="4.68718">
        <ele>263.50214</ele>
        <time>2022-11-20T12:58:14.000Z</time>
      </trkpt>
      <trkpt lat="45.84629" lon="4.68729">
        <ele>262.59567</ele>
        <time>2022-11-20T12:58:15.000Z</time>
      </trkpt>
      <trkpt lat="45.84639" lon="4.68737">
        <ele>261.74854</ele>
        <time>2022-11-20T12:58:16.000Z</time>
      </trkpt>
      <trkpt lat="45.84649" lon="4.68744">
        <ele>260.78595</ele>
        <time>2022-11-20T12:58:17.000Z</time>
      </trkpt>
      <trkpt lat="45.84659" lon="4.68752">
        <ele>259.83978</ele>
        <time>2022-11-20T12:58:18.000Z</time>
      </trkpt>
      <trkpt lat="45.84669" lon="4.68761">
        <ele>258.7981</ele>
        <time>2022-11-20T12:58:19.000Z</time>
      </trkpt>
      <trkpt lat="45.84679" lon="4.68769">
        <ele>257.73639</ele>
        <time>2022-11-20T12:58:20.000Z</time>
      </trkpt>
      <trkpt lat="45.84687" lon="4.68776">
        <ele>256.63388</ele>
        <time>2022-11-20T12:58:21.000Z</time>
      </trkpt>
      <trkpt lat="45.84695" lon="4.68783">
        <ele>255.49863</ele>
        <time>2022-11-20T12:58:22.000Z</time>
      </trkpt>
      <trkpt lat="45.84702" lon="4.68787">
        <ele>254.37251</ele>
        <time>2022-11-20T12:58:23.000Z</time>
      </trkpt>
      <trkpt lat="45.84709" lon="4.68786">
        <ele>253.26729</ele>
        <time>2022-11-20T12:58:24.000Z</time>
      </trkpt>
      <trkpt lat="45.84715" lon="4.68781">
        <ele>252.15034</ele>
        <time>2022-11-20T12:58:25.000Z</time>
      </trkpt>
      <trkpt lat="45.84721" lon="4.68773">
        <ele>250.87027</ele>
        <time>2022-11-20T12:58:26.000Z</time>
      </trkpt>
      <trkpt lat="45.84726" lon="4.68765">
        <ele>250.1115</ele>
        <time>2022-11-20T12:58:27.000Z</time>
      </trkpt>
      <trkpt lat="45.84732" lon="4.68756">
        <ele>249.29871</ele>
        <time>2022-11-20T12:58:28.000Z</time>
      </trkpt>
      <trkpt lat="45.84738" lon="4.68748">
        <ele>248.51596</ele>
        <time>2022-11-20T12:58:29.000Z</time>
      </trkpt>
      <trkpt lat="45.84742" lon="4.68739">
        <ele>247.78458</ele>
        <time>2022-11-20T12:58:30.000Z</time>
      </trkpt>
      <trkpt lat="45.84746" lon="4.6873">
        <ele>247.18289</ele>
        <time>2022-11-20T12:58:31.000Z</time>
      </trkpt>
      <trkpt lat="45.8475" lon="4.68721">
        <ele>246.53854</ele>
        <time>2022-11-20T12:58:32.000Z</time>
      </trkpt>
      <trkpt lat="45.84754" lon="4.68712">
        <ele>245.89201</ele>
        <time>2022-11-20T12:58:33.000Z</time>
      </trkpt>
      <trkpt lat="45.8476" lon="4.68707">
        <ele>245.25708</ele>
        <time>2022-11-20T12:58:34.000Z</time>
      </trkpt>
      <trkpt lat="45.84767" lon="4.68702">
        <ele>244.54268</ele>
        <time>2022-11-20T12:58:35.000Z</time>
      </trkpt>
      <trkpt lat="45.84775" lon="4.68699">
        <ele>243.93742</ele>
        <time>2022-11-20T12:58:36.000Z</time>
      </trkpt>
      <trkpt lat="45.84783" lon="4.68696">
        <ele>243.4279</ele>
        <time>2022-11-20T12:58:37.000Z</time>
      </trkpt>
      <trkpt lat="45.84791" lon="4.68694">
        <ele>242.97049</ele>
        <time>2022-11-20T12:58:38.000Z</time>
      </trkpt>
      <trkpt lat="45.84799" lon="4.68691">
        <ele>242.55444</ele>
        <time>2022-11-20T12:58:39.000Z</time>
      </trkpt>
      <trkpt lat="45.84805" lon="4.6869">
        <ele>242.09184</ele>
        <time>2022-11-20T12:58:40.000Z</time>
      </trkpt>
      <trkpt lat="45.84813" lon="4.68687">
        <ele>241.68448</ele>
        <time>2022-11-20T12:58:41.000Z</time>
      </trkpt>
      <trkpt lat="45.8482" lon="4.68684">
        <ele>241.30444</ele>
        <time>2022-11-20T12:58:42.000Z</time>
      </trkpt>
      <trkpt lat="45.84827" lon="4.68682">
        <ele>240.92741</ele>
        <time>2022-11-20T12:58:43.000Z</time>
      </trkpt>
      <trkpt lat="45.84834" lon="4.6868">
        <ele>240.50899</ele>
        <time>2022-11-20T12:58:44.000Z</time>
      </trkpt>
      <trkpt lat="45.84841" lon="4.68678">
        <ele>240.14734</ele>
        <time>2022-11-20T12:58:45.000Z</time>
      </trkpt>
      <trkpt lat="45.84847" lon="4.68676">
        <ele>239.8315</ele>
        <time>2022-11-20T12:58:46.000Z</time>
      </trkpt>
      <trkpt lat="45.84854" lon="4.68674">
        <ele>239.54898</ele>
        <time>2022-11-20T12:58:47.000Z</time>
      </trkpt>
      <trkpt lat="45.84859" lon="4.68671">
        <ele>239.21609</ele>
        <time>2022-11-20T12:58:48.000Z</time>
      </trkpt>
      <trkpt lat="45.84865" lon="4.68668">
        <ele>238.96992</ele>
        <time>2022-11-20T12:58:49.000Z</time>
      </trkpt>
      <trkpt lat="45.84869" lon="4.68667">
        <ele>238.73093</ele>
        <time>2022-11-20T12:58:50.000Z</time>
      </trkpt>
      <trkpt lat="45.84875" lon="4.68667">
        <ele>238.51059</ele>
        <time>2022-11-20T12:58:51.000Z</time>
      </trkpt>
      <trkpt lat="45.84879" lon="4.68665">
        <ele>238.32993</ele>
        <time>2022-11-20T12:58:52.000Z</time>
      </trkpt>
      <trkpt lat="45.84884" lon="4.68666">
        <ele>238.23044</ele>
        <time>2022-11-20T12:58:53.000Z</time>
      </trkpt>
      <trkpt lat="45.84889" lon="4.68666">
        <ele>238.26604</ele>
        <time>2022-11-20T12:58:54.000Z</time>
      </trkpt>
      <trkpt lat="45.84894" lon="4.68665">
        <ele>238.33797</ele>
        <time>2022-11-20T12:58:55.000Z</time>
      </trkpt>
      <trkpt lat="45.84897" lon="4.68665">
        <ele>238.30547</ele>
        <time>2022-11-20T12:58:56.000Z</time>
      </trkpt>
      <trkpt lat="45.84902" lon="4.68665">
        <ele>238.33813</ele>
        <time>2022-11-20T12:58:57.000Z</time>
      </trkpt>
      <trkpt lat="45.84906" lon="4.68664">
        <ele>238.40097</ele>
        <time>2022-11-20T12:58:58.000Z</time>
      </trkpt>
      <trkpt lat="45.8491" lon="4.68664">
        <ele>238.47827</ele>
        <time>2022-11-20T12:58:59.000Z</time>
      </trkpt>
      <trkpt lat="45.84914" lon="4.68665">
        <ele>238.99704</ele>
        <time>2022-11-20T12:59:00.000Z</time>
      </trkpt>
      <trkpt lat="45.84918" lon="4.68665">
        <ele>239.51074</ele>
        <time>2022-11-20T12:59:01.000Z</time>
      </trkpt>
      <trkpt lat="45.84921" lon="4.68665">
        <ele>240.07291</ele>
        <time>2022-11-20T12:59:02.000Z</time>
      </trkpt>
      <trkpt lat="45.84925" lon="4.68666">
        <ele>240.66069</ele>
        <time>2022-11-20T12:59:03.000Z</time>
      </trkpt>
      <trkpt lat="45.84929" lon="4.68666">
        <ele>241.27141</ele>
        <time>2022-11-20T12:59:04.000Z</time>
      </trkpt>
      <trkpt lat="45.84932" lon="4.68666">
        <ele>241.8477</ele>
        <time>2022-11-20T12:59:05.000Z</time>
      </trkpt>
      <trkpt lat="45.84936" lon="4.68666">
        <ele>242.39612</ele>
        <time>2022-11-20T12:59:06.000Z</time>
      </trkpt>
      <trkpt lat="45.8494" lon="4.68666">
        <ele>242.91113</ele>
        <time>2022-11-20T12:59:07.000Z</time>
      </trkpt>
      <trkpt lat="45.84943" lon="4.68665">
        <ele>243.50699</ele>
        <time>2022-11-20T12:59:08.000Z</time>
      </trkpt>
      <trkpt lat="45.84947" lon="4.68665">
        <ele>244.03391</ele>
        <time>2022-11-20T12:59:09.000Z</time>
      </trkpt>
      <trkpt lat="45.8495" lon="4.68665">
        <ele>244.80208</ele>
        <time>2022-11-20T12:59:10.000Z</time>
      </trkpt>
      <trkpt lat="45.84954" lon="4.68665">
        <ele>245.60303</ele>
        <time>2022-11-20T12:59:11.000Z</time>
      </trkpt>
      <trkpt lat="45.84957" lon="4.68665">
        <ele>245.72639</ele>
        <time>2022-11-20T12:59:12.000Z</time>
      </trkpt>
      <trkpt lat="45.8496" lon="4.68665">
        <ele>245.96513</ele>
        <time>2022-11-20T12:59:13.000Z</time>
      </trkpt>
      <trkpt lat="45.84963" lon="4.68665">
        <ele>246.10649</ele>
        <time>2022-11-20T12:59:14.000Z</time>
      </trkpt>
      <trkpt lat="45.84967" lon="4.68664">
        <ele>246.29695</ele>
        <time>2022-11-20T12:59:15.000Z</time>
      </trkpt>
      <trkpt lat="45.84969" lon="4.68664">
        <ele>246.51343</ele>
        <time>2022-11-20T12:59:16.000Z</time>
      </trkpt>
      <trkpt lat="45.84972" lon="4.68665">
        <ele>246.73502</ele>
        <time>2022-11-20T12:59:17.000Z</time>
      </trkpt>
      <trkpt lat="45.84974" lon="4.68665">
        <ele>246.93787</ele>
        <time>2022-11-20T12:59:18.000Z</time>
      </trkpt>
      <trkpt lat="45.84976" lon="4.68664">
        <ele>247.20255</ele>
        <time>2022-11-20T12:59:19.000Z</time>
      </trkpt>
      <trkpt lat="45.84978" lon="4.68664">
        <ele>247.07278</ele>
        <time>2022-11-20T12:59:20.000Z</time>
      </trkpt>
      <trkpt lat="45.8498" lon="4.68663">
        <ele>247.0136</ele>
        <time>2022-11-20T12:59:22.000Z</time>
      </trkpt>
      <trkpt lat="45.84983" lon="4.68666">
        <ele>246.92339</ele>
        <time>2022-11-20T12:59:29.000Z</time>
      </trkpt>
      <trkpt lat="45.84985" lon="4.68666">
        <ele>246.77661</ele>
        <time>2022-11-20T12:59:30.000Z</time>
      </trkpt>
      <trkpt lat="45.84987" lon="4.68667">
        <ele>246.6326</ele>
        <time>2022-11-20T12:59:31.000Z</time>
      </trkpt>
      <trkpt lat="45.8499" lon="4.68668">
        <ele>246.47905</ele>
        <time>2022-11-20T12:59:32.000Z</time>
      </trkpt>
      <trkpt lat="45.84993" lon="4.68668">
        <ele>246.30574</ele>
        <time>2022-11-20T12:59:33.000Z</time>
      </trkpt>
      <trkpt lat="45.84996" lon="4.68668">
        <ele>246.11746</ele>
        <time>2022-11-20T12:59:34.000Z</time>
      </trkpt>
      <trkpt lat="45.84999" lon="4.68668">
        <ele>245.94246</ele>
        <time>2022-11-20T12:59:35.000Z</time>
      </trkpt>
      <trkpt lat="45.85002" lon="4.68668">
        <ele>245.75008</ele>
        <time>2022-11-20T12:59:36.000Z</time>
      </trkpt>
      <trkpt lat="45.85006" lon="4.68669">
        <ele>245.64407</ele>
        <time>2022-11-20T12:59:37.000Z</time>
      </trkpt>
      <trkpt lat="45.85009" lon="4.68669">
        <ele>245.50447</ele>
        <time>2022-11-20T12:59:38.000Z</time>
      </trkpt>
      <trkpt lat="45.85013" lon="4.68669">
        <ele>246.27036</ele>
        <time>2022-11-20T12:59:39.000Z</time>
      </trkpt>
      <trkpt lat="45.85016" lon="4.68669">
        <ele>246.58585</ele>
        <time>2022-11-20T12:59:40.000Z</time>
      </trkpt>
      <trkpt lat="45.8502" lon="4.68669">
        <ele>246.952</ele>
        <time>2022-11-20T12:59:41.000Z</time>
      </trkpt>
      <trkpt lat="45.85024" lon="4.68669">
        <ele>247.33118</ele>
        <time>2022-11-20T12:59:42.000Z</time>
      </trkpt>
      <trkpt lat="45.85029" lon="4.6867">
        <ele>247.73526</ele>
        <time>2022-11-20T12:59:43.000Z</time>
      </trkpt>
      <trkpt lat="45.85033" lon="4.6867">
        <ele>248.07297</ele>
        <time>2022-11-20T12:59:44.000Z</time>
      </trkpt>
      <trkpt lat="45.85037" lon="4.68671">
        <ele>248.41806</ele>
        <time>2022-11-20T12:59:45.000Z</time>
      </trkpt>
      <trkpt lat="45.8504" lon="4.68674">
        <ele>248.69528</ele>
        <time>2022-11-20T12:59:46.000Z</time>
      </trkpt>
      <trkpt lat="45.85038" lon="4.68684">
        <ele>249.03137</ele>
        <time>2022-11-20T12:59:47.000Z</time>
      </trkpt>
      <trkpt lat="45.85039" lon="4.68689">
        <ele>249.29483</ele>
        <time>2022-11-20T12:59:48.000Z</time>
      </trkpt>
      <trkpt lat="45.85037" lon="4.68694">
        <ele>249.50652</ele>
        <time>2022-11-20T12:59:49.000Z</time>
      </trkpt>
      <trkpt lat="45.85036" lon="4.68699">
        <ele>249.7419</ele>
        <time>2022-11-20T12:59:50.000Z</time>
      </trkpt>
      <trkpt lat="45.85036" lon="4.68703">
        <ele>249.95259</ele>
        <time>2022-11-20T12:59:51.000Z</time>
      </trkpt>
      <trkpt lat="45.85034" lon="4.68706">
        <ele>249.54758</ele>
        <time>2022-11-20T12:59:52.000Z</time>
      </trkpt>
      <trkpt lat="45.85032" lon="4.68709">
        <ele>249.38757</ele>
        <time>2022-11-20T12:59:53.000Z</time>
      </trkpt>
      <trkpt lat="45.85031" lon="4.68713">
        <ele>249.20869</ele>
        <time>2022-11-20T12:59:54.000Z</time>
      </trkpt>
      <trkpt lat="45.85029" lon="4.68718">
        <ele>248.97678</ele>
        <time>2022-11-20T12:59:55.000Z</time>
      </trkpt>
      <trkpt lat="45.85027" lon="4.68723">
        <ele>248.759</ele>
        <time>2022-11-20T12:59:56.000Z</time>
      </trkpt>
      <trkpt lat="45.85025" lon="4.68729">
        <ele>248.19978</ele>
        <time>2022-11-20T12:59:57.000Z</time>
      </trkpt>
      <trkpt lat="45.85022" lon="4.68735">
        <ele>247.64468</ele>
        <time>2022-11-20T12:59:58.000Z</time>
      </trkpt>
      <trkpt lat="45.8502" lon="4.68741">
        <ele>246.8481</ele>
        <time>2022-11-20T12:59:59.000Z</time>
      </trkpt>
      <trkpt lat="45.85017" lon="4.68746">
        <ele>246.36356</ele>
        <time>2022-11-20T13:00:00.000Z</time>
      </trkpt>
      <trkpt lat="45.85014" lon="4.68753">
        <ele>245.82906</ele>
        <time>2022-11-20T13:00:01.000Z</time>
      </trkpt>
      <trkpt lat="45.85011" lon="4.6876">
        <ele>245.27531</ele>
        <time>2022-11-20T13:00:02.000Z</time>
      </trkpt>
      <trkpt lat="45.85008" lon="4.68767">
        <ele>244.72185</ele>
        <time>2022-11-20T13:00:03.000Z</time>
      </trkpt>
      <trkpt lat="45.85006" lon="4.68774">
        <ele>244.16023</ele>
        <time>2022-11-20T13:00:04.000Z</time>
      </trkpt>
      <trkpt lat="45.85002" lon="4.6878">
        <ele>243.58452</ele>
        <time>2022-11-20T13:00:05.000Z</time>
      </trkpt>
      <trkpt lat="45.84999" lon="4.68786">
        <ele>243.02925</ele>
        <time>2022-11-20T13:00:06.000Z</time>
      </trkpt>
      <trkpt lat="45.84995" lon="4.68793">
        <ele>242.42758</ele>
        <time>2022-11-20T13:00:07.000Z</time>
      </trkpt>
      <trkpt lat="45.8499" lon="4.688">
        <ele>241.83459</ele>
        <time>2022-11-20T13:00:08.000Z</time>
      </trkpt>
      <trkpt lat="45.84986" lon="4.68807">
        <ele>241.29483</ele>
        <time>2022-11-20T13:00:09.000Z</time>
      </trkpt>
      <trkpt lat="45.84982" lon="4.68812">
        <ele>240.75241</ele>
        <time>2022-11-20T13:00:10.000Z</time>
      </trkpt>
      <trkpt lat="45.84977" lon="4.68818">
        <ele>240.23112</ele>
        <time>2022-11-20T13:00:11.000Z</time>
      </trkpt>
      <trkpt lat="45.84972" lon="4.68823">
        <ele>240.33792</ele>
        <time>2022-11-20T13:00:12.000Z</time>
      </trkpt>
      <trkpt lat="45.84967" lon="4.68828">
        <ele>240.22148</ele>
        <time>2022-11-20T13:00:13.000Z</time>
      </trkpt>
      <trkpt lat="45.84963" lon="4.68833">
        <ele>240.1481</ele>
        <time>2022-11-20T13:00:14.000Z</time>
      </trkpt>
      <trkpt lat="45.84959" lon="4.68838">
        <ele>240.12607</ele>
        <time>2022-11-20T13:00:15.000Z</time>
      </trkpt>
      <trkpt lat="45.84954" lon="4.68843">
        <ele>240.10727</ele>
        <time>2022-11-20T13:00:16.000Z</time>
      </trkpt>
      <trkpt lat="45.84948" lon="4.68848">
        <ele>240.06912</ele>
        <time>2022-11-20T13:00:17.000Z</time>
      </trkpt>
      <trkpt lat="45.84944" lon="4.68853">
        <ele>239.99289</ele>
        <time>2022-11-20T13:00:18.000Z</time>
      </trkpt>
      <trkpt lat="45.84939" lon="4.68857">
        <ele>239.94083</ele>
        <time>2022-11-20T13:00:19.000Z</time>
      </trkpt>
      <trkpt lat="45.84934" lon="4.68861">
        <ele>239.87924</ele>
        <time>2022-11-20T13:00:20.000Z</time>
      </trkpt>
      <trkpt lat="45.8493" lon="4.68866">
        <ele>239.81543</ele>
        <time>2022-11-20T13:00:21.000Z</time>
      </trkpt>
      <trkpt lat="45.84925" lon="4.6887">
        <ele>239.75589</ele>
        <time>2022-11-20T13:00:22.000Z</time>
      </trkpt>
      <trkpt lat="45.8492" lon="4.68874">
        <ele>239.64017</ele>
        <time>2022-11-20T13:00:23.000Z</time>
      </trkpt>
      <trkpt lat="45.84916" lon="4.68878">
        <ele>239.52498</ele>
        <time>2022-11-20T13:00:24.000Z</time>
      </trkpt>
      <trkpt lat="45.84911" lon="4.68881">
        <ele>239.4688</ele>
        <time>2022-11-20T13:00:25.000Z</time>
      </trkpt>
      <trkpt lat="45.84907" lon="4.68886">
        <ele>239.41496</ele>
        <time>2022-11-20T13:00:26.000Z</time>
      </trkpt>
      <trkpt lat="45.84904" lon="4.6889">
        <ele>239.3862</ele>
        <time>2022-11-20T13:00:27.000Z</time>
      </trkpt>
      <trkpt lat="45.84899" lon="4.68894">
        <ele>239.33928</ele>
        <time>2022-11-20T13:00:28.000Z</time>
      </trkpt>
      <trkpt lat="45.84895" lon="4.68897">
        <ele>239.27226</ele>
        <time>2022-11-20T13:00:29.000Z</time>
      </trkpt>
      <trkpt lat="45.8489" lon="4.689">
        <ele>239.20789</ele>
        <time>2022-11-20T13:00:30.000Z</time>
      </trkpt>
      <trkpt lat="45.84887" lon="4.68904">
        <ele>239.16219</ele>
        <time>2022-11-20T13:00:31.000Z</time>
      </trkpt>
      <trkpt lat="45.84881" lon="4.68906">
        <ele>239.08879</ele>
        <time>2022-11-20T13:00:32.000Z</time>
      </trkpt>
      <trkpt lat="45.84877" lon="4.68908">
        <ele>238.95049</ele>
        <time>2022-11-20T13:00:33.000Z</time>
      </trkpt>
      <trkpt lat="45.84873" lon="4.68913">
        <ele>238.8676</ele>
        <time>2022-11-20T13:00:34.000Z</time>
      </trkpt>
      <trkpt lat="45.84869" lon="4.68916">
        <ele>238.7686</ele>
        <time>2022-11-20T13:00:35.000Z</time>
      </trkpt>
      <trkpt lat="45.84865" lon="4.68918">
        <ele>238.67014</ele>
        <time>2022-11-20T13:00:36.000Z</time>
      </trkpt>
      <trkpt lat="45.84861" lon="4.68922">
        <ele>238.57903</ele>
        <time>2022-11-20T13:00:37.000Z</time>
      </trkpt>
      <trkpt lat="45.84857" lon="4.68924">
        <ele>238.5271</ele>
        <time>2022-11-20T13:00:38.000Z</time>
      </trkpt>
      <trkpt lat="45.84853" lon="4.68927">
        <ele>238.46017</ele>
        <time>2022-11-20T13:00:39.000Z</time>
      </trkpt>
      <trkpt lat="45.8485" lon="4.68929">
        <ele>238.40544</ele>
        <time>2022-11-20T13:00:40.000Z</time>
      </trkpt>
      <trkpt lat="45.84846" lon="4.68932">
        <ele>238.31686</ele>
        <time>2022-11-20T13:00:41.000Z</time>
      </trkpt>
      <trkpt lat="45.84842" lon="4.68934">
        <ele>238.24655</ele>
        <time>2022-11-20T13:00:42.000Z</time>
      </trkpt>
      <trkpt lat="45.84838" lon="4.68936">
        <ele>238.27127</ele>
        <time>2022-11-20T13:00:43.000Z</time>
      </trkpt>
      <trkpt lat="45.84835" lon="4.68938">
        <ele>238.3038</ele>
        <time>2022-11-20T13:00:44.000Z</time>
      </trkpt>
      <trkpt lat="45.84832" lon="4.68942">
        <ele>238.30118</ele>
        <time>2022-11-20T13:00:45.000Z</time>
      </trkpt>
      <trkpt lat="45.84829" lon="4.68945">
        <ele>238.32976</ele>
        <time>2022-11-20T13:00:46.000Z</time>
      </trkpt>
      <trkpt lat="45.84826" lon="4.68948">
        <ele>238.38736</ele>
        <time>2022-11-20T13:00:47.000Z</time>
      </trkpt>
      <trkpt lat="45.84823" lon="4.6895">
        <ele>238.49619</ele>
        <time>2022-11-20T13:00:48.000Z</time>
      </trkpt>
      <trkpt lat="45.8482" lon="4.68952">
        <ele>238.60391</ele>
        <time>2022-11-20T13:00:49.000Z</time>
      </trkpt>
      <trkpt lat="45.84817" lon="4.68954">
        <ele>238.68558</ele>
        <time>2022-11-20T13:00:50.000Z</time>
      </trkpt>
      <trkpt lat="45.84814" lon="4.68956">
        <ele>238.74203</ele>
        <time>2022-11-20T13:00:51.000Z</time>
      </trkpt>
      <trkpt lat="45.84812" lon="4.68958">
        <ele>238.87077</ele>
        <time>2022-11-20T13:00:52.000Z</time>
      </trkpt>
      <trkpt lat="45.84809" lon="4.6896">
        <ele>239.08186</ele>
        <time>2022-11-20T13:00:53.000Z</time>
      </trkpt>
      <trkpt lat="45.84806" lon="4.68963">
        <ele>239.25156</ele>
        <time>2022-11-20T13:00:54.000Z</time>
      </trkpt>
      <trkpt lat="45.84803" lon="4.68965">
        <ele>239.39368</ele>
        <time>2022-11-20T13:00:55.000Z</time>
      </trkpt>
      <trkpt lat="45.848" lon="4.68967">
        <ele>239.53386</ele>
        <time>2022-11-20T13:00:56.000Z</time>
      </trkpt>
      <trkpt lat="45.84797" lon="4.68969">
        <ele>239.71176</ele>
        <time>2022-11-20T13:00:57.000Z</time>
      </trkpt>
      <trkpt lat="45.84794" lon="4.68971">
        <ele>239.89609</ele>
        <time>2022-11-20T13:00:58.000Z</time>
      </trkpt>
      <trkpt lat="45.84792" lon="4.68973">
        <ele>240.09663</ele>
        <time>2022-11-20T13:00:59.000Z</time>
      </trkpt>
      <trkpt lat="45.8479" lon="4.68976">
        <ele>240.26611</ele>
        <time>2022-11-20T13:01:00.000Z</time>
      </trkpt>
      <trkpt lat="45.84787" lon="4.68978">
        <ele>240.48494</ele>
        <time>2022-11-20T13:01:01.000Z</time>
      </trkpt>
      <trkpt lat="45.84784" lon="4.6898">
        <ele>240.71655</ele>
        <time>2022-11-20T13:01:02.000Z</time>
      </trkpt>
      <trkpt lat="45.84782" lon="4.68982">
        <ele>240.93645</ele>
        <time>2022-11-20T13:01:03.000Z</time>
      </trkpt>
      <trkpt lat="45.84779" lon="4.68985">
        <ele>241.15561</ele>
        <time>2022-11-20T13:01:04.000Z</time>
      </trkpt>
      <trkpt lat="45.84777" lon="4.68988">
        <ele>241.34854</ele>
        <time>2022-11-20T13:01:05.000Z</time>
      </trkpt>
      <trkpt lat="45.84774" lon="4.68991">
        <ele>241.526</ele>
        <time>2022-11-20T13:01:06.000Z</time>
      </trkpt>
      <trkpt lat="45.84771" lon="4.68994">
        <ele>241.70088</ele>
        <time>2022-11-20T13:01:07.000Z</time>
      </trkpt>
      <trkpt lat="45.84769" lon="4.68997">
        <ele>241.84781</ele>
        <time>2022-11-20T13:01:08.000Z</time>
      </trkpt>
      <trkpt lat="45.84766" lon="4.68999">
        <ele>241.99361</ele>
        <time>2022-11-20T13:01:09.000Z</time>
      </trkpt>
      <trkpt lat="45.84763" lon="4.69002">
        <ele>242.1805</ele>
        <time>2022-11-20T13:01:10.000Z</time>
      </trkpt>
      <trkpt lat="45.8476" lon="4.69005">
        <ele>242.38411</ele>
        <time>2022-11-20T13:01:11.000Z</time>
      </trkpt>
      <trkpt lat="45.84757" lon="4.69008">
        <ele>242.57056</ele>
        <time>2022-11-20T13:01:12.000Z</time>
      </trkpt>
      <trkpt lat="45.84754" lon="4.69011">
        <ele>242.74788</ele>
        <time>2022-11-20T13:01:13.000Z</time>
      </trkpt>
      <trkpt lat="45.84751" lon="4.69014">
        <ele>242.93015</ele>
        <time>2022-11-20T13:01:14.000Z</time>
      </trkpt>
      <trkpt lat="45.84748" lon="4.69016">
        <ele>243.1357</ele>
        <time>2022-11-20T13:01:15.000Z</time>
      </trkpt>
      <trkpt lat="45.84745" lon="4.69019">
        <ele>243.34619</ele>
        <time>2022-11-20T13:01:16.000Z</time>
      </trkpt>
      <trkpt lat="45.84742" lon="4.69021">
        <ele>243.5603</ele>
        <time>2022-11-20T13:01:17.000Z</time>
      </trkpt>
      <trkpt lat="45.84739" lon="4.69024">
        <ele>243.77042</ele>
        <time>2022-11-20T13:01:18.000Z</time>
      </trkpt>
      <trkpt lat="45.84736" lon="4.69026">
        <ele>243.99236</ele>
        <time>2022-11-20T13:01:19.000Z</time>
      </trkpt>
      <trkpt lat="45.84733" lon="4.69028">
        <ele>244.22403</ele>
        <time>2022-11-20T13:01:20.000Z</time>
      </trkpt>
      <trkpt lat="45.84729" lon="4.6903">
        <ele>244.4678</ele>
        <time>2022-11-20T13:01:21.000Z</time>
      </trkpt>
      <trkpt lat="45.84726" lon="4.69031">
        <ele>244.70609</ele>
        <time>2022-11-20T13:01:22.000Z</time>
      </trkpt>
      <trkpt lat="45.84723" lon="4.69033">
        <ele>244.936</ele>
        <time>2022-11-20T13:01:23.000Z</time>
      </trkpt>
      <trkpt lat="45.84719" lon="4.69034">
        <ele>245.1711</ele>
        <time>2022-11-20T13:01:24.000Z</time>
      </trkpt>
      <trkpt lat="45.84716" lon="4.69036">
        <ele>245.43396</ele>
        <time>2022-11-20T13:01:25.000Z</time>
      </trkpt>
      <trkpt lat="45.84712" lon="4.69037">
        <ele>245.67899</ele>
        <time>2022-11-20T13:01:26.000Z</time>
      </trkpt>
      <trkpt lat="45.84709" lon="4.69038">
        <ele>245.89827</ele>
        <time>2022-11-20T13:01:27.000Z</time>
      </trkpt>
      <trkpt lat="45.84705" lon="4.69039">
        <ele>246.103</ele>
        <time>2022-11-20T13:01:28.000Z</time>
      </trkpt>
      <trkpt lat="45.84702" lon="4.6904">
        <ele>246.32535</ele>
        <time>2022-11-20T13:01:29.000Z</time>
      </trkpt>
      <trkpt lat="45.84698" lon="4.69041">
        <ele>246.85696</ele>
        <time>2022-11-20T13:01:30.000Z</time>
      </trkpt>
      <trkpt lat="45.84695" lon="4.69043">
        <ele>247.6185</ele>
        <time>2022-11-20T13:01:31.000Z</time>
      </trkpt>
      <trkpt lat="45.84693" lon="4.69045">
        <ele>247.73283</ele>
        <time>2022-11-20T13:01:32.000Z</time>
      </trkpt>
      <trkpt lat="45.8469" lon="4.69047">
        <ele>247.96228</ele>
        <time>2022-11-20T13:01:33.000Z</time>
      </trkpt>
      <trkpt lat="45.84687" lon="4.6905">
        <ele>248.18628</ele>
        <time>2022-11-20T13:01:34.000Z</time>
      </trkpt>
      <trkpt lat="45.84684" lon="4.69052">
        <ele>248.40605</ele>
        <time>2022-11-20T13:01:35.000Z</time>
      </trkpt>
      <trkpt lat="45.84681" lon="4.69055">
        <ele>248.61331</ele>
        <time>2022-11-20T13:01:36.000Z</time>
      </trkpt>
      <trkpt lat="45.84678" lon="4.69059">
        <ele>248.82207</ele>
        <time>2022-11-20T13:01:37.000Z</time>
      </trkpt>
      <trkpt lat="45.84675" lon="4.69062">
        <ele>249.04666</ele>
        <time>2022-11-20T13:01:38.000Z</time>
      </trkpt>
      <trkpt lat="45.84673" lon="4.69066">
        <ele>249.23665</ele>
        <time>2022-11-20T13:01:39.000Z</time>
      </trkpt>
      <trkpt lat="45.84671" lon="4.6907">
        <ele>249.74223</ele>
        <time>2022-11-20T13:01:40.000Z</time>
      </trkpt>
      <trkpt lat="45.84669" lon="4.69074">
        <ele>250.21809</ele>
        <time>2022-11-20T13:01:41.000Z</time>
      </trkpt>
      <trkpt lat="45.84667" lon="4.69078">
        <ele>250.70236</ele>
        <time>2022-11-20T13:01:42.000Z</time>
      </trkpt>
      <trkpt lat="45.84666" lon="4.69083">
        <ele>251.19241</ele>
        <time>2022-11-20T13:01:43.000Z</time>
      </trkpt>
      <trkpt lat="45.84666" lon="4.69087">
        <ele>251.68741</ele>
        <time>2022-11-20T13:01:44.000Z</time>
      </trkpt>
      <trkpt lat="45.84665" lon="4.69092">
        <ele>252.19048</ele>
        <time>2022-11-20T13:01:45.000Z</time>
      </trkpt>
      <trkpt lat="45.84665" lon="4.69097">
        <ele>252.69841</ele>
        <time>2022-11-20T13:01:46.000Z</time>
      </trkpt>
      <trkpt lat="45.84665" lon="4.69101">
        <ele>253.22458</ele>
        <time>2022-11-20T13:01:47.000Z</time>
      </trkpt>
      <trkpt lat="45.84664" lon="4.69105">
        <ele>253.76389</ele>
        <time>2022-11-20T13:01:48.000Z</time>
      </trkpt>
      <trkpt lat="45.84664" lon="4.69109">
        <ele>254.48914</ele>
        <time>2022-11-20T13:01:49.000Z</time>
      </trkpt>
      <trkpt lat="45.84664" lon="4.69113">
        <ele>254.2803</ele>
        <time>2022-11-20T13:01:50.000Z</time>
      </trkpt>
      <trkpt lat="45.84664" lon="4.69117">
        <ele>253.96054</ele>
        <time>2022-11-20T13:01:51.000Z</time>
      </trkpt>
      <trkpt lat="45.84664" lon="4.69121">
        <ele>254.3503</ele>
        <time>2022-11-20T13:01:52.000Z</time>
      </trkpt>
      <trkpt lat="45.84664" lon="4.69124">
        <ele>254.64079</ele>
        <time>2022-11-20T13:01:53.000Z</time>
      </trkpt>
      <trkpt lat="45.84664" lon="4.69128">
        <ele>254.98276</ele>
        <time>2022-11-20T13:01:54.000Z</time>
      </trkpt>
      <trkpt lat="45.84665" lon="4.69132">
        <ele>255.38506</ele>
        <time>2022-11-20T13:01:55.000Z</time>
      </trkpt>
      <trkpt lat="45.84666" lon="4.69136">
        <ele>255.75632</ele>
        <time>2022-11-20T13:01:56.000Z</time>
      </trkpt>
      <trkpt lat="45.84666" lon="4.69141">
        <ele>256.09485</ele>
        <time>2022-11-20T13:01:57.000Z</time>
      </trkpt>
      <trkpt lat="45.84667" lon="4.69145">
        <ele>256.44049</ele>
        <time>2022-11-20T13:01:58.000Z</time>
      </trkpt>
      <trkpt lat="45.84667" lon="4.6915">
        <ele>256.79623</ele>
        <time>2022-11-20T13:01:59.000Z</time>
      </trkpt>
      <trkpt lat="45.84668" lon="4.69154">
        <ele>256.85983</ele>
        <time>2022-11-20T13:02:00.000Z</time>
      </trkpt>
      <trkpt lat="45.84669" lon="4.69158">
        <ele>256.92624</ele>
        <time>2022-11-20T13:02:01.000Z</time>
      </trkpt>
      <trkpt lat="45.84669" lon="4.69163">
        <ele>256.95999</ele>
        <time>2022-11-20T13:02:02.000Z</time>
      </trkpt>
      <trkpt lat="45.84669" lon="4.69168">
        <ele>256.97003</ele>
        <time>2022-11-20T13:02:03.000Z</time>
      </trkpt>
      <trkpt lat="45.8467" lon="4.69172">
        <ele>256.9649</ele>
        <time>2022-11-20T13:02:04.000Z</time>
      </trkpt>
      <trkpt lat="45.8467" lon="4.69181">
        <ele>256.0647</ele>
        <time>2022-11-20T13:02:05.000Z</time>
      </trkpt>
      <trkpt lat="45.8467" lon="4.69186">
        <ele>255.15178</ele>
        <time>2022-11-20T13:02:06.000Z</time>
      </trkpt>
      <trkpt lat="45.8467" lon="4.69191">
        <ele>255.31209</ele>
        <time>2022-11-20T13:02:07.000Z</time>
      </trkpt>
      <trkpt lat="45.8467" lon="4.69195">
        <ele>255.06136</ele>
        <time>2022-11-20T13:02:08.000Z</time>
      </trkpt>
      <trkpt lat="45.84669" lon="4.69199">
        <ele>254.8403</ele>
        <time>2022-11-20T13:02:09.000Z</time>
      </trkpt>
      <trkpt lat="45.84668" lon="4.69204">
        <ele>255.17569</ele>
        <time>2022-11-20T13:02:10.000Z</time>
      </trkpt>
      <trkpt lat="45.84667" lon="4.69209">
        <ele>255.42148</ele>
        <time>2022-11-20T13:02:11.000Z</time>
      </trkpt>
      <trkpt lat="45.84666" lon="4.69212">
        <ele>255.60771</ele>
        <time>2022-11-20T13:02:12.000Z</time>
      </trkpt>
      <trkpt lat="45.84665" lon="4.69216">
        <ele>255.78596</ele>
        <time>2022-11-20T13:02:13.000Z</time>
      </trkpt>
      <trkpt lat="45.84664" lon="4.6922">
        <ele>255.91446</ele>
        <time>2022-11-20T13:02:14.000Z</time>
      </trkpt>
      <trkpt lat="45.84664" lon="4.69224">
        <ele>255.98129</ele>
        <time>2022-11-20T13:02:15.000Z</time>
      </trkpt>
      <trkpt lat="45.84663" lon="4.69228">
        <ele>256.03842</ele>
        <time>2022-11-20T13:02:16.000Z</time>
      </trkpt>
      <trkpt lat="45.84662" lon="4.69232">
        <ele>256.11856</ele>
        <time>2022-11-20T13:02:17.000Z</time>
      </trkpt>
      <trkpt lat="45.84661" lon="4.69236">
        <ele>256.17545</ele>
        <time>2022-11-20T13:02:18.000Z</time>
      </trkpt>
      <trkpt lat="45.84661" lon="4.69239">
        <ele>256.18216</ele>
        <time>2022-11-20T13:02:19.000Z</time>
      </trkpt>
      <trkpt lat="45.8466" lon="4.69243">
        <ele>256.2019</ele>
        <time>2022-11-20T13:02:20.000Z</time>
      </trkpt>
      <trkpt lat="45.8466" lon="4.69248">
        <ele>256.24252</ele>
        <time>2022-11-20T13:02:21.000Z</time>
      </trkpt>
      <trkpt lat="45.8466" lon="4.69252">
        <ele>256.14767</ele>
        <time>2022-11-20T13:02:22.000Z</time>
      </trkpt>
      <trkpt lat="45.84659" lon="4.69257">
        <ele>256.21979</ele>
        <time>2022-11-20T13:02:23.000Z</time>
      </trkpt>
      <trkpt lat="45.84658" lon="4.69261">
        <ele>256.32248</ele>
        <time>2022-11-20T13:02:24.000Z</time>
      </trkpt>
      <trkpt lat="45.84657" lon="4.69265">
        <ele>257.31525</ele>
        <time>2022-11-20T13:02:25.000Z</time>
      </trkpt>
      <trkpt lat="45.84657" lon="4.69269">
        <ele>258.3775</ele>
        <time>2022-11-20T13:02:26.000Z</time>
      </trkpt>
      <trkpt lat="45.84656" lon="4.69273">
        <ele>258.66928</ele>
        <time>2022-11-20T13:02:27.000Z</time>
      </trkpt>
      <trkpt lat="45.84656" lon="4.69277">
        <ele>258.93005</ele>
        <time>2022-11-20T13:02:28.000Z</time>
      </trkpt>
      <trkpt lat="45.84655" lon="4.69281">
        <ele>259.1026</ele>
        <time>2022-11-20T13:02:29.000Z</time>
      </trkpt>
      <trkpt lat="45.84654" lon="4.69285">
        <ele>259.22504</ele>
        <time>2022-11-20T13:02:30.000Z</time>
      </trkpt>
      <trkpt lat="45.84654" lon="4.6929">
        <ele>259.32648</ele>
        <time>2022-11-20T13:02:31.000Z</time>
      </trkpt>
      <trkpt lat="45.84653" lon="4.69294">
        <ele>259.35587</ele>
        <time>2022-11-20T13:02:32.000Z</time>
      </trkpt>
      <trkpt lat="45.84653" lon="4.69297">
        <ele>259.64011</ele>
        <time>2022-11-20T13:02:33.000Z</time>
      </trkpt>
      <trkpt lat="45.84652" lon="4.69301">
        <ele>259.92267</ele>
        <time>2022-11-20T13:02:34.000Z</time>
      </trkpt>
      <trkpt lat="45.84651" lon="4.69305">
        <ele>260.23761</ele>
        <time>2022-11-20T13:02:35.000Z</time>
      </trkpt>
      <trkpt lat="45.8465" lon="4.6931">
        <ele>260.67593</ele>
        <time>2022-11-20T13:02:36.000Z</time>
      </trkpt>
      <trkpt lat="45.84649" lon="4.69314">
        <ele>261.19049</ele>
        <time>2022-11-20T13:02:37.000Z</time>
      </trkpt>
      <trkpt lat="45.84648" lon="4.69317">
        <ele>261.82138</ele>
        <time>2022-11-20T13:02:38.000Z</time>
      </trkpt>
      <trkpt lat="45.84648" lon="4.69321">
        <ele>262.65073</ele>
        <time>2022-11-20T13:02:39.000Z</time>
      </trkpt>
      <trkpt lat="45.84647" lon="4.69324">
        <ele>263.42572</ele>
        <time>2022-11-20T13:02:40.000Z</time>
      </trkpt>
      <trkpt lat="45.84647" lon="4.69328">
        <ele>264.26498</ele>
        <time>2022-11-20T13:02:41.000Z</time>
      </trkpt>
      <trkpt lat="45.84646" lon="4.69332">
        <ele>265.24725</ele>
        <time>2022-11-20T13:02:42.000Z</time>
      </trkpt>
      <trkpt lat="45.84644" lon="4.69336">
        <ele>266.15384</ele>
        <time>2022-11-20T13:02:43.000Z</time>
      </trkpt>
      <trkpt lat="45.84643" lon="4.69341">
        <ele>267.02701</ele>
        <time>2022-11-20T13:02:44.000Z</time>
      </trkpt>
      <trkpt lat="45.84641" lon="4.69346">
        <ele>268.10736</ele>
        <time>2022-11-20T13:02:45.000Z</time>
      </trkpt>
      <trkpt lat="45.84639" lon="4.69351">
        <ele>269.0094</ele>
        <time>2022-11-20T13:02:46.000Z</time>
      </trkpt>
      <trkpt lat="45.84637" lon="4.69355">
        <ele>269.54922</ele>
        <time>2022-11-20T13:02:47.000Z</time>
      </trkpt>
      <trkpt lat="45.84635" lon="4.69359">
        <ele>270.55164</ele>
        <time>2022-11-20T13:02:48.000Z</time>
      </trkpt>
      <trkpt lat="45.84633" lon="4.69362">
        <ele>271.37622</ele>
        <time>2022-11-20T13:02:49.000Z</time>
      </trkpt>
      <trkpt lat="45.8463" lon="4.69364">
        <ele>272.19333</ele>
        <time>2022-11-20T13:02:50.000Z</time>
      </trkpt>
      <trkpt lat="45.84627" lon="4.69367">
        <ele>273.09818</ele>
        <time>2022-11-20T13:02:51.000Z</time>
      </trkpt>
      <trkpt lat="45.84625" lon="4.6937">
        <ele>274.04172</ele>
        <time>2022-11-20T13:02:52.000Z</time>
      </trkpt>
      <trkpt lat="45.84623" lon="4.69373">
        <ele>274.68616</ele>
        <time>2022-11-20T13:02:53.000Z</time>
      </trkpt>
      <trkpt lat="45.84621" lon="4.69376">
        <ele>275.60126</ele>
        <time>2022-11-20T13:02:54.000Z</time>
      </trkpt>
      <trkpt lat="45.84619" lon="4.69377">
        <ele>276.41077</ele>
        <time>2022-11-20T13:02:55.000Z</time>
      </trkpt>
      <trkpt lat="45.84617" lon="4.69379">
        <ele>276.68115</ele>
        <time>2022-11-20T13:02:56.000Z</time>
      </trkpt>
      <trkpt lat="45.84614" lon="4.69381">
        <ele>276.9043</ele>
        <time>2022-11-20T13:02:57.000Z</time>
      </trkpt>
      <trkpt lat="45.84612" lon="4.69384">
        <ele>277.05426</ele>
        <time>2022-11-20T13:02:58.000Z</time>
      </trkpt>
      <trkpt lat="45.84609" lon="4.69387">
        <ele>277.08133</ele>
        <time>2022-11-20T13:02:59.000Z</time>
      </trkpt>
      <trkpt lat="45.84606" lon="4.69389">
        <ele>277.21597</ele>
        <time>2022-11-20T13:03:00.000Z</time>
      </trkpt>
      <trkpt lat="45.84603" lon="4.69392">
        <ele>277.0983</ele>
        <time>2022-11-20T13:03:01.000Z</time>
      </trkpt>
      <trkpt lat="45.84601" lon="4.69395">
        <ele>276.8378</ele>
        <time>2022-11-20T13:03:02.000Z</time>
      </trkpt>
      <trkpt lat="45.84598" lon="4.69398">
        <ele>276.52066</ele>
        <time>2022-11-20T13:03:03.000Z</time>
      </trkpt>
      <trkpt lat="45.84596" lon="4.69401">
        <ele>276.17148</ele>
        <time>2022-11-20T13:03:04.000Z</time>
      </trkpt>
      <trkpt lat="45.84595" lon="4.69404">
        <ele>275.82449</ele>
        <time>2022-11-20T13:03:05.000Z</time>
      </trkpt>
      <trkpt lat="45.84592" lon="4.69407">
        <ele>275.49994</ele>
        <time>2022-11-20T13:03:06.000Z</time>
      </trkpt>
      <trkpt lat="45.8459" lon="4.6941">
        <ele>275.19135</ele>
        <time>2022-11-20T13:03:07.000Z</time>
      </trkpt>
      <trkpt lat="45.84588" lon="4.69412">
        <ele>274.89639</ele>
        <time>2022-11-20T13:03:08.000Z</time>
      </trkpt>
      <trkpt lat="45.84586" lon="4.69414">
        <ele>274.80078</ele>
        <time>2022-11-20T13:03:09.000Z</time>
      </trkpt>
      <trkpt lat="45.84583" lon="4.69417">
        <ele>274.82452</ele>
        <time>2022-11-20T13:03:10.000Z</time>
      </trkpt>
      <trkpt lat="45.84581" lon="4.69419">
        <ele>274.72961</ele>
        <time>2022-11-20T13:03:11.000Z</time>
      </trkpt>
      <trkpt lat="45.84578" lon="4.69421">
        <ele>274.81158</ele>
        <time>2022-11-20T13:03:12.000Z</time>
      </trkpt>
      <trkpt lat="45.84576" lon="4.69422">
        <ele>274.73236</ele>
        <time>2022-11-20T13:03:13.000Z</time>
      </trkpt>
      <trkpt lat="45.84573" lon="4.69421">
        <ele>274.58316</ele>
        <time>2022-11-20T13:03:15.000Z</time>
      </trkpt>
      <trkpt lat="45.84571" lon="4.69422">
        <ele>274.55838</ele>
        <time>2022-11-20T13:03:16.000Z</time>
      </trkpt>
      <trkpt lat="45.84569" lon="4.69424">
        <ele>275.34308</ele>
        <time>2022-11-20T13:03:17.000Z</time>
      </trkpt>
      <trkpt lat="45.84566" lon="4.69426">
        <ele>276.1651</ele>
        <time>2022-11-20T13:03:18.000Z</time>
      </trkpt>
      <trkpt lat="45.84563" lon="4.69429">
        <ele>276.87695</ele>
        <time>2022-11-20T13:03:19.000Z</time>
      </trkpt>
      <trkpt lat="45.8456" lon="4.69432">
        <ele>277.54343</ele>
        <time>2022-11-20T13:03:20.000Z</time>
      </trkpt>
      <trkpt lat="45.84559" lon="4.69434">
        <ele>278.11871</ele>
        <time>2022-11-20T13:03:21.000Z</time>
      </trkpt>
      <trkpt lat="45.84556" lon="4.69437">
        <ele>278.69235</ele>
        <time>2022-11-20T13:03:22.000Z</time>
      </trkpt>
      <trkpt lat="45.84553" lon="4.69441">
        <ele>279.02606</ele>
        <time>2022-11-20T13:03:23.000Z</time>
      </trkpt>
      <trkpt lat="45.84551" lon="4.69443">
        <ele>279.60339</ele>
        <time>2022-11-20T13:03:24.000Z</time>
      </trkpt>
      <trkpt lat="45.84548" lon="4.69446">
        <ele>280.12372</ele>
        <time>2022-11-20T13:03:25.000Z</time>
      </trkpt>
      <trkpt lat="45.84546" lon="4.69448">
        <ele>280.43549</ele>
        <time>2022-11-20T13:03:26.000Z</time>
      </trkpt>
      <trkpt lat="45.84544" lon="4.6945">
        <ele>280.81171</ele>
        <time>2022-11-20T13:03:27.000Z</time>
      </trkpt>
      <trkpt lat="45.84537" lon="4.69455">
        <ele>280.34314</ele>
        <time>2022-11-20T13:03:28.000Z</time>
      </trkpt>
      <trkpt lat="45.84534" lon="4.69458">
        <ele>279.81458</ele>
        <time>2022-11-20T13:03:29.000Z</time>
      </trkpt>
      <trkpt lat="45.8453" lon="4.69461">
        <ele>280.06058</ele>
        <time>2022-11-20T13:03:30.000Z</time>
      </trkpt>
      <trkpt lat="45.84527" lon="4.69462">
        <ele>280.414</ele>
        <time>2022-11-20T13:03:31.000Z</time>
      </trkpt>
      <trkpt lat="45.84524" lon="4.69465">
        <ele>280.71844</ele>
        <time>2022-11-20T13:03:32.000Z</time>
      </trkpt>
      <trkpt lat="45.84522" lon="4.69466">
        <ele>280.78558</ele>
        <time>2022-11-20T13:03:33.000Z</time>
      </trkpt>
      <trkpt lat="45.8452" lon="4.69468">
        <ele>280.99823</ele>
        <time>2022-11-20T13:03:34.000Z</time>
      </trkpt>
      <trkpt lat="45.84518" lon="4.6947">
        <ele>280.9534</ele>
        <time>2022-11-20T13:03:35.000Z</time>
      </trkpt>
      <trkpt lat="45.84516" lon="4.69472">
        <ele>280.81387</ele>
        <time>2022-11-20T13:03:36.000Z</time>
      </trkpt>
      <trkpt lat="45.84513" lon="4.69474">
        <ele>280.32361</ele>
        <time>2022-11-20T13:03:37.000Z</time>
      </trkpt>
      <trkpt lat="45.84511" lon="4.69476">
        <ele>279.79343</ele>
        <time>2022-11-20T13:03:38.000Z</time>
      </trkpt>
      <trkpt lat="45.84508" lon="4.69478">
        <ele>279.30276</ele>
        <time>2022-11-20T13:03:39.000Z</time>
      </trkpt>
      <trkpt lat="45.84505" lon="4.69479">
        <ele>277.93881</ele>
        <time>2022-11-20T13:03:40.000Z</time>
      </trkpt>
      <trkpt lat="45.84498" lon="4.69481">
        <ele>277.36664</ele>
        <time>2022-11-20T13:03:42.000Z</time>
      </trkpt>
      <trkpt lat="45.84495" lon="4.69482">
        <ele>276.9444</ele>
        <time>2022-11-20T13:03:43.000Z</time>
      </trkpt>
      <trkpt lat="45.84494" lon="4.69485">
        <ele>276.9368</ele>
        <time>2022-11-20T13:03:44.000Z</time>
      </trkpt>
      <trkpt lat="45.84493" lon="4.69487">
        <ele>276.63055</ele>
        <time>2022-11-20T13:03:45.000Z</time>
      </trkpt>
      <trkpt lat="45.84491" lon="4.69489">
        <ele>276.39914</ele>
        <time>2022-11-20T13:03:46.000Z</time>
      </trkpt>
      <trkpt lat="45.8449" lon="4.69491">
        <ele>276.13776</ele>
        <time>2022-11-20T13:03:47.000Z</time>
      </trkpt>
      <trkpt lat="45.84488" lon="4.69494">
        <ele>275.88132</ele>
        <time>2022-11-20T13:03:48.000Z</time>
      </trkpt>
      <trkpt lat="45.84487" lon="4.69496">
        <ele>276.57947</ele>
        <time>2022-11-20T13:03:49.000Z</time>
      </trkpt>
      <trkpt lat="45.84484" lon="4.69498">
        <ele>276.91672</ele>
        <time>2022-11-20T13:03:50.000Z</time>
      </trkpt>
      <trkpt lat="45.84482" lon="4.695">
        <ele>276.52603</ele>
        <time>2022-11-20T13:03:51.000Z</time>
      </trkpt>
      <trkpt lat="45.84477" lon="4.69501">
        <ele>275.9848</ele>
        <time>2022-11-20T13:03:52.000Z</time>
      </trkpt>
      <trkpt lat="45.84474" lon="4.69502">
        <ele>274.92355</ele>
        <time>2022-11-20T13:03:53.000Z</time>
      </trkpt>
      <trkpt lat="45.84471" lon="4.69503">
        <ele>273.91718</ele>
        <time>2022-11-20T13:03:54.000Z</time>
      </trkpt>
      <trkpt lat="45.84468" lon="4.69504">
        <ele>273.91928</ele>
        <time>2022-11-20T13:03:55.000Z</time>
      </trkpt>
      <trkpt lat="45.84464" lon="4.69504">
        <ele>273.96716</ele>
        <time>2022-11-20T13:03:56.000Z</time>
      </trkpt>
      <trkpt lat="45.84462" lon="4.69505">
        <ele>274.03146</ele>
        <time>2022-11-20T13:03:57.000Z</time>
      </trkpt>
      <trkpt lat="45.84458" lon="4.69505">
        <ele>274.11209</ele>
        <time>2022-11-20T13:03:58.000Z</time>
      </trkpt>
      <trkpt lat="45.84455" lon="4.69506">
        <ele>274.31421</ele>
        <time>2022-11-20T13:03:59.000Z</time>
      </trkpt>
      <trkpt lat="45.84452" lon="4.69509">
        <ele>274.05746</ele>
        <time>2022-11-20T13:04:00.000Z</time>
      </trkpt>
      <trkpt lat="45.8445" lon="4.69509">
        <ele>274.69168</ele>
        <time>2022-11-20T13:04:01.000Z</time>
      </trkpt>
      <trkpt lat="45.84447" lon="4.69509">
        <ele>274.57953</ele>
        <time>2022-11-20T13:04:02.000Z</time>
      </trkpt>
      <trkpt lat="45.84444" lon="4.69509">
        <ele>274.39453</ele>
        <time>2022-11-20T13:04:03.000Z</time>
      </trkpt>
      <trkpt lat="45.8444" lon="4.6951">
        <ele>274.1774</ele>
        <time>2022-11-20T13:04:04.000Z</time>
      </trkpt>
      <trkpt lat="45.84437" lon="4.69511">
        <ele>273.95941</ele>
        <time>2022-11-20T13:04:05.000Z</time>
      </trkpt>
      <trkpt lat="45.84434" lon="4.69513">
        <ele>273.91882</ele>
        <time>2022-11-20T13:04:06.000Z</time>
      </trkpt>
      <trkpt lat="45.84431" lon="4.69515">
        <ele>273.88287</ele>
        <time>2022-11-20T13:04:07.000Z</time>
      </trkpt>
      <trkpt lat="45.84428" lon="4.69517">
        <ele>273.81702</ele>
        <time>2022-11-20T13:04:08.000Z</time>
      </trkpt>
      <trkpt lat="45.84424" lon="4.69518">
        <ele>273.30707</ele>
        <time>2022-11-20T13:04:09.000Z</time>
      </trkpt>
      <trkpt lat="45.8442" lon="4.6952">
        <ele>273.17926</ele>
        <time>2022-11-20T13:04:10.000Z</time>
      </trkpt>
      <trkpt lat="45.84417" lon="4.69521">
        <ele>272.85306</ele>
        <time>2022-11-20T13:04:11.000Z</time>
      </trkpt>
      <trkpt lat="45.84413" lon="4.69523">
        <ele>272.60983</ele>
        <time>2022-11-20T13:04:12.000Z</time>
      </trkpt>
      <trkpt lat="45.8441" lon="4.69525">
        <ele>272.95453</ele>
        <time>2022-11-20T13:04:13.000Z</time>
      </trkpt>
      <trkpt lat="45.84406" lon="4.69526">
        <ele>273.30389</ele>
        <time>2022-11-20T13:04:14.000Z</time>
      </trkpt>
      <trkpt lat="45.84403" lon="4.69528">
        <ele>272.6311</ele>
        <time>2022-11-20T13:04:15.000Z</time>
      </trkpt>
      <trkpt lat="45.84399" lon="4.69529">
        <ele>272.03375</ele>
        <time>2022-11-20T13:04:16.000Z</time>
      </trkpt>
      <trkpt lat="45.84396" lon="4.69529">
        <ele>271.49628</ele>
        <time>2022-11-20T13:04:17.000Z</time>
      </trkpt>
      <trkpt lat="45.84393" lon="4.6953">
        <ele>270.94571</ele>
        <time>2022-11-20T13:04:18.000Z</time>
      </trkpt>
      <trkpt lat="45.8439" lon="4.69531">
        <ele>270.27704</ele>
        <time>2022-11-20T13:04:19.000Z</time>
      </trkpt>
      <trkpt lat="45.84387" lon="4.69531">
        <ele>270.09436</ele>
        <time>2022-11-20T13:04:20.000Z</time>
      </trkpt>
      <trkpt lat="45.84385" lon="4.69531">
        <ele>269.95306</ele>
        <time>2022-11-20T13:04:21.000Z</time>
      </trkpt>
      <trkpt lat="45.84382" lon="4.69532">
        <ele>270.30359</ele>
        <time>2022-11-20T13:04:22.000Z</time>
      </trkpt>
      <trkpt lat="45.84379" lon="4.69532">
        <ele>270.68353</ele>
        <time>2022-11-20T13:04:23.000Z</time>
      </trkpt>
      <trkpt lat="45.84377" lon="4.69533">
        <ele>271.15811</ele>
        <time>2022-11-20T13:04:25.000Z</time>
      </trkpt>
      <trkpt lat="45.84379" lon="4.69535">
        <ele>271.67316</ele>
        <time>2022-11-20T13:04:27.000Z</time>
      </trkpt>
      <trkpt lat="45.84381" lon="4.69532">
        <ele>272.12723</ele>
        <time>2022-11-20T13:04:29.000Z</time>
      </trkpt>
      <trkpt lat="45.8438" lon="4.69528">
        <ele>272.56699</ele>
        <time>2022-11-20T13:04:31.000Z</time>
      </trkpt>
      <trkpt lat="45.84377" lon="4.69528">
        <ele>273.01837</ele>
        <time>2022-11-20T13:04:32.000Z</time>
      </trkpt>
      <trkpt lat="45.84376" lon="4.6953">
        <ele>273.88385</ele>
        <time>2022-11-20T13:04:33.000Z</time>
      </trkpt>
      <trkpt lat="45.84375" lon="4.69533">
        <ele>274.74625</ele>
        <time>2022-11-20T13:04:34.000Z</time>
      </trkpt>
      <trkpt lat="45.84375" lon="4.69537">
        <ele>275.60168</ele>
        <time>2022-11-20T13:04:35.000Z</time>
      </trkpt>
      <trkpt lat="45.84376" lon="4.69541">
        <ele>276.43903</ele>
        <time>2022-11-20T13:04:36.000Z</time>
      </trkpt>
      <trkpt lat="45.84377" lon="4.69546">
        <ele>277.2265</ele>
        <time>2022-11-20T13:04:37.000Z</time>
      </trkpt>
      <trkpt lat="45.84377" lon="4.69551">
        <ele>278.02649</ele>
        <time>2022-11-20T13:04:38.000Z</time>
      </trkpt>
      <trkpt lat="45.84377" lon="4.69556">
        <ele>278.85547</ele>
        <time>2022-11-20T13:04:39.000Z</time>
      </trkpt>
      <trkpt lat="45.84377" lon="4.69561">
        <ele>279.6579</ele>
        <time>2022-11-20T13:04:40.000Z</time>
      </trkpt>
      <trkpt lat="45.84378" lon="4.69566">
        <ele>280.56036</ele>
        <time>2022-11-20T13:04:41.000Z</time>
      </trkpt>
      <trkpt lat="45.84378" lon="4.69571">
        <ele>281.43494</ele>
        <time>2022-11-20T13:04:42.000Z</time>
      </trkpt>
      <trkpt lat="45.84379" lon="4.69576">
        <ele>282.26349</ele>
        <time>2022-11-20T13:04:43.000Z</time>
      </trkpt>
      <trkpt lat="45.8438" lon="4.6958">
        <ele>283.09512</ele>
        <time>2022-11-20T13:04:44.000Z</time>
      </trkpt>
      <trkpt lat="45.84381" lon="4.69584">
        <ele>283.92178</ele>
        <time>2022-11-20T13:04:45.000Z</time>
      </trkpt>
      <trkpt lat="45.84382" lon="4.69588">
        <ele>284.20709</ele>
        <time>2022-11-20T13:04:46.000Z</time>
      </trkpt>
      <trkpt lat="45.84383" lon="4.69592">
        <ele>284.44843</ele>
        <time>2022-11-20T13:04:47.000Z</time>
      </trkpt>
      <trkpt lat="45.84383" lon="4.69597">
        <ele>284.57037</ele>
        <time>2022-11-20T13:04:48.000Z</time>
      </trkpt>
      <trkpt lat="45.84384" lon="4.69602">
        <ele>284.77899</ele>
        <time>2022-11-20T13:04:49.000Z</time>
      </trkpt>
      <trkpt lat="45.84385" lon="4.69607">
        <ele>284.89465</ele>
        <time>2022-11-20T13:04:50.000Z</time>
      </trkpt>
      <trkpt lat="45.84386" lon="4.69611">
        <ele>284.9895</ele>
        <time>2022-11-20T13:04:51.000Z</time>
      </trkpt>
      <trkpt lat="45.84388" lon="4.69616">
        <ele>285.12616</ele>
        <time>2022-11-20T13:04:52.000Z</time>
      </trkpt>
      <trkpt lat="45.84389" lon="4.69618">
        <ele>285.16135</ele>
        <time>2022-11-20T13:04:53.000Z</time>
      </trkpt>
      <trkpt lat="45.84389" lon="4.69621">
        <ele>285.22354</ele>
        <time>2022-11-20T13:04:54.000Z</time>
      </trkpt>
      <trkpt lat="45.84389" lon="4.69625">
        <ele>285.34766</ele>
        <time>2022-11-20T13:04:55.000Z</time>
      </trkpt>
      <trkpt lat="45.84387" lon="4.69628">
        <ele>285.49982</ele>
        <time>2022-11-20T13:04:56.000Z</time>
      </trkpt>
      <trkpt lat="45.84386" lon="4.6963">
        <ele>285.69</ele>
        <time>2022-11-20T13:04:57.000Z</time>
      </trkpt>
      <trkpt lat="45.84384" lon="4.69631">
        <ele>285.96582</ele>
        <time>2022-11-20T13:04:58.000Z</time>
      </trkpt>
      <trkpt lat="45.84382" lon="4.69632">
        <ele>286.23016</ele>
        <time>2022-11-20T13:04:59.000Z</time>
      </trkpt>
      <trkpt lat="45.84379" lon="4.69632">
        <ele>286.43643</ele>
        <time>2022-11-20T13:05:00.000Z</time>
      </trkpt>
      <trkpt lat="45.84376" lon="4.69633">
        <ele>286.60159</ele>
        <time>2022-11-20T13:05:01.000Z</time>
      </trkpt>
      <trkpt lat="45.84374" lon="4.69634">
        <ele>286.87592</ele>
        <time>2022-11-20T13:05:02.000Z</time>
      </trkpt>
      <trkpt lat="45.84371" lon="4.69636">
        <ele>286.89398</ele>
        <time>2022-11-20T13:05:03.000Z</time>
      </trkpt>
      <trkpt lat="45.84368" lon="4.69638">
        <ele>286.96271</ele>
        <time>2022-11-20T13:05:04.000Z</time>
      </trkpt>
      <trkpt lat="45.84366" lon="4.6964">
        <ele>287.03799</ele>
        <time>2022-11-20T13:05:05.000Z</time>
      </trkpt>
      <trkpt lat="45.84363" lon="4.69641">
        <ele>287.08105</ele>
        <time>2022-11-20T13:05:06.000Z</time>
      </trkpt>
      <trkpt lat="45.84359" lon="4.69643">
        <ele>287.17126</ele>
        <time>2022-11-20T13:05:07.000Z</time>
      </trkpt>
      <trkpt lat="45.84355" lon="4.69644">
        <ele>287.26355</ele>
        <time>2022-11-20T13:05:08.000Z</time>
      </trkpt>
      <trkpt lat="45.84351" lon="4.69646">
        <ele>287.33429</ele>
        <time>2022-11-20T13:05:09.000Z</time>
      </trkpt>
      <trkpt lat="45.84348" lon="4.69648">
        <ele>287.37054</ele>
        <time>2022-11-20T13:05:10.000Z</time>
      </trkpt>
      <trkpt lat="45.84344" lon="4.6965">
        <ele>287.44778</ele>
        <time>2022-11-20T13:05:11.000Z</time>
      </trkpt>
      <trkpt lat="45.8434" lon="4.69653">
        <ele>287.52176</ele>
        <time>2022-11-20T13:05:12.000Z</time>
      </trkpt>
      <trkpt lat="45.84336" lon="4.69655">
        <ele>287.5802</ele>
        <time>2022-11-20T13:05:13.000Z</time>
      </trkpt>
      <trkpt lat="45.84332" lon="4.69658">
        <ele>287.54895</ele>
        <time>2022-11-20T13:05:14.000Z</time>
      </trkpt>
      <trkpt lat="45.84329" lon="4.69659">
        <ele>287.41705</ele>
        <time>2022-11-20T13:05:15.000Z</time>
      </trkpt>
      <trkpt lat="45.84326" lon="4.6966">
        <ele>287.25534</ele>
        <time>2022-11-20T13:05:16.000Z</time>
      </trkpt>
      <trkpt lat="45.84323" lon="4.69661">
        <ele>287.06714</ele>
        <time>2022-11-20T13:05:17.000Z</time>
      </trkpt>
      <trkpt lat="45.84319" lon="4.69662">
        <ele>286.85379</ele>
        <time>2022-11-20T13:05:18.000Z</time>
      </trkpt>
      <trkpt lat="45.84316" lon="4.69663">
        <ele>286.71265</ele>
        <time>2022-11-20T13:05:19.000Z</time>
      </trkpt>
      <trkpt lat="45.84313" lon="4.69663">
        <ele>286.61346</ele>
        <time>2022-11-20T13:05:20.000Z</time>
      </trkpt>
      <trkpt lat="45.84309" lon="4.69664">
        <ele>286.58377</ele>
        <time>2022-11-20T13:05:21.000Z</time>
      </trkpt>
      <trkpt lat="45.84306" lon="4.69665">
        <ele>286.44153</ele>
        <time>2022-11-20T13:05:22.000Z</time>
      </trkpt>
      <trkpt lat="45.84302" lon="4.69667">
        <ele>286.54407</ele>
        <time>2022-11-20T13:05:23.000Z</time>
      </trkpt>
      <trkpt lat="45.84298" lon="4.69668">
        <ele>286.61017</ele>
        <time>2022-11-20T13:05:24.000Z</time>
      </trkpt>
      <trkpt lat="45.84294" lon="4.6967">
        <ele>286.63519</ele>
        <time>2022-11-20T13:05:25.000Z</time>
      </trkpt>
      <trkpt lat="45.84291" lon="4.69672">
        <ele>286.72342</ele>
        <time>2022-11-20T13:05:26.000Z</time>
      </trkpt>
      <trkpt lat="45.84288" lon="4.69673">
        <ele>286.69894</ele>
        <time>2022-11-20T13:05:27.000Z</time>
      </trkpt>
      <trkpt lat="45.84285" lon="4.69675">
        <ele>286.52835</ele>
        <time>2022-11-20T13:05:28.000Z</time>
      </trkpt>
      <trkpt lat="45.84282" lon="4.69676">
        <ele>286.32761</ele>
        <time>2022-11-20T13:05:29.000Z</time>
      </trkpt>
      <trkpt lat="45.84279" lon="4.69677">
        <ele>286.00159</ele>
        <time>2022-11-20T13:05:30.000Z</time>
      </trkpt>
      <trkpt lat="45.84275" lon="4.69679">
        <ele>285.66071</ele>
        <time>2022-11-20T13:05:31.000Z</time>
      </trkpt>
      <trkpt lat="45.84272" lon="4.6968">
        <ele>285.33188</ele>
        <time>2022-11-20T13:05:32.000Z</time>
      </trkpt>
      <trkpt lat="45.84268" lon="4.69681">
        <ele>285.04828</ele>
        <time>2022-11-20T13:05:33.000Z</time>
      </trkpt>
      <trkpt lat="45.84264" lon="4.69682">
        <ele>284.82825</ele>
        <time>2022-11-20T13:05:34.000Z</time>
      </trkpt>
      <trkpt lat="45.8426" lon="4.69684">
        <ele>284.6839</ele>
        <time>2022-11-20T13:05:35.000Z</time>
      </trkpt>
      <trkpt lat="45.84256" lon="4.69686">
        <ele>284.51318</ele>
        <time>2022-11-20T13:05:36.000Z</time>
      </trkpt>
      <trkpt lat="45.84253" lon="4.69688">
        <ele>284.36337</ele>
        <time>2022-11-20T13:05:37.000Z</time>
      </trkpt>
      <trkpt lat="45.84249" lon="4.69689">
        <ele>284.10806</ele>
        <time>2022-11-20T13:05:38.000Z</time>
      </trkpt>
      <trkpt lat="45.84243" lon="4.69691">
        <ele>283.86676</ele>
        <time>2022-11-20T13:05:39.000Z</time>
      </trkpt>
      <trkpt lat="45.84239" lon="4.69689">
        <ele>283.58118</ele>
        <time>2022-11-20T13:05:40.000Z</time>
      </trkpt>
      <trkpt lat="45.84236" lon="4.69687">
        <ele>283.14999</ele>
        <time>2022-11-20T13:05:41.000Z</time>
      </trkpt>
      <trkpt lat="45.84229" lon="4.69689">
        <ele>282.77039</ele>
        <time>2022-11-20T13:05:42.000Z</time>
      </trkpt>
      <trkpt lat="45.84225" lon="4.69689">
        <ele>282.48383</ele>
        <time>2022-11-20T13:05:43.000Z</time>
      </trkpt>
      <trkpt lat="45.84222" lon="4.69689">
        <ele>282.22552</ele>
        <time>2022-11-20T13:05:44.000Z</time>
      </trkpt>
      <trkpt lat="45.84218" lon="4.69688">
        <ele>281.21948</ele>
        <time>2022-11-20T13:05:45.000Z</time>
      </trkpt>
      <trkpt lat="45.84213" lon="4.69688">
        <ele>280.28888</ele>
        <time>2022-11-20T13:05:46.000Z</time>
      </trkpt>
      <trkpt lat="45.84209" lon="4.69687">
        <ele>280.22495</ele>
        <time>2022-11-20T13:05:47.000Z</time>
      </trkpt>
      <trkpt lat="45.84204" lon="4.69688">
        <ele>280.06961</ele>
        <time>2022-11-20T13:05:48.000Z</time>
      </trkpt>
      <trkpt lat="45.842" lon="4.69689">
        <ele>279.93991</ele>
        <time>2022-11-20T13:05:49.000Z</time>
      </trkpt>
      <trkpt lat="45.84195" lon="4.6969">
        <ele>279.95654</ele>
        <time>2022-11-20T13:05:50.000Z</time>
      </trkpt>
      <trkpt lat="45.8419" lon="4.69689">
        <ele>280.01968</ele>
        <time>2022-11-20T13:05:51.000Z</time>
      </trkpt>
      <trkpt lat="45.84185" lon="4.69688">
        <ele>280.07227</ele>
        <time>2022-11-20T13:05:52.000Z</time>
      </trkpt>
      <trkpt lat="45.84181" lon="4.69687">
        <ele>280.13943</ele>
        <time>2022-11-20T13:05:53.000Z</time>
      </trkpt>
      <trkpt lat="45.84178" lon="4.69687">
        <ele>280.21982</ele>
        <time>2022-11-20T13:05:54.000Z</time>
      </trkpt>
      <trkpt lat="45.84175" lon="4.69686">
        <ele>280.25174</ele>
        <time>2022-11-20T13:05:55.000Z</time>
      </trkpt>
      <trkpt lat="45.84171" lon="4.69687">
        <ele>280.29559</ele>
        <time>2022-11-20T13:05:56.000Z</time>
      </trkpt>
      <trkpt lat="45.84168" lon="4.69688">
        <ele>280.38818</ele>
        <time>2022-11-20T13:05:57.000Z</time>
      </trkpt>
      <trkpt lat="45.84165" lon="4.69687">
        <ele>280.53418</ele>
        <time>2022-11-20T13:05:58.000Z</time>
      </trkpt>
      <trkpt lat="45.84161" lon="4.69688">
        <ele>280.61136</ele>
        <time>2022-11-20T13:05:59.000Z</time>
      </trkpt>
      <trkpt lat="45.84158" lon="4.69689">
        <ele>280.68939</ele>
        <time>2022-11-20T13:06:00.000Z</time>
      </trkpt>
      <trkpt lat="45.84155" lon="4.69689">
        <ele>280.74719</ele>
        <time>2022-11-20T13:06:01.000Z</time>
      </trkpt>
      <trkpt lat="45.84152" lon="4.69688">
        <ele>280.7966</ele>
        <time>2022-11-20T13:06:02.000Z</time>
      </trkpt>
      <trkpt lat="45.84148" lon="4.69688">
        <ele>280.75989</ele>
        <time>2022-11-20T13:06:03.000Z</time>
      </trkpt>
      <trkpt lat="45.84145" lon="4.69687">
        <ele>280.60825</ele>
        <time>2022-11-20T13:06:04.000Z</time>
      </trkpt>
      <trkpt lat="45.84142" lon="4.69686">
        <ele>281.1962</ele>
        <time>2022-11-20T13:06:05.000Z</time>
      </trkpt>
      <trkpt lat="45.84139" lon="4.69685">
        <ele>281.68146</ele>
        <time>2022-11-20T13:06:06.000Z</time>
      </trkpt>
      <trkpt lat="45.84136" lon="4.69685">
        <ele>281.42673</ele>
        <time>2022-11-20T13:06:07.000Z</time>
      </trkpt>
      <trkpt lat="45.84133" lon="4.69685">
        <ele>281.51318</ele>
        <time>2022-11-20T13:06:08.000Z</time>
      </trkpt>
      <trkpt lat="45.8413" lon="4.69686">
        <ele>281.48059</ele>
        <time>2022-11-20T13:06:09.000Z</time>
      </trkpt>
      <trkpt lat="45.84126" lon="4.69686">
        <ele>281.46338</ele>
        <time>2022-11-20T13:06:10.000Z</time>
      </trkpt>
      <trkpt lat="45.84123" lon="4.69686">
        <ele>281.53217</ele>
        <time>2022-11-20T13:06:11.000Z</time>
      </trkpt>
      <trkpt lat="45.84119" lon="4.69686">
        <ele>281.25101</ele>
        <time>2022-11-20T13:06:12.000Z</time>
      </trkpt>
      <trkpt lat="45.84116" lon="4.69685">
        <ele>281.0307</ele>
        <time>2022-11-20T13:06:13.000Z</time>
      </trkpt>
      <trkpt lat="45.84113" lon="4.69685">
        <ele>280.82468</ele>
        <time>2022-11-20T13:06:14.000Z</time>
      </trkpt>
      <trkpt lat="45.8411" lon="4.69684">
        <ele>280.66534</ele>
        <time>2022-11-20T13:06:15.000Z</time>
      </trkpt>
      <trkpt lat="45.84107" lon="4.69684">
        <ele>280.49777</ele>
        <time>2022-11-20T13:06:16.000Z</time>
      </trkpt>
      <trkpt lat="45.84105" lon="4.69683">
        <ele>280.34106</ele>
        <time>2022-11-20T13:06:17.000Z</time>
      </trkpt>
      <trkpt lat="45.84103" lon="4.69682">
        <ele>280.16083</ele>
        <time>2022-11-20T13:06:18.000Z</time>
      </trkpt>
      <trkpt lat="45.84101" lon="4.69681">
        <ele>280.00702</ele>
        <time>2022-11-20T13:06:19.000Z</time>
      </trkpt>
      <trkpt lat="45.84099" lon="4.69681">
        <ele>280.00217</ele>
        <time>2022-11-20T13:06:20.000Z</time>
      </trkpt>
      <trkpt lat="45.84096" lon="4.69681">
        <ele>280.12677</ele>
        <time>2022-11-20T13:06:21.000Z</time>
      </trkpt>
      <trkpt lat="45.84094" lon="4.69681">
        <ele>280.22305</ele>
        <time>2022-11-20T13:06:22.000Z</time>
      </trkpt>
      <trkpt lat="45.84091" lon="4.69681">
        <ele>280.06866</ele>
        <time>2022-11-20T13:06:23.000Z</time>
      </trkpt>
      <trkpt lat="45.84088" lon="4.69681">
        <ele>280.03445</ele>
        <time>2022-11-20T13:06:24.000Z</time>
      </trkpt>
      <trkpt lat="45.84086" lon="4.69682">
        <ele>279.9718</ele>
        <time>2022-11-20T13:06:25.000Z</time>
      </trkpt>
      <trkpt lat="45.84083" lon="4.69683">
        <ele>279.9306</ele>
        <time>2022-11-20T13:06:26.000Z</time>
      </trkpt>
      <trkpt lat="45.8408" lon="4.69685">
        <ele>279.96072</ele>
        <time>2022-11-20T13:06:27.000Z</time>
      </trkpt>
      <trkpt lat="45.84077" lon="4.69688">
        <ele>279.94403</ele>
        <time>2022-11-20T13:06:28.000Z</time>
      </trkpt>
      <trkpt lat="45.84073" lon="4.69691">
        <ele>279.97165</ele>
        <time>2022-11-20T13:06:29.000Z</time>
      </trkpt>
      <trkpt lat="45.8407" lon="4.69695">
        <ele>280.10175</ele>
        <time>2022-11-20T13:06:30.000Z</time>
      </trkpt>
      <trkpt lat="45.84064" lon="4.69701">
        <ele>279.91885</ele>
        <time>2022-11-20T13:06:31.000Z</time>
      </trkpt>
      <trkpt lat="45.84061" lon="4.69706">
        <ele>280.18637</ele>
        <time>2022-11-20T13:06:32.000Z</time>
      </trkpt>
      <trkpt lat="45.84057" lon="4.6971">
        <ele>280.4043</ele>
        <time>2022-11-20T13:06:33.000Z</time>
      </trkpt>
      <trkpt lat="45.84054" lon="4.69715">
        <ele>280.55969</ele>
        <time>2022-11-20T13:06:34.000Z</time>
      </trkpt>
      <trkpt lat="45.84051" lon="4.69718">
        <ele>280.63995</ele>
        <time>2022-11-20T13:06:35.000Z</time>
      </trkpt>
      <trkpt lat="45.84049" lon="4.69721">
        <ele>280.83481</ele>
        <time>2022-11-20T13:06:36.000Z</time>
      </trkpt>
      <trkpt lat="45.84047" lon="4.69727">
        <ele>281.10028</ele>
        <time>2022-11-20T13:06:38.000Z</time>
      </trkpt>
      <trkpt lat="45.84045" lon="4.6973">
        <ele>281.10535</ele>
        <time>2022-11-20T13:06:39.000Z</time>
      </trkpt>
      <trkpt lat="45.84043" lon="4.69734">
        <ele>281.19272</ele>
        <time>2022-11-20T13:06:40.000Z</time>
      </trkpt>
      <trkpt lat="45.84041" lon="4.69738">
        <ele>281.12302</ele>
        <time>2022-11-20T13:06:41.000Z</time>
      </trkpt>
      <trkpt lat="45.84039" lon="4.69741">
        <ele>280.92667</ele>
        <time>2022-11-20T13:06:42.000Z</time>
      </trkpt>
      <trkpt lat="45.84037" lon="4.69745">
        <ele>280.73459</ele>
        <time>2022-11-20T13:06:43.000Z</time>
      </trkpt>
      <trkpt lat="45.84035" lon="4.69748">
        <ele>280.42993</ele>
        <time>2022-11-20T13:06:44.000Z</time>
      </trkpt>
      <trkpt lat="45.84032" lon="4.69752">
        <ele>280.06604</ele>
        <time>2022-11-20T13:06:45.000Z</time>
      </trkpt>
      <trkpt lat="45.8403" lon="4.69756">
        <ele>279.74924</ele>
        <time>2022-11-20T13:06:46.000Z</time>
      </trkpt>
      <trkpt lat="45.84028" lon="4.6976">
        <ele>279.40411</ele>
        <time>2022-11-20T13:06:47.000Z</time>
      </trkpt>
      <trkpt lat="45.84026" lon="4.69763">
        <ele>279.03604</ele>
        <time>2022-11-20T13:06:48.000Z</time>
      </trkpt>
      <trkpt lat="45.84023" lon="4.69767">
        <ele>278.66678</ele>
        <time>2022-11-20T13:06:49.000Z</time>
      </trkpt>
      <trkpt lat="45.84021" lon="4.69771">
        <ele>278.30563</ele>
        <time>2022-11-20T13:06:50.000Z</time>
      </trkpt>
      <trkpt lat="45.84018" lon="4.69774">
        <ele>277.82193</ele>
        <time>2022-11-20T13:06:51.000Z</time>
      </trkpt>
      <trkpt lat="45.84016" lon="4.69777">
        <ele>277.52417</ele>
        <time>2022-11-20T13:06:52.000Z</time>
      </trkpt>
      <trkpt lat="45.84014" lon="4.69781">
        <ele>277.13934</ele>
        <time>2022-11-20T13:06:53.000Z</time>
      </trkpt>
      <trkpt lat="45.84012" lon="4.69785">
        <ele>276.759</ele>
        <time>2022-11-20T13:06:54.000Z</time>
      </trkpt>
      <trkpt lat="45.8401" lon="4.69788">
        <ele>276.43231</ele>
        <time>2022-11-20T13:06:55.000Z</time>
      </trkpt>
      <trkpt lat="45.84008" lon="4.69792">
        <ele>276.19247</ele>
        <time>2022-11-20T13:06:56.000Z</time>
      </trkpt>
      <trkpt lat="45.84006" lon="4.69796">
        <ele>275.85815</ele>
        <time>2022-11-20T13:06:57.000Z</time>
      </trkpt>
      <trkpt lat="45.84005" lon="4.69799">
        <ele>275.48065</ele>
        <time>2022-11-20T13:06:58.000Z</time>
      </trkpt>
      <trkpt lat="45.84002" lon="4.69803">
        <ele>275.37131</ele>
        <time>2022-11-20T13:06:59.000Z</time>
      </trkpt>
      <trkpt lat="45.84" lon="4.69806">
        <ele>275.17566</ele>
        <time>2022-11-20T13:07:00.000Z</time>
      </trkpt>
      <trkpt lat="45.83998" lon="4.6981">
        <ele>274.99686</ele>
        <time>2022-11-20T13:07:01.000Z</time>
      </trkpt>
      <trkpt lat="45.83995" lon="4.69813">
        <ele>274.8443</ele>
        <time>2022-11-20T13:07:02.000Z</time>
      </trkpt>
      <trkpt lat="45.83993" lon="4.69817">
        <ele>274.68341</ele>
        <time>2022-11-20T13:07:03.000Z</time>
      </trkpt>
      <trkpt lat="45.8399" lon="4.69822">
        <ele>274.89655</ele>
        <time>2022-11-20T13:07:04.000Z</time>
      </trkpt>
      <trkpt lat="45.83988" lon="4.69826">
        <ele>275.11337</ele>
        <time>2022-11-20T13:07:05.000Z</time>
      </trkpt>
      <trkpt lat="45.83985" lon="4.6983">
        <ele>275.32269</ele>
        <time>2022-11-20T13:07:06.000Z</time>
      </trkpt>
      <trkpt lat="45.83983" lon="4.69835">
        <ele>275.57016</ele>
        <time>2022-11-20T13:07:07.000Z</time>
      </trkpt>
      <trkpt lat="45.8398" lon="4.69839">
        <ele>275.80405</ele>
        <time>2022-11-20T13:07:08.000Z</time>
      </trkpt>
      <trkpt lat="45.83977" lon="4.69844">
        <ele>276.01379</ele>
        <time>2022-11-20T13:07:09.000Z</time>
      </trkpt>
      <trkpt lat="45.83974" lon="4.69848">
        <ele>276.2023</ele>
        <time>2022-11-20T13:07:10.000Z</time>
      </trkpt>
      <trkpt lat="45.83972" lon="4.69853">
        <ele>276.39963</ele>
        <time>2022-11-20T13:07:11.000Z</time>
      </trkpt>
      <trkpt lat="45.83969" lon="4.69857">
        <ele>276.62399</ele>
        <time>2022-11-20T13:07:12.000Z</time>
      </trkpt>
      <trkpt lat="45.83967" lon="4.69862">
        <ele>276.84714</ele>
        <time>2022-11-20T13:07:13.000Z</time>
      </trkpt>
      <trkpt lat="45.83964" lon="4.69866">
        <ele>277.06088</ele>
        <time>2022-11-20T13:07:14.000Z</time>
      </trkpt>
      <trkpt lat="45.83961" lon="4.69872">
        <ele>277.21515</ele>
        <time>2022-11-20T13:07:15.000Z</time>
      </trkpt>
      <trkpt lat="45.83959" lon="4.69877">
        <ele>277.67358</ele>
        <time>2022-11-20T13:07:16.000Z</time>
      </trkpt>
      <trkpt lat="45.83956" lon="4.69882">
        <ele>278.112</ele>
        <time>2022-11-20T13:07:17.000Z</time>
      </trkpt>
      <trkpt lat="45.83953" lon="4.69886">
        <ele>278.47595</ele>
        <time>2022-11-20T13:07:18.000Z</time>
      </trkpt>
      <trkpt lat="45.8395" lon="4.69892">
        <ele>278.85202</ele>
        <time>2022-11-20T13:07:19.000Z</time>
      </trkpt>
      <trkpt lat="45.83948" lon="4.69898">
        <ele>279.22638</ele>
        <time>2022-11-20T13:07:20.000Z</time>
      </trkpt>
      <trkpt lat="45.83945" lon="4.69903">
        <ele>279.57147</ele>
        <time>2022-11-20T13:07:21.000Z</time>
      </trkpt>
      <trkpt lat="45.83942" lon="4.69908">
        <ele>279.90289</ele>
        <time>2022-11-20T13:07:22.000Z</time>
      </trkpt>
      <trkpt lat="45.83939" lon="4.69913">
        <ele>280.24109</ele>
        <time>2022-11-20T13:07:23.000Z</time>
      </trkpt>
      <trkpt lat="45.83936" lon="4.69918">
        <ele>280.59894</ele>
        <time>2022-11-20T13:07:24.000Z</time>
      </trkpt>
      <trkpt lat="45.83932" lon="4.69922">
        <ele>280.94287</ele>
        <time>2022-11-20T13:07:25.000Z</time>
      </trkpt>
      <trkpt lat="45.8393" lon="4.69927">
        <ele>281.27097</ele>
        <time>2022-11-20T13:07:26.000Z</time>
      </trkpt>
      <trkpt lat="45.83928" lon="4.69932">
        <ele>281.59042</ele>
        <time>2022-11-20T13:07:27.000Z</time>
      </trkpt>
      <trkpt lat="45.83925" lon="4.69937">
        <ele>281.87909</ele>
        <time>2022-11-20T13:07:28.000Z</time>
      </trkpt>
      <trkpt lat="45.83923" lon="4.6994">
        <ele>282.19672</ele>
        <time>2022-11-20T13:07:29.000Z</time>
      </trkpt>
      <trkpt lat="45.8392" lon="4.69944">
        <ele>282.5405</ele>
        <time>2022-11-20T13:07:30.000Z</time>
      </trkpt>
      <trkpt lat="45.83918" lon="4.69948">
        <ele>282.99432</ele>
        <time>2022-11-20T13:07:31.000Z</time>
      </trkpt>
      <trkpt lat="45.83915" lon="4.69952">
        <ele>283.4357</ele>
        <time>2022-11-20T13:07:32.000Z</time>
      </trkpt>
      <trkpt lat="45.83912" lon="4.69956">
        <ele>283.85419</ele>
        <time>2022-11-20T13:07:33.000Z</time>
      </trkpt>
      <trkpt lat="45.8391" lon="4.6996">
        <ele>284.26941</ele>
        <time>2022-11-20T13:07:34.000Z</time>
      </trkpt>
      <trkpt lat="45.83907" lon="4.69964">
        <ele>284.72717</ele>
        <time>2022-11-20T13:07:35.000Z</time>
      </trkpt>
      <trkpt lat="45.83905" lon="4.69968">
        <ele>284.83792</ele>
        <time>2022-11-20T13:07:36.000Z</time>
      </trkpt>
      <trkpt lat="45.83902" lon="4.69972">
        <ele>284.93176</ele>
        <time>2022-11-20T13:07:37.000Z</time>
      </trkpt>
      <trkpt lat="45.839" lon="4.69976">
        <ele>285.03046</ele>
        <time>2022-11-20T13:07:38.000Z</time>
      </trkpt>
      <trkpt lat="45.83897" lon="4.6998">
        <ele>285.11346</ele>
        <time>2022-11-20T13:07:39.000Z</time>
      </trkpt>
      <trkpt lat="45.83895" lon="4.69984">
        <ele>285.20502</ele>
        <time>2022-11-20T13:07:40.000Z</time>
      </trkpt>
      <trkpt lat="45.83893" lon="4.69988">
        <ele>285.33563</ele>
        <time>2022-11-20T13:07:41.000Z</time>
      </trkpt>
      <trkpt lat="45.8389" lon="4.69992">
        <ele>285.52655</ele>
        <time>2022-11-20T13:07:42.000Z</time>
      </trkpt>
      <trkpt lat="45.83888" lon="4.69996">
        <ele>285.49774</ele>
        <time>2022-11-20T13:07:43.000Z</time>
      </trkpt>
      <trkpt lat="45.83886" lon="4.7">
        <ele>285.50626</ele>
        <time>2022-11-20T13:07:44.000Z</time>
      </trkpt>
      <trkpt lat="45.83884" lon="4.70004">
        <ele>285.53644</ele>
        <time>2022-11-20T13:07:45.000Z</time>
      </trkpt>
      <trkpt lat="45.83882" lon="4.70008">
        <ele>285.57825</ele>
        <time>2022-11-20T13:07:46.000Z</time>
      </trkpt>
      <trkpt lat="45.83879" lon="4.70012">
        <ele>285.5939</ele>
        <time>2022-11-20T13:07:47.000Z</time>
      </trkpt>
      <trkpt lat="45.83877" lon="4.70016">
        <ele>285.63153</ele>
        <time>2022-11-20T13:07:48.000Z</time>
      </trkpt>
      <trkpt lat="45.83874" lon="4.7002">
        <ele>285.74713</ele>
        <time>2022-11-20T13:07:49.000Z</time>
      </trkpt>
      <trkpt lat="45.83871" lon="4.70024">
        <ele>285.8587</ele>
        <time>2022-11-20T13:07:50.000Z</time>
      </trkpt>
      <trkpt lat="45.83869" lon="4.70028">
        <ele>285.94009</ele>
        <time>2022-11-20T13:07:51.000Z</time>
      </trkpt>
      <trkpt lat="45.83867" lon="4.70032">
        <ele>286.0502</ele>
        <time>2022-11-20T13:07:52.000Z</time>
      </trkpt>
      <trkpt lat="45.83866" lon="4.70036">
        <ele>285.94843</ele>
        <time>2022-11-20T13:07:53.000Z</time>
      </trkpt>
      <trkpt lat="45.83865" lon="4.7004">
        <ele>285.91403</ele>
        <time>2022-11-20T13:07:54.000Z</time>
      </trkpt>
      <trkpt lat="45.83864" lon="4.70045">
        <ele>285.83939</ele>
        <time>2022-11-20T13:07:55.000Z</time>
      </trkpt>
      <trkpt lat="45.83864" lon="4.70049">
        <ele>285.73984</ele>
        <time>2022-11-20T13:07:56.000Z</time>
      </trkpt>
      <trkpt lat="45.83863" lon="4.70054">
        <ele>285.64972</ele>
        <time>2022-11-20T13:07:57.000Z</time>
      </trkpt>
      <trkpt lat="45.83862" lon="4.70057">
        <ele>285.54312</ele>
        <time>2022-11-20T13:07:58.000Z</time>
      </trkpt>
      <trkpt lat="45.83861" lon="4.70061">
        <ele>285.44614</ele>
        <time>2022-11-20T13:07:59.000Z</time>
      </trkpt>
      <trkpt lat="45.8386" lon="4.70065">
        <ele>285.37494</ele>
        <time>2022-11-20T13:08:00.000Z</time>
      </trkpt>
      <trkpt lat="45.83859" lon="4.70069">
        <ele>285.24973</ele>
        <time>2022-11-20T13:08:01.000Z</time>
      </trkpt>
      <trkpt lat="45.83858" lon="4.70074">
        <ele>285.05478</ele>
        <time>2022-11-20T13:08:02.000Z</time>
      </trkpt>
      <trkpt lat="45.83858" lon="4.70078">
        <ele>285.12537</ele>
        <time>2022-11-20T13:08:03.000Z</time>
      </trkpt>
      <trkpt lat="45.83857" lon="4.70083">
        <ele>285.13803</ele>
        <time>2022-11-20T13:08:04.000Z</time>
      </trkpt>
      <trkpt lat="45.83856" lon="4.70087">
        <ele>285.15659</ele>
        <time>2022-11-20T13:08:05.000Z</time>
      </trkpt>
      <trkpt lat="45.83856" lon="4.70092">
        <ele>285.1983</ele>
        <time>2022-11-20T13:08:06.000Z</time>
      </trkpt>
      <trkpt lat="45.83855" lon="4.70097">
        <ele>285.22928</ele>
        <time>2022-11-20T13:08:07.000Z</time>
      </trkpt>
      <trkpt lat="45.83853" lon="4.70102">
        <ele>285.26971</ele>
        <time>2022-11-20T13:08:08.000Z</time>
      </trkpt>
      <trkpt lat="45.83852" lon="4.70107">
        <ele>285.19788</ele>
        <time>2022-11-20T13:08:09.000Z</time>
      </trkpt>
      <trkpt lat="45.83851" lon="4.70112">
        <ele>285.08704</ele>
        <time>2022-11-20T13:08:10.000Z</time>
      </trkpt>
      <trkpt lat="45.8385" lon="4.70117">
        <ele>284.90674</ele>
        <time>2022-11-20T13:08:11.000Z</time>
      </trkpt>
      <trkpt lat="45.83849" lon="4.70123">
        <ele>284.70221</ele>
        <time>2022-11-20T13:08:12.000Z</time>
      </trkpt>
      <trkpt lat="45.83847" lon="4.70128">
        <ele>284.73032</ele>
        <time>2022-11-20T13:08:13.000Z</time>
      </trkpt>
      <trkpt lat="45.83845" lon="4.70133">
        <ele>284.67062</ele>
        <time>2022-11-20T13:08:14.000Z</time>
      </trkpt>
      <trkpt lat="45.83844" lon="4.70138">
        <ele>284.64105</ele>
        <time>2022-11-20T13:08:15.000Z</time>
      </trkpt>
      <trkpt lat="45.83842" lon="4.70143">
        <ele>284.63522</ele>
        <time>2022-11-20T13:08:16.000Z</time>
      </trkpt>
      <trkpt lat="45.83839" lon="4.70149">
        <ele>284.62088</ele>
        <time>2022-11-20T13:08:17.000Z</time>
      </trkpt>
      <trkpt lat="45.83838" lon="4.70154">
        <ele>284.64499</ele>
        <time>2022-11-20T13:08:18.000Z</time>
      </trkpt>
      <trkpt lat="45.83835" lon="4.7016">
        <ele>284.68414</ele>
        <time>2022-11-20T13:08:19.000Z</time>
      </trkpt>
      <trkpt lat="45.83832" lon="4.70166">
        <ele>284.66794</ele>
        <time>2022-11-20T13:08:20.000Z</time>
      </trkpt>
      <trkpt lat="45.83827" lon="4.7017">
        <ele>284.68292</ele>
        <time>2022-11-20T13:08:21.000Z</time>
      </trkpt>
      <trkpt lat="45.83824" lon="4.70174">
        <ele>284.87677</ele>
        <time>2022-11-20T13:08:22.000Z</time>
      </trkpt>
      <trkpt lat="45.83819" lon="4.70179">
        <ele>284.96857</ele>
        <time>2022-11-20T13:08:23.000Z</time>
      </trkpt>
      <trkpt lat="45.83815" lon="4.70182">
        <ele>285.15695</ele>
        <time>2022-11-20T13:08:24.000Z</time>
      </trkpt>
      <trkpt lat="45.83812" lon="4.70186">
        <ele>285.22955</ele>
        <time>2022-11-20T13:08:25.000Z</time>
      </trkpt>
      <trkpt lat="45.83808" lon="4.70189">
        <ele>285.2648</ele>
        <time>2022-11-20T13:08:26.000Z</time>
      </trkpt>
      <trkpt lat="45.83804" lon="4.70191">
        <ele>285.32248</ele>
        <time>2022-11-20T13:08:27.000Z</time>
      </trkpt>
      <trkpt lat="45.83802" lon="4.70192">
        <ele>285.39276</ele>
        <time>2022-11-20T13:08:29.000Z</time>
      </trkpt>
      <trkpt lat="45.838" lon="4.70193">
        <ele>285.55557</ele>
        <time>2022-11-20T13:08:30.000Z</time>
      </trkpt>
      <trkpt lat="45.83798" lon="4.70196">
        <ele>285.73853</ele>
        <time>2022-11-20T13:08:31.000Z</time>
      </trkpt>
      <trkpt lat="45.83798" lon="4.70199">
        <ele>285.8782</ele>
        <time>2022-11-20T13:08:32.000Z</time>
      </trkpt>
      <trkpt lat="45.83797" lon="4.70202">
        <ele>286.01016</ele>
        <time>2022-11-20T13:08:33.000Z</time>
      </trkpt>
      <trkpt lat="45.83798" lon="4.70206">
        <ele>286.11765</ele>
        <time>2022-11-20T13:08:34.000Z</time>
      </trkpt>
      <trkpt lat="45.83799" lon="4.70209">
        <ele>286.25186</ele>
        <time>2022-11-20T13:08:35.000Z</time>
      </trkpt>
      <trkpt lat="45.838" lon="4.70213">
        <ele>286.37677</ele>
        <time>2022-11-20T13:08:36.000Z</time>
      </trkpt>
      <trkpt lat="45.83801" lon="4.70217">
        <ele>286.50726</ele>
        <time>2022-11-20T13:08:37.000Z</time>
      </trkpt>
      <trkpt lat="45.83802" lon="4.7022">
        <ele>286.68597</ele>
        <time>2022-11-20T13:08:38.000Z</time>
      </trkpt>
      <trkpt lat="45.83803" lon="4.70224">
        <ele>286.83514</ele>
        <time>2022-11-20T13:08:39.000Z</time>
      </trkpt>
      <trkpt lat="45.83804" lon="4.70228">
        <ele>286.88086</ele>
        <time>2022-11-20T13:08:40.000Z</time>
      </trkpt>
      <trkpt lat="45.83804" lon="4.70231">
        <ele>287.01437</ele>
        <time>2022-11-20T13:08:41.000Z</time>
      </trkpt>
      <trkpt lat="45.83805" lon="4.70235">
        <ele>287.16879</ele>
        <time>2022-11-20T13:08:42.000Z</time>
      </trkpt>
      <trkpt lat="45.83806" lon="4.70238">
        <ele>287.16257</ele>
        <time>2022-11-20T13:08:43.000Z</time>
      </trkpt>
      <trkpt lat="45.83807" lon="4.70242">
        <ele>287.2724</ele>
        <time>2022-11-20T13:08:44.000Z</time>
      </trkpt>
      <trkpt lat="45.83808" lon="4.70246">
        <ele>287.31277</ele>
        <time>2022-11-20T13:08:45.000Z</time>
      </trkpt>
      <trkpt lat="45.83809" lon="4.70249">
        <ele>287.44962</ele>
        <time>2022-11-20T13:08:46.000Z</time>
      </trkpt>
      <trkpt lat="45.8381" lon="4.70253">
        <ele>287.61356</ele>
        <time>2022-11-20T13:08:47.000Z</time>
      </trkpt>
      <trkpt lat="45.83811" lon="4.70256">
        <ele>287.68878</ele>
        <time>2022-11-20T13:08:48.000Z</time>
      </trkpt>
      <trkpt lat="45.83812" lon="4.7026">
        <ele>287.80551</ele>
        <time>2022-11-20T13:08:49.000Z</time>
      </trkpt>
      <trkpt lat="45.83813" lon="4.70264">
        <ele>287.81693</ele>
        <time>2022-11-20T13:08:50.000Z</time>
      </trkpt>
      <trkpt lat="45.83813" lon="4.70268">
        <ele>287.83533</ele>
        <time>2022-11-20T13:08:51.000Z</time>
      </trkpt>
      <trkpt lat="45.83814" lon="4.70272">
        <ele>287.89212</ele>
        <time>2022-11-20T13:08:52.000Z</time>
      </trkpt>
      <trkpt lat="45.83814" lon="4.70277">
        <ele>287.71283</ele>
        <time>2022-11-20T13:08:53.000Z</time>
      </trkpt>
      <trkpt lat="45.83816" lon="4.7028">
        <ele>287.54187</ele>
        <time>2022-11-20T13:08:54.000Z</time>
      </trkpt>
      <trkpt lat="45.83817" lon="4.70285">
        <ele>287.78857</ele>
        <time>2022-11-20T13:08:55.000Z</time>
      </trkpt>
      <trkpt lat="45.83817" lon="4.70289">
        <ele>288.10907</ele>
        <time>2022-11-20T13:08:56.000Z</time>
      </trkpt>
      <trkpt lat="45.83818" lon="4.70293">
        <ele>288.414</ele>
        <time>2022-11-20T13:08:57.000Z</time>
      </trkpt>
      <trkpt lat="45.83819" lon="4.70298">
        <ele>288.63028</ele>
        <time>2022-11-20T13:08:58.000Z</time>
      </trkpt>
      <trkpt lat="45.8382" lon="4.70301">
        <ele>288.87097</ele>
        <time>2022-11-20T13:08:59.000Z</time>
      </trkpt>
      <trkpt lat="45.83821" lon="4.70305">
        <ele>289.24039</ele>
        <time>2022-11-20T13:09:00.000Z</time>
      </trkpt>
      <trkpt lat="45.83822" lon="4.70308">
        <ele>289.49835</ele>
        <time>2022-11-20T13:09:01.000Z</time>
      </trkpt>
      <trkpt lat="45.83823" lon="4.70312">
        <ele>289.73544</ele>
        <time>2022-11-20T13:09:02.000Z</time>
      </trkpt>
      <trkpt lat="45.83824" lon="4.70316">
        <ele>289.95111</ele>
        <time>2022-11-20T13:09:03.000Z</time>
      </trkpt>
      <trkpt lat="45.83825" lon="4.7032">
        <ele>290.11423</ele>
        <time>2022-11-20T13:09:04.000Z</time>
      </trkpt>
      <trkpt lat="45.83826" lon="4.70324">
        <ele>290.22626</ele>
        <time>2022-11-20T13:09:05.000Z</time>
      </trkpt>
      <trkpt lat="45.83827" lon="4.70328">
        <ele>290.2955</ele>
        <time>2022-11-20T13:09:06.000Z</time>
      </trkpt>
      <trkpt lat="45.83827" lon="4.70333">
        <ele>290.34326</ele>
        <time>2022-11-20T13:09:07.000Z</time>
      </trkpt>
      <trkpt lat="45.83828" lon="4.70337">
        <ele>290.4928</ele>
        <time>2022-11-20T13:09:08.000Z</time>
      </trkpt>
      <trkpt lat="45.83829" lon="4.70342">
        <ele>290.59991</ele>
        <time>2022-11-20T13:09:09.000Z</time>
      </trkpt>
      <trkpt lat="45.8383" lon="4.70347">
        <ele>290.71448</ele>
        <time>2022-11-20T13:09:10.000Z</time>
      </trkpt>
      <trkpt lat="45.83832" lon="4.70351">
        <ele>290.65692</ele>
        <time>2022-11-20T13:09:11.000Z</time>
      </trkpt>
      <trkpt lat="45.83833" lon="4.70355">
        <ele>290.604</ele>
        <time>2022-11-20T13:09:12.000Z</time>
      </trkpt>
      <trkpt lat="45.83834" lon="4.7036">
        <ele>291.06268</ele>
        <time>2022-11-20T13:09:13.000Z</time>
      </trkpt>
      <trkpt lat="45.83835" lon="4.70365">
        <ele>291.56915</ele>
        <time>2022-11-20T13:09:14.000Z</time>
      </trkpt>
      <trkpt lat="45.83837" lon="4.7037">
        <ele>291.54111</ele>
        <time>2022-11-20T13:09:15.000Z</time>
      </trkpt>
      <trkpt lat="45.83837" lon="4.70375">
        <ele>291.49792</ele>
        <time>2022-11-20T13:09:16.000Z</time>
      </trkpt>
      <trkpt lat="45.83839" lon="4.7038">
        <ele>291.45917</ele>
        <time>2022-11-20T13:09:17.000Z</time>
      </trkpt>
      <trkpt lat="45.8384" lon="4.70384">
        <ele>291.50598</ele>
        <time>2022-11-20T13:09:18.000Z</time>
      </trkpt>
      <trkpt lat="45.83841" lon="4.7039">
        <ele>291.56787</ele>
        <time>2022-11-20T13:09:19.000Z</time>
      </trkpt>
      <trkpt lat="45.83841" lon="4.70395">
        <ele>291.57333</ele>
        <time>2022-11-20T13:09:20.000Z</time>
      </trkpt>
      <trkpt lat="45.83842" lon="4.704">
        <ele>291.60736</ele>
        <time>2022-11-20T13:09:21.000Z</time>
      </trkpt>
      <trkpt lat="45.83843" lon="4.70406">
        <ele>291.65668</ele>
        <time>2022-11-20T13:09:22.000Z</time>
      </trkpt>
      <trkpt lat="45.83844" lon="4.70411">
        <ele>291.70071</ele>
        <time>2022-11-20T13:09:23.000Z</time>
      </trkpt>
      <trkpt lat="45.83845" lon="4.70415">
        <ele>291.75076</ele>
        <time>2022-11-20T13:09:24.000Z</time>
      </trkpt>
      <trkpt lat="45.83846" lon="4.70421">
        <ele>291.89752</ele>
        <time>2022-11-20T13:09:25.000Z</time>
      </trkpt>
      <trkpt lat="45.83848" lon="4.70426">
        <ele>292.08966</ele>
        <time>2022-11-20T13:09:26.000Z</time>
      </trkpt>
      <trkpt lat="45.83849" lon="4.7043">
        <ele>292.28497</ele>
        <time>2022-11-20T13:09:27.000Z</time>
      </trkpt>
      <trkpt lat="45.83849" lon="4.70434">
        <ele>292.51151</ele>
        <time>2022-11-20T13:09:28.000Z</time>
      </trkpt>
      <trkpt lat="45.8385" lon="4.70439">
        <ele>292.742</ele>
        <time>2022-11-20T13:09:29.000Z</time>
      </trkpt>
      <trkpt lat="45.83852" lon="4.70444">
        <ele>292.93356</ele>
        <time>2022-11-20T13:09:30.000Z</time>
      </trkpt>
      <trkpt lat="45.83853" lon="4.70449">
        <ele>293.33127</ele>
        <time>2022-11-20T13:09:31.000Z</time>
      </trkpt>
      <trkpt lat="45.83854" lon="4.70454">
        <ele>293.71271</ele>
        <time>2022-11-20T13:09:32.000Z</time>
      </trkpt>
      <trkpt lat="45.83855" lon="4.70459">
        <ele>293.82199</ele>
        <time>2022-11-20T13:09:33.000Z</time>
      </trkpt>
      <trkpt lat="45.83856" lon="4.70464">
        <ele>293.91934</ele>
        <time>2022-11-20T13:09:34.000Z</time>
      </trkpt>
      <trkpt lat="45.83857" lon="4.70468">
        <ele>294.14734</ele>
        <time>2022-11-20T13:09:35.000Z</time>
      </trkpt>
      <trkpt lat="45.83858" lon="4.70472">
        <ele>294.32574</ele>
        <time>2022-11-20T13:09:36.000Z</time>
      </trkpt>
      <trkpt lat="45.83859" lon="4.70478">
        <ele>294.48785</ele>
        <time>2022-11-20T13:09:37.000Z</time>
      </trkpt>
      <trkpt lat="45.8386" lon="4.70482">
        <ele>294.62762</ele>
        <time>2022-11-20T13:09:38.000Z</time>
      </trkpt>
      <trkpt lat="45.83861" lon="4.70487">
        <ele>294.74213</ele>
        <time>2022-11-20T13:09:39.000Z</time>
      </trkpt>
      <trkpt lat="45.83862" lon="4.70492">
        <ele>294.85861</ele>
        <time>2022-11-20T13:09:40.000Z</time>
      </trkpt>
      <trkpt lat="45.83863" lon="4.70496">
        <ele>295.00854</ele>
        <time>2022-11-20T13:09:41.000Z</time>
      </trkpt>
      <trkpt lat="45.83864" lon="4.70499">
        <ele>295.14691</ele>
        <time>2022-11-20T13:09:42.000Z</time>
      </trkpt>
      <trkpt lat="45.83866" lon="4.70502">
        <ele>295.28241</ele>
        <time>2022-11-20T13:09:43.000Z</time>
      </trkpt>
      <trkpt lat="45.83868" lon="4.70504">
        <ele>295.3804</ele>
        <time>2022-11-20T13:09:44.000Z</time>
      </trkpt>
      <trkpt lat="45.83872" lon="4.70505">
        <ele>295.40961</ele>
        <time>2022-11-20T13:09:45.000Z</time>
      </trkpt>
      <trkpt lat="45.83876" lon="4.70504">
        <ele>295.42221</ele>
        <time>2022-11-20T13:09:46.000Z</time>
      </trkpt>
      <trkpt lat="45.83879" lon="4.70502">
        <ele>295.43341</ele>
        <time>2022-11-20T13:09:47.000Z</time>
      </trkpt>
      <trkpt lat="45.83883" lon="4.70501">
        <ele>295.4162</ele>
        <time>2022-11-20T13:09:48.000Z</time>
      </trkpt>
      <trkpt lat="45.83887" lon="4.70499">
        <ele>295.29535</ele>
        <time>2022-11-20T13:09:49.000Z</time>
      </trkpt>
      <trkpt lat="45.83891" lon="4.70497">
        <ele>295.26312</ele>
        <time>2022-11-20T13:09:50.000Z</time>
      </trkpt>
      <trkpt lat="45.83895" lon="4.70495">
        <ele>295.2049</ele>
        <time>2022-11-20T13:09:51.000Z</time>
      </trkpt>
      <trkpt lat="45.83898" lon="4.70493">
        <ele>295.15503</ele>
        <time>2022-11-20T13:09:52.000Z</time>
      </trkpt>
      <trkpt lat="45.83902" lon="4.70491">
        <ele>295.10474</ele>
        <time>2022-11-20T13:09:53.000Z</time>
      </trkpt>
      <trkpt lat="45.83906" lon="4.70488">
        <ele>295.01019</ele>
        <time>2022-11-20T13:09:54.000Z</time>
      </trkpt>
      <trkpt lat="45.8391" lon="4.70485">
        <ele>294.90726</ele>
        <time>2022-11-20T13:09:55.000Z</time>
      </trkpt>
      <trkpt lat="45.83914" lon="4.70482">
        <ele>294.8425</ele>
        <time>2022-11-20T13:09:56.000Z</time>
      </trkpt>
      <trkpt lat="45.83918" lon="4.7048">
        <ele>294.76807</ele>
        <time>2022-11-20T13:09:57.000Z</time>
      </trkpt>
      <trkpt lat="45.83922" lon="4.70478">
        <ele>294.67657</ele>
        <time>2022-11-20T13:09:58.000Z</time>
      </trkpt>
      <trkpt lat="45.83926" lon="4.70477">
        <ele>294.57236</ele>
        <time>2022-11-20T13:09:59.000Z</time>
      </trkpt>
      <trkpt lat="45.83929" lon="4.70476">
        <ele>294.47293</ele>
        <time>2022-11-20T13:10:00.000Z</time>
      </trkpt>
      <trkpt lat="45.83931" lon="4.70474">
        <ele>294.43378</ele>
        <time>2022-11-20T13:10:01.000Z</time>
      </trkpt>
      <trkpt lat="45.83933" lon="4.70471">
        <ele>294.38593</ele>
        <time>2022-11-20T13:10:02.000Z</time>
      </trkpt>
      <trkpt lat="45.83933" lon="4.70467">
        <ele>294.32858</ele>
        <time>2022-11-20T13:10:03.000Z</time>
      </trkpt>
      <trkpt lat="45.83935" lon="4.70463">
        <ele>294.314</ele>
        <time>2022-11-20T13:10:04.000Z</time>
      </trkpt>
      <trkpt lat="45.83938" lon="4.7046">
        <ele>294.28207</ele>
        <time>2022-11-20T13:10:05.000Z</time>
      </trkpt>
      <trkpt lat="45.83941" lon="4.70456">
        <ele>294.28235</ele>
        <time>2022-11-20T13:10:06.000Z</time>
      </trkpt>
      <trkpt lat="45.83944" lon="4.70453">
        <ele>294.27332</ele>
        <time>2022-11-20T13:10:07.000Z</time>
      </trkpt>
      <trkpt lat="45.83947" lon="4.7045">
        <ele>294.25198</ele>
        <time>2022-11-20T13:10:08.000Z</time>
      </trkpt>
      <trkpt lat="45.83951" lon="4.70448">
        <ele>294.32883</ele>
        <time>2022-11-20T13:10:09.000Z</time>
      </trkpt>
      <trkpt lat="45.83955" lon="4.70445">
        <ele>294.22406</ele>
        <time>2022-11-20T13:10:10.000Z</time>
      </trkpt>
      <trkpt lat="45.83958" lon="4.70442">
        <ele>294.14731</ele>
        <time>2022-11-20T13:10:11.000Z</time>
      </trkpt>
      <trkpt lat="45.83962" lon="4.70438">
        <ele>294.08377</ele>
        <time>2022-11-20T13:10:12.000Z</time>
      </trkpt>
      <trkpt lat="45.83966" lon="4.70435">
        <ele>294.00696</ele>
        <time>2022-11-20T13:10:13.000Z</time>
      </trkpt>
      <trkpt lat="45.8397" lon="4.70432">
        <ele>293.9411</ele>
        <time>2022-11-20T13:10:14.000Z</time>
      </trkpt>
      <trkpt lat="45.83974" lon="4.7043">
        <ele>293.83633</ele>
        <time>2022-11-20T13:10:15.000Z</time>
      </trkpt>
      <trkpt lat="45.83978" lon="4.70428">
        <ele>293.68756</ele>
        <time>2022-11-20T13:10:16.000Z</time>
      </trkpt>
      <trkpt lat="45.83982" lon="4.70426">
        <ele>293.55597</ele>
        <time>2022-11-20T13:10:17.000Z</time>
      </trkpt>
      <trkpt lat="45.83987" lon="4.70424">
        <ele>293.41934</ele>
        <time>2022-11-20T13:10:18.000Z</time>
      </trkpt>
      <trkpt lat="45.83991" lon="4.70422">
        <ele>293.29688</ele>
        <time>2022-11-20T13:10:19.000Z</time>
      </trkpt>
      <trkpt lat="45.83996" lon="4.70421">
        <ele>293.15091</ele>
        <time>2022-11-20T13:10:20.000Z</time>
      </trkpt>
      <trkpt lat="45.83999" lon="4.7042">
        <ele>292.92459</ele>
        <time>2022-11-20T13:10:21.000Z</time>
      </trkpt>
      <trkpt lat="45.84005" lon="4.70416">
        <ele>292.84628</ele>
        <time>2022-11-20T13:10:22.000Z</time>
      </trkpt>
      <trkpt lat="45.84009" lon="4.70415">
        <ele>292.59833</ele>
        <time>2022-11-20T13:10:23.000Z</time>
      </trkpt>
      <trkpt lat="45.84014" lon="4.70412">
        <ele>292.33356</ele>
        <time>2022-11-20T13:10:24.000Z</time>
      </trkpt>
      <trkpt lat="45.84019" lon="4.7041">
        <ele>292.09158</ele>
        <time>2022-11-20T13:10:25.000Z</time>
      </trkpt>
      <trkpt lat="45.84025" lon="4.70407">
        <ele>291.80789</ele>
        <time>2022-11-20T13:10:26.000Z</time>
      </trkpt>
      <trkpt lat="45.84029" lon="4.70405">
        <ele>291.52393</ele>
        <time>2022-11-20T13:10:27.000Z</time>
      </trkpt>
      <trkpt lat="45.84035" lon="4.70403">
        <ele>291.24631</ele>
        <time>2022-11-20T13:10:28.000Z</time>
      </trkpt>
      <trkpt lat="45.8404" lon="4.704">
        <ele>290.97049</ele>
        <time>2022-11-20T13:10:29.000Z</time>
      </trkpt>
      <trkpt lat="45.84045" lon="4.70398">
        <ele>290.84482</ele>
        <time>2022-11-20T13:10:30.000Z</time>
      </trkpt>
      <trkpt lat="45.84049" lon="4.70395">
        <ele>290.69516</ele>
        <time>2022-11-20T13:10:31.000Z</time>
      </trkpt>
      <trkpt lat="45.84054" lon="4.70393">
        <ele>290.53732</ele>
        <time>2022-11-20T13:10:32.000Z</time>
      </trkpt>
      <trkpt lat="45.84059" lon="4.7039">
        <ele>290.40485</ele>
        <time>2022-11-20T13:10:33.000Z</time>
      </trkpt>
      <trkpt lat="45.84063" lon="4.70387">
        <ele>290.30002</ele>
        <time>2022-11-20T13:10:34.000Z</time>
      </trkpt>
      <trkpt lat="45.84067" lon="4.70384">
        <ele>290.39014</ele>
        <time>2022-11-20T13:10:35.000Z</time>
      </trkpt>
      <trkpt lat="45.84072" lon="4.70382">
        <ele>290.31555</ele>
        <time>2022-11-20T13:10:36.000Z</time>
      </trkpt>
      <trkpt lat="45.84076" lon="4.70379">
        <ele>290.25519</ele>
        <time>2022-11-20T13:10:37.000Z</time>
      </trkpt>
      <trkpt lat="45.8408" lon="4.70378">
        <ele>290.18481</ele>
        <time>2022-11-20T13:10:38.000Z</time>
      </trkpt>
      <trkpt lat="45.84085" lon="4.70376">
        <ele>290.09653</ele>
        <time>2022-11-20T13:10:39.000Z</time>
      </trkpt>
      <trkpt lat="45.84089" lon="4.70373">
        <ele>290.03748</ele>
        <time>2022-11-20T13:10:40.000Z</time>
      </trkpt>
      <trkpt lat="45.84094" lon="4.70371">
        <ele>289.9819</ele>
        <time>2022-11-20T13:10:41.000Z</time>
      </trkpt>
      <trkpt lat="45.84099" lon="4.70368">
        <ele>289.77917</ele>
        <time>2022-11-20T13:10:42.000Z</time>
      </trkpt>
      <trkpt lat="45.84103" lon="4.70366">
        <ele>289.78723</ele>
        <time>2022-11-20T13:10:43.000Z</time>
      </trkpt>
      <trkpt lat="45.84108" lon="4.70362">
        <ele>289.80945</ele>
        <time>2022-11-20T13:10:44.000Z</time>
      </trkpt>
      <trkpt lat="45.84112" lon="4.70359">
        <ele>289.83359</ele>
        <time>2022-11-20T13:10:45.000Z</time>
      </trkpt>
      <trkpt lat="45.84114" lon="4.70353">
        <ele>289.8869</ele>
        <time>2022-11-20T13:10:46.000Z</time>
      </trkpt>
      <trkpt lat="45.84114" lon="4.70348">
        <ele>289.93402</ele>
        <time>2022-11-20T13:10:47.000Z</time>
      </trkpt>
      <trkpt lat="45.84116" lon="4.70341">
        <ele>289.98682</ele>
        <time>2022-11-20T13:10:48.000Z</time>
      </trkpt>
      <trkpt lat="45.84116" lon="4.70335">
        <ele>290.04999</ele>
        <time>2022-11-20T13:10:49.000Z</time>
      </trkpt>
      <trkpt lat="45.84115" lon="4.7033">
        <ele>290.06973</ele>
        <time>2022-11-20T13:10:50.000Z</time>
      </trkpt>
      <trkpt lat="45.84115" lon="4.70324">
        <ele>290.07697</ele>
        <time>2022-11-20T13:10:51.000Z</time>
      </trkpt>
      <trkpt lat="45.84114" lon="4.70317">
        <ele>290.09161</ele>
        <time>2022-11-20T13:10:52.000Z</time>
      </trkpt>
      <trkpt lat="45.84114" lon="4.70312">
        <ele>290.08356</ele>
        <time>2022-11-20T13:10:53.000Z</time>
      </trkpt>
      <trkpt lat="45.84113" lon="4.70305">
        <ele>290.05069</ele>
        <time>2022-11-20T13:10:54.000Z</time>
      </trkpt>
      <trkpt lat="45.84114" lon="4.70299">
        <ele>289.88016</ele>
        <time>2022-11-20T13:10:55.000Z</time>
      </trkpt>
      <trkpt lat="45.84113" lon="4.70294">
        <ele>289.88104</ele>
        <time>2022-11-20T13:10:56.000Z</time>
      </trkpt>
      <trkpt lat="45.84113" lon="4.70288">
        <ele>289.95184</ele>
        <time>2022-11-20T13:10:57.000Z</time>
      </trkpt>
      <trkpt lat="45.84113" lon="4.70282">
        <ele>290.05603</ele>
        <time>2022-11-20T13:10:58.000Z</time>
      </trkpt>
      <trkpt lat="45.84112" lon="4.70276">
        <ele>290.2059</ele>
        <time>2022-11-20T13:10:59.000Z</time>
      </trkpt>
      <trkpt lat="45.84112" lon="4.7027">
        <ele>290.14713</ele>
        <time>2022-11-20T13:11:00.000Z</time>
      </trkpt>
      <trkpt lat="45.84112" lon="4.70264">
        <ele>290.09164</ele>
        <time>2022-11-20T13:11:01.000Z</time>
      </trkpt>
      <trkpt lat="45.84112" lon="4.70258">
        <ele>290.05157</ele>
        <time>2022-11-20T13:11:02.000Z</time>
      </trkpt>
      <trkpt lat="45.84111" lon="4.70252">
        <ele>290.01633</ele>
        <time>2022-11-20T13:11:03.000Z</time>
      </trkpt>
      <trkpt lat="45.84111" lon="4.70246">
        <ele>289.97369</ele>
        <time>2022-11-20T13:11:04.000Z</time>
      </trkpt>
      <trkpt lat="45.8411" lon="4.7024">
        <ele>289.93024</ele>
        <time>2022-11-20T13:11:05.000Z</time>
      </trkpt>
      <trkpt lat="45.8411" lon="4.70234">
        <ele>289.89621</ele>
        <time>2022-11-20T13:11:06.000Z</time>
      </trkpt>
      <trkpt lat="45.84109" lon="4.70229">
        <ele>289.85699</ele>
        <time>2022-11-20T13:11:07.000Z</time>
      </trkpt>
      <trkpt lat="45.84109" lon="4.70223">
        <ele>289.80902</ele>
        <time>2022-11-20T13:11:08.000Z</time>
      </trkpt>
      <trkpt lat="45.84109" lon="4.70218">
        <ele>289.74905</ele>
        <time>2022-11-20T13:11:09.000Z</time>
      </trkpt>
      <trkpt lat="45.84109" lon="4.70212">
        <ele>289.72812</ele>
        <time>2022-11-20T13:11:10.000Z</time>
      </trkpt>
      <trkpt lat="45.84108" lon="4.70207">
        <ele>289.69284</ele>
        <time>2022-11-20T13:11:11.000Z</time>
      </trkpt>
      <trkpt lat="45.84108" lon="4.70201">
        <ele>289.66608</ele>
        <time>2022-11-20T13:11:12.000Z</time>
      </trkpt>
      <trkpt lat="45.84107" lon="4.70195">
        <ele>289.634</ele>
        <time>2022-11-20T13:11:13.000Z</time>
      </trkpt>
      <trkpt lat="45.84106" lon="4.70189">
        <ele>289.5715</ele>
        <time>2022-11-20T13:11:14.000Z</time>
      </trkpt>
      <trkpt lat="45.84106" lon="4.70182">
        <ele>289.49493</ele>
        <time>2022-11-20T13:11:15.000Z</time>
      </trkpt>
      <trkpt lat="45.84106" lon="4.70176">
        <ele>289.40091</ele>
        <time>2022-11-20T13:11:16.000Z</time>
      </trkpt>
      <trkpt lat="45.84105" lon="4.7017">
        <ele>289.21994</ele>
        <time>2022-11-20T13:11:17.000Z</time>
      </trkpt>
      <trkpt lat="45.84104" lon="4.70164">
        <ele>289.10986</ele>
        <time>2022-11-20T13:11:18.000Z</time>
      </trkpt>
      <trkpt lat="45.84103" lon="4.70159">
        <ele>289.01791</ele>
        <time>2022-11-20T13:11:19.000Z</time>
      </trkpt>
      <trkpt lat="45.84103" lon="4.70152">
        <ele>288.96042</ele>
        <time>2022-11-20T13:11:20.000Z</time>
      </trkpt>
      <trkpt lat="45.84103" lon="4.70147">
        <ele>288.93829</ele>
        <time>2022-11-20T13:11:21.000Z</time>
      </trkpt>
      <trkpt lat="45.84105" lon="4.70141">
        <ele>288.89395</ele>
        <time>2022-11-20T13:11:22.000Z</time>
      </trkpt>
      <trkpt lat="45.84107" lon="4.70135">
        <ele>288.83807</ele>
        <time>2022-11-20T13:11:23.000Z</time>
      </trkpt>
      <trkpt lat="45.84111" lon="4.70135">
        <ele>288.75681</ele>
        <time>2022-11-20T13:11:24.000Z</time>
      </trkpt>
      <trkpt lat="45.84113" lon="4.70133">
        <ele>288.66312</ele>
        <time>2022-11-20T13:11:25.000Z</time>
      </trkpt>
      <trkpt lat="45.84115" lon="4.7013">
        <ele>288.54874</ele>
        <time>2022-11-20T13:11:26.000Z</time>
      </trkpt>
      <trkpt lat="45.84118" lon="4.70128">
        <ele>288.45676</ele>
        <time>2022-11-20T13:11:27.000Z</time>
      </trkpt>
      <trkpt lat="45.84122" lon="4.70126">
        <ele>288.34439</ele>
        <time>2022-11-20T13:11:28.000Z</time>
      </trkpt>
      <trkpt lat="45.84125" lon="4.70122">
        <ele>288.24255</ele>
        <time>2022-11-20T13:11:29.000Z</time>
      </trkpt>
      <trkpt lat="45.84129" lon="4.70119">
        <ele>288.12186</ele>
        <time>2022-11-20T13:11:30.000Z</time>
      </trkpt>
      <trkpt lat="45.84133" lon="4.70115">
        <ele>288.00601</ele>
        <time>2022-11-20T13:11:31.000Z</time>
      </trkpt>
      <trkpt lat="45.84138" lon="4.70112">
        <ele>287.85199</ele>
        <time>2022-11-20T13:11:32.000Z</time>
      </trkpt>
      <trkpt lat="45.84142" lon="4.70108">
        <ele>287.70114</ele>
        <time>2022-11-20T13:11:33.000Z</time>
      </trkpt>
      <trkpt lat="45.84146" lon="4.70104">
        <ele>287.66629</ele>
        <time>2022-11-20T13:11:34.000Z</time>
      </trkpt>
      <trkpt lat="45.84151" lon="4.70098">
        <ele>287.68381</ele>
        <time>2022-11-20T13:11:35.000Z</time>
      </trkpt>
      <trkpt lat="45.84156" lon="4.70093">
        <ele>287.51691</ele>
        <time>2022-11-20T13:11:36.000Z</time>
      </trkpt>
      <trkpt lat="45.84162" lon="4.7009">
        <ele>287.36752</ele>
        <time>2022-11-20T13:11:37.000Z</time>
      </trkpt>
      <trkpt lat="45.84167" lon="4.70088">
        <ele>287.29358</ele>
        <time>2022-11-20T13:11:38.000Z</time>
      </trkpt>
      <trkpt lat="45.84173" lon="4.70088">
        <ele>287.1796</ele>
        <time>2022-11-20T13:11:39.000Z</time>
      </trkpt>
      <trkpt lat="45.84179" lon="4.70085">
        <ele>287.25027</ele>
        <time>2022-11-20T13:11:40.000Z</time>
      </trkpt>
      <trkpt lat="45.84185" lon="4.7008">
        <ele>287.34055</ele>
        <time>2022-11-20T13:11:41.000Z</time>
      </trkpt>
      <trkpt lat="45.84191" lon="4.70075">
        <ele>287.44992</ele>
        <time>2022-11-20T13:11:42.000Z</time>
      </trkpt>
      <trkpt lat="45.84196" lon="4.70071">
        <ele>287.5538</ele>
        <time>2022-11-20T13:11:43.000Z</time>
      </trkpt>
      <trkpt lat="45.84201" lon="4.70065">
        <ele>287.57669</ele>
        <time>2022-11-20T13:11:44.000Z</time>
      </trkpt>
      <trkpt lat="45.84207" lon="4.70061">
        <ele>287.439</ele>
        <time>2022-11-20T13:11:45.000Z</time>
      </trkpt>
      <trkpt lat="45.84213" lon="4.70058">
        <ele>287.32928</ele>
        <time>2022-11-20T13:11:46.000Z</time>
      </trkpt>
      <trkpt lat="45.84218" lon="4.70056">
        <ele>287.1315</ele>
        <time>2022-11-20T13:11:47.000Z</time>
      </trkpt>
      <trkpt lat="45.84225" lon="4.70052">
        <ele>286.88092</ele>
        <time>2022-11-20T13:11:48.000Z</time>
      </trkpt>
      <trkpt lat="45.84232" lon="4.70047">
        <ele>286.634</ele>
        <time>2022-11-20T13:11:49.000Z</time>
      </trkpt>
      <trkpt lat="45.8424" lon="4.70047">
        <ele>286.43768</ele>
        <time>2022-11-20T13:11:50.000Z</time>
      </trkpt>
      <trkpt lat="45.84249" lon="4.70045">
        <ele>286.32632</ele>
        <time>2022-11-20T13:11:51.000Z</time>
      </trkpt>
      <trkpt lat="45.84254" lon="4.70044">
        <ele>286.24942</ele>
        <time>2022-11-20T13:11:52.000Z</time>
      </trkpt>
      <trkpt lat="45.8426" lon="4.70042">
        <ele>286.11273</ele>
        <time>2022-11-20T13:11:53.000Z</time>
      </trkpt>
      <trkpt lat="45.84267" lon="4.70041">
        <ele>285.96088</ele>
        <time>2022-11-20T13:11:54.000Z</time>
      </trkpt>
      <trkpt lat="45.84273" lon="4.70042">
        <ele>285.75543</ele>
        <time>2022-11-20T13:11:55.000Z</time>
      </trkpt>
      <trkpt lat="45.84279" lon="4.70049">
        <ele>285.71991</ele>
        <time>2022-11-20T13:11:56.000Z</time>
      </trkpt>
      <trkpt lat="45.84283" lon="4.70053">
        <ele>285.65939</ele>
        <time>2022-11-20T13:11:57.000Z</time>
      </trkpt>
      <trkpt lat="45.84287" lon="4.70056">
        <ele>285.409</ele>
        <time>2022-11-20T13:11:58.000Z</time>
      </trkpt>
      <trkpt lat="45.84292" lon="4.70062">
        <ele>285.12787</ele>
        <time>2022-11-20T13:11:59.000Z</time>
      </trkpt>
      <trkpt lat="45.84296" lon="4.70067">
        <ele>284.78775</ele>
        <time>2022-11-20T13:12:00.000Z</time>
      </trkpt>
      <trkpt lat="45.84301" lon="4.70073">
        <ele>284.31818</ele>
        <time>2022-11-20T13:12:01.000Z</time>
      </trkpt>
      <trkpt lat="45.84304" lon="4.70077">
        <ele>283.83002</ele>
        <time>2022-11-20T13:12:02.000Z</time>
      </trkpt>
      <trkpt lat="45.84308" lon="4.70079">
        <ele>283.33255</ele>
        <time>2022-11-20T13:12:03.000Z</time>
      </trkpt>
      <trkpt lat="45.84312" lon="4.70083">
        <ele>282.87231</ele>
        <time>2022-11-20T13:12:04.000Z</time>
      </trkpt>
      <trkpt lat="45.84315" lon="4.70085">
        <ele>282.54083</ele>
        <time>2022-11-20T13:12:05.000Z</time>
      </trkpt>
      <trkpt lat="45.84318" lon="4.70088">
        <ele>282.22217</ele>
        <time>2022-11-20T13:12:06.000Z</time>
      </trkpt>
      <trkpt lat="45.8432" lon="4.7009">
        <ele>281.95975</ele>
        <time>2022-11-20T13:12:07.000Z</time>
      </trkpt>
      <trkpt lat="45.84324" lon="4.70093">
        <ele>281.78027</ele>
        <time>2022-11-20T13:12:08.000Z</time>
      </trkpt>
      <trkpt lat="45.84326" lon="4.70092">
        <ele>281.54193</ele>
        <time>2022-11-20T13:12:09.000Z</time>
      </trkpt>
      <trkpt lat="45.84327" lon="4.70094">
        <ele>281.31042</ele>
        <time>2022-11-20T13:12:10.000Z</time>
      </trkpt>
      <trkpt lat="45.8433" lon="4.70095">
        <ele>281.31097</ele>
        <time>2022-11-20T13:12:13.000Z</time>
      </trkpt>
      <trkpt lat="45.84333" lon="4.70098">
        <ele>281.24777</ele>
        <time>2022-11-20T13:12:15.000Z</time>
      </trkpt>
      <trkpt lat="45.84336" lon="4.701">
        <ele>281.21033</ele>
        <time>2022-11-20T13:12:16.000Z</time>
      </trkpt>
      <trkpt lat="45.84338" lon="4.70101">
        <ele>280.99896</ele>
        <time>2022-11-20T13:12:17.000Z</time>
      </trkpt>
      <trkpt lat="45.84341" lon="4.70103">
        <ele>280.73468</ele>
        <time>2022-11-20T13:12:18.000Z</time>
      </trkpt>
      <trkpt lat="45.84345" lon="4.70105">
        <ele>280.3941</ele>
        <time>2022-11-20T13:12:19.000Z</time>
      </trkpt>
      <trkpt lat="45.84348" lon="4.70106">
        <ele>280.10547</ele>
        <time>2022-11-20T13:12:20.000Z</time>
      </trkpt>
      <trkpt lat="45.84351" lon="4.70106">
        <ele>279.86807</ele>
        <time>2022-11-20T13:12:21.000Z</time>
      </trkpt>
      <trkpt lat="45.84355" lon="4.70106">
        <ele>279.93073</ele>
        <time>2022-11-20T13:12:22.000Z</time>
      </trkpt>
      <trkpt lat="45.84362" lon="4.70108">
        <ele>279.73938</ele>
        <time>2022-11-20T13:12:23.000Z</time>
      </trkpt>
      <trkpt lat="45.84366" lon="4.70109">
        <ele>279.68271</ele>
        <time>2022-11-20T13:12:24.000Z</time>
      </trkpt>
      <trkpt lat="45.84371" lon="4.7011">
        <ele>279.61481</ele>
        <time>2022-11-20T13:12:25.000Z</time>
      </trkpt>
      <trkpt lat="45.84376" lon="4.70111">
        <ele>279.4866</ele>
        <time>2022-11-20T13:12:26.000Z</time>
      </trkpt>
      <trkpt lat="45.8438" lon="4.70113">
        <ele>279.67184</ele>
        <time>2022-11-20T13:12:27.000Z</time>
      </trkpt>
      <trkpt lat="45.84383" lon="4.70113">
        <ele>279.89606</ele>
        <time>2022-11-20T13:12:28.000Z</time>
      </trkpt>
      <trkpt lat="45.84386" lon="4.70113">
        <ele>280.03741</ele>
        <time>2022-11-20T13:12:29.000Z</time>
      </trkpt>
      <trkpt lat="45.84391" lon="4.70113">
        <ele>280.2204</ele>
        <time>2022-11-20T13:12:30.000Z</time>
      </trkpt>
      <trkpt lat="45.84394" lon="4.70113">
        <ele>280.33615</ele>
        <time>2022-11-20T13:12:31.000Z</time>
      </trkpt>
      <trkpt lat="45.844" lon="4.70114">
        <ele>280.53278</ele>
        <time>2022-11-20T13:12:32.000Z</time>
      </trkpt>
      <trkpt lat="45.84404" lon="4.70113">
        <ele>280.64694</ele>
        <time>2022-11-20T13:12:33.000Z</time>
      </trkpt>
      <trkpt lat="45.84408" lon="4.70113">
        <ele>280.60965</ele>
        <time>2022-11-20T13:12:34.000Z</time>
      </trkpt>
      <trkpt lat="45.84411" lon="4.70113">
        <ele>280.58353</ele>
        <time>2022-11-20T13:12:35.000Z</time>
      </trkpt>
      <trkpt lat="45.84413" lon="4.70111">
        <ele>280.59106</ele>
        <time>2022-11-20T13:12:36.000Z</time>
      </trkpt>
      <trkpt lat="45.84416" lon="4.70111">
        <ele>280.70306</ele>
        <time>2022-11-20T13:12:37.000Z</time>
      </trkpt>
      <trkpt lat="45.84419" lon="4.70108">
        <ele>281.04376</ele>
        <time>2022-11-20T13:12:38.000Z</time>
      </trkpt>
      <trkpt lat="45.84421" lon="4.70103">
        <ele>281.11212</ele>
        <time>2022-11-20T13:12:39.000Z</time>
      </trkpt>
      <trkpt lat="45.84424" lon="4.70099">
        <ele>281.31711</ele>
        <time>2022-11-20T13:12:40.000Z</time>
      </trkpt>
      <trkpt lat="45.84426" lon="4.70096">
        <ele>281.51315</ele>
        <time>2022-11-20T13:12:41.000Z</time>
      </trkpt>
      <trkpt lat="45.84429" lon="4.70091">
        <ele>281.39487</ele>
        <time>2022-11-20T13:12:42.000Z</time>
      </trkpt>
      <trkpt lat="45.84432" lon="4.70087">
        <ele>281.57935</ele>
        <time>2022-11-20T13:12:43.000Z</time>
      </trkpt>
      <trkpt lat="45.84435" lon="4.70084">
        <ele>281.73441</ele>
        <time>2022-11-20T13:12:44.000Z</time>
      </trkpt>
      <trkpt lat="45.84437" lon="4.7008">
        <ele>281.88593</ele>
        <time>2022-11-20T13:12:45.000Z</time>
      </trkpt>
      <trkpt lat="45.8444" lon="4.70076">
        <ele>282.07443</ele>
        <time>2022-11-20T13:12:46.000Z</time>
      </trkpt>
      <trkpt lat="45.84443" lon="4.70072">
        <ele>282.02563</ele>
        <time>2022-11-20T13:12:47.000Z</time>
      </trkpt>
      <trkpt lat="45.84446" lon="4.70068">
        <ele>282.08539</ele>
        <time>2022-11-20T13:12:48.000Z</time>
      </trkpt>
      <trkpt lat="45.84449" lon="4.70064">
        <ele>282.27548</ele>
        <time>2022-11-20T13:12:49.000Z</time>
      </trkpt>
      <trkpt lat="45.84451" lon="4.70061">
        <ele>282.42184</ele>
        <time>2022-11-20T13:12:50.000Z</time>
      </trkpt>
      <trkpt lat="45.84453" lon="4.70057">
        <ele>282.60196</ele>
        <time>2022-11-20T13:12:51.000Z</time>
      </trkpt>
      <trkpt lat="45.84455" lon="4.70054">
        <ele>282.71335</ele>
        <time>2022-11-20T13:12:52.000Z</time>
      </trkpt>
      <trkpt lat="45.84458" lon="4.7005">
        <ele>282.81631</ele>
        <time>2022-11-20T13:12:53.000Z</time>
      </trkpt>
      <trkpt lat="45.8446" lon="4.70047">
        <ele>282.75156</ele>
        <time>2022-11-20T13:12:54.000Z</time>
      </trkpt>
      <trkpt lat="45.84463" lon="4.70044">
        <ele>282.6463</ele>
        <time>2022-11-20T13:12:55.000Z</time>
      </trkpt>
      <trkpt lat="45.84466" lon="4.70041">
        <ele>282.5578</ele>
        <time>2022-11-20T13:12:56.000Z</time>
      </trkpt>
      <trkpt lat="45.84468" lon="4.70037">
        <ele>282.40817</ele>
        <time>2022-11-20T13:12:57.000Z</time>
      </trkpt>
      <trkpt lat="45.8447" lon="4.70034">
        <ele>282.04504</ele>
        <time>2022-11-20T13:12:58.000Z</time>
      </trkpt>
      <trkpt lat="45.84472" lon="4.7003">
        <ele>282.12048</ele>
        <time>2022-11-20T13:12:59.000Z</time>
      </trkpt>
      <trkpt lat="45.84474" lon="4.70025">
        <ele>282.06805</ele>
        <time>2022-11-20T13:13:00.000Z</time>
      </trkpt>
      <trkpt lat="45.84476" lon="4.70021">
        <ele>282.04095</ele>
        <time>2022-11-20T13:13:01.000Z</time>
      </trkpt>
      <trkpt lat="45.84479" lon="4.70016">
        <ele>282.0773</ele>
        <time>2022-11-20T13:13:02.000Z</time>
      </trkpt>
      <trkpt lat="45.84481" lon="4.70012">
        <ele>282.05829</ele>
        <time>2022-11-20T13:13:03.000Z</time>
      </trkpt>
      <trkpt lat="45.84483" lon="4.7001">
        <ele>282.0318</ele>
        <time>2022-11-20T13:13:04.000Z</time>
      </trkpt>
      <trkpt lat="45.84487" lon="4.70011">
        <ele>281.97369</ele>
        <time>2022-11-20T13:13:05.000Z</time>
      </trkpt>
      <trkpt lat="45.8449" lon="4.70014">
        <ele>281.93561</ele>
        <time>2022-11-20T13:13:06.000Z</time>
      </trkpt>
      <trkpt lat="45.84493" lon="4.70017">
        <ele>281.7713</ele>
        <time>2022-11-20T13:13:07.000Z</time>
      </trkpt>
      <trkpt lat="45.84496" lon="4.7002">
        <ele>281.51703</ele>
        <time>2022-11-20T13:13:08.000Z</time>
      </trkpt>
      <trkpt lat="45.84499" lon="4.70022">
        <ele>281.17706</ele>
        <time>2022-11-20T13:13:09.000Z</time>
      </trkpt>
      <trkpt lat="45.84502" lon="4.70024">
        <ele>280.8779</ele>
        <time>2022-11-20T13:13:10.000Z</time>
      </trkpt>
      <trkpt lat="45.84504" lon="4.70026">
        <ele>280.67249</ele>
        <time>2022-11-20T13:13:11.000Z</time>
      </trkpt>
      <trkpt lat="45.84507" lon="4.70028">
        <ele>280.41571</ele>
        <time>2022-11-20T13:13:12.000Z</time>
      </trkpt>
      <trkpt lat="45.84511" lon="4.70031">
        <ele>280.1279</ele>
        <time>2022-11-20T13:13:13.000Z</time>
      </trkpt>
      <trkpt lat="45.84515" lon="4.70035">
        <ele>279.82541</ele>
        <time>2022-11-20T13:13:14.000Z</time>
      </trkpt>
      <trkpt lat="45.84519" lon="4.70039">
        <ele>279.59344</ele>
        <time>2022-11-20T13:13:15.000Z</time>
      </trkpt>
      <trkpt lat="45.84522" lon="4.70043">
        <ele>279.3385</ele>
        <time>2022-11-20T13:13:16.000Z</time>
      </trkpt>
      <trkpt lat="45.84525" lon="4.70046">
        <ele>279.12674</ele>
        <time>2022-11-20T13:13:17.000Z</time>
      </trkpt>
      <trkpt lat="45.84529" lon="4.70049">
        <ele>278.99042</ele>
        <time>2022-11-20T13:13:18.000Z</time>
      </trkpt>
      <trkpt lat="45.84532" lon="4.70052">
        <ele>278.76184</ele>
        <time>2022-11-20T13:13:19.000Z</time>
      </trkpt>
      <trkpt lat="45.84535" lon="4.70054">
        <ele>278.47012</ele>
        <time>2022-11-20T13:13:20.000Z</time>
      </trkpt>
      <trkpt lat="45.84538" lon="4.70057">
        <ele>278.13632</ele>
        <time>2022-11-20T13:13:21.000Z</time>
      </trkpt>
      <trkpt lat="45.84541" lon="4.7006">
        <ele>277.82321</ele>
        <time>2022-11-20T13:13:22.000Z</time>
      </trkpt>
      <trkpt lat="45.84544" lon="4.70063">
        <ele>277.60037</ele>
        <time>2022-11-20T13:13:23.000Z</time>
      </trkpt>
      <trkpt lat="45.84545" lon="4.70067">
        <ele>277.3143</ele>
        <time>2022-11-20T13:13:24.000Z</time>
      </trkpt>
      <trkpt lat="45.84546" lon="4.70071">
        <ele>277.03711</ele>
        <time>2022-11-20T13:13:25.000Z</time>
      </trkpt>
      <trkpt lat="45.84547" lon="4.70076">
        <ele>276.79572</ele>
        <time>2022-11-20T13:13:26.000Z</time>
      </trkpt>
      <trkpt lat="45.84549" lon="4.7008">
        <ele>276.71667</ele>
        <time>2022-11-20T13:13:27.000Z</time>
      </trkpt>
      <trkpt lat="45.84552" lon="4.70084">
        <ele>276.70694</ele>
        <time>2022-11-20T13:13:28.000Z</time>
      </trkpt>
      <trkpt lat="45.84555" lon="4.70087">
        <ele>276.70209</ele>
        <time>2022-11-20T13:13:29.000Z</time>
      </trkpt>
      <trkpt lat="45.84558" lon="4.70089">
        <ele>276.69125</ele>
        <time>2022-11-20T13:13:30.000Z</time>
      </trkpt>
      <trkpt lat="45.84561" lon="4.70092">
        <ele>276.54544</ele>
        <time>2022-11-20T13:13:31.000Z</time>
      </trkpt>
      <trkpt lat="45.84564" lon="4.70095">
        <ele>276.47159</ele>
        <time>2022-11-20T13:13:32.000Z</time>
      </trkpt>
      <trkpt lat="45.84566" lon="4.70098">
        <ele>276.43558</ele>
        <time>2022-11-20T13:13:33.000Z</time>
      </trkpt>
      <trkpt lat="45.84568" lon="4.70101">
        <ele>276.36774</ele>
        <time>2022-11-20T13:13:34.000Z</time>
      </trkpt>
      <trkpt lat="45.8457" lon="4.70105">
        <ele>276.39297</ele>
        <time>2022-11-20T13:13:35.000Z</time>
      </trkpt>
      <trkpt lat="45.84572" lon="4.70108">
        <ele>276.4509</ele>
        <time>2022-11-20T13:13:36.000Z</time>
      </trkpt>
      <trkpt lat="45.84575" lon="4.70111">
        <ele>276.51398</ele>
        <time>2022-11-20T13:13:37.000Z</time>
      </trkpt>
      <trkpt lat="45.84578" lon="4.70115">
        <ele>276.56293</ele>
        <time>2022-11-20T13:13:38.000Z</time>
      </trkpt>
      <trkpt lat="45.8458" lon="4.70118">
        <ele>276.70352</ele>
        <time>2022-11-20T13:13:39.000Z</time>
      </trkpt>
      <trkpt lat="45.84583" lon="4.70121">
        <ele>277.09293</ele>
        <time>2022-11-20T13:13:40.000Z</time>
      </trkpt>
      <trkpt lat="45.84586" lon="4.70123">
        <ele>277.48315</ele>
        <time>2022-11-20T13:13:41.000Z</time>
      </trkpt>
      <trkpt lat="45.84589" lon="4.70126">
        <ele>277.88605</ele>
        <time>2022-11-20T13:13:42.000Z</time>
      </trkpt>
      <trkpt lat="45.84592" lon="4.70129">
        <ele>278.25778</ele>
        <time>2022-11-20T13:13:43.000Z</time>
      </trkpt>
      <trkpt lat="45.84594" lon="4.70132">
        <ele>278.62021</ele>
        <time>2022-11-20T13:13:44.000Z</time>
      </trkpt>
      <trkpt lat="45.84597" lon="4.70135">
        <ele>279.15152</ele>
        <time>2022-11-20T13:13:45.000Z</time>
      </trkpt>
      <trkpt lat="45.846" lon="4.70138">
        <ele>279.5611</ele>
        <time>2022-11-20T13:13:46.000Z</time>
      </trkpt>
      <trkpt lat="45.84603" lon="4.70141">
        <ele>279.83539</ele>
        <time>2022-11-20T13:13:47.000Z</time>
      </trkpt>
      <trkpt lat="45.84606" lon="4.70143">
        <ele>279.90616</ele>
        <time>2022-11-20T13:13:48.000Z</time>
      </trkpt>
      <trkpt lat="45.84608" lon="4.70146">
        <ele>280.01971</ele>
        <time>2022-11-20T13:13:49.000Z</time>
      </trkpt>
      <trkpt lat="45.84612" lon="4.70148">
        <ele>280.16089</ele>
        <time>2022-11-20T13:13:50.000Z</time>
      </trkpt>
      <trkpt lat="45.84618" lon="4.70151">
        <ele>280.44019</ele>
        <time>2022-11-20T13:13:51.000Z</time>
      </trkpt>
      <trkpt lat="45.84622" lon="4.70153">
        <ele>280.75436</ele>
        <time>2022-11-20T13:13:52.000Z</time>
      </trkpt>
      <trkpt lat="45.84625" lon="4.70156">
        <ele>281.09561</ele>
        <time>2022-11-20T13:13:53.000Z</time>
      </trkpt>
      <trkpt lat="45.8463" lon="4.70159">
        <ele>281.54691</ele>
        <time>2022-11-20T13:13:54.000Z</time>
      </trkpt>
      <trkpt lat="45.84634" lon="4.70161">
        <ele>281.86261</ele>
        <time>2022-11-20T13:13:55.000Z</time>
      </trkpt>
      <trkpt lat="45.84638" lon="4.70163">
        <ele>282.19113</ele>
        <time>2022-11-20T13:13:56.000Z</time>
      </trkpt>
      <trkpt lat="45.84642" lon="4.70167">
        <ele>282.54358</ele>
        <time>2022-11-20T13:13:57.000Z</time>
      </trkpt>
      <trkpt lat="45.84646" lon="4.7017">
        <ele>282.86407</ele>
        <time>2022-11-20T13:13:58.000Z</time>
      </trkpt>
      <trkpt lat="45.84648" lon="4.70174">
        <ele>283.14886</ele>
        <time>2022-11-20T13:13:59.000Z</time>
      </trkpt>
      <trkpt lat="45.84652" lon="4.70177">
        <ele>283.21045</ele>
        <time>2022-11-20T13:14:00.000Z</time>
      </trkpt>
      <trkpt lat="45.84655" lon="4.7018">
        <ele>283.28433</ele>
        <time>2022-11-20T13:14:01.000Z</time>
      </trkpt>
      <trkpt lat="45.84658" lon="4.70185">
        <ele>283.28403</ele>
        <time>2022-11-20T13:14:02.000Z</time>
      </trkpt>
      <trkpt lat="45.84662" lon="4.70189">
        <ele>283.21597</ele>
        <time>2022-11-20T13:14:03.000Z</time>
      </trkpt>
      <trkpt lat="45.84666" lon="4.70193">
        <ele>283.3165</ele>
        <time>2022-11-20T13:14:04.000Z</time>
      </trkpt>
      <trkpt lat="45.84669" lon="4.70196">
        <ele>282.9751</ele>
        <time>2022-11-20T13:14:05.000Z</time>
      </trkpt>
      <trkpt lat="45.84672" lon="4.702">
        <ele>282.74438</ele>
        <time>2022-11-20T13:14:06.000Z</time>
      </trkpt>
      <trkpt lat="45.84674" lon="4.70204">
        <ele>282.50272</ele>
        <time>2022-11-20T13:14:07.000Z</time>
      </trkpt>
      <trkpt lat="45.84678" lon="4.70208">
        <ele>282.47894</ele>
        <time>2022-11-20T13:14:08.000Z</time>
      </trkpt>
      <trkpt lat="45.84682" lon="4.7021">
        <ele>282.37427</ele>
        <time>2022-11-20T13:14:09.000Z</time>
      </trkpt>
      <trkpt lat="45.84684" lon="4.70215">
        <ele>282.20868</ele>
        <time>2022-11-20T13:14:10.000Z</time>
      </trkpt>
      <trkpt lat="45.84687" lon="4.70219">
        <ele>281.96661</ele>
        <time>2022-11-20T13:14:11.000Z</time>
      </trkpt>
      <trkpt lat="45.8469" lon="4.70223">
        <ele>281.89429</ele>
        <time>2022-11-20T13:14:12.000Z</time>
      </trkpt>
      <trkpt lat="45.84694" lon="4.70226">
        <ele>281.90131</ele>
        <time>2022-11-20T13:14:13.000Z</time>
      </trkpt>
      <trkpt lat="45.84697" lon="4.7023">
        <ele>281.90222</ele>
        <time>2022-11-20T13:14:14.000Z</time>
      </trkpt>
      <trkpt lat="45.84701" lon="4.70235">
        <ele>281.59772</ele>
        <time>2022-11-20T13:14:15.000Z</time>
      </trkpt>
      <trkpt lat="45.84703" lon="4.7024">
        <ele>281.30368</ele>
        <time>2022-11-20T13:14:16.000Z</time>
      </trkpt>
      <trkpt lat="45.84707" lon="4.70244">
        <ele>280.99271</ele>
        <time>2022-11-20T13:14:17.000Z</time>
      </trkpt>
      <trkpt lat="45.84709" lon="4.70249">
        <ele>280.67123</ele>
        <time>2022-11-20T13:14:18.000Z</time>
      </trkpt>
      <trkpt lat="45.84712" lon="4.70254">
        <ele>280.34705</ele>
        <time>2022-11-20T13:14:19.000Z</time>
      </trkpt>
      <trkpt lat="45.84713" lon="4.70261">
        <ele>279.98676</ele>
        <time>2022-11-20T13:14:20.000Z</time>
      </trkpt>
      <trkpt lat="45.84714" lon="4.70267">
        <ele>279.80811</ele>
        <time>2022-11-20T13:14:21.000Z</time>
      </trkpt>
      <trkpt lat="45.84717" lon="4.70272">
        <ele>279.63016</ele>
        <time>2022-11-20T13:14:22.000Z</time>
      </trkpt>
      <trkpt lat="45.84718" lon="4.70278">
        <ele>279.65509</ele>
        <time>2022-11-20T13:14:23.000Z</time>
      </trkpt>
      <trkpt lat="45.84719" lon="4.70283">
        <ele>279.28339</ele>
        <time>2022-11-20T13:14:24.000Z</time>
      </trkpt>
      <trkpt lat="45.8472" lon="4.70288">
        <ele>278.83228</ele>
        <time>2022-11-20T13:14:25.000Z</time>
      </trkpt>
      <trkpt lat="45.84722" lon="4.70293">
        <ele>278.36194</ele>
        <time>2022-11-20T13:14:26.000Z</time>
      </trkpt>
      <trkpt lat="45.84723" lon="4.70299">
        <ele>278.0101</ele>
        <time>2022-11-20T13:14:27.000Z</time>
      </trkpt>
      <trkpt lat="45.84724" lon="4.70303">
        <ele>277.53906</ele>
        <time>2022-11-20T13:14:28.000Z</time>
      </trkpt>
      <trkpt lat="45.84726" lon="4.70308">
        <ele>277.06488</ele>
        <time>2022-11-20T13:14:29.000Z</time>
      </trkpt>
      <trkpt lat="45.84727" lon="4.70313">
        <ele>276.6239</ele>
        <time>2022-11-20T13:14:30.000Z</time>
      </trkpt>
      <trkpt lat="45.84728" lon="4.70318">
        <ele>276.16995</ele>
        <time>2022-11-20T13:14:31.000Z</time>
      </trkpt>
      <trkpt lat="45.84729" lon="4.70323">
        <ele>275.52451</ele>
        <time>2022-11-20T13:14:32.000Z</time>
      </trkpt>
      <trkpt lat="45.8473" lon="4.70327">
        <ele>274.82736</ele>
        <time>2022-11-20T13:14:33.000Z</time>
      </trkpt>
      <trkpt lat="45.84731" lon="4.70333">
        <ele>274.04025</ele>
        <time>2022-11-20T13:14:34.000Z</time>
      </trkpt>
      <trkpt lat="45.84731" lon="4.70338">
        <ele>273.58835</ele>
        <time>2022-11-20T13:14:35.000Z</time>
      </trkpt>
      <trkpt lat="45.84732" lon="4.70343">
        <ele>273.09308</ele>
        <time>2022-11-20T13:14:36.000Z</time>
      </trkpt>
      <trkpt lat="45.84733" lon="4.70348">
        <ele>272.61334</ele>
        <time>2022-11-20T13:14:37.000Z</time>
      </trkpt>
      <trkpt lat="45.84733" lon="4.70354">
        <ele>272.10297</ele>
        <time>2022-11-20T13:14:38.000Z</time>
      </trkpt>
      <trkpt lat="45.84733" lon="4.70359">
        <ele>271.58252</ele>
        <time>2022-11-20T13:14:39.000Z</time>
      </trkpt>
      <trkpt lat="45.84732" lon="4.70364">
        <ele>271.09564</ele>
        <time>2022-11-20T13:14:40.000Z</time>
      </trkpt>
      <trkpt lat="45.84731" lon="4.70369">
        <ele>270.40414</ele>
        <time>2022-11-20T13:14:41.000Z</time>
      </trkpt>
      <trkpt lat="45.8473" lon="4.70373">
        <ele>270.61053</ele>
        <time>2022-11-20T13:14:42.000Z</time>
      </trkpt>
      <trkpt lat="45.84729" lon="4.70378">
        <ele>270.40497</ele>
        <time>2022-11-20T13:14:43.000Z</time>
      </trkpt>
      <trkpt lat="45.84728" lon="4.70382">
        <ele>270.47638</ele>
        <time>2022-11-20T13:14:44.000Z</time>
      </trkpt>
      <trkpt lat="45.84727" lon="4.70386">
        <ele>270.98972</ele>
        <time>2022-11-20T13:14:45.000Z</time>
      </trkpt>
      <trkpt lat="45.84727" lon="4.70391">
        <ele>271.47919</ele>
        <time>2022-11-20T13:14:46.000Z</time>
      </trkpt>
      <trkpt lat="45.84727" lon="4.70396">
        <ele>271.91385</ele>
        <time>2022-11-20T13:14:47.000Z</time>
      </trkpt>
      <trkpt lat="45.84726" lon="4.704">
        <ele>272.36017</ele>
        <time>2022-11-20T13:14:48.000Z</time>
      </trkpt>
      <trkpt lat="45.84726" lon="4.70405">
        <ele>272.88083</ele>
        <time>2022-11-20T13:14:49.000Z</time>
      </trkpt>
      <trkpt lat="45.84726" lon="4.7041">
        <ele>273.44977</ele>
        <time>2022-11-20T13:14:50.000Z</time>
      </trkpt>
      <trkpt lat="45.84725" lon="4.70415">
        <ele>274.01929</ele>
        <time>2022-11-20T13:14:51.000Z</time>
      </trkpt>
      <trkpt lat="45.84725" lon="4.7042">
        <ele>274.56409</ele>
        <time>2022-11-20T13:14:52.000Z</time>
      </trkpt>
      <trkpt lat="45.84725" lon="4.70425">
        <ele>275.1528</ele>
        <time>2022-11-20T13:14:53.000Z</time>
      </trkpt>
      <trkpt lat="45.84724" lon="4.7043">
        <ele>275.83673</ele>
        <time>2022-11-20T13:14:54.000Z</time>
      </trkpt>
      <trkpt lat="45.84724" lon="4.70435">
        <ele>276.54712</ele>
        <time>2022-11-20T13:14:55.000Z</time>
      </trkpt>
      <trkpt lat="45.84723" lon="4.70441">
        <ele>277.25769</ele>
        <time>2022-11-20T13:14:56.000Z</time>
      </trkpt>
      <trkpt lat="45.84723" lon="4.70446">
        <ele>278.00244</ele>
        <time>2022-11-20T13:14:57.000Z</time>
      </trkpt>
      <trkpt lat="45.84722" lon="4.70451">
        <ele>278.80246</ele>
        <time>2022-11-20T13:14:58.000Z</time>
      </trkpt>
      <trkpt lat="45.84722" lon="4.70456">
        <ele>279.60638</ele>
        <time>2022-11-20T13:14:59.000Z</time>
      </trkpt>
      <trkpt lat="45.84722" lon="4.70462">
        <ele>280.41122</ele>
        <time>2022-11-20T13:15:00.000Z</time>
      </trkpt>
      <trkpt lat="45.84722" lon="4.70467">
        <ele>281.39355</ele>
        <time>2022-11-20T13:15:01.000Z</time>
      </trkpt>
      <trkpt lat="45.84721" lon="4.70472">
        <ele>281.48764</ele>
        <time>2022-11-20T13:15:02.000Z</time>
      </trkpt>
      <trkpt lat="45.84721" lon="4.70477">
        <ele>281.87949</ele>
        <time>2022-11-20T13:15:03.000Z</time>
      </trkpt>
      <trkpt lat="45.84721" lon="4.70481">
        <ele>282.27133</ele>
        <time>2022-11-20T13:15:04.000Z</time>
      </trkpt>
      <trkpt lat="45.84721" lon="4.70486">
        <ele>282.63589</ele>
        <time>2022-11-20T13:15:05.000Z</time>
      </trkpt>
      <trkpt lat="45.84721" lon="4.70491">
        <ele>283.01587</ele>
        <time>2022-11-20T13:15:06.000Z</time>
      </trkpt>
      <trkpt lat="45.84721" lon="4.70496">
        <ele>283.41885</ele>
        <time>2022-11-20T13:15:07.000Z</time>
      </trkpt>
      <trkpt lat="45.84721" lon="4.705">
        <ele>283.849</ele>
        <time>2022-11-20T13:15:08.000Z</time>
      </trkpt>
      <trkpt lat="45.8472" lon="4.70504">
        <ele>284.23895</ele>
        <time>2022-11-20T13:15:09.000Z</time>
      </trkpt>
      <trkpt lat="45.8472" lon="4.70507">
        <ele>284.71191</ele>
        <time>2022-11-20T13:15:10.000Z</time>
      </trkpt>
      <trkpt lat="45.8472" lon="4.7051">
        <ele>284.88727</ele>
        <time>2022-11-20T13:15:12.000Z</time>
      </trkpt>
      <trkpt lat="45.84721" lon="4.70514">
        <ele>285.0835</ele>
        <time>2022-11-20T13:16:32.000Z</time>
      </trkpt>
      <trkpt lat="45.84723" lon="4.7052">
        <ele>285.20151</ele>
        <time>2022-11-20T13:16:34.000Z</time>
      </trkpt>
      <trkpt lat="45.84724" lon="4.70523">
        <ele>285.26501</ele>
        <time>2022-11-20T13:16:35.000Z</time>
      </trkpt>
      <trkpt lat="45.84726" lon="4.70526">
        <ele>285.34247</ele>
        <time>2022-11-20T13:16:36.000Z</time>
      </trkpt>
      <trkpt lat="45.84728" lon="4.70528">
        <ele>285.42871</ele>
        <time>2022-11-20T13:16:37.000Z</time>
      </trkpt>
      <trkpt lat="45.84731" lon="4.70531">
        <ele>285.44693</ele>
        <time>2022-11-20T13:16:38.000Z</time>
      </trkpt>
      <trkpt lat="45.84734" lon="4.70534">
        <ele>285.43188</ele>
        <time>2022-11-20T13:16:39.000Z</time>
      </trkpt>
      <trkpt lat="45.84737" lon="4.70538">
        <ele>285.42078</ele>
        <time>2022-11-20T13:16:40.000Z</time>
      </trkpt>
      <trkpt lat="45.8474" lon="4.70541">
        <ele>285.4111</ele>
        <time>2022-11-20T13:16:41.000Z</time>
      </trkpt>
      <trkpt lat="45.84743" lon="4.70546">
        <ele>285.24988</ele>
        <time>2022-11-20T13:16:42.000Z</time>
      </trkpt>
      <trkpt lat="45.84747" lon="4.7055">
        <ele>285.07895</ele>
        <time>2022-11-20T13:16:43.000Z</time>
      </trkpt>
      <trkpt lat="45.8475" lon="4.70553">
        <ele>284.87567</ele>
        <time>2022-11-20T13:16:44.000Z</time>
      </trkpt>
      <trkpt lat="45.84754" lon="4.70557">
        <ele>284.67001</ele>
        <time>2022-11-20T13:16:45.000Z</time>
      </trkpt>
      <trkpt lat="45.84758" lon="4.70562">
        <ele>284.44058</ele>
        <time>2022-11-20T13:16:46.000Z</time>
      </trkpt>
      <trkpt lat="45.8476" lon="4.70566">
        <ele>284.19168</ele>
        <time>2022-11-20T13:16:47.000Z</time>
      </trkpt>
      <trkpt lat="45.84764" lon="4.70571">
        <ele>283.95193</ele>
        <time>2022-11-20T13:16:48.000Z</time>
      </trkpt>
      <trkpt lat="45.84768" lon="4.70575">
        <ele>283.69647</ele>
        <time>2022-11-20T13:16:49.000Z</time>
      </trkpt>
      <trkpt lat="45.84771" lon="4.7058">
        <ele>283.45123</ele>
        <time>2022-11-20T13:16:50.000Z</time>
      </trkpt>
      <trkpt lat="45.84775" lon="4.70585">
        <ele>283.06012</ele>
        <time>2022-11-20T13:16:51.000Z</time>
      </trkpt>
      <trkpt lat="45.84779" lon="4.70591">
        <ele>283.1257</ele>
        <time>2022-11-20T13:16:52.000Z</time>
      </trkpt>
      <trkpt lat="45.84783" lon="4.70596">
        <ele>283.18063</ele>
        <time>2022-11-20T13:16:53.000Z</time>
      </trkpt>
      <trkpt lat="45.84786" lon="4.70601">
        <ele>283.25156</ele>
        <time>2022-11-20T13:16:54.000Z</time>
      </trkpt>
      <trkpt lat="45.8479" lon="4.70607">
        <ele>283.43283</ele>
        <time>2022-11-20T13:16:55.000Z</time>
      </trkpt>
      <trkpt lat="45.84794" lon="4.70612">
        <ele>283.5961</ele>
        <time>2022-11-20T13:16:56.000Z</time>
      </trkpt>
      <trkpt lat="45.84798" lon="4.70618">
        <ele>283.75912</ele>
        <time>2022-11-20T13:16:57.000Z</time>
      </trkpt>
      <trkpt lat="45.84801" lon="4.70624">
        <ele>283.6037</ele>
        <time>2022-11-20T13:16:58.000Z</time>
      </trkpt>
      <trkpt lat="45.84803" lon="4.7063">
        <ele>283.5148</ele>
        <time>2022-11-20T13:16:59.000Z</time>
      </trkpt>
      <trkpt lat="45.84806" lon="4.70636">
        <ele>283.68848</ele>
        <time>2022-11-20T13:17:00.000Z</time>
      </trkpt>
      <trkpt lat="45.8481" lon="4.70641">
        <ele>283.29355</ele>
        <time>2022-11-20T13:17:01.000Z</time>
      </trkpt>
      <trkpt lat="45.84813" lon="4.70647">
        <ele>282.73016</ele>
        <time>2022-11-20T13:17:02.000Z</time>
      </trkpt>
      <trkpt lat="45.84817" lon="4.70652">
        <ele>282.18866</ele>
        <time>2022-11-20T13:17:03.000Z</time>
      </trkpt>
      <trkpt lat="45.84819" lon="4.70656">
        <ele>281.65073</ele>
        <time>2022-11-20T13:17:04.000Z</time>
      </trkpt>
      <trkpt lat="45.84823" lon="4.7066">
        <ele>281.11389</ele>
        <time>2022-11-20T13:17:05.000Z</time>
      </trkpt>
      <trkpt lat="45.84826" lon="4.70663">
        <ele>280.63916</ele>
        <time>2022-11-20T13:17:06.000Z</time>
      </trkpt>
      <trkpt lat="45.84829" lon="4.70667">
        <ele>280.16391</ele>
        <time>2022-11-20T13:17:07.000Z</time>
      </trkpt>
      <trkpt lat="45.84831" lon="4.70672">
        <ele>279.65192</ele>
        <time>2022-11-20T13:17:08.000Z</time>
      </trkpt>
      <trkpt lat="45.84833" lon="4.70677">
        <ele>279.11737</ele>
        <time>2022-11-20T13:17:09.000Z</time>
      </trkpt>
      <trkpt lat="45.84836" lon="4.70683">
        <ele>278.57877</ele>
        <time>2022-11-20T13:17:10.000Z</time>
      </trkpt>
      <trkpt lat="45.84838" lon="4.70687">
        <ele>278.05499</ele>
        <time>2022-11-20T13:17:11.000Z</time>
      </trkpt>
      <trkpt lat="45.84841" lon="4.70692">
        <ele>277.35797</ele>
        <time>2022-11-20T13:17:12.000Z</time>
      </trkpt>
      <trkpt lat="45.84844" lon="4.70697">
        <ele>276.6629</ele>
        <time>2022-11-20T13:17:13.000Z</time>
      </trkpt>
      <trkpt lat="45.84848" lon="4.70702">
        <ele>275.97089</ele>
        <time>2022-11-20T13:17:14.000Z</time>
      </trkpt>
      <trkpt lat="45.84851" lon="4.70707">
        <ele>275.15363</ele>
        <time>2022-11-20T13:17:15.000Z</time>
      </trkpt>
      <trkpt lat="45.84854" lon="4.70711">
        <ele>274.37323</ele>
        <time>2022-11-20T13:17:16.000Z</time>
      </trkpt>
      <trkpt lat="45.84857" lon="4.70716">
        <ele>273.6181</ele>
        <time>2022-11-20T13:17:17.000Z</time>
      </trkpt>
      <trkpt lat="45.8486" lon="4.70721">
        <ele>273.14212</ele>
        <time>2022-11-20T13:17:18.000Z</time>
      </trkpt>
      <trkpt lat="45.84862" lon="4.70725">
        <ele>272.59259</ele>
        <time>2022-11-20T13:17:19.000Z</time>
      </trkpt>
      <trkpt lat="45.84865" lon="4.70729">
        <ele>271.79459</ele>
        <time>2022-11-20T13:17:20.000Z</time>
      </trkpt>
      <trkpt lat="45.84867" lon="4.70734">
        <ele>271.55075</ele>
        <time>2022-11-20T13:17:21.000Z</time>
      </trkpt>
      <trkpt lat="45.8487" lon="4.70738">
        <ele>271.45471</ele>
        <time>2022-11-20T13:17:22.000Z</time>
      </trkpt>
      <trkpt lat="45.84872" lon="4.70742">
        <ele>271.32599</ele>
        <time>2022-11-20T13:17:23.000Z</time>
      </trkpt>
      <trkpt lat="45.84874" lon="4.70745">
        <ele>271.15509</ele>
        <time>2022-11-20T13:17:24.000Z</time>
      </trkpt>
      <trkpt lat="45.84877" lon="4.70746">
        <ele>270.98834</ele>
        <time>2022-11-20T13:17:25.000Z</time>
      </trkpt>
      <trkpt lat="45.84879" lon="4.70748">
        <ele>270.76031</ele>
        <time>2022-11-20T13:17:26.000Z</time>
      </trkpt>
      <trkpt lat="45.84881" lon="4.70748">
        <ele>270.57141</ele>
        <time>2022-11-20T13:17:27.000Z</time>
      </trkpt>
      <trkpt lat="45.84883" lon="4.70749">
        <ele>270.35666</ele>
        <time>2022-11-20T13:17:28.000Z</time>
      </trkpt>
      <trkpt lat="45.84886" lon="4.70751">
        <ele>270.16183</ele>
        <time>2022-11-20T13:17:29.000Z</time>
      </trkpt>
      <trkpt lat="45.84889" lon="4.70753">
        <ele>269.96698</ele>
        <time>2022-11-20T13:17:30.000Z</time>
      </trkpt>
      <trkpt lat="45.84892" lon="4.70755">
        <ele>269.79095</ele>
        <time>2022-11-20T13:17:31.000Z</time>
      </trkpt>
      <trkpt lat="45.84895" lon="4.70757">
        <ele>269.63309</ele>
        <time>2022-11-20T13:17:32.000Z</time>
      </trkpt>
      <trkpt lat="45.84899" lon="4.70759">
        <ele>269.48065</ele>
        <time>2022-11-20T13:17:33.000Z</time>
      </trkpt>
      <trkpt lat="45.84903" lon="4.7076">
        <ele>269.33069</ele>
        <time>2022-11-20T13:17:34.000Z</time>
      </trkpt>
      <trkpt lat="45.84906" lon="4.70762">
        <ele>269.23752</ele>
        <time>2022-11-20T13:17:35.000Z</time>
      </trkpt>
      <trkpt lat="45.8491" lon="4.70764">
        <ele>269.09445</ele>
        <time>2022-11-20T13:17:36.000Z</time>
      </trkpt>
      <trkpt lat="45.84914" lon="4.70766">
        <ele>268.91824</ele>
        <time>2022-11-20T13:17:37.000Z</time>
      </trkpt>
      <trkpt lat="45.84919" lon="4.7077">
        <ele>268.8504</ele>
        <time>2022-11-20T13:17:38.000Z</time>
      </trkpt>
      <trkpt lat="45.84924" lon="4.70771">
        <ele>268.79401</ele>
        <time>2022-11-20T13:17:39.000Z</time>
      </trkpt>
      <trkpt lat="45.8493" lon="4.70771">
        <ele>268.69342</ele>
        <time>2022-11-20T13:17:40.000Z</time>
      </trkpt>
      <trkpt lat="45.84934" lon="4.70773">
        <ele>268.5965</ele>
        <time>2022-11-20T13:17:41.000Z</time>
      </trkpt>
      <trkpt lat="45.84939" lon="4.70774">
        <ele>268.51138</ele>
        <time>2022-11-20T13:17:42.000Z</time>
      </trkpt>
      <trkpt lat="45.84945" lon="4.70777">
        <ele>268.45282</ele>
        <time>2022-11-20T13:17:43.000Z</time>
      </trkpt>
      <trkpt lat="45.84951" lon="4.70778">
        <ele>268.43198</ele>
        <time>2022-11-20T13:17:44.000Z</time>
      </trkpt>
      <trkpt lat="45.84958" lon="4.7078">
        <ele>268.40997</ele>
        <time>2022-11-20T13:17:45.000Z</time>
      </trkpt>
      <trkpt lat="45.84965" lon="4.70782">
        <ele>268.4046</ele>
        <time>2022-11-20T13:17:46.000Z</time>
      </trkpt>
      <trkpt lat="45.84974" lon="4.70782">
        <ele>268.37897</ele>
        <time>2022-11-20T13:17:47.000Z</time>
      </trkpt>
      <trkpt lat="45.84983" lon="4.70783">
        <ele>268.38156</ele>
        <time>2022-11-20T13:17:48.000Z</time>
      </trkpt>
      <trkpt lat="45.8499" lon="4.70784">
        <ele>268.35388</ele>
        <time>2022-11-20T13:17:49.000Z</time>
      </trkpt>
      <trkpt lat="45.84999" lon="4.70786">
        <ele>268.33127</ele>
        <time>2022-11-20T13:17:50.000Z</time>
      </trkpt>
      <trkpt lat="45.85007" lon="4.70788">
        <ele>268.32819</ele>
        <time>2022-11-20T13:17:51.000Z</time>
      </trkpt>
      <trkpt lat="45.85017" lon="4.70792">
        <ele>268.31479</ele>
        <time>2022-11-20T13:17:52.000Z</time>
      </trkpt>
      <trkpt lat="45.85026" lon="4.70796">
        <ele>268.30316</ele>
        <time>2022-11-20T13:17:53.000Z</time>
      </trkpt>
      <trkpt lat="45.85035" lon="4.70801">
        <ele>268.24664</ele>
        <time>2022-11-20T13:17:54.000Z</time>
      </trkpt>
      <trkpt lat="45.85042" lon="4.70804">
        <ele>268.0788</ele>
        <time>2022-11-20T13:17:55.000Z</time>
      </trkpt>
      <trkpt lat="45.85048" lon="4.70806">
        <ele>267.81454</ele>
        <time>2022-11-20T13:17:56.000Z</time>
      </trkpt>
      <trkpt lat="45.85053" lon="4.70807">
        <ele>267.50699</ele>
        <time>2022-11-20T13:17:57.000Z</time>
      </trkpt>
      <trkpt lat="45.85057" lon="4.70807">
        <ele>267.12683</ele>
        <time>2022-11-20T13:17:58.000Z</time>
      </trkpt>
      <trkpt lat="45.85062" lon="4.70808">
        <ele>266.76636</ele>
        <time>2022-11-20T13:17:59.000Z</time>
      </trkpt>
      <trkpt lat="45.85064" lon="4.70809">
        <ele>266.43622</ele>
        <time>2022-11-20T13:18:00.000Z</time>
      </trkpt>
      <trkpt lat="45.85067" lon="4.7081">
        <ele>266.10416</ele>
        <time>2022-11-20T13:18:01.000Z</time>
      </trkpt>
      <trkpt lat="45.85072" lon="4.70809">
        <ele>265.71738</ele>
        <time>2022-11-20T13:18:02.000Z</time>
      </trkpt>
      <trkpt lat="45.85076" lon="4.70812">
        <ele>265.35635</ele>
        <time>2022-11-20T13:18:03.000Z</time>
      </trkpt>
      <trkpt lat="45.8508" lon="4.70813">
        <ele>265.03433</ele>
        <time>2022-11-20T13:18:04.000Z</time>
      </trkpt>
      <trkpt lat="45.85086" lon="4.70815">
        <ele>264.79648</ele>
        <time>2022-11-20T13:18:05.000Z</time>
      </trkpt>
      <trkpt lat="45.85093" lon="4.70815">
        <ele>264.5748</ele>
        <time>2022-11-20T13:18:06.000Z</time>
      </trkpt>
      <trkpt lat="45.85101" lon="4.70815">
        <ele>264.35562</ele>
        <time>2022-11-20T13:18:07.000Z</time>
      </trkpt>
      <trkpt lat="45.8511" lon="4.70817">
        <ele>264.21036</ele>
        <time>2022-11-20T13:18:08.000Z</time>
      </trkpt>
      <trkpt lat="45.85119" lon="4.70819">
        <ele>264.11868</ele>
        <time>2022-11-20T13:18:09.000Z</time>
      </trkpt>
      <trkpt lat="45.85129" lon="4.70821">
        <ele>263.89825</ele>
        <time>2022-11-20T13:18:10.000Z</time>
      </trkpt>
      <trkpt lat="45.85139" lon="4.70825">
        <ele>263.63235</ele>
        <time>2022-11-20T13:18:11.000Z</time>
      </trkpt>
      <trkpt lat="45.85148" lon="4.70832">
        <ele>263.32016</ele>
        <time>2022-11-20T13:18:12.000Z</time>
      </trkpt>
      <trkpt lat="45.85158" lon="4.70835">
        <ele>262.80966</ele>
        <time>2022-11-20T13:18:13.000Z</time>
      </trkpt>
      <trkpt lat="45.85169" lon="4.70838">
        <ele>262.28485</ele>
        <time>2022-11-20T13:18:14.000Z</time>
      </trkpt>
      <trkpt lat="45.85179" lon="4.70838">
        <ele>261.96588</ele>
        <time>2022-11-20T13:18:15.000Z</time>
      </trkpt>
      <trkpt lat="45.85188" lon="4.70839">
        <ele>261.58081</ele>
        <time>2022-11-20T13:18:16.000Z</time>
      </trkpt>
      <trkpt lat="45.85198" lon="4.70836">
        <ele>261.28647</ele>
        <time>2022-11-20T13:18:17.000Z</time>
      </trkpt>
      <trkpt lat="45.85206" lon="4.70833">
        <ele>260.70316</ele>
        <time>2022-11-20T13:18:18.000Z</time>
      </trkpt>
      <trkpt lat="45.85214" lon="4.70828">
        <ele>260.14215</ele>
        <time>2022-11-20T13:18:19.000Z</time>
      </trkpt>
      <trkpt lat="45.85221" lon="4.70823">
        <ele>259.20209</ele>
        <time>2022-11-20T13:18:20.000Z</time>
      </trkpt>
      <trkpt lat="45.85229" lon="4.70818">
        <ele>258.22614</ele>
        <time>2022-11-20T13:18:21.000Z</time>
      </trkpt>
      <trkpt lat="45.85235" lon="4.70809">
        <ele>257.3063</ele>
        <time>2022-11-20T13:18:22.000Z</time>
      </trkpt>
      <trkpt lat="45.85242" lon="4.70804">
        <ele>256.88666</ele>
        <time>2022-11-20T13:18:23.000Z</time>
      </trkpt>
      <trkpt lat="45.85249" lon="4.70797">
        <ele>256.15933</ele>
        <time>2022-11-20T13:18:24.000Z</time>
      </trkpt>
      <trkpt lat="45.85255" lon="4.70792">
        <ele>255.30669</ele>
        <time>2022-11-20T13:18:25.000Z</time>
      </trkpt>
      <trkpt lat="45.85261" lon="4.70789">
        <ele>254.41171</ele>
        <time>2022-11-20T13:18:26.000Z</time>
      </trkpt>
      <trkpt lat="45.85266" lon="4.70789">
        <ele>253.6508</ele>
        <time>2022-11-20T13:18:27.000Z</time>
      </trkpt>
      <trkpt lat="45.85269" lon="4.7079">
        <ele>252.82304</ele>
        <time>2022-11-20T13:18:28.000Z</time>
      </trkpt>
      <trkpt lat="45.85274" lon="4.70791">
        <ele>252.09073</ele>
        <time>2022-11-20T13:18:29.000Z</time>
      </trkpt>
      <trkpt lat="45.85277" lon="4.70792">
        <ele>251.10869</ele>
        <time>2022-11-20T13:18:30.000Z</time>
      </trkpt>
      <trkpt lat="45.8528" lon="4.70796">
        <ele>250.17038</ele>
        <time>2022-11-20T13:18:31.000Z</time>
      </trkpt>
      <trkpt lat="45.85283" lon="4.708">
        <ele>249.30893</ele>
        <time>2022-11-20T13:18:32.000Z</time>
      </trkpt>
      <trkpt lat="45.85286" lon="4.70805">
        <ele>248.6405</ele>
        <time>2022-11-20T13:18:33.000Z</time>
      </trkpt>
      <trkpt lat="45.8529" lon="4.70809">
        <ele>247.98837</ele>
        <time>2022-11-20T13:18:34.000Z</time>
      </trkpt>
      <trkpt lat="45.85294" lon="4.70814">
        <ele>247.22635</ele>
        <time>2022-11-20T13:18:35.000Z</time>
      </trkpt>
      <trkpt lat="45.85297" lon="4.70818">
        <ele>246.58684</ele>
        <time>2022-11-20T13:18:36.000Z</time>
      </trkpt>
      <trkpt lat="45.853" lon="4.70823">
        <ele>245.90445</ele>
        <time>2022-11-20T13:18:37.000Z</time>
      </trkpt>
      <trkpt lat="45.85304" lon="4.70829">
        <ele>245.50754</ele>
        <time>2022-11-20T13:18:38.000Z</time>
      </trkpt>
      <trkpt lat="45.85308" lon="4.70835">
        <ele>245.12508</ele>
        <time>2022-11-20T13:18:39.000Z</time>
      </trkpt>
      <trkpt lat="45.85313" lon="4.70841">
        <ele>245.28609</ele>
        <time>2022-11-20T13:18:40.000Z</time>
      </trkpt>
      <trkpt lat="45.85317" lon="4.70847">
        <ele>245.49011</ele>
        <time>2022-11-20T13:18:41.000Z</time>
      </trkpt>
      <trkpt lat="45.8532" lon="4.70851">
        <ele>245.64746</ele>
        <time>2022-11-20T13:18:42.000Z</time>
      </trkpt>
      <trkpt lat="45.85325" lon="4.70856">
        <ele>245.25969</ele>
        <time>2022-11-20T13:18:43.000Z</time>
      </trkpt>
      <trkpt lat="45.85329" lon="4.70861">
        <ele>245.30344</ele>
        <time>2022-11-20T13:18:44.000Z</time>
      </trkpt>
      <trkpt lat="45.85333" lon="4.70864">
        <ele>244.97641</ele>
        <time>2022-11-20T13:18:45.000Z</time>
      </trkpt>
      <trkpt lat="45.85336" lon="4.70867">
        <ele>244.73425</ele>
        <time>2022-11-20T13:18:46.000Z</time>
      </trkpt>
      <trkpt lat="45.85339" lon="4.7087">
        <ele>244.37183</ele>
        <time>2022-11-20T13:18:47.000Z</time>
      </trkpt>
      <trkpt lat="45.8534" lon="4.70873">
        <ele>244.02731</ele>
        <time>2022-11-20T13:18:48.000Z</time>
      </trkpt>
      <trkpt lat="45.85343" lon="4.70876">
        <ele>243.50208</ele>
        <time>2022-11-20T13:18:50.000Z</time>
      </trkpt>
      <trkpt lat="45.85345" lon="4.70878">
        <ele>243.30696</ele>
        <time>2022-11-20T13:18:51.000Z</time>
      </trkpt>
      <trkpt lat="45.85348" lon="4.7088">
        <ele>243.06282</ele>
        <time>2022-11-20T13:18:52.000Z</time>
      </trkpt>
      <trkpt lat="45.85351" lon="4.70881">
        <ele>242.823</ele>
        <time>2022-11-20T13:18:53.000Z</time>
      </trkpt>
      <trkpt lat="45.85355" lon="4.70881">
        <ele>242.60571</ele>
        <time>2022-11-20T13:18:54.000Z</time>
      </trkpt>
      <trkpt lat="45.85359" lon="4.70882">
        <ele>242.63284</ele>
        <time>2022-11-20T13:18:55.000Z</time>
      </trkpt>
      <trkpt lat="45.85363" lon="4.70882">
        <ele>242.64993</ele>
        <time>2022-11-20T13:18:56.000Z</time>
      </trkpt>
      <trkpt lat="45.85367" lon="4.70883">
        <ele>242.70496</ele>
        <time>2022-11-20T13:18:57.000Z</time>
      </trkpt>
      <trkpt lat="45.85372" lon="4.70884">
        <ele>242.7572</ele>
        <time>2022-11-20T13:18:58.000Z</time>
      </trkpt>
      <trkpt lat="45.85377" lon="4.70886">
        <ele>242.9827</ele>
        <time>2022-11-20T13:18:59.000Z</time>
      </trkpt>
      <trkpt lat="45.85383" lon="4.70888">
        <ele>242.74765</ele>
        <time>2022-11-20T13:19:00.000Z</time>
      </trkpt>
      <trkpt lat="45.85388" lon="4.70891">
        <ele>242.38994</ele>
        <time>2022-11-20T13:19:01.000Z</time>
      </trkpt>
      <trkpt lat="45.85394" lon="4.70893">
        <ele>242.02678</ele>
        <time>2022-11-20T13:19:02.000Z</time>
      </trkpt>
      <trkpt lat="45.85399" lon="4.70895">
        <ele>241.71109</ele>
        <time>2022-11-20T13:19:03.000Z</time>
      </trkpt>
      <trkpt lat="45.85406" lon="4.70898">
        <ele>241.39995</ele>
        <time>2022-11-20T13:19:04.000Z</time>
      </trkpt>
      <trkpt lat="45.85411" lon="4.70902">
        <ele>240.97136</ele>
        <time>2022-11-20T13:19:05.000Z</time>
      </trkpt>
      <trkpt lat="45.85417" lon="4.70905">
        <ele>240.94917</ele>
        <time>2022-11-20T13:19:06.000Z</time>
      </trkpt>
      <trkpt lat="45.85422" lon="4.70909">
        <ele>240.82983</ele>
        <time>2022-11-20T13:19:07.000Z</time>
      </trkpt>
      <trkpt lat="45.85428" lon="4.70912">
        <ele>240.71175</ele>
        <time>2022-11-20T13:19:08.000Z</time>
      </trkpt>
      <trkpt lat="45.85434" lon="4.70915">
        <ele>240.60703</ele>
        <time>2022-11-20T13:19:09.000Z</time>
      </trkpt>
      <trkpt lat="45.85439" lon="4.70918">
        <ele>240.55533</ele>
        <time>2022-11-20T13:19:10.000Z</time>
      </trkpt>
      <trkpt lat="45.85445" lon="4.70918">
        <ele>240.53915</ele>
        <time>2022-11-20T13:19:11.000Z</time>
      </trkpt>
      <trkpt lat="45.85451" lon="4.70919">
        <ele>240.54448</ele>
        <time>2022-11-20T13:19:12.000Z</time>
      </trkpt>
      <trkpt lat="45.85457" lon="4.7092">
        <ele>240.48654</ele>
        <time>2022-11-20T13:19:13.000Z</time>
      </trkpt>
      <trkpt lat="45.85463" lon="4.70921">
        <ele>240.44632</ele>
        <time>2022-11-20T13:19:14.000Z</time>
      </trkpt>
      <trkpt lat="45.85468" lon="4.70922">
        <ele>240.20132</ele>
        <time>2022-11-20T13:19:15.000Z</time>
      </trkpt>
      <trkpt lat="45.85474" lon="4.70923">
        <ele>239.91214</ele>
        <time>2022-11-20T13:19:16.000Z</time>
      </trkpt>
      <trkpt lat="45.8548" lon="4.70924">
        <ele>239.61845</ele>
        <time>2022-11-20T13:19:17.000Z</time>
      </trkpt>
      <trkpt lat="45.85485" lon="4.70926">
        <ele>239.34509</ele>
        <time>2022-11-20T13:19:18.000Z</time>
      </trkpt>
      <trkpt lat="45.8549" lon="4.70929">
        <ele>238.79204</ele>
        <time>2022-11-20T13:19:19.000Z</time>
      </trkpt>
      <trkpt lat="45.85495" lon="4.70931">
        <ele>238.63614</ele>
        <time>2022-11-20T13:19:20.000Z</time>
      </trkpt>
      <trkpt lat="45.85497" lon="4.70937">
        <ele>238.44815</ele>
        <time>2022-11-20T13:19:21.000Z</time>
      </trkpt>
      <trkpt lat="45.85498" lon="4.70942">
        <ele>238.26338</ele>
        <time>2022-11-20T13:19:22.000Z</time>
      </trkpt>
      <trkpt lat="45.85499" lon="4.70949">
        <ele>238.08582</ele>
        <time>2022-11-20T13:19:23.000Z</time>
      </trkpt>
      <trkpt lat="45.85499" lon="4.70956">
        <ele>237.90866</ele>
        <time>2022-11-20T13:19:24.000Z</time>
      </trkpt>
      <trkpt lat="45.85499" lon="4.70962">
        <ele>237.67229</ele>
        <time>2022-11-20T13:19:25.000Z</time>
      </trkpt>
      <trkpt lat="45.85499" lon="4.70969">
        <ele>237.44527</ele>
        <time>2022-11-20T13:19:26.000Z</time>
      </trkpt>
      <trkpt lat="45.85499" lon="4.70976">
        <ele>237.34904</ele>
        <time>2022-11-20T13:19:27.000Z</time>
      </trkpt>
      <trkpt lat="45.855" lon="4.70983">
        <ele>237.09671</ele>
        <time>2022-11-20T13:19:28.000Z</time>
      </trkpt>
      <trkpt lat="45.855" lon="4.7099">
        <ele>236.83186</ele>
        <time>2022-11-20T13:19:29.000Z</time>
      </trkpt>
      <trkpt lat="45.85498" lon="4.70997">
        <ele>236.53629</ele>
        <time>2022-11-20T13:19:30.000Z</time>
      </trkpt>
      <trkpt lat="45.85498" lon="4.71003">
        <ele>236.26558</ele>
        <time>2022-11-20T13:19:31.000Z</time>
      </trkpt>
      <trkpt lat="45.85498" lon="4.71009">
        <ele>236.07133</ele>
        <time>2022-11-20T13:19:32.000Z</time>
      </trkpt>
      <trkpt lat="45.85498" lon="4.71015">
        <ele>235.86275</ele>
        <time>2022-11-20T13:19:33.000Z</time>
      </trkpt>
      <trkpt lat="45.85502" lon="4.71019">
        <ele>235.63599</ele>
        <time>2022-11-20T13:19:34.000Z</time>
      </trkpt>
      <trkpt lat="45.85506" lon="4.71024">
        <ele>235.42398</ele>
        <time>2022-11-20T13:19:35.000Z</time>
      </trkpt>
      <trkpt lat="45.85509" lon="4.71027">
        <ele>235.2618</ele>
        <time>2022-11-20T13:19:36.000Z</time>
      </trkpt>
      <trkpt lat="45.85513" lon="4.71031">
        <ele>235.11169</ele>
        <time>2022-11-20T13:19:37.000Z</time>
      </trkpt>
      <trkpt lat="45.85515" lon="4.71035">
        <ele>234.91943</ele>
        <time>2022-11-20T13:19:38.000Z</time>
      </trkpt>
      <trkpt lat="45.85517" lon="4.7104">
        <ele>234.86316</ele>
        <time>2022-11-20T13:19:39.000Z</time>
      </trkpt>
      <trkpt lat="45.85518" lon="4.71047">
        <ele>235.0894</ele>
        <time>2022-11-20T13:19:40.000Z</time>
      </trkpt>
      <trkpt lat="45.85518" lon="4.71054">
        <ele>235.44278</ele>
        <time>2022-11-20T13:19:41.000Z</time>
      </trkpt>
      <trkpt lat="45.85518" lon="4.71062">
        <ele>235.99942</ele>
        <time>2022-11-20T13:19:42.000Z</time>
      </trkpt>
      <trkpt lat="45.85518" lon="4.7107">
        <ele>236.03598</ele>
        <time>2022-11-20T13:19:43.000Z</time>
      </trkpt>
      <trkpt lat="45.85517" lon="4.71077">
        <ele>236.10754</ele>
        <time>2022-11-20T13:19:44.000Z</time>
      </trkpt>
      <trkpt lat="45.85516" lon="4.71084">
        <ele>236.21049</ele>
        <time>2022-11-20T13:19:45.000Z</time>
      </trkpt>
      <trkpt lat="45.85517" lon="4.71091">
        <ele>236.39493</ele>
        <time>2022-11-20T13:19:46.000Z</time>
      </trkpt>
      <trkpt lat="45.85517" lon="4.71101">
        <ele>236.46243</ele>
        <time>2022-11-20T13:19:47.000Z</time>
      </trkpt>
      <trkpt lat="45.85516" lon="4.71108">
        <ele>236.72131</ele>
        <time>2022-11-20T13:19:48.000Z</time>
      </trkpt>
      <trkpt lat="45.85516" lon="4.71114">
        <ele>237.02438</ele>
        <time>2022-11-20T13:19:49.000Z</time>
      </trkpt>
      <trkpt lat="45.85517" lon="4.71121">
        <ele>237.30478</ele>
        <time>2022-11-20T13:19:50.000Z</time>
      </trkpt>
      <trkpt lat="45.85516" lon="4.7113">
        <ele>237.76326</ele>
        <time>2022-11-20T13:19:51.000Z</time>
      </trkpt>
      <trkpt lat="45.85515" lon="4.71138">
        <ele>238.06522</ele>
        <time>2022-11-20T13:19:52.000Z</time>
      </trkpt>
      <trkpt lat="45.85514" lon="4.71145">
        <ele>238.34334</ele>
        <time>2022-11-20T13:19:53.000Z</time>
      </trkpt>
      <trkpt lat="45.85513" lon="4.7115">
        <ele>238.48962</ele>
        <time>2022-11-20T13:19:54.000Z</time>
      </trkpt>
      <trkpt lat="45.85511" lon="4.71156">
        <ele>238.60562</ele>
        <time>2022-11-20T13:19:55.000Z</time>
      </trkpt>
      <trkpt lat="45.85509" lon="4.71161">
        <ele>238.70474</ele>
        <time>2022-11-20T13:19:56.000Z</time>
      </trkpt>
      <trkpt lat="45.85505" lon="4.71168">
        <ele>238.77542</ele>
        <time>2022-11-20T13:19:57.000Z</time>
      </trkpt>
      <trkpt lat="45.85502" lon="4.71172">
        <ele>239.05203</ele>
        <time>2022-11-20T13:19:58.000Z</time>
      </trkpt>
      <trkpt lat="45.855" lon="4.71175">
        <ele>239.26643</ele>
        <time>2022-11-20T13:19:59.000Z</time>
      </trkpt>
      <trkpt lat="45.85495" lon="4.71181">
        <ele>239.24527</ele>
        <time>2022-11-20T13:20:01.000Z</time>
      </trkpt>
      <trkpt lat="45.85491" lon="4.71184">
        <ele>238.59834</ele>
        <time>2022-11-20T13:20:02.000Z</time>
      </trkpt>
      <trkpt lat="45.85489" lon="4.71188">
        <ele>238.00342</ele>
        <time>2022-11-20T13:20:03.000Z</time>
      </trkpt>
      <trkpt lat="45.85488" lon="4.7119">
        <ele>237.93799</ele>
        <time>2022-11-20T13:20:04.000Z</time>
      </trkpt>
      <trkpt lat="45.85486" lon="4.71197">
        <ele>237.8833</ele>
        <time>2022-11-20T13:20:06.000Z</time>
      </trkpt>
      <trkpt lat="45.85486" lon="4.71201">
        <ele>237.83984</ele>
        <time>2022-11-20T13:20:07.000Z</time>
      </trkpt>
      <trkpt lat="45.85486" lon="4.71206">
        <ele>237.9061</ele>
        <time>2022-11-20T13:20:08.000Z</time>
      </trkpt>
      <trkpt lat="45.85484" lon="4.71214">
        <ele>237.92728</ele>
        <time>2022-11-20T13:20:09.000Z</time>
      </trkpt>
      <trkpt lat="45.85482" lon="4.71219">
        <ele>237.83704</ele>
        <time>2022-11-20T13:20:10.000Z</time>
      </trkpt>
      <trkpt lat="45.85482" lon="4.71223">
        <ele>237.69254</ele>
        <time>2022-11-20T13:20:11.000Z</time>
      </trkpt>
      <trkpt lat="45.85482" lon="4.71227">
        <ele>237.75278</ele>
        <time>2022-11-20T13:20:12.000Z</time>
      </trkpt>
      <trkpt lat="45.85481" lon="4.71232">
        <ele>237.67612</ele>
        <time>2022-11-20T13:20:13.000Z</time>
      </trkpt>
      <trkpt lat="45.85481" lon="4.71235">
        <ele>237.84396</ele>
        <time>2022-11-20T13:20:15.000Z</time>
      </trkpt>
      <trkpt lat="45.85481" lon="4.71238">
        <ele>238.25298</ele>
        <time>2022-11-20T13:20:24.000Z</time>
      </trkpt>
      <trkpt lat="45.85481" lon="4.71241">
        <ele>238.93694</ele>
        <time>2022-11-20T13:20:28.000Z</time>
      </trkpt>
      <trkpt lat="45.85481" lon="4.71244">
        <ele>240.0146</ele>
        <time>2022-11-20T13:20:36.000Z</time>
      </trkpt>
      <trkpt lat="45.85481" lon="4.71246">
        <ele>241.09969</ele>
        <time>2022-11-20T13:20:42.000Z</time>
      </trkpt>
      <trkpt lat="45.85482" lon="4.71249">
        <ele>241.60669</ele>
        <time>2022-11-20T13:20:44.000Z</time>
      </trkpt>
      <trkpt lat="45.85482" lon="4.71252">
        <ele>241.88484</ele>
        <time>2022-11-20T13:20:46.000Z</time>
      </trkpt>
      <trkpt lat="45.85485" lon="4.71252">
        <ele>241.91537</ele>
        <time>2022-11-20T13:20:54.000Z</time>
      </trkpt>
      <trkpt lat="45.85488" lon="4.71252">
        <ele>241.79329</ele>
        <time>2022-11-20T13:20:56.000Z</time>
      </trkpt>
      <trkpt lat="45.85491" lon="4.71253">
        <ele>241.95496</ele>
        <time>2022-11-20T13:20:57.000Z</time>
      </trkpt>
      <trkpt lat="45.85494" lon="4.71254">
        <ele>242.02231</ele>
        <time>2022-11-20T13:20:58.000Z</time>
      </trkpt>
      <trkpt lat="45.85497" lon="4.71255">
        <ele>242.35715</ele>
        <time>2022-11-20T13:20:59.000Z</time>
      </trkpt>
      <trkpt lat="45.855" lon="4.71256">
        <ele>242.94495</ele>
        <time>2022-11-20T13:21:00.000Z</time>
      </trkpt>
      <trkpt lat="45.85503" lon="4.71257">
        <ele>243.5092</ele>
        <time>2022-11-20T13:21:01.000Z</time>
      </trkpt>
      <trkpt lat="45.85507" lon="4.71259">
        <ele>244.03751</ele>
        <time>2022-11-20T13:21:02.000Z</time>
      </trkpt>
      <trkpt lat="45.8551" lon="4.7126">
        <ele>244.47441</ele>
        <time>2022-11-20T13:21:03.000Z</time>
      </trkpt>
      <trkpt lat="45.85514" lon="4.71262">
        <ele>244.95401</ele>
        <time>2022-11-20T13:21:04.000Z</time>
      </trkpt>
      <trkpt lat="45.85517" lon="4.71263">
        <ele>245.41208</ele>
        <time>2022-11-20T13:21:05.000Z</time>
      </trkpt>
      <trkpt lat="45.8552" lon="4.71265">
        <ele>245.7065</ele>
        <time>2022-11-20T13:21:06.000Z</time>
      </trkpt>
      <trkpt lat="45.85522" lon="4.71267">
        <ele>245.79434</ele>
        <time>2022-11-20T13:21:07.000Z</time>
      </trkpt>
      <trkpt lat="45.85525" lon="4.71269">
        <ele>245.5809</ele>
        <time>2022-11-20T13:21:08.000Z</time>
      </trkpt>
      <trkpt lat="45.85528" lon="4.7127">
        <ele>245.18034</ele>
        <time>2022-11-20T13:21:09.000Z</time>
      </trkpt>
      <trkpt lat="45.85532" lon="4.71271">
        <ele>244.60698</ele>
        <time>2022-11-20T13:21:10.000Z</time>
      </trkpt>
      <trkpt lat="45.85536" lon="4.71272">
        <ele>243.64563</ele>
        <time>2022-11-20T13:21:11.000Z</time>
      </trkpt>
      <trkpt lat="45.85539" lon="4.71274">
        <ele>242.61948</ele>
        <time>2022-11-20T13:21:12.000Z</time>
      </trkpt>
      <trkpt lat="45.85543" lon="4.71275">
        <ele>242.16055</ele>
        <time>2022-11-20T13:21:13.000Z</time>
      </trkpt>
      <trkpt lat="45.85547" lon="4.71277">
        <ele>241.93335</ele>
        <time>2022-11-20T13:21:14.000Z</time>
      </trkpt>
      <trkpt lat="45.85551" lon="4.71278">
        <ele>241.93161</ele>
        <time>2022-11-20T13:21:15.000Z</time>
      </trkpt>
      <trkpt lat="45.85554" lon="4.7128">
        <ele>241.38692</ele>
        <time>2022-11-20T13:21:16.000Z</time>
      </trkpt>
      <trkpt lat="45.85557" lon="4.71281">
        <ele>241.29346</ele>
        <time>2022-11-20T13:21:17.000Z</time>
      </trkpt>
      <trkpt lat="45.85561" lon="4.71282">
        <ele>241.02344</ele>
        <time>2022-11-20T13:21:18.000Z</time>
      </trkpt>
      <trkpt lat="45.85565" lon="4.71282">
        <ele>240.48557</ele>
        <time>2022-11-20T13:21:19.000Z</time>
      </trkpt>
      <trkpt lat="45.85568" lon="4.71283">
        <ele>239.94011</ele>
        <time>2022-11-20T13:21:20.000Z</time>
      </trkpt>
      <trkpt lat="45.85572" lon="4.71285">
        <ele>239.49382</ele>
        <time>2022-11-20T13:21:21.000Z</time>
      </trkpt>
      <trkpt lat="45.85575" lon="4.71286">
        <ele>239.08687</ele>
        <time>2022-11-20T13:21:22.000Z</time>
      </trkpt>
      <trkpt lat="45.85578" lon="4.71287">
        <ele>238.82268</ele>
        <time>2022-11-20T13:21:23.000Z</time>
      </trkpt>
      <trkpt lat="45.85581" lon="4.71287">
        <ele>238.50056</ele>
        <time>2022-11-20T13:21:24.000Z</time>
      </trkpt>
      <trkpt lat="45.85584" lon="4.71287">
        <ele>238.24593</ele>
        <time>2022-11-20T13:21:25.000Z</time>
      </trkpt>
      <trkpt lat="45.85587" lon="4.71287">
        <ele>238.02827</ele>
        <time>2022-11-20T13:21:26.000Z</time>
      </trkpt>
      <trkpt lat="45.85591" lon="4.71288">
        <ele>237.82942</ele>
        <time>2022-11-20T13:21:27.000Z</time>
      </trkpt>
      <trkpt lat="45.85595" lon="4.71289">
        <ele>237.81958</ele>
        <time>2022-11-20T13:21:28.000Z</time>
      </trkpt>
      <trkpt lat="45.85598" lon="4.71291">
        <ele>237.83459</ele>
        <time>2022-11-20T13:21:29.000Z</time>
      </trkpt>
      <trkpt lat="45.856" lon="4.71293">
        <ele>237.89902</ele>
        <time>2022-11-20T13:21:30.000Z</time>
      </trkpt>
      <trkpt lat="45.85602" lon="4.71296">
        <ele>237.89616</ele>
        <time>2022-11-20T13:21:31.000Z</time>
      </trkpt>
      <trkpt lat="45.85603" lon="4.71299">
        <ele>238.03304</ele>
        <time>2022-11-20T13:21:32.000Z</time>
      </trkpt>
      <trkpt lat="45.85605" lon="4.71302">
        <ele>238.25671</ele>
        <time>2022-11-20T13:21:34.000Z</time>
      </trkpt>
      <trkpt lat="45.85607" lon="4.713">
        <ele>238.36963</ele>
        <time>2022-11-20T13:21:35.000Z</time>
      </trkpt>
      <trkpt lat="45.85609" lon="4.71295">
        <ele>238.59152</ele>
        <time>2022-11-20T13:21:36.000Z</time>
      </trkpt>
      <trkpt lat="45.85612" lon="4.7129">
        <ele>239.44417</ele>
        <time>2022-11-20T13:21:37.000Z</time>
      </trkpt>
      <trkpt lat="45.85617" lon="4.71281">
        <ele>240.05997</ele>
        <time>2022-11-20T13:21:38.000Z</time>
      </trkpt>
      <trkpt lat="45.85621" lon="4.71275">
        <ele>240.64267</ele>
        <time>2022-11-20T13:21:39.000Z</time>
      </trkpt>
      <trkpt lat="45.85627" lon="4.71268">
        <ele>241.12708</ele>
        <time>2022-11-20T13:21:40.000Z</time>
      </trkpt>
      <trkpt lat="45.85633" lon="4.71265">
        <ele>241.19797</ele>
        <time>2022-11-20T13:21:41.000Z</time>
      </trkpt>
      <trkpt lat="45.85641" lon="4.71263">
        <ele>241.11081</ele>
        <time>2022-11-20T13:21:42.000Z</time>
      </trkpt>
      <trkpt lat="45.8565" lon="4.71263">
        <ele>240.80151</ele>
        <time>2022-11-20T13:21:43.000Z</time>
      </trkpt>
      <trkpt lat="45.85658" lon="4.71268">
        <ele>240.64937</ele>
        <time>2022-11-20T13:21:44.000Z</time>
      </trkpt>
      <trkpt lat="45.85665" lon="4.71274">
        <ele>240.00443</ele>
        <time>2022-11-20T13:21:45.000Z</time>
      </trkpt>
      <trkpt lat="45.85672" lon="4.7128">
        <ele>239.39383</ele>
        <time>2022-11-20T13:21:46.000Z</time>
      </trkpt>
      <trkpt lat="45.85679" lon="4.71284">
        <ele>238.72844</ele>
        <time>2022-11-20T13:21:47.000Z</time>
      </trkpt>
      <trkpt lat="45.85687" lon="4.71287">
        <ele>238.15804</ele>
        <time>2022-11-20T13:21:48.000Z</time>
      </trkpt>
      <trkpt lat="45.85693" lon="4.7129">
        <ele>237.50961</ele>
        <time>2022-11-20T13:21:49.000Z</time>
      </trkpt>
      <trkpt lat="45.85698" lon="4.71291">
        <ele>236.85281</ele>
        <time>2022-11-20T13:21:50.000Z</time>
      </trkpt>
      <trkpt lat="45.85702" lon="4.71291">
        <ele>236.13501</ele>
        <time>2022-11-20T13:21:51.000Z</time>
      </trkpt>
      <trkpt lat="45.85706" lon="4.71293">
        <ele>235.49776</ele>
        <time>2022-11-20T13:21:52.000Z</time>
      </trkpt>
      <trkpt lat="45.85709" lon="4.71294">
        <ele>234.7596</ele>
        <time>2022-11-20T13:21:53.000Z</time>
      </trkpt>
      <trkpt lat="45.85714" lon="4.71294">
        <ele>233.95403</ele>
        <time>2022-11-20T13:21:54.000Z</time>
      </trkpt>
      <trkpt lat="45.8572" lon="4.71294">
        <ele>233.07535</ele>
        <time>2022-11-20T13:21:55.000Z</time>
      </trkpt>
      <trkpt lat="45.85726" lon="4.71294">
        <ele>232.15544</ele>
        <time>2022-11-20T13:21:56.000Z</time>
      </trkpt>
      <trkpt lat="45.85731" lon="4.71295">
        <ele>231.21463</ele>
        <time>2022-11-20T13:21:57.000Z</time>
      </trkpt>
      <trkpt lat="45.85735" lon="4.71297">
        <ele>230.19913</ele>
        <time>2022-11-20T13:21:58.000Z</time>
      </trkpt>
      <trkpt lat="45.85738" lon="4.71298">
        <ele>229.63638</ele>
        <time>2022-11-20T13:21:59.000Z</time>
      </trkpt>
      <trkpt lat="45.85741" lon="4.71298">
        <ele>228.87263</ele>
        <time>2022-11-20T13:22:00.000Z</time>
      </trkpt>
      <trkpt lat="45.85745" lon="4.71294">
        <ele>228.4283</ele>
        <time>2022-11-20T13:22:01.000Z</time>
      </trkpt>
      <trkpt lat="45.85747" lon="4.71291">
        <ele>228.0441</ele>
        <time>2022-11-20T13:22:02.000Z</time>
      </trkpt>
      <trkpt lat="45.8575" lon="4.71287">
        <ele>227.66606</ele>
        <time>2022-11-20T13:22:03.000Z</time>
      </trkpt>
      <trkpt lat="45.85751" lon="4.71283">
        <ele>225.80083</ele>
        <time>2022-11-20T13:22:04.000Z</time>
      </trkpt>
      <trkpt lat="45.85753" lon="4.71278">
        <ele>224.5201</ele>
        <time>2022-11-20T13:22:05.000Z</time>
      </trkpt>
      <trkpt lat="45.85755" lon="4.71274">
        <ele>223.18094</ele>
        <time>2022-11-20T13:22:06.000Z</time>
      </trkpt>
      <trkpt lat="45.85757" lon="4.71268">
        <ele>221.87613</ele>
        <time>2022-11-20T13:22:07.000Z</time>
      </trkpt>
      <trkpt lat="45.85758" lon="4.71263">
        <ele>220.60393</ele>
        <time>2022-11-20T13:22:08.000Z</time>
      </trkpt>
      <trkpt lat="45.8576" lon="4.71257">
        <ele>219.36601</ele>
        <time>2022-11-20T13:22:09.000Z</time>
      </trkpt>
      <trkpt lat="45.85762" lon="4.71251">
        <ele>218.13303</ele>
        <time>2022-11-20T13:22:10.000Z</time>
      </trkpt>
      <trkpt lat="45.85764" lon="4.71246">
        <ele>216.95279</ele>
        <time>2022-11-20T13:22:11.000Z</time>
      </trkpt>
      <trkpt lat="45.85764" lon="4.71239">
        <ele>215.75594</ele>
        <time>2022-11-20T13:22:12.000Z</time>
      </trkpt>
      <trkpt lat="45.85766" lon="4.71234">
        <ele>214.56453</ele>
        <time>2022-11-20T13:22:13.000Z</time>
      </trkpt>
      <trkpt lat="45.85767" lon="4.71228">
        <ele>213.37495</ele>
        <time>2022-11-20T13:22:14.000Z</time>
      </trkpt>
      <trkpt lat="45.85768" lon="4.71222">
        <ele>212.19058</ele>
        <time>2022-11-20T13:22:15.000Z</time>
      </trkpt>
      <trkpt lat="45.8577" lon="4.71216">
        <ele>211.02454</ele>
        <time>2022-11-20T13:22:16.000Z</time>
      </trkpt>
      <trkpt lat="45.85772" lon="4.7121">
        <ele>209.91109</ele>
        <time>2022-11-20T13:22:17.000Z</time>
      </trkpt>
      <trkpt lat="45.85774" lon="4.71205">
        <ele>208.82431</ele>
        <time>2022-11-20T13:22:18.000Z</time>
      </trkpt>
      <trkpt lat="45.85775" lon="4.71199">
        <ele>207.32736</ele>
        <time>2022-11-20T13:22:19.000Z</time>
      </trkpt>
      <trkpt lat="45.85777" lon="4.71194">
        <ele>206.09766</ele>
        <time>2022-11-20T13:22:20.000Z</time>
      </trkpt>
      <trkpt lat="45.85778" lon="4.71189">
        <ele>204.66968</ele>
        <time>2022-11-20T13:22:21.000Z</time>
      </trkpt>
      <trkpt lat="45.8578" lon="4.71183">
        <ele>203.26416</ele>
        <time>2022-11-20T13:22:22.000Z</time>
      </trkpt>
      <trkpt lat="45.85781" lon="4.71176">
        <ele>201.91151</ele>
        <time>2022-11-20T13:22:23.000Z</time>
      </trkpt>
      <trkpt lat="45.85782" lon="4.71172">
        <ele>201.88332</ele>
        <time>2022-11-20T13:22:24.000Z</time>
      </trkpt>
      <trkpt lat="45.85783" lon="4.71167">
        <ele>201.86267</ele>
        <time>2022-11-20T13:22:25.000Z</time>
      </trkpt>
      <trkpt lat="45.85782" lon="4.71162">
        <ele>201.82291</ele>
        <time>2022-11-20T13:22:26.000Z</time>
      </trkpt>
      <trkpt lat="45.85782" lon="4.71157">
        <ele>201.77863</ele>
        <time>2022-11-20T13:22:27.000Z</time>
      </trkpt>
      <trkpt lat="45.85781" lon="4.71152">
        <ele>201.7623</ele>
        <time>2022-11-20T13:22:28.000Z</time>
      </trkpt>
      <trkpt lat="45.85781" lon="4.71147">
        <ele>201.73488</ele>
        <time>2022-11-20T13:22:29.000Z</time>
      </trkpt>
      <trkpt lat="45.85781" lon="4.71142">
        <ele>201.67747</ele>
        <time>2022-11-20T13:22:30.000Z</time>
      </trkpt>
      <trkpt lat="45.85782" lon="4.71138">
        <ele>201.58369</ele>
        <time>2022-11-20T13:22:31.000Z</time>
      </trkpt>
      <trkpt lat="45.85783" lon="4.71135">
        <ele>201.49805</ele>
        <time>2022-11-20T13:22:32.000Z</time>
      </trkpt>
      <trkpt lat="45.85786" lon="4.71136">
        <ele>201.54782</ele>
        <time>2022-11-20T13:22:33.000Z</time>
      </trkpt>
      <trkpt lat="45.85788" lon="4.71139">
        <ele>201.59207</ele>
        <time>2022-11-20T13:22:34.000Z</time>
      </trkpt>
      <trkpt lat="45.85792" lon="4.7114">
        <ele>201.67378</ele>
        <time>2022-11-20T13:22:35.000Z</time>
      </trkpt>
      <trkpt lat="45.85794" lon="4.71139">
        <ele>201.70758</ele>
        <time>2022-11-20T13:22:36.000Z</time>
      </trkpt>
      <trkpt lat="45.85797" lon="4.71136">
        <ele>201.73782</ele>
        <time>2022-11-20T13:22:37.000Z</time>
      </trkpt>
      <trkpt lat="45.85802" lon="4.71131">
        <ele>201.78439</ele>
        <time>2022-11-20T13:22:38.000Z</time>
      </trkpt>
      <trkpt lat="45.85806" lon="4.71125">
        <ele>201.84338</ele>
        <time>2022-11-20T13:22:39.000Z</time>
      </trkpt>
      <trkpt lat="45.8581" lon="4.7112">
        <ele>201.85864</ele>
        <time>2022-11-20T13:22:40.000Z</time>
      </trkpt>
      <trkpt lat="45.85814" lon="4.71113">
        <ele>201.88199</ele>
        <time>2022-11-20T13:22:41.000Z</time>
      </trkpt>
      <trkpt lat="45.85819" lon="4.71106">
        <ele>201.88074</ele>
        <time>2022-11-20T13:22:42.000Z</time>
      </trkpt>
      <trkpt lat="45.85824" lon="4.71099">
        <ele>201.84244</ele>
        <time>2022-11-20T13:22:43.000Z</time>
      </trkpt>
      <trkpt lat="45.85828" lon="4.71092">
        <ele>201.83994</ele>
        <time>2022-11-20T13:22:44.000Z</time>
      </trkpt>
      <trkpt lat="45.85834" lon="4.71086">
        <ele>201.8148</ele>
        <time>2022-11-20T13:22:45.000Z</time>
      </trkpt>
      <trkpt lat="45.85838" lon="4.7108">
        <ele>201.80356</ele>
        <time>2022-11-20T13:22:46.000Z</time>
      </trkpt>
      <trkpt lat="45.85842" lon="4.71074">
        <ele>201.78214</ele>
        <time>2022-11-20T13:22:47.000Z</time>
      </trkpt>
      <trkpt lat="45.85847" lon="4.71067">
        <ele>201.74298</ele>
        <time>2022-11-20T13:22:48.000Z</time>
      </trkpt>
      <trkpt lat="45.85851" lon="4.71062">
        <ele>201.68863</ele>
        <time>2022-11-20T13:22:49.000Z</time>
      </trkpt>
      <trkpt lat="45.85855" lon="4.71058">
        <ele>201.62502</ele>
        <time>2022-11-20T13:22:50.000Z</time>
      </trkpt>
      <trkpt lat="45.85859" lon="4.71052">
        <ele>201.54311</ele>
        <time>2022-11-20T13:22:51.000Z</time>
      </trkpt>
      <trkpt lat="45.85864" lon="4.71045">
        <ele>201.4874</ele>
        <time>2022-11-20T13:22:52.000Z</time>
      </trkpt>
      <trkpt lat="45.85869" lon="4.71039">
        <ele>201.3268</ele>
        <time>2022-11-20T13:22:53.000Z</time>
      </trkpt>
      <trkpt lat="45.85873" lon="4.71033">
        <ele>201.18942</ele>
        <time>2022-11-20T13:22:54.000Z</time>
      </trkpt>
      <trkpt lat="45.85878" lon="4.71028">
        <ele>200.98746</ele>
        <time>2022-11-20T13:22:55.000Z</time>
      </trkpt>
      <trkpt lat="45.85882" lon="4.71022">
        <ele>200.83783</ele>
        <time>2022-11-20T13:22:56.000Z</time>
      </trkpt>
      <trkpt lat="45.85888" lon="4.71016">
        <ele>200.72034</ele>
        <time>2022-11-20T13:22:57.000Z</time>
      </trkpt>
      <trkpt lat="45.85892" lon="4.7101">
        <ele>200.59959</ele>
        <time>2022-11-20T13:22:58.000Z</time>
      </trkpt>
      <trkpt lat="45.85897" lon="4.71004">
        <ele>200.47179</ele>
        <time>2022-11-20T13:22:59.000Z</time>
      </trkpt>
      <trkpt lat="45.85902" lon="4.70998">
        <ele>200.41196</ele>
        <time>2022-11-20T13:23:00.000Z</time>
      </trkpt>
      <trkpt lat="45.85907" lon="4.70993">
        <ele>200.31635</ele>
        <time>2022-11-20T13:23:01.000Z</time>
      </trkpt>
      <trkpt lat="45.85912" lon="4.70988">
        <ele>200.19334</ele>
        <time>2022-11-20T13:23:02.000Z</time>
      </trkpt>
      <trkpt lat="45.85918" lon="4.70982">
        <ele>200.06262</ele>
        <time>2022-11-20T13:23:03.000Z</time>
      </trkpt>
      <trkpt lat="45.85924" lon="4.70978">
        <ele>199.91222</ele>
        <time>2022-11-20T13:23:04.000Z</time>
      </trkpt>
      <trkpt lat="45.85929" lon="4.70975">
        <ele>199.73315</ele>
        <time>2022-11-20T13:23:05.000Z</time>
      </trkpt>
      <trkpt lat="45.85935" lon="4.70973">
        <ele>199.54604</ele>
        <time>2022-11-20T13:23:06.000Z</time>
      </trkpt>
      <trkpt lat="45.85941" lon="4.70973">
        <ele>199.31975</ele>
        <time>2022-11-20T13:23:07.000Z</time>
      </trkpt>
      <trkpt lat="45.85947" lon="4.70973">
        <ele>199.08183</ele>
        <time>2022-11-20T13:23:08.000Z</time>
      </trkpt>
      <trkpt lat="45.85954" lon="4.70973">
        <ele>198.84805</ele>
        <time>2022-11-20T13:23:09.000Z</time>
      </trkpt>
      <trkpt lat="45.85961" lon="4.70973">
        <ele>198.67352</ele>
        <time>2022-11-20T13:23:10.000Z</time>
      </trkpt>
      <trkpt lat="45.85967" lon="4.70974">
        <ele>198.55504</ele>
        <time>2022-11-20T13:23:11.000Z</time>
      </trkpt>
      <trkpt lat="45.85972" lon="4.70977">
        <ele>198.41153</ele>
        <time>2022-11-20T13:23:12.000Z</time>
      </trkpt>
      <trkpt lat="45.85978" lon="4.70979">
        <ele>198.27028</ele>
        <time>2022-11-20T13:23:13.000Z</time>
      </trkpt>
      <trkpt lat="45.85984" lon="4.70981">
        <ele>198.11824</ele>
        <time>2022-11-20T13:23:14.000Z</time>
      </trkpt>
      <trkpt lat="45.85989" lon="4.70986">
        <ele>197.99039</ele>
        <time>2022-11-20T13:23:15.000Z</time>
      </trkpt>
      <trkpt lat="45.85994" lon="4.70989">
        <ele>197.85753</ele>
        <time>2022-11-20T13:23:16.000Z</time>
      </trkpt>
      <trkpt lat="45.85999" lon="4.70993">
        <ele>197.70361</ele>
        <time>2022-11-20T13:23:17.000Z</time>
      </trkpt>
      <trkpt lat="45.86004" lon="4.70998">
        <ele>197.60771</ele>
        <time>2022-11-20T13:23:18.000Z</time>
      </trkpt>
      <trkpt lat="45.86008" lon="4.71004">
        <ele>197.50754</ele>
        <time>2022-11-20T13:23:19.000Z</time>
      </trkpt>
      <trkpt lat="45.86011" lon="4.71009">
        <ele>197.40497</ele>
        <time>2022-11-20T13:23:20.000Z</time>
      </trkpt>
      <trkpt lat="45.86015" lon="4.71014">
        <ele>197.34573</ele>
        <time>2022-11-20T13:23:21.000Z</time>
      </trkpt>
      <trkpt lat="45.86019" lon="4.71019">
        <ele>197.3252</ele>
        <time>2022-11-20T13:23:22.000Z</time>
      </trkpt>
      <trkpt lat="45.86023" lon="4.71025">
        <ele>197.22415</ele>
        <time>2022-11-20T13:23:23.000Z</time>
      </trkpt>
      <trkpt lat="45.86026" lon="4.7103">
        <ele>197.14021</ele>
        <time>2022-11-20T13:23:24.000Z</time>
      </trkpt>
      <trkpt lat="45.86027" lon="4.71036">
        <ele>197.06761</ele>
        <time>2022-11-20T13:23:25.000Z</time>
      </trkpt>
      <trkpt lat="45.86029" lon="4.71043">
        <ele>197.02252</ele>
        <time>2022-11-20T13:23:26.000Z</time>
      </trkpt>
      <trkpt lat="45.86031" lon="4.71051">
        <ele>197.01776</ele>
        <time>2022-11-20T13:23:27.000Z</time>
      </trkpt>
      <trkpt lat="45.86033" lon="4.71059">
        <ele>197.02763</ele>
        <time>2022-11-20T13:23:28.000Z</time>
      </trkpt>
      <trkpt lat="45.86034" lon="4.71066">
        <ele>197.05515</ele>
        <time>2022-11-20T13:23:29.000Z</time>
      </trkpt>
      <trkpt lat="45.86036" lon="4.71074">
        <ele>197.08231</ele>
        <time>2022-11-20T13:23:30.000Z</time>
      </trkpt>
      <trkpt lat="45.86038" lon="4.71082">
        <ele>197.10645</ele>
        <time>2022-11-20T13:23:31.000Z</time>
      </trkpt>
      <trkpt lat="45.8604" lon="4.71089">
        <ele>197.18045</ele>
        <time>2022-11-20T13:23:32.000Z</time>
      </trkpt>
      <trkpt lat="45.86043" lon="4.71096">
        <ele>197.23895</ele>
        <time>2022-11-20T13:23:33.000Z</time>
      </trkpt>
      <trkpt lat="45.86046" lon="4.71102">
        <ele>197.33301</ele>
        <time>2022-11-20T13:23:34.000Z</time>
      </trkpt>
      <trkpt lat="45.8605" lon="4.71108">
        <ele>197.37396</ele>
        <time>2022-11-20T13:23:35.000Z</time>
      </trkpt>
      <trkpt lat="45.86053" lon="4.71113">
        <ele>197.42227</ele>
        <time>2022-11-20T13:23:36.000Z</time>
      </trkpt>
      <trkpt lat="45.86056" lon="4.71119">
        <ele>197.46243</ele>
        <time>2022-11-20T13:23:37.000Z</time>
      </trkpt>
      <trkpt lat="45.8606" lon="4.71125">
        <ele>197.52573</ele>
        <time>2022-11-20T13:23:38.000Z</time>
      </trkpt>
      <trkpt lat="45.86065" lon="4.71131">
        <ele>197.6694</ele>
        <time>2022-11-20T13:23:39.000Z</time>
      </trkpt>
      <trkpt lat="45.86069" lon="4.71135">
        <ele>197.80377</ele>
        <time>2022-11-20T13:23:40.000Z</time>
      </trkpt>
      <trkpt lat="45.86074" lon="4.71138">
        <ele>197.93994</ele>
        <time>2022-11-20T13:23:41.000Z</time>
      </trkpt>
      <trkpt lat="45.86078" lon="4.71144">
        <ele>198.04185</ele>
        <time>2022-11-20T13:23:42.000Z</time>
      </trkpt>
      <trkpt lat="45.86082" lon="4.71151">
        <ele>198.11882</ele>
        <time>2022-11-20T13:23:43.000Z</time>
      </trkpt>
      <trkpt lat="45.86089" lon="4.71149">
        <ele>198.18323</ele>
        <time>2022-11-20T13:23:45.000Z</time>
      </trkpt>
      <trkpt lat="45.86093" lon="4.7115">
        <ele>198.27422</ele>
        <time>2022-11-20T13:23:46.000Z</time>
      </trkpt>
      <trkpt lat="45.86098" lon="4.71149">
        <ele>198.35406</ele>
        <time>2022-11-20T13:23:47.000Z</time>
      </trkpt>
      <trkpt lat="45.86102" lon="4.71142">
        <ele>200.25908</ele>
        <time>2022-11-20T13:23:48.000Z</time>
      </trkpt>
      <trkpt lat="45.86107" lon="4.71137">
        <ele>200.4433</ele>
        <time>2022-11-20T13:23:49.000Z</time>
      </trkpt>
      <trkpt lat="45.86112" lon="4.7113">
        <ele>200.62724</ele>
        <time>2022-11-20T13:23:50.000Z</time>
      </trkpt>
      <trkpt lat="45.86115" lon="4.71122">
        <ele>200.80865</ele>
        <time>2022-11-20T13:23:51.000Z</time>
      </trkpt>
      <trkpt lat="45.86118" lon="4.71114">
        <ele>200.97382</ele>
        <time>2022-11-20T13:23:52.000Z</time>
      </trkpt>
      <trkpt lat="45.8612" lon="4.71108">
        <ele>201.10367</ele>
        <time>2022-11-20T13:23:53.000Z</time>
      </trkpt>
      <trkpt lat="45.86123" lon="4.711">
        <ele>202.83658</ele>
        <time>2022-11-20T13:23:54.000Z</time>
      </trkpt>
      <trkpt lat="45.86125" lon="4.71093">
        <ele>203.04303</ele>
        <time>2022-11-20T13:23:55.000Z</time>
      </trkpt>
      <trkpt lat="45.86128" lon="4.71086">
        <ele>203.30899</ele>
        <time>2022-11-20T13:23:56.000Z</time>
      </trkpt>
      <trkpt lat="45.8613" lon="4.71079">
        <ele>204.28275</ele>
        <time>2022-11-20T13:23:57.000Z</time>
      </trkpt>
      <trkpt lat="45.86133" lon="4.71073">
        <ele>205.42746</ele>
        <time>2022-11-20T13:23:58.000Z</time>
      </trkpt>
      <trkpt lat="45.86135" lon="4.71069">
        <ele>206.40813</ele>
        <time>2022-11-20T13:23:59.000Z</time>
      </trkpt>
      <trkpt lat="45.86139" lon="4.71064">
        <ele>207.22</ele>
        <time>2022-11-20T13:24:00.000Z</time>
      </trkpt>
      <trkpt lat="45.86144" lon="4.71059">
        <ele>208.06087</ele>
        <time>2022-11-20T13:24:01.000Z</time>
      </trkpt>
      <trkpt lat="45.86148" lon="4.71056">
        <ele>208.83374</ele>
        <time>2022-11-20T13:24:02.000Z</time>
      </trkpt>
      <trkpt lat="45.86153" lon="4.71053">
        <ele>209.67154</ele>
        <time>2022-11-20T13:24:03.000Z</time>
      </trkpt>
      <trkpt lat="45.86159" lon="4.71051">
        <ele>210.61987</ele>
        <time>2022-11-20T13:24:04.000Z</time>
      </trkpt>
      <trkpt lat="45.86165" lon="4.71049">
        <ele>211.54704</ele>
        <time>2022-11-20T13:24:05.000Z</time>
      </trkpt>
      <trkpt lat="45.8617" lon="4.71047">
        <ele>212.47029</ele>
        <time>2022-11-20T13:24:06.000Z</time>
      </trkpt>
      <trkpt lat="45.86176" lon="4.71045">
        <ele>213.38017</ele>
        <time>2022-11-20T13:24:07.000Z</time>
      </trkpt>
      <trkpt lat="45.86182" lon="4.71043">
        <ele>212.44096</ele>
        <time>2022-11-20T13:24:08.000Z</time>
      </trkpt>
      <trkpt lat="45.86187" lon="4.7104">
        <ele>213.23685</ele>
        <time>2022-11-20T13:24:09.000Z</time>
      </trkpt>
      <trkpt lat="45.86191" lon="4.71034">
        <ele>214.04082</ele>
        <time>2022-11-20T13:24:10.000Z</time>
      </trkpt>
      <trkpt lat="45.86196" lon="4.7103">
        <ele>214.82541</ele>
        <time>2022-11-20T13:24:11.000Z</time>
      </trkpt>
      <trkpt lat="45.862" lon="4.71025">
        <ele>215.60999</ele>
        <time>2022-11-20T13:24:12.000Z</time>
      </trkpt>
      <trkpt lat="45.86204" lon="4.71021">
        <ele>216.3912</ele>
        <time>2022-11-20T13:24:13.000Z</time>
      </trkpt>
      <trkpt lat="45.86208" lon="4.71016">
        <ele>215.58545</ele>
        <time>2022-11-20T13:24:14.000Z</time>
      </trkpt>
      <trkpt lat="45.86211" lon="4.71011">
        <ele>216.28799</ele>
        <time>2022-11-20T13:24:15.000Z</time>
      </trkpt>
      <trkpt lat="45.86214" lon="4.71007">
        <ele>217.33655</ele>
        <time>2022-11-20T13:24:16.000Z</time>
      </trkpt>
      <trkpt lat="45.86217" lon="4.71003">
        <ele>216.37569</ele>
        <time>2022-11-20T13:24:17.000Z</time>
      </trkpt>
      <trkpt lat="45.8622" lon="4.71">
        <ele>215.24785</ele>
        <time>2022-11-20T13:24:18.000Z</time>
      </trkpt>
      <trkpt lat="45.86223" lon="4.70998">
        <ele>214.21819</ele>
        <time>2022-11-20T13:24:19.000Z</time>
      </trkpt>
      <trkpt lat="45.86226" lon="4.70998">
        <ele>213.28372</ele>
        <time>2022-11-20T13:24:20.000Z</time>
      </trkpt>
      <trkpt lat="45.86228" lon="4.70998">
        <ele>212.32242</ele>
        <time>2022-11-20T13:24:22.000Z</time>
      </trkpt>
      <trkpt lat="45.86229" lon="4.71001">
        <ele>211.36394</ele>
        <time>2022-11-20T13:24:27.000Z</time>
      </trkpt>
      <trkpt lat="45.8623" lon="4.70998">
        <ele>211.60239</ele>
        <time>2022-11-20T13:24:39.000Z</time>
      </trkpt>
      <trkpt lat="45.86233" lon="4.70998">
        <ele>211.62936</ele>
        <time>2022-11-20T13:24:41.000Z</time>
      </trkpt>
      <trkpt lat="45.86236" lon="4.70999">
        <ele>211.68628</ele>
        <time>2022-11-20T13:24:42.000Z</time>
      </trkpt>
      <trkpt lat="45.86239" lon="4.71002">
        <ele>211.74995</ele>
        <time>2022-11-20T13:24:43.000Z</time>
      </trkpt>
      <trkpt lat="45.86242" lon="4.71005">
        <ele>211.82915</ele>
        <time>2022-11-20T13:24:44.000Z</time>
      </trkpt>
      <trkpt lat="45.86245" lon="4.71009">
        <ele>211.9427</ele>
        <time>2022-11-20T13:24:45.000Z</time>
      </trkpt>
      <trkpt lat="45.86247" lon="4.71012">
        <ele>212.03702</ele>
        <time>2022-11-20T13:24:46.000Z</time>
      </trkpt>
      <trkpt lat="45.86251" lon="4.71016">
        <ele>212.11629</ele>
        <time>2022-11-20T13:24:47.000Z</time>
      </trkpt>
      <trkpt lat="45.86254" lon="4.71019">
        <ele>212.14395</ele>
        <time>2022-11-20T13:24:48.000Z</time>
      </trkpt>
      <trkpt lat="45.86257" lon="4.71022">
        <ele>212.21269</ele>
        <time>2022-11-20T13:24:49.000Z</time>
      </trkpt>
      <trkpt lat="45.86261" lon="4.71025">
        <ele>212.25639</ele>
        <time>2022-11-20T13:24:50.000Z</time>
      </trkpt>
      <trkpt lat="45.86266" lon="4.71027">
        <ele>212.31177</ele>
        <time>2022-11-20T13:24:51.000Z</time>
      </trkpt>
      <trkpt lat="45.86271" lon="4.71028">
        <ele>212.34872</ele>
        <time>2022-11-20T13:24:52.000Z</time>
      </trkpt>
      <trkpt lat="45.86275" lon="4.71028">
        <ele>211.97525</ele>
        <time>2022-11-20T13:24:53.000Z</time>
      </trkpt>
      <trkpt lat="45.86281" lon="4.71028">
        <ele>212.94287</ele>
        <time>2022-11-20T13:24:54.000Z</time>
      </trkpt>
      <trkpt lat="45.86285" lon="4.71027">
        <ele>214.44357</ele>
        <time>2022-11-20T13:24:55.000Z</time>
      </trkpt>
      <trkpt lat="45.86291" lon="4.71026">
        <ele>214.4075</ele>
        <time>2022-11-20T13:24:56.000Z</time>
      </trkpt>
      <trkpt lat="45.86295" lon="4.71025">
        <ele>214.37112</ele>
        <time>2022-11-20T13:24:57.000Z</time>
      </trkpt>
      <trkpt lat="45.863" lon="4.71025">
        <ele>214.32393</ele>
        <time>2022-11-20T13:24:58.000Z</time>
      </trkpt>
      <trkpt lat="45.86304" lon="4.71025">
        <ele>214.31987</ele>
        <time>2022-11-20T13:24:59.000Z</time>
      </trkpt>
      <trkpt lat="45.86308" lon="4.71025">
        <ele>213.07242</ele>
        <time>2022-11-20T13:25:00.000Z</time>
      </trkpt>
      <trkpt lat="45.86312" lon="4.71024">
        <ele>212.03079</ele>
        <time>2022-11-20T13:25:01.000Z</time>
      </trkpt>
      <trkpt lat="45.86318" lon="4.71024">
        <ele>210.97791</ele>
        <time>2022-11-20T13:25:02.000Z</time>
      </trkpt>
      <trkpt lat="45.86322" lon="4.71024">
        <ele>209.91245</ele>
        <time>2022-11-20T13:25:03.000Z</time>
      </trkpt>
      <trkpt lat="45.86325" lon="4.71024">
        <ele>208.83603</ele>
        <time>2022-11-20T13:25:04.000Z</time>
      </trkpt>
      <trkpt lat="45.86327" lon="4.71024">
        <ele>207.76401</ele>
        <time>2022-11-20T13:25:10.000Z</time>
      </trkpt>
      <trkpt lat="45.86329" lon="4.71024">
        <ele>206.70491</ele>
        <time>2022-11-20T13:25:12.000Z</time>
      </trkpt>
      <trkpt lat="45.86331" lon="4.71024">
        <ele>205.62683</ele>
        <time>2022-11-20T13:25:13.000Z</time>
      </trkpt>
      <trkpt lat="45.86334" lon="4.71025">
        <ele>204.60486</ele>
        <time>2022-11-20T13:25:14.000Z</time>
      </trkpt>
      <trkpt lat="45.86337" lon="4.71025">
        <ele>203.53488</ele>
        <time>2022-11-20T13:25:15.000Z</time>
      </trkpt>
      <trkpt lat="45.8634" lon="4.71025">
        <ele>202.47649</ele>
        <time>2022-11-20T13:25:16.000Z</time>
      </trkpt>
      <trkpt lat="45.86344" lon="4.71026">
        <ele>201.38597</ele>
        <time>2022-11-20T13:25:17.000Z</time>
      </trkpt>
      <trkpt lat="45.86348" lon="4.71026">
        <ele>200.30862</ele>
        <time>2022-11-20T13:25:18.000Z</time>
      </trkpt>
      <trkpt lat="45.86352" lon="4.71027">
        <ele>199.28543</ele>
        <time>2022-11-20T13:25:19.000Z</time>
      </trkpt>
      <trkpt lat="45.86357" lon="4.71026">
        <ele>198.25449</ele>
        <time>2022-11-20T13:25:20.000Z</time>
      </trkpt>
      <trkpt lat="45.86362" lon="4.71025">
        <ele>196.70372</ele>
        <time>2022-11-20T13:25:21.000Z</time>
      </trkpt>
      <trkpt lat="45.86367" lon="4.71022">
        <ele>196.6882</ele>
        <time>2022-11-20T13:25:22.000Z</time>
      </trkpt>
      <trkpt lat="45.86371" lon="4.71019">
        <ele>196.68237</ele>
        <time>2022-11-20T13:25:23.000Z</time>
      </trkpt>
      <trkpt lat="45.86376" lon="4.71016">
        <ele>196.69138</ele>
        <time>2022-11-20T13:25:24.000Z</time>
      </trkpt>
      <trkpt lat="45.8638" lon="4.71013">
        <ele>196.64096</ele>
        <time>2022-11-20T13:25:25.000Z</time>
      </trkpt>
      <trkpt lat="45.86385" lon="4.7101">
        <ele>196.62274</ele>
        <time>2022-11-20T13:25:26.000Z</time>
      </trkpt>
      <trkpt lat="45.8639" lon="4.71008">
        <ele>196.60817</ele>
        <time>2022-11-20T13:25:27.000Z</time>
      </trkpt>
      <trkpt lat="45.86395" lon="4.71005">
        <ele>196.61629</ele>
        <time>2022-11-20T13:25:28.000Z</time>
      </trkpt>
      <trkpt lat="45.86401" lon="4.71001">
        <ele>196.61996</ele>
        <time>2022-11-20T13:25:29.000Z</time>
      </trkpt>
      <trkpt lat="45.86406" lon="4.70998">
        <ele>196.63106</ele>
        <time>2022-11-20T13:25:30.000Z</time>
      </trkpt>
      <trkpt lat="45.86411" lon="4.70996">
        <ele>196.63466</ele>
        <time>2022-11-20T13:25:31.000Z</time>
      </trkpt>
      <trkpt lat="45.86417" lon="4.70992">
        <ele>196.62814</ele>
        <time>2022-11-20T13:25:32.000Z</time>
      </trkpt>
      <trkpt lat="45.86422" lon="4.7099">
        <ele>196.62877</ele>
        <time>2022-11-20T13:25:33.000Z</time>
      </trkpt>
      <trkpt lat="45.86427" lon="4.70988">
        <ele>196.62079</ele>
        <time>2022-11-20T13:25:34.000Z</time>
      </trkpt>
      <trkpt lat="45.86433" lon="4.70985">
        <ele>196.61671</ele>
        <time>2022-11-20T13:25:35.000Z</time>
      </trkpt>
      <trkpt lat="45.8644" lon="4.70983">
        <ele>196.62997</ele>
        <time>2022-11-20T13:25:36.000Z</time>
      </trkpt>
      <trkpt lat="45.86446" lon="4.70983">
        <ele>196.62936</ele>
        <time>2022-11-20T13:25:37.000Z</time>
      </trkpt>
      <trkpt lat="45.86451" lon="4.70982">
        <ele>196.61545</ele>
        <time>2022-11-20T13:25:38.000Z</time>
      </trkpt>
      <trkpt lat="45.86456" lon="4.70983">
        <ele>196.59811</ele>
        <time>2022-11-20T13:25:39.000Z</time>
      </trkpt>
      <trkpt lat="45.86462" lon="4.70983">
        <ele>196.52719</ele>
        <time>2022-11-20T13:25:40.000Z</time>
      </trkpt>
      <trkpt lat="45.86467" lon="4.70985">
        <ele>196.44748</ele>
        <time>2022-11-20T13:25:41.000Z</time>
      </trkpt>
      <trkpt lat="45.86473" lon="4.70986">
        <ele>196.3643</ele>
        <time>2022-11-20T13:25:42.000Z</time>
      </trkpt>
      <trkpt lat="45.86478" lon="4.70985">
        <ele>196.28693</ele>
        <time>2022-11-20T13:25:43.000Z</time>
      </trkpt>
      <trkpt lat="45.86483" lon="4.70986">
        <ele>196.19878</ele>
        <time>2022-11-20T13:25:44.000Z</time>
      </trkpt>
      <trkpt lat="45.86488" lon="4.70986">
        <ele>196.1962</ele>
        <time>2022-11-20T13:25:45.000Z</time>
      </trkpt>
      <trkpt lat="45.86491" lon="4.70987">
        <ele>196.15401</ele>
        <time>2022-11-20T13:25:46.000Z</time>
      </trkpt>
      <trkpt lat="45.86496" lon="4.70989">
        <ele>196.09856</ele>
        <time>2022-11-20T13:25:47.000Z</time>
      </trkpt>
      <trkpt lat="45.86501" lon="4.7099">
        <ele>195.9411</ele>
        <time>2022-11-20T13:25:48.000Z</time>
      </trkpt>
      <trkpt lat="45.86506" lon="4.7099">
        <ele>195.79958</ele>
        <time>2022-11-20T13:25:49.000Z</time>
      </trkpt>
      <trkpt lat="45.86511" lon="4.70991">
        <ele>195.65735</ele>
        <time>2022-11-20T13:25:50.000Z</time>
      </trkpt>
      <trkpt lat="45.86516" lon="4.70991">
        <ele>195.52118</ele>
        <time>2022-11-20T13:25:51.000Z</time>
      </trkpt>
      <trkpt lat="45.86522" lon="4.70991">
        <ele>195.36253</ele>
        <time>2022-11-20T13:25:52.000Z</time>
      </trkpt>
      <trkpt lat="45.86528" lon="4.70991">
        <ele>195.22266</ele>
        <time>2022-11-20T13:25:53.000Z</time>
      </trkpt>
      <trkpt lat="45.86533" lon="4.70992">
        <ele>195.09698</ele>
        <time>2022-11-20T13:25:54.000Z</time>
      </trkpt>
      <trkpt lat="45.86539" lon="4.70993">
        <ele>194.96344</ele>
        <time>2022-11-20T13:25:55.000Z</time>
      </trkpt>
      <trkpt lat="45.86544" lon="4.70994">
        <ele>194.81052</ele>
        <time>2022-11-20T13:25:56.000Z</time>
      </trkpt>
      <trkpt lat="45.8655" lon="4.70995">
        <ele>194.67767</ele>
        <time>2022-11-20T13:25:57.000Z</time>
      </trkpt>
      <trkpt lat="45.86555" lon="4.70996">
        <ele>194.53441</ele>
        <time>2022-11-20T13:25:58.000Z</time>
      </trkpt>
      <trkpt lat="45.8656" lon="4.70998">
        <ele>194.35657</ele>
        <time>2022-11-20T13:25:59.000Z</time>
      </trkpt>
      <trkpt lat="45.86566" lon="4.71">
        <ele>194.20926</ele>
        <time>2022-11-20T13:26:00.000Z</time>
      </trkpt>
      <trkpt lat="45.86573" lon="4.71003">
        <ele>194.07915</ele>
        <time>2022-11-20T13:26:01.000Z</time>
      </trkpt>
      <trkpt lat="45.86579" lon="4.71004">
        <ele>193.95552</ele>
        <time>2022-11-20T13:26:02.000Z</time>
      </trkpt>
      <trkpt lat="45.86586" lon="4.71006">
        <ele>193.81155</ele>
        <time>2022-11-20T13:26:03.000Z</time>
      </trkpt>
      <trkpt lat="45.86592" lon="4.71008">
        <ele>193.67433</ele>
        <time>2022-11-20T13:26:04.000Z</time>
      </trkpt>
      <trkpt lat="45.866" lon="4.71009">
        <ele>193.51938</ele>
        <time>2022-11-20T13:26:05.000Z</time>
      </trkpt>
      <trkpt lat="45.86606" lon="4.71012">
        <ele>193.37888</ele>
        <time>2022-11-20T13:26:06.000Z</time>
      </trkpt>
      <trkpt lat="45.86612" lon="4.71015">
        <ele>193.26765</ele>
        <time>2022-11-20T13:26:07.000Z</time>
      </trkpt>
      <trkpt lat="45.86618" lon="4.71018">
        <ele>193.22455</ele>
        <time>2022-11-20T13:26:08.000Z</time>
      </trkpt>
      <trkpt lat="45.86624" lon="4.7102">
        <ele>193.18735</ele>
        <time>2022-11-20T13:26:09.000Z</time>
      </trkpt>
      <trkpt lat="45.8663" lon="4.71023">
        <ele>193.14807</ele>
        <time>2022-11-20T13:26:10.000Z</time>
      </trkpt>
      <trkpt lat="45.86636" lon="4.71026">
        <ele>194.5217</ele>
        <time>2022-11-20T13:26:11.000Z</time>
      </trkpt>
      <trkpt lat="45.86642" lon="4.71029">
        <ele>195.90939</ele>
        <time>2022-11-20T13:26:12.000Z</time>
      </trkpt>
      <trkpt lat="45.86647" lon="4.71031">
        <ele>197.29697</ele>
        <time>2022-11-20T13:26:13.000Z</time>
      </trkpt>
      <trkpt lat="45.86653" lon="4.71035">
        <ele>198.69463</ele>
        <time>2022-11-20T13:26:14.000Z</time>
      </trkpt>
      <trkpt lat="45.86659" lon="4.71037">
        <ele>200.14005</ele>
        <time>2022-11-20T13:26:15.000Z</time>
      </trkpt>
      <trkpt lat="45.86664" lon="4.7104">
        <ele>201.79472</ele>
        <time>2022-11-20T13:26:16.000Z</time>
      </trkpt>
      <trkpt lat="45.8667" lon="4.71043">
        <ele>202.72664</ele>
        <time>2022-11-20T13:26:17.000Z</time>
      </trkpt>
      <trkpt lat="45.86676" lon="4.71045">
        <ele>203.80045</ele>
        <time>2022-11-20T13:26:18.000Z</time>
      </trkpt>
      <trkpt lat="45.86682" lon="4.71048">
        <ele>204.91858</ele>
        <time>2022-11-20T13:26:19.000Z</time>
      </trkpt>
      <trkpt lat="45.86688" lon="4.7105">
        <ele>206.0145</ele>
        <time>2022-11-20T13:26:20.000Z</time>
      </trkpt>
      <trkpt lat="45.86694" lon="4.71053">
        <ele>207.10184</ele>
        <time>2022-11-20T13:26:21.000Z</time>
      </trkpt>
      <trkpt lat="45.86699" lon="4.71055">
        <ele>208.17842</ele>
        <time>2022-11-20T13:26:22.000Z</time>
      </trkpt>
      <trkpt lat="45.86705" lon="4.71058">
        <ele>209.24419</ele>
        <time>2022-11-20T13:26:23.000Z</time>
      </trkpt>
      <trkpt lat="45.8671" lon="4.71061">
        <ele>210.31587</ele>
        <time>2022-11-20T13:26:24.000Z</time>
      </trkpt>
      <trkpt lat="45.86716" lon="4.71063">
        <ele>211.39856</ele>
        <time>2022-11-20T13:26:25.000Z</time>
      </trkpt>
      <trkpt lat="45.86722" lon="4.71066">
        <ele>212.49406</ele>
        <time>2022-11-20T13:26:26.000Z</time>
      </trkpt>
      <trkpt lat="45.86727" lon="4.71069">
        <ele>213.58521</ele>
        <time>2022-11-20T13:26:27.000Z</time>
      </trkpt>
      <trkpt lat="45.86732" lon="4.71071">
        <ele>214.68845</ele>
        <time>2022-11-20T13:26:28.000Z</time>
      </trkpt>
      <trkpt lat="45.86738" lon="4.71074">
        <ele>215.77519</ele>
        <time>2022-11-20T13:26:29.000Z</time>
      </trkpt>
      <trkpt lat="45.86744" lon="4.71077">
        <ele>216.85979</ele>
        <time>2022-11-20T13:26:30.000Z</time>
      </trkpt>
      <trkpt lat="45.86749" lon="4.7108">
        <ele>216.53857</ele>
        <time>2022-11-20T13:26:31.000Z</time>
      </trkpt>
      <trkpt lat="45.86755" lon="4.71082">
        <ele>216.21382</ele>
        <time>2022-11-20T13:26:32.000Z</time>
      </trkpt>
      <trkpt lat="45.8676" lon="4.71085">
        <ele>215.88049</ele>
        <time>2022-11-20T13:26:33.000Z</time>
      </trkpt>
      <trkpt lat="45.86765" lon="4.71086">
        <ele>215.52951</ele>
        <time>2022-11-20T13:26:34.000Z</time>
      </trkpt>
      <trkpt lat="45.86769" lon="4.71087">
        <ele>215.12088</ele>
        <time>2022-11-20T13:26:35.000Z</time>
      </trkpt>
      <trkpt lat="45.86774" lon="4.71087">
        <ele>214.5013</ele>
        <time>2022-11-20T13:26:36.000Z</time>
      </trkpt>
      <trkpt lat="45.86778" lon="4.71088">
        <ele>214.60071</ele>
        <time>2022-11-20T13:26:37.000Z</time>
      </trkpt>
      <trkpt lat="45.86783" lon="4.71088">
        <ele>214.58211</ele>
        <time>2022-11-20T13:26:38.000Z</time>
      </trkpt>
      <trkpt lat="45.86788" lon="4.71088">
        <ele>214.56131</ele>
        <time>2022-11-20T13:26:39.000Z</time>
      </trkpt>
      <trkpt lat="45.86793" lon="4.71088">
        <ele>214.55034</ele>
        <time>2022-11-20T13:26:40.000Z</time>
      </trkpt>
      <trkpt lat="45.86798" lon="4.71087">
        <ele>214.53256</ele>
        <time>2022-11-20T13:26:41.000Z</time>
      </trkpt>
      <trkpt lat="45.86803" lon="4.71085">
        <ele>214.53191</ele>
        <time>2022-11-20T13:26:42.000Z</time>
      </trkpt>
      <trkpt lat="45.86806" lon="4.71084">
        <ele>214.55325</ele>
        <time>2022-11-20T13:26:43.000Z</time>
      </trkpt>
      <trkpt lat="45.8681" lon="4.71083">
        <ele>214.57007</ele>
        <time>2022-11-20T13:26:44.000Z</time>
      </trkpt>
      <trkpt lat="45.86813" lon="4.71083">
        <ele>214.58379</ele>
        <time>2022-11-20T13:26:45.000Z</time>
      </trkpt>
      <trkpt lat="45.86816" lon="4.71083">
        <ele>214.58818</ele>
        <time>2022-11-20T13:26:46.000Z</time>
      </trkpt>
      <trkpt lat="45.86818" lon="4.71084">
        <ele>214.62756</ele>
        <time>2022-11-20T13:26:48.000Z</time>
      </trkpt>
      <trkpt lat="45.8682" lon="4.71084">
        <ele>214.69702</ele>
        <time>2022-11-20T13:27:09.000Z</time>
      </trkpt>
      <trkpt lat="45.86821" lon="4.71084">
        <ele>214.81247</ele>
        <time>2022-11-20T13:27:10.000Z</time>
      </trkpt>
      <trkpt lat="45.86823" lon="4.71084">
        <ele>214.8918</ele>
        <time>2022-11-20T13:27:11.000Z</time>
      </trkpt>
      <trkpt lat="45.86826" lon="4.71084">
        <ele>214.97546</ele>
        <time>2022-11-20T13:27:12.000Z</time>
      </trkpt>
      <trkpt lat="45.86828" lon="4.71084">
        <ele>215.08218</ele>
        <time>2022-11-20T13:27:13.000Z</time>
      </trkpt>
      <trkpt lat="45.86831" lon="4.71084">
        <ele>215.19792</ele>
        <time>2022-11-20T13:27:14.000Z</time>
      </trkpt>
      <trkpt lat="45.86834" lon="4.71084">
        <ele>215.32739</ele>
        <time>2022-11-20T13:27:15.000Z</time>
      </trkpt>
      <trkpt lat="45.86837" lon="4.71084">
        <ele>215.47531</ele>
        <time>2022-11-20T13:27:16.000Z</time>
      </trkpt>
      <trkpt lat="45.8684" lon="4.71085">
        <ele>215.63371</ele>
        <time>2022-11-20T13:27:17.000Z</time>
      </trkpt>
      <trkpt lat="45.86843" lon="4.71085">
        <ele>215.79951</ele>
        <time>2022-11-20T13:27:18.000Z</time>
      </trkpt>
      <trkpt lat="45.86846" lon="4.71085">
        <ele>215.98372</ele>
        <time>2022-11-20T13:27:19.000Z</time>
      </trkpt>
      <trkpt lat="45.86848" lon="4.71085">
        <ele>216.17606</ele>
        <time>2022-11-20T13:27:20.000Z</time>
      </trkpt>
      <trkpt lat="45.86851" lon="4.71085">
        <ele>216.3577</ele>
        <time>2022-11-20T13:27:21.000Z</time>
      </trkpt>
      <trkpt lat="45.86854" lon="4.71085">
        <ele>216.5369</ele>
        <time>2022-11-20T13:27:22.000Z</time>
      </trkpt>
      <trkpt lat="45.86856" lon="4.71085">
        <ele>216.67778</ele>
        <time>2022-11-20T13:27:23.000Z</time>
      </trkpt>
      <trkpt lat="45.86858" lon="4.71086">
        <ele>216.80815</ele>
        <time>2022-11-20T13:27:24.000Z</time>
      </trkpt>
      <trkpt lat="45.86861" lon="4.71086">
        <ele>216.15938</ele>
        <time>2022-11-20T13:27:25.000Z</time>
      </trkpt>
      <trkpt lat="45.86863" lon="4.71086">
        <ele>215.49622</ele>
        <time>2022-11-20T13:27:26.000Z</time>
      </trkpt>
      <trkpt lat="45.86865" lon="4.71086">
        <ele>214.80779</ele>
        <time>2022-11-20T13:27:27.000Z</time>
      </trkpt>
      <trkpt lat="45.86868" lon="4.71086">
        <ele>214.0795</ele>
        <time>2022-11-20T13:27:28.000Z</time>
      </trkpt>
      <trkpt lat="45.8687" lon="4.71086">
        <ele>213.3298</ele>
        <time>2022-11-20T13:27:29.000Z</time>
      </trkpt>
      <trkpt lat="45.86872" lon="4.71086">
        <ele>212.52881</ele>
        <time>2022-11-20T13:27:30.000Z</time>
      </trkpt>
      <trkpt lat="45.86874" lon="4.71085">
        <ele>211.76591</ele>
        <time>2022-11-20T13:27:31.000Z</time>
      </trkpt>
      <trkpt lat="45.86877" lon="4.71083">
        <ele>210.98129</ele>
        <time>2022-11-20T13:27:32.000Z</time>
      </trkpt>
      <trkpt lat="45.8688" lon="4.71081">
        <ele>210.16141</ele>
        <time>2022-11-20T13:27:33.000Z</time>
      </trkpt>
      <trkpt lat="45.86883" lon="4.71079">
        <ele>209.3212</ele>
        <time>2022-11-20T13:27:34.000Z</time>
      </trkpt>
      <trkpt lat="45.86885" lon="4.71077">
        <ele>208.46301</ele>
        <time>2022-11-20T13:27:35.000Z</time>
      </trkpt>
      <trkpt lat="45.86887" lon="4.71076">
        <ele>207.56966</ele>
        <time>2022-11-20T13:27:37.000Z</time>
      </trkpt>
      <trkpt lat="45.8689" lon="4.71074">
        <ele>206.66293</ele>
        <time>2022-11-20T13:27:46.000Z</time>
      </trkpt>
      <trkpt lat="45.86892" lon="4.71072">
        <ele>205.75859</ele>
        <time>2022-11-20T13:27:47.000Z</time>
      </trkpt>
      <trkpt lat="45.86895" lon="4.71071">
        <ele>204.82771</ele>
        <time>2022-11-20T13:27:48.000Z</time>
      </trkpt>
      <trkpt lat="45.86898" lon="4.7107">
        <ele>203.86931</ele>
        <time>2022-11-20T13:27:49.000Z</time>
      </trkpt>
      <trkpt lat="45.86902" lon="4.7107">
        <ele>202.91946</ele>
        <time>2022-11-20T13:27:50.000Z</time>
      </trkpt>
      <trkpt lat="45.86906" lon="4.7107">
        <ele>201.99417</ele>
        <time>2022-11-20T13:27:51.000Z</time>
      </trkpt>
      <trkpt lat="45.8691" lon="4.71069">
        <ele>201.07693</ele>
        <time>2022-11-20T13:27:52.000Z</time>
      </trkpt>
      <trkpt lat="45.86914" lon="4.71069">
        <ele>200.16507</ele>
        <time>2022-11-20T13:27:53.000Z</time>
      </trkpt>
      <trkpt lat="45.86918" lon="4.71069">
        <ele>200.01108</ele>
        <time>2022-11-20T13:27:54.000Z</time>
      </trkpt>
      <trkpt lat="45.86922" lon="4.71069">
        <ele>199.8615</ele>
        <time>2022-11-20T13:27:55.000Z</time>
      </trkpt>
      <trkpt lat="45.86926" lon="4.71069">
        <ele>199.74773</ele>
        <time>2022-11-20T13:27:56.000Z</time>
      </trkpt>
      <trkpt lat="45.8693" lon="4.71069">
        <ele>199.64034</ele>
        <time>2022-11-20T13:27:57.000Z</time>
      </trkpt>
      <trkpt lat="45.86934" lon="4.7107">
        <ele>199.4805</ele>
        <time>2022-11-20T13:27:58.000Z</time>
      </trkpt>
      <trkpt lat="45.86938" lon="4.7107">
        <ele>199.35506</ele>
        <time>2022-11-20T13:27:59.000Z</time>
      </trkpt>
      <trkpt lat="45.86942" lon="4.7107">
        <ele>199.24374</ele>
        <time>2022-11-20T13:28:00.000Z</time>
      </trkpt>
      <trkpt lat="45.86946" lon="4.7107">
        <ele>199.14265</ele>
        <time>2022-11-20T13:28:01.000Z</time>
      </trkpt>
      <trkpt lat="45.8695" lon="4.7107">
        <ele>199.07242</ele>
        <time>2022-11-20T13:28:02.000Z</time>
      </trkpt>
      <trkpt lat="45.86953" lon="4.7107">
        <ele>199.00012</ele>
        <time>2022-11-20T13:28:03.000Z</time>
      </trkpt>
      <trkpt lat="45.86957" lon="4.7107">
        <ele>198.94592</ele>
        <time>2022-11-20T13:28:04.000Z</time>
      </trkpt>
      <trkpt lat="45.8696" lon="4.71069">
        <ele>198.93587</ele>
        <time>2022-11-20T13:28:05.000Z</time>
      </trkpt>
      <trkpt lat="45.86963" lon="4.71069">
        <ele>198.97847</ele>
        <time>2022-11-20T13:28:06.000Z</time>
      </trkpt>
      <trkpt lat="45.86966" lon="4.71068">
        <ele>199.02443</ele>
        <time>2022-11-20T13:28:07.000Z</time>
      </trkpt>
      <trkpt lat="45.86968" lon="4.71068">
        <ele>199.08859</ele>
        <time>2022-11-20T13:28:09.000Z</time>
      </trkpt>
      <trkpt lat="45.86972" lon="4.71068">
        <ele>199.18419</ele>
        <time>2022-11-20T13:28:18.000Z</time>
      </trkpt>
      <trkpt lat="45.86975" lon="4.71068">
        <ele>199.30566</ele>
        <time>2022-11-20T13:28:19.000Z</time>
      </trkpt>
      <trkpt lat="45.86978" lon="4.71069">
        <ele>199.40254</ele>
        <time>2022-11-20T13:28:20.000Z</time>
      </trkpt>
      <trkpt lat="45.8698" lon="4.7107">
        <ele>199.52113</ele>
        <time>2022-11-20T13:28:21.000Z</time>
      </trkpt>
      <trkpt lat="45.86982" lon="4.71071">
        <ele>199.66885</ele>
        <time>2022-11-20T13:28:22.000Z</time>
      </trkpt>
      <trkpt lat="45.86986" lon="4.71072">
        <ele>199.85194</ele>
        <time>2022-11-20T13:28:23.000Z</time>
      </trkpt>
      <trkpt lat="45.86989" lon="4.71073">
        <ele>200.04019</ele>
        <time>2022-11-20T13:28:24.000Z</time>
      </trkpt>
      <trkpt lat="45.86992" lon="4.71074">
        <ele>200.22813</ele>
        <time>2022-11-20T13:28:25.000Z</time>
      </trkpt>
      <trkpt lat="45.86995" lon="4.71075">
        <ele>200.40916</ele>
        <time>2022-11-20T13:28:26.000Z</time>
      </trkpt>
      <trkpt lat="45.86998" lon="4.71077">
        <ele>200.63992</ele>
        <time>2022-11-20T13:28:27.000Z</time>
      </trkpt>
      <trkpt lat="45.87001" lon="4.71078">
        <ele>200.88211</ele>
        <time>2022-11-20T13:28:28.000Z</time>
      </trkpt>
      <trkpt lat="45.87004" lon="4.71077">
        <ele>201.1288</ele>
        <time>2022-11-20T13:28:29.000Z</time>
      </trkpt>
      <trkpt lat="45.87008" lon="4.71077">
        <ele>201.44199</ele>
        <time>2022-11-20T13:28:30.000Z</time>
      </trkpt>
      <trkpt lat="45.87011" lon="4.71077">
        <ele>201.66551</ele>
        <time>2022-11-20T13:28:31.000Z</time>
      </trkpt>
      <trkpt lat="45.87014" lon="4.71077">
        <ele>201.87428</ele>
        <time>2022-11-20T13:28:32.000Z</time>
      </trkpt>
      <trkpt lat="45.87018" lon="4.71076">
        <ele>202.04359</ele>
        <time>2022-11-20T13:28:33.000Z</time>
      </trkpt>
      <trkpt lat="45.87021" lon="4.71076">
        <ele>202.1795</ele>
        <time>2022-11-20T13:28:34.000Z</time>
      </trkpt>
      <trkpt lat="45.87024" lon="4.71076">
        <ele>202.30179</ele>
        <time>2022-11-20T13:28:35.000Z</time>
      </trkpt>
      <trkpt lat="45.87027" lon="4.71076">
        <ele>202.42743</ele>
        <time>2022-11-20T13:28:36.000Z</time>
      </trkpt>
      <trkpt lat="45.87031" lon="4.71075">
        <ele>202.54102</ele>
        <time>2022-11-20T13:28:37.000Z</time>
      </trkpt>
      <trkpt lat="45.87034" lon="4.71075">
        <ele>202.65959</ele>
        <time>2022-11-20T13:28:38.000Z</time>
      </trkpt>
      <trkpt lat="45.87037" lon="4.71075">
        <ele>202.75061</ele>
        <time>2022-11-20T13:28:39.000Z</time>
      </trkpt>
      <trkpt lat="45.87041" lon="4.71074">
        <ele>202.83965</ele>
        <time>2022-11-20T13:28:40.000Z</time>
      </trkpt>
      <trkpt lat="45.87044" lon="4.71075">
        <ele>202.89951</ele>
        <time>2022-11-20T13:28:41.000Z</time>
      </trkpt>
      <trkpt lat="45.87048" lon="4.71075">
        <ele>202.91469</ele>
        <time>2022-11-20T13:28:42.000Z</time>
      </trkpt>
      <trkpt lat="45.87051" lon="4.71075">
        <ele>202.9026</ele>
        <time>2022-11-20T13:28:43.000Z</time>
      </trkpt>
      <trkpt lat="45.87054" lon="4.71075">
        <ele>202.89133</ele>
        <time>2022-11-20T13:28:44.000Z</time>
      </trkpt>
      <trkpt lat="45.8705" lon="4.71074">
        <ele>202.88527</ele>
        <time>2022-11-20T13:28:47.000Z</time>
      </trkpt>
      <trkpt lat="45.87047" lon="4.71075">
        <ele>202.88394</ele>
        <time>2022-11-20T13:28:48.000Z</time>
      </trkpt>
      <trkpt lat="45.87044" lon="4.71077">
        <ele>202.85422</ele>
        <time>2022-11-20T13:28:49.000Z</time>
      </trkpt>
      <trkpt lat="45.8704" lon="4.71078">
        <ele>202.78217</ele>
        <time>2022-11-20T13:28:50.000Z</time>
      </trkpt>
      <trkpt lat="45.87036" lon="4.71078">
        <ele>202.65886</ele>
        <time>2022-11-20T13:28:51.000Z</time>
      </trkpt>
      <trkpt lat="45.87033" lon="4.71078">
        <ele>202.50876</ele>
        <time>2022-11-20T13:28:52.000Z</time>
      </trkpt>
      <trkpt lat="45.87029" lon="4.71078">
        <ele>202.42119</ele>
        <time>2022-11-20T13:28:53.000Z</time>
      </trkpt>
      <trkpt lat="45.87025" lon="4.71078">
        <ele>202.36832</ele>
        <time>2022-11-20T13:28:54.000Z</time>
      </trkpt>
      <trkpt lat="45.87022" lon="4.71078">
        <ele>202.34805</ele>
        <time>2022-11-20T13:28:55.000Z</time>
      </trkpt>
      <trkpt lat="45.87018" lon="4.71078">
        <ele>202.33832</ele>
        <time>2022-11-20T13:28:56.000Z</time>
      </trkpt>
      <trkpt lat="45.87014" lon="4.71078">
        <ele>202.20148</ele>
        <time>2022-11-20T13:28:57.000Z</time>
      </trkpt>
      <trkpt lat="45.8701" lon="4.71078">
        <ele>202.07285</ele>
        <time>2022-11-20T13:28:58.000Z</time>
      </trkpt>
      <trkpt lat="45.87005" lon="4.71078">
        <ele>201.92245</ele>
        <time>2022-11-20T13:28:59.000Z</time>
      </trkpt>
      <trkpt lat="45.87001" lon="4.71078">
        <ele>201.75476</ele>
        <time>2022-11-20T13:29:00.000Z</time>
      </trkpt>
      <trkpt lat="45.86997" lon="4.71077">
        <ele>201.60033</ele>
        <time>2022-11-20T13:29:01.000Z</time>
      </trkpt>
      <trkpt lat="45.86993" lon="4.71075">
        <ele>201.45413</ele>
        <time>2022-11-20T13:29:02.000Z</time>
      </trkpt>
      <trkpt lat="45.8699" lon="4.71074">
        <ele>201.35016</ele>
        <time>2022-11-20T13:29:03.000Z</time>
      </trkpt>
      <trkpt lat="45.86988" lon="4.71073">
        <ele>201.2691</ele>
        <time>2022-11-20T13:29:04.000Z</time>
      </trkpt>
      <trkpt lat="45.86985" lon="4.71073">
        <ele>201.18739</ele>
        <time>2022-11-20T13:29:05.000Z</time>
      </trkpt>
      <trkpt lat="45.86982" lon="4.71072">
        <ele>201.10143</ele>
        <time>2022-11-20T13:29:06.000Z</time>
      </trkpt>
      <trkpt lat="45.86979" lon="4.71071">
        <ele>200.97763</ele>
        <time>2022-11-20T13:29:07.000Z</time>
      </trkpt>
      <trkpt lat="45.86976" lon="4.7107">
        <ele>200.86111</ele>
        <time>2022-11-20T13:29:08.000Z</time>
      </trkpt>
      <trkpt lat="45.86973" lon="4.71069">
        <ele>200.7664</ele>
        <time>2022-11-20T13:29:09.000Z</time>
      </trkpt>
      <trkpt lat="45.86971" lon="4.71068">
        <ele>200.68486</ele>
        <time>2022-11-20T13:29:10.000Z</time>
      </trkpt>
      <trkpt lat="45.86969" lon="4.71069">
        <ele>200.61339</ele>
        <time>2022-11-20T13:29:12.000Z</time>
      </trkpt>
      <trkpt lat="45.86967" lon="4.71068">
        <ele>200.6953</ele>
        <time>2022-11-20T13:29:18.000Z</time>
      </trkpt>
      <trkpt lat="45.86963" lon="4.71069">
        <ele>200.60017</ele>
        <time>2022-11-20T13:29:20.000Z</time>
      </trkpt>
      <trkpt lat="45.8696" lon="4.7107">
        <ele>200.53117</ele>
        <time>2022-11-20T13:29:21.000Z</time>
      </trkpt>
      <trkpt lat="45.86958" lon="4.7107">
        <ele>200.45682</ele>
        <time>2022-11-20T13:29:22.000Z</time>
      </trkpt>
      <trkpt lat="45.86955" lon="4.7107">
        <ele>200.36931</ele>
        <time>2022-11-20T13:29:23.000Z</time>
      </trkpt>
      <trkpt lat="45.86951" lon="4.7107">
        <ele>200.3961</ele>
        <time>2022-11-20T13:29:24.000Z</time>
      </trkpt>
      <trkpt lat="45.86948" lon="4.7107">
        <ele>200.40585</ele>
        <time>2022-11-20T13:29:25.000Z</time>
      </trkpt>
      <trkpt lat="45.86944" lon="4.7107">
        <ele>200.4379</ele>
        <time>2022-11-20T13:29:26.000Z</time>
      </trkpt>
      <trkpt lat="45.8694" lon="4.71071">
        <ele>200.46304</ele>
        <time>2022-11-20T13:29:27.000Z</time>
      </trkpt>
      <trkpt lat="45.86936" lon="4.71071">
        <ele>200.46561</ele>
        <time>2022-11-20T13:29:28.000Z</time>
      </trkpt>
      <trkpt lat="45.86932" lon="4.7107">
        <ele>200.45363</ele>
        <time>2022-11-20T13:29:29.000Z</time>
      </trkpt>
      <trkpt lat="45.86928" lon="4.71069">
        <ele>200.43448</ele>
        <time>2022-11-20T13:29:30.000Z</time>
      </trkpt>
      <trkpt lat="45.86924" lon="4.71068">
        <ele>200.40082</ele>
        <time>2022-11-20T13:29:31.000Z</time>
      </trkpt>
      <trkpt lat="45.8692" lon="4.71068">
        <ele>200.37273</ele>
        <time>2022-11-20T13:29:32.000Z</time>
      </trkpt>
      <trkpt lat="45.86916" lon="4.71068">
        <ele>200.34152</ele>
        <time>2022-11-20T13:29:33.000Z</time>
      </trkpt>
      <trkpt lat="45.86912" lon="4.71068">
        <ele>200.33401</ele>
        <time>2022-11-20T13:29:34.000Z</time>
      </trkpt>
      <trkpt lat="45.86908" lon="4.71068">
        <ele>200.30959</ele>
        <time>2022-11-20T13:29:35.000Z</time>
      </trkpt>
      <trkpt lat="45.86904" lon="4.71069">
        <ele>200.26816</ele>
        <time>2022-11-20T13:29:36.000Z</time>
      </trkpt>
      <trkpt lat="45.86901" lon="4.7107">
        <ele>200.23616</ele>
        <time>2022-11-20T13:29:37.000Z</time>
      </trkpt>
      <trkpt lat="45.86897" lon="4.71072">
        <ele>200.22789</ele>
        <time>2022-11-20T13:29:38.000Z</time>
      </trkpt>
      <trkpt lat="45.86894" lon="4.71074">
        <ele>200.01624</ele>
        <time>2022-11-20T13:29:39.000Z</time>
      </trkpt>
      <trkpt lat="45.8689" lon="4.71077">
        <ele>199.9836</ele>
        <time>2022-11-20T13:29:40.000Z</time>
      </trkpt>
      <trkpt lat="45.86887" lon="4.7108">
        <ele>199.91982</ele>
        <time>2022-11-20T13:29:41.000Z</time>
      </trkpt>
      <trkpt lat="45.86884" lon="4.71084">
        <ele>199.86459</ele>
        <time>2022-11-20T13:29:42.000Z</time>
      </trkpt>
      <trkpt lat="45.86881" lon="4.71087">
        <ele>199.82011</ele>
        <time>2022-11-20T13:29:43.000Z</time>
      </trkpt>
      <trkpt lat="45.86877" lon="4.71089">
        <ele>199.7655</ele>
        <time>2022-11-20T13:29:44.000Z</time>
      </trkpt>
      <trkpt lat="45.86873" lon="4.71091">
        <ele>199.6987</ele>
        <time>2022-11-20T13:29:45.000Z</time>
      </trkpt>
      <trkpt lat="45.86871" lon="4.71093">
        <ele>199.66162</ele>
        <time>2022-11-20T13:29:46.000Z</time>
      </trkpt>
      <trkpt lat="45.86869" lon="4.71098">
        <ele>199.59518</ele>
        <time>2022-11-20T13:29:47.000Z</time>
      </trkpt>
      <trkpt lat="45.86868" lon="4.71103">
        <ele>199.53854</ele>
        <time>2022-11-20T13:29:48.000Z</time>
      </trkpt>
      <trkpt lat="45.86869" lon="4.71109">
        <ele>199.49301</ele>
        <time>2022-11-20T13:29:49.000Z</time>
      </trkpt>
      <trkpt lat="45.8687" lon="4.71115">
        <ele>199.42575</ele>
        <time>2022-11-20T13:29:50.000Z</time>
      </trkpt>
      <trkpt lat="45.8687" lon="4.71121">
        <ele>199.37619</ele>
        <time>2022-11-20T13:29:51.000Z</time>
      </trkpt>
      <trkpt lat="45.86871" lon="4.71127">
        <ele>199.30954</ele>
        <time>2022-11-20T13:29:52.000Z</time>
      </trkpt>
      <trkpt lat="45.86872" lon="4.71132">
        <ele>199.25986</ele>
        <time>2022-11-20T13:29:53.000Z</time>
      </trkpt>
      <trkpt lat="45.86872" lon="4.71138">
        <ele>199.17221</ele>
        <time>2022-11-20T13:29:54.000Z</time>
      </trkpt>
      <trkpt lat="45.86872" lon="4.71144">
        <ele>199.09125</ele>
        <time>2022-11-20T13:29:55.000Z</time>
      </trkpt>
      <trkpt lat="45.86873" lon="4.7115">
        <ele>199.03377</ele>
        <time>2022-11-20T13:29:56.000Z</time>
      </trkpt>
      <trkpt lat="45.86873" lon="4.71156">
        <ele>198.96304</ele>
        <time>2022-11-20T13:29:57.000Z</time>
      </trkpt>
      <trkpt lat="45.86873" lon="4.71162">
        <ele>198.89462</ele>
        <time>2022-11-20T13:29:58.000Z</time>
      </trkpt>
      <trkpt lat="45.86873" lon="4.71168">
        <ele>198.96515</ele>
        <time>2022-11-20T13:29:59.000Z</time>
      </trkpt>
      <trkpt lat="45.86873" lon="4.71174">
        <ele>199.05156</ele>
        <time>2022-11-20T13:30:00.000Z</time>
      </trkpt>
      <trkpt lat="45.86873" lon="4.71179">
        <ele>199.15182</ele>
        <time>2022-11-20T13:30:01.000Z</time>
      </trkpt>
      <trkpt lat="45.86873" lon="4.71185">
        <ele>199.23387</ele>
        <time>2022-11-20T13:30:02.000Z</time>
      </trkpt>
      <trkpt lat="45.86873" lon="4.71191">
        <ele>199.31924</ele>
        <time>2022-11-20T13:30:03.000Z</time>
      </trkpt>
      <trkpt lat="45.86873" lon="4.71197">
        <ele>199.4131</ele>
        <time>2022-11-20T13:30:04.000Z</time>
      </trkpt>
      <trkpt lat="45.86873" lon="4.71203">
        <ele>199.52913</ele>
        <time>2022-11-20T13:30:05.000Z</time>
      </trkpt>
      <trkpt lat="45.86873" lon="4.71209">
        <ele>199.62708</ele>
        <time>2022-11-20T13:30:06.000Z</time>
      </trkpt>
      <trkpt lat="45.86873" lon="4.71215">
        <ele>199.75626</ele>
        <time>2022-11-20T13:30:07.000Z</time>
      </trkpt>
      <trkpt lat="45.86873" lon="4.71221">
        <ele>199.89186</ele>
        <time>2022-11-20T13:30:08.000Z</time>
      </trkpt>
      <trkpt lat="45.86874" lon="4.71228">
        <ele>200.02629</ele>
        <time>2022-11-20T13:30:09.000Z</time>
      </trkpt>
      <trkpt lat="45.86874" lon="4.71234">
        <ele>200.17719</ele>
        <time>2022-11-20T13:30:10.000Z</time>
      </trkpt>
      <trkpt lat="45.86874" lon="4.71241">
        <ele>200.30624</ele>
        <time>2022-11-20T13:30:11.000Z</time>
      </trkpt>
      <trkpt lat="45.86874" lon="4.71247">
        <ele>200.47536</ele>
        <time>2022-11-20T13:30:12.000Z</time>
      </trkpt>
      <trkpt lat="45.86875" lon="4.71253">
        <ele>200.68503</ele>
        <time>2022-11-20T13:30:13.000Z</time>
      </trkpt>
      <trkpt lat="45.86875" lon="4.7126">
        <ele>200.70676</ele>
        <time>2022-11-20T13:30:14.000Z</time>
      </trkpt>
      <trkpt lat="45.86876" lon="4.71266">
        <ele>200.76003</ele>
        <time>2022-11-20T13:30:15.000Z</time>
      </trkpt>
      <trkpt lat="45.86876" lon="4.71272">
        <ele>200.80457</ele>
        <time>2022-11-20T13:30:16.000Z</time>
      </trkpt>
      <trkpt lat="45.86877" lon="4.71278">
        <ele>200.85149</ele>
        <time>2022-11-20T13:30:17.000Z</time>
      </trkpt>
      <trkpt lat="45.86878" lon="4.71284">
        <ele>200.88712</ele>
        <time>2022-11-20T13:30:18.000Z</time>
      </trkpt>
      <trkpt lat="45.86878" lon="4.7129">
        <ele>200.78456</ele>
        <time>2022-11-20T13:30:19.000Z</time>
      </trkpt>
      <trkpt lat="45.86878" lon="4.71296">
        <ele>200.6716</ele>
        <time>2022-11-20T13:30:20.000Z</time>
      </trkpt>
      <trkpt lat="45.86877" lon="4.71303">
        <ele>200.55551</ele>
        <time>2022-11-20T13:30:21.000Z</time>
      </trkpt>
      <trkpt lat="45.86877" lon="4.71309">
        <ele>200.4567</ele>
        <time>2022-11-20T13:30:22.000Z</time>
      </trkpt>
      <trkpt lat="45.86877" lon="4.71315">
        <ele>200.35803</ele>
        <time>2022-11-20T13:30:23.000Z</time>
      </trkpt>
      <trkpt lat="45.86877" lon="4.71321">
        <ele>200.23827</ele>
        <time>2022-11-20T13:30:24.000Z</time>
      </trkpt>
      <trkpt lat="45.86877" lon="4.71327">
        <ele>200.09447</ele>
        <time>2022-11-20T13:30:25.000Z</time>
      </trkpt>
      <trkpt lat="45.86877" lon="4.71333">
        <ele>199.94937</ele>
        <time>2022-11-20T13:30:26.000Z</time>
      </trkpt>
      <trkpt lat="45.86877" lon="4.71339">
        <ele>199.78516</ele>
        <time>2022-11-20T13:30:27.000Z</time>
      </trkpt>
      <trkpt lat="45.86878" lon="4.71346">
        <ele>199.6075</ele>
        <time>2022-11-20T13:30:28.000Z</time>
      </trkpt>
      <trkpt lat="45.86879" lon="4.71354">
        <ele>199.3978</ele>
        <time>2022-11-20T13:30:29.000Z</time>
      </trkpt>
      <trkpt lat="45.8688" lon="4.71364">
        <ele>199.20287</ele>
        <time>2022-11-20T13:30:30.000Z</time>
      </trkpt>
      <trkpt lat="45.86882" lon="4.7137">
        <ele>198.60324</ele>
        <time>2022-11-20T13:30:31.000Z</time>
      </trkpt>
      <trkpt lat="45.86884" lon="4.71375">
        <ele>197.95816</ele>
        <time>2022-11-20T13:30:32.000Z</time>
      </trkpt>
      <trkpt lat="45.86886" lon="4.71381">
        <ele>197.75824</ele>
        <time>2022-11-20T13:30:33.000Z</time>
      </trkpt>
      <trkpt lat="45.86887" lon="4.71386">
        <ele>197.7957</ele>
        <time>2022-11-20T13:30:34.000Z</time>
      </trkpt>
      <trkpt lat="45.86888" lon="4.71392">
        <ele>197.78665</ele>
        <time>2022-11-20T13:30:35.000Z</time>
      </trkpt>
      <trkpt lat="45.86888" lon="4.71397">
        <ele>197.80267</ele>
        <time>2022-11-20T13:30:36.000Z</time>
      </trkpt>
      <trkpt lat="45.86889" lon="4.71402">
        <ele>197.82014</ele>
        <time>2022-11-20T13:30:37.000Z</time>
      </trkpt>
      <trkpt lat="45.86889" lon="4.71408">
        <ele>197.83412</ele>
        <time>2022-11-20T13:30:38.000Z</time>
      </trkpt>
      <trkpt lat="45.86889" lon="4.71414">
        <ele>197.86832</ele>
        <time>2022-11-20T13:30:39.000Z</time>
      </trkpt>
      <trkpt lat="45.8689" lon="4.7142">
        <ele>197.88992</ele>
        <time>2022-11-20T13:30:40.000Z</time>
      </trkpt>
      <trkpt lat="45.86892" lon="4.71425">
        <ele>197.89221</ele>
        <time>2022-11-20T13:30:41.000Z</time>
      </trkpt>
      <trkpt lat="45.86893" lon="4.71431">
        <ele>197.90712</ele>
        <time>2022-11-20T13:30:42.000Z</time>
      </trkpt>
      <trkpt lat="45.86894" lon="4.71436">
        <ele>198.0173</ele>
        <time>2022-11-20T13:30:43.000Z</time>
      </trkpt>
      <trkpt lat="45.86896" lon="4.71441">
        <ele>197.89896</ele>
        <time>2022-11-20T13:30:44.000Z</time>
      </trkpt>
      <trkpt lat="45.86898" lon="4.71447">
        <ele>197.82098</ele>
        <time>2022-11-20T13:30:45.000Z</time>
      </trkpt>
      <trkpt lat="45.86899" lon="4.71453">
        <ele>197.72523</ele>
        <time>2022-11-20T13:30:46.000Z</time>
      </trkpt>
      <trkpt lat="45.86902" lon="4.71459">
        <ele>197.63156</ele>
        <time>2022-11-20T13:30:47.000Z</time>
      </trkpt>
      <trkpt lat="45.86904" lon="4.71465">
        <ele>197.53088</ele>
        <time>2022-11-20T13:30:48.000Z</time>
      </trkpt>
      <trkpt lat="45.86905" lon="4.71469">
        <ele>197.52643</ele>
        <time>2022-11-20T13:30:49.000Z</time>
      </trkpt>
      <trkpt lat="45.86907" lon="4.71475">
        <ele>197.51138</ele>
        <time>2022-11-20T13:30:50.000Z</time>
      </trkpt>
      <trkpt lat="45.86911" lon="4.71481">
        <ele>197.90564</ele>
        <time>2022-11-20T13:30:51.000Z</time>
      </trkpt>
      <trkpt lat="45.86913" lon="4.71487">
        <ele>198.36993</ele>
        <time>2022-11-20T13:30:52.000Z</time>
      </trkpt>
      <trkpt lat="45.86915" lon="4.71492">
        <ele>198.3076</ele>
        <time>2022-11-20T13:30:53.000Z</time>
      </trkpt>
      <trkpt lat="45.86918" lon="4.71498">
        <ele>198.3121</ele>
        <time>2022-11-20T13:30:54.000Z</time>
      </trkpt>
      <trkpt lat="45.8692" lon="4.71503">
        <ele>198.37807</ele>
        <time>2022-11-20T13:30:55.000Z</time>
      </trkpt>
      <trkpt lat="45.86923" lon="4.71509">
        <ele>198.39067</ele>
        <time>2022-11-20T13:30:56.000Z</time>
      </trkpt>
      <trkpt lat="45.86927" lon="4.71513">
        <ele>198.43484</ele>
        <time>2022-11-20T13:30:57.000Z</time>
      </trkpt>
      <trkpt lat="45.8693" lon="4.71519">
        <ele>198.49217</ele>
        <time>2022-11-20T13:30:58.000Z</time>
      </trkpt>
      <trkpt lat="45.86934" lon="4.71524">
        <ele>198.54195</ele>
        <time>2022-11-20T13:30:59.000Z</time>
      </trkpt>
      <trkpt lat="45.86937" lon="4.71529">
        <ele>198.5621</ele>
        <time>2022-11-20T13:31:00.000Z</time>
      </trkpt>
      <trkpt lat="45.8694" lon="4.71535">
        <ele>198.66109</ele>
        <time>2022-11-20T13:31:01.000Z</time>
      </trkpt>
      <trkpt lat="45.86942" lon="4.71542">
        <ele>198.74095</ele>
        <time>2022-11-20T13:31:02.000Z</time>
      </trkpt>
      <trkpt lat="45.86945" lon="4.71548">
        <ele>198.70158</ele>
        <time>2022-11-20T13:31:03.000Z</time>
      </trkpt>
      <trkpt lat="45.86948" lon="4.71554">
        <ele>198.91731</ele>
        <time>2022-11-20T13:31:04.000Z</time>
      </trkpt>
      <trkpt lat="45.8695" lon="4.7156">
        <ele>199.12936</ele>
        <time>2022-11-20T13:31:05.000Z</time>
      </trkpt>
      <trkpt lat="45.86954" lon="4.71566">
        <ele>199.30183</ele>
        <time>2022-11-20T13:31:06.000Z</time>
      </trkpt>
      <trkpt lat="45.86957" lon="4.71571">
        <ele>199.49115</ele>
        <time>2022-11-20T13:31:07.000Z</time>
      </trkpt>
      <trkpt lat="45.8696" lon="4.71575">
        <ele>199.63373</ele>
        <time>2022-11-20T13:31:08.000Z</time>
      </trkpt>
      <trkpt lat="45.86965" lon="4.7158">
        <ele>199.80002</ele>
        <time>2022-11-20T13:31:09.000Z</time>
      </trkpt>
      <trkpt lat="45.86969" lon="4.71584">
        <ele>199.97263</ele>
        <time>2022-11-20T13:31:10.000Z</time>
      </trkpt>
      <trkpt lat="45.86973" lon="4.71588">
        <ele>200.12531</ele>
        <time>2022-11-20T13:31:11.000Z</time>
      </trkpt>
      <trkpt lat="45.86977" lon="4.71592">
        <ele>200.21786</ele>
        <time>2022-11-20T13:31:12.000Z</time>
      </trkpt>
      <trkpt lat="45.86981" lon="4.71596">
        <ele>200.33163</ele>
        <time>2022-11-20T13:31:13.000Z</time>
      </trkpt>
      <trkpt lat="45.86985" lon="4.71599">
        <ele>200.38052</ele>
        <time>2022-11-20T13:31:14.000Z</time>
      </trkpt>
      <trkpt lat="45.86989" lon="4.71601">
        <ele>200.44472</ele>
        <time>2022-11-20T13:31:15.000Z</time>
      </trkpt>
      <trkpt lat="45.86994" lon="4.71604">
        <ele>200.32962</ele>
        <time>2022-11-20T13:31:16.000Z</time>
      </trkpt>
      <trkpt lat="45.86999" lon="4.71605">
        <ele>200.20358</ele>
        <time>2022-11-20T13:31:17.000Z</time>
      </trkpt>
      <trkpt lat="45.87004" lon="4.71607">
        <ele>200.0656</ele>
        <time>2022-11-20T13:31:18.000Z</time>
      </trkpt>
      <trkpt lat="45.87009" lon="4.71609">
        <ele>199.91837</ele>
        <time>2022-11-20T13:31:19.000Z</time>
      </trkpt>
      <trkpt lat="45.87013" lon="4.71612">
        <ele>199.79691</ele>
        <time>2022-11-20T13:31:20.000Z</time>
      </trkpt>
      <trkpt lat="45.87018" lon="4.71615">
        <ele>199.59904</ele>
        <time>2022-11-20T13:31:21.000Z</time>
      </trkpt>
      <trkpt lat="45.87023" lon="4.71619">
        <ele>199.44171</ele>
        <time>2022-11-20T13:31:22.000Z</time>
      </trkpt>
      <trkpt lat="45.87027" lon="4.71623">
        <ele>199.26958</ele>
        <time>2022-11-20T13:31:23.000Z</time>
      </trkpt>
      <trkpt lat="45.87032" lon="4.71627">
        <ele>199.05443</ele>
        <time>2022-11-20T13:31:24.000Z</time>
      </trkpt>
      <trkpt lat="45.87035" lon="4.71632">
        <ele>198.81696</ele>
        <time>2022-11-20T13:31:25.000Z</time>
      </trkpt>
      <trkpt lat="45.8704" lon="4.71637">
        <ele>198.61923</ele>
        <time>2022-11-20T13:31:26.000Z</time>
      </trkpt>
      <trkpt lat="45.87044" lon="4.7164">
        <ele>198.5424</ele>
        <time>2022-11-20T13:31:27.000Z</time>
      </trkpt>
      <trkpt lat="45.87047" lon="4.71644">
        <ele>198.57283</ele>
        <time>2022-11-20T13:31:28.000Z</time>
      </trkpt>
      <trkpt lat="45.87052" lon="4.71648">
        <ele>198.27956</ele>
        <time>2022-11-20T13:31:29.000Z</time>
      </trkpt>
      <trkpt lat="45.87056" lon="4.71651">
        <ele>198.0461</ele>
        <time>2022-11-20T13:31:30.000Z</time>
      </trkpt>
      <trkpt lat="45.8706" lon="4.71653">
        <ele>197.8246</ele>
        <time>2022-11-20T13:31:31.000Z</time>
      </trkpt>
      <trkpt lat="45.87066" lon="4.71653">
        <ele>197.65773</ele>
        <time>2022-11-20T13:31:32.000Z</time>
      </trkpt>
      <trkpt lat="45.87071" lon="4.71651">
        <ele>197.53156</ele>
        <time>2022-11-20T13:31:33.000Z</time>
      </trkpt>
      <trkpt lat="45.87074" lon="4.71649">
        <ele>197.47063</ele>
        <time>2022-11-20T13:31:34.000Z</time>
      </trkpt>
      <trkpt lat="45.8708" lon="4.71649">
        <ele>197.49913</ele>
        <time>2022-11-20T13:31:35.000Z</time>
      </trkpt>
      <trkpt lat="45.87084" lon="4.71645">
        <ele>197.82993</ele>
        <time>2022-11-20T13:31:36.000Z</time>
      </trkpt>
      <trkpt lat="45.87088" lon="4.71644">
        <ele>198.2034</ele>
        <time>2022-11-20T13:31:37.000Z</time>
      </trkpt>
      <trkpt lat="45.87093" lon="4.71644">
        <ele>198.58633</ele>
        <time>2022-11-20T13:31:38.000Z</time>
      </trkpt>
      <trkpt lat="45.87098" lon="4.71644">
        <ele>198.93161</ele>
        <time>2022-11-20T13:31:39.000Z</time>
      </trkpt>
      <trkpt lat="45.87101" lon="4.71642">
        <ele>199.31393</ele>
        <time>2022-11-20T13:31:40.000Z</time>
      </trkpt>
      <trkpt lat="45.87106" lon="4.71641">
        <ele>199.73839</ele>
        <time>2022-11-20T13:31:41.000Z</time>
      </trkpt>
      <trkpt lat="45.87109" lon="4.7164">
        <ele>200.19095</ele>
        <time>2022-11-20T13:31:42.000Z</time>
      </trkpt>
      <trkpt lat="45.87115" lon="4.71637">
        <ele>200.62465</ele>
        <time>2022-11-20T13:31:43.000Z</time>
      </trkpt>
      <trkpt lat="45.87118" lon="4.71633">
        <ele>201.13708</ele>
        <time>2022-11-20T13:31:44.000Z</time>
      </trkpt>
      <trkpt lat="45.87122" lon="4.71627">
        <ele>201.63393</ele>
        <time>2022-11-20T13:31:45.000Z</time>
      </trkpt>
      <trkpt lat="45.87126" lon="4.71623">
        <ele>202.09647</ele>
        <time>2022-11-20T13:31:46.000Z</time>
      </trkpt>
      <trkpt lat="45.8713" lon="4.71619">
        <ele>202.47343</ele>
        <time>2022-11-20T13:31:47.000Z</time>
      </trkpt>
      <trkpt lat="45.87131" lon="4.71614">
        <ele>202.72374</ele>
        <time>2022-11-20T13:31:48.000Z</time>
      </trkpt>
      <trkpt lat="45.87135" lon="4.7161">
        <ele>202.99112</ele>
        <time>2022-11-20T13:31:49.000Z</time>
      </trkpt>
      <trkpt lat="45.87138" lon="4.71608">
        <ele>203.15265</ele>
        <time>2022-11-20T13:31:50.000Z</time>
      </trkpt>
      <trkpt lat="45.8714" lon="4.71605">
        <ele>203.23929</ele>
        <time>2022-11-20T13:31:51.000Z</time>
      </trkpt>
      <trkpt lat="45.87143" lon="4.71601">
        <ele>203.38376</ele>
        <time>2022-11-20T13:31:52.000Z</time>
      </trkpt>
      <trkpt lat="45.87145" lon="4.71598">
        <ele>203.48837</ele>
        <time>2022-11-20T13:31:53.000Z</time>
      </trkpt>
      <trkpt lat="45.87148" lon="4.71595">
        <ele>203.50781</ele>
        <time>2022-11-20T13:31:54.000Z</time>
      </trkpt>
      <trkpt lat="45.8715" lon="4.71591">
        <ele>203.37326</ele>
        <time>2022-11-20T13:31:55.000Z</time>
      </trkpt>
      <trkpt lat="45.87153" lon="4.71588">
        <ele>203.1033</ele>
        <time>2022-11-20T13:31:56.000Z</time>
      </trkpt>
      <trkpt lat="45.87157" lon="4.71585">
        <ele>202.81155</ele>
        <time>2022-11-20T13:31:57.000Z</time>
      </trkpt>
      <trkpt lat="45.8716" lon="4.71582">
        <ele>202.51987</ele>
        <time>2022-11-20T13:31:58.000Z</time>
      </trkpt>
      <trkpt lat="45.87163" lon="4.71579">
        <ele>202.22885</ele>
        <time>2022-11-20T13:31:59.000Z</time>
      </trkpt>
      <trkpt lat="45.87167" lon="4.71576">
        <ele>201.87454</ele>
        <time>2022-11-20T13:32:00.000Z</time>
      </trkpt>
      <trkpt lat="45.8717" lon="4.71573">
        <ele>201.50543</ele>
        <time>2022-11-20T13:32:01.000Z</time>
      </trkpt>
      <trkpt lat="45.87173" lon="4.71569">
        <ele>201.04077</ele>
        <time>2022-11-20T13:32:02.000Z</time>
      </trkpt>
      <trkpt lat="45.87176" lon="4.71565">
        <ele>200.62056</ele>
        <time>2022-11-20T13:32:03.000Z</time>
      </trkpt>
      <trkpt lat="45.87179" lon="4.71562">
        <ele>200.13045</ele>
        <time>2022-11-20T13:32:04.000Z</time>
      </trkpt>
      <trkpt lat="45.87182" lon="4.7156">
        <ele>199.68257</ele>
        <time>2022-11-20T13:32:05.000Z</time>
      </trkpt>
      <trkpt lat="45.87186" lon="4.71559">
        <ele>199.25308</ele>
        <time>2022-11-20T13:32:06.000Z</time>
      </trkpt>
      <trkpt lat="45.87189" lon="4.71559">
        <ele>198.76585</ele>
        <time>2022-11-20T13:32:07.000Z</time>
      </trkpt>
      <trkpt lat="45.87193" lon="4.71558">
        <ele>198.36205</ele>
        <time>2022-11-20T13:32:08.000Z</time>
      </trkpt>
      <trkpt lat="45.87195" lon="4.71554">
        <ele>197.79291</ele>
        <time>2022-11-20T13:32:09.000Z</time>
      </trkpt>
      <trkpt lat="45.87194" lon="4.7155">
        <ele>197.2608</ele>
        <time>2022-11-20T13:32:10.000Z</time>
      </trkpt>
      <trkpt lat="45.87195" lon="4.71545">
        <ele>197.19044</ele>
        <time>2022-11-20T13:32:11.000Z</time>
      </trkpt>
      <trkpt lat="45.87195" lon="4.71541">
        <ele>197.03725</ele>
        <time>2022-11-20T13:32:12.000Z</time>
      </trkpt>
      <trkpt lat="45.87198" lon="4.71538">
        <ele>196.89212</ele>
        <time>2022-11-20T13:32:13.000Z</time>
      </trkpt>
      <trkpt lat="45.87201" lon="4.71536">
        <ele>196.74483</ele>
        <time>2022-11-20T13:32:14.000Z</time>
      </trkpt>
      <trkpt lat="45.87203" lon="4.71533">
        <ele>196.58224</ele>
        <time>2022-11-20T13:32:15.000Z</time>
      </trkpt>
      <trkpt lat="45.87204" lon="4.71527">
        <ele>196.47964</ele>
        <time>2022-11-20T13:32:16.000Z</time>
      </trkpt>
      <trkpt lat="45.87206" lon="4.71523">
        <ele>196.35077</ele>
        <time>2022-11-20T13:32:17.000Z</time>
      </trkpt>
      <trkpt lat="45.87209" lon="4.7152">
        <ele>196.24377</ele>
        <time>2022-11-20T13:32:18.000Z</time>
      </trkpt>
      <trkpt lat="45.87211" lon="4.71516">
        <ele>196.19568</ele>
        <time>2022-11-20T13:32:19.000Z</time>
      </trkpt>
      <trkpt lat="45.87213" lon="4.71512">
        <ele>196.19977</ele>
        <time>2022-11-20T13:32:20.000Z</time>
      </trkpt>
      <trkpt lat="45.87215" lon="4.71508">
        <ele>196.18349</ele>
        <time>2022-11-20T13:32:21.000Z</time>
      </trkpt>
      <trkpt lat="45.87217" lon="4.71504">
        <ele>196.18607</ele>
        <time>2022-11-20T13:32:22.000Z</time>
      </trkpt>
      <trkpt lat="45.8722" lon="4.715">
        <ele>196.224</ele>
        <time>2022-11-20T13:32:23.000Z</time>
      </trkpt>
      <trkpt lat="45.87222" lon="4.71496">
        <ele>196.2827</ele>
        <time>2022-11-20T13:32:24.000Z</time>
      </trkpt>
      <trkpt lat="45.87225" lon="4.71491">
        <ele>196.31578</ele>
        <time>2022-11-20T13:32:25.000Z</time>
      </trkpt>
      <trkpt lat="45.87228" lon="4.71487">
        <ele>196.36246</ele>
        <time>2022-11-20T13:32:26.000Z</time>
      </trkpt>
      <trkpt lat="45.8723" lon="4.71483">
        <ele>196.41275</ele>
        <time>2022-11-20T13:32:27.000Z</time>
      </trkpt>
      <trkpt lat="45.87233" lon="4.71479">
        <ele>196.49734</ele>
        <time>2022-11-20T13:32:28.000Z</time>
      </trkpt>
      <trkpt lat="45.87236" lon="4.71475">
        <ele>196.99283</ele>
        <time>2022-11-20T13:32:29.000Z</time>
      </trkpt>
      <trkpt lat="45.87239" lon="4.71471">
        <ele>197.46925</ele>
        <time>2022-11-20T13:32:30.000Z</time>
      </trkpt>
      <trkpt lat="45.87242" lon="4.71467">
        <ele>197.56914</ele>
        <time>2022-11-20T13:32:31.000Z</time>
      </trkpt>
      <trkpt lat="45.87245" lon="4.71463">
        <ele>197.63019</ele>
        <time>2022-11-20T13:32:32.000Z</time>
      </trkpt>
      <trkpt lat="45.87248" lon="4.71458">
        <ele>197.68138</ele>
        <time>2022-11-20T13:32:33.000Z</time>
      </trkpt>
      <trkpt lat="45.87251" lon="4.71454">
        <ele>197.72914</ele>
        <time>2022-11-20T13:32:34.000Z</time>
      </trkpt>
      <trkpt lat="45.87254" lon="4.7145">
        <ele>197.82156</ele>
        <time>2022-11-20T13:32:35.000Z</time>
      </trkpt>
      <trkpt lat="45.87257" lon="4.71446">
        <ele>197.88068</ele>
        <time>2022-11-20T13:32:36.000Z</time>
      </trkpt>
      <trkpt lat="45.8726" lon="4.71443">
        <ele>197.93726</ele>
        <time>2022-11-20T13:32:37.000Z</time>
      </trkpt>
      <trkpt lat="45.87263" lon="4.7144">
        <ele>197.99411</ele>
        <time>2022-11-20T13:32:38.000Z</time>
      </trkpt>
      <trkpt lat="45.87266" lon="4.71436">
        <ele>198.0537</ele>
        <time>2022-11-20T13:32:39.000Z</time>
      </trkpt>
      <trkpt lat="45.87269" lon="4.71433">
        <ele>198.12537</ele>
        <time>2022-11-20T13:32:40.000Z</time>
      </trkpt>
      <trkpt lat="45.87272" lon="4.7143">
        <ele>198.21399</ele>
        <time>2022-11-20T13:32:41.000Z</time>
      </trkpt>
      <trkpt lat="45.87276" lon="4.71428">
        <ele>198.30659</ele>
        <time>2022-11-20T13:32:42.000Z</time>
      </trkpt>
      <trkpt lat="45.8728" lon="4.71425">
        <ele>198.39844</ele>
        <time>2022-11-20T13:32:43.000Z</time>
      </trkpt>
      <trkpt lat="45.87283" lon="4.71423">
        <ele>198.50668</ele>
        <time>2022-11-20T13:32:44.000Z</time>
      </trkpt>
      <trkpt lat="45.87287" lon="4.71421">
        <ele>198.60643</ele>
        <time>2022-11-20T13:32:45.000Z</time>
      </trkpt>
      <trkpt lat="45.87291" lon="4.71419">
        <ele>198.75009</ele>
        <time>2022-11-20T13:32:46.000Z</time>
      </trkpt>
      <trkpt lat="45.87294" lon="4.71418">
        <ele>198.89743</ele>
        <time>2022-11-20T13:32:47.000Z</time>
      </trkpt>
      <trkpt lat="45.87297" lon="4.71416">
        <ele>199.07999</ele>
        <time>2022-11-20T13:32:48.000Z</time>
      </trkpt>
      <trkpt lat="45.873" lon="4.71414">
        <ele>199.30605</ele>
        <time>2022-11-20T13:32:49.000Z</time>
      </trkpt>
      <trkpt lat="45.87303" lon="4.71412">
        <ele>199.569</ele>
        <time>2022-11-20T13:32:50.000Z</time>
      </trkpt>
      <trkpt lat="45.87307" lon="4.7141">
        <ele>199.86154</ele>
        <time>2022-11-20T13:32:51.000Z</time>
      </trkpt>
      <trkpt lat="45.87311" lon="4.71408">
        <ele>200.22025</ele>
        <time>2022-11-20T13:32:52.000Z</time>
      </trkpt>
      <trkpt lat="45.87315" lon="4.71407">
        <ele>200.57535</ele>
        <time>2022-11-20T13:32:53.000Z</time>
      </trkpt>
      <trkpt lat="45.87318" lon="4.71405">
        <ele>200.94882</ele>
        <time>2022-11-20T13:32:54.000Z</time>
      </trkpt>
      <trkpt lat="45.87321" lon="4.71403">
        <ele>201.31282</ele>
        <time>2022-11-20T13:32:55.000Z</time>
      </trkpt>
      <trkpt lat="45.87324" lon="4.71401">
        <ele>201.84494</ele>
        <time>2022-11-20T13:32:56.000Z</time>
      </trkpt>
      <trkpt lat="45.87327" lon="4.71399">
        <ele>202.18204</ele>
        <time>2022-11-20T13:32:57.000Z</time>
      </trkpt>
      <trkpt lat="45.87331" lon="4.71397">
        <ele>202.59769</ele>
        <time>2022-11-20T13:32:58.000Z</time>
      </trkpt>
      <trkpt lat="45.87333" lon="4.71395">
        <ele>202.9816</ele>
        <time>2022-11-20T13:32:59.000Z</time>
      </trkpt>
      <trkpt lat="45.87336" lon="4.71393">
        <ele>203.42543</ele>
        <time>2022-11-20T13:33:00.000Z</time>
      </trkpt>
      <trkpt lat="45.87338" lon="4.71392">
        <ele>203.85991</ele>
        <time>2022-11-20T13:33:01.000Z</time>
      </trkpt>
      <trkpt lat="45.8734" lon="4.71391">
        <ele>204.37177</ele>
        <time>2022-11-20T13:33:02.000Z</time>
      </trkpt>
      <trkpt lat="45.87342" lon="4.7139">
        <ele>204.71617</ele>
        <time>2022-11-20T13:33:04.000Z</time>
      </trkpt>
      <trkpt lat="45.87345" lon="4.71389">
        <ele>205.01682</ele>
        <time>2022-11-20T13:33:06.000Z</time>
      </trkpt>
      <trkpt lat="45.87347" lon="4.71388">
        <ele>205.3013</ele>
        <time>2022-11-20T13:33:12.000Z</time>
      </trkpt>
      <trkpt lat="45.87348" lon="4.7139">
        <ele>205.61275</ele>
        <time>2022-11-20T13:33:14.000Z</time>
      </trkpt>
      <trkpt lat="45.87347" lon="4.71393">
        <ele>205.95898</ele>
        <time>2022-11-20T13:33:17.000Z</time>
      </trkpt>
      <trkpt lat="45.87346" lon="4.71397">
        <ele>206.30917</ele>
        <time>2022-11-20T13:33:20.000Z</time>
      </trkpt>
      <trkpt lat="45.87346" lon="4.714">
        <ele>206.58073</ele>
        <time>2022-11-20T13:33:22.000Z</time>
      </trkpt>
      <trkpt lat="45.87345" lon="4.71403">
        <ele>206.94829</ele>
        <time>2022-11-20T13:33:24.000Z</time>
      </trkpt>
      <trkpt lat="45.87346" lon="4.71406">
        <ele>207.13611</ele>
        <time>2022-11-20T13:33:27.000Z</time>
      </trkpt>
      <trkpt lat="45.87348" lon="4.71402">
        <ele>207.32352</ele>
        <time>2022-11-20T13:33:29.000Z</time>
      </trkpt>
      <trkpt lat="45.87348" lon="4.71398">
        <ele>207.53378</ele>
        <time>2022-11-20T13:33:30.000Z</time>
      </trkpt>
      <trkpt lat="45.87348" lon="4.71393">
        <ele>207.67871</ele>
        <time>2022-11-20T13:33:31.000Z</time>
      </trkpt>
      <trkpt lat="45.87347" lon="4.71389">
        <ele>207.804</ele>
        <time>2022-11-20T13:33:32.000Z</time>
      </trkpt>
      <trkpt lat="45.87347" lon="4.71385">
        <ele>207.77507</ele>
        <time>2022-11-20T13:33:33.000Z</time>
      </trkpt>
      <trkpt lat="45.87346" lon="4.71381">
        <ele>207.94739</ele>
        <time>2022-11-20T13:33:34.000Z</time>
      </trkpt>
      <trkpt lat="45.87347" lon="4.71376">
        <ele>208.0253</ele>
        <time>2022-11-20T13:33:35.000Z</time>
      </trkpt>
      <trkpt lat="45.87347" lon="4.71371">
        <ele>208.15793</ele>
        <time>2022-11-20T13:33:36.000Z</time>
      </trkpt>
      <trkpt lat="45.87348" lon="4.71366">
        <ele>208.21176</ele>
        <time>2022-11-20T13:33:37.000Z</time>
      </trkpt>
      <trkpt lat="45.87349" lon="4.71361">
        <ele>208.27766</ele>
        <time>2022-11-20T13:33:38.000Z</time>
      </trkpt>
      <trkpt lat="45.87349" lon="4.71356">
        <ele>208.2692</ele>
        <time>2022-11-20T13:33:39.000Z</time>
      </trkpt>
      <trkpt lat="45.8735" lon="4.7135">
        <ele>208.40414</ele>
        <time>2022-11-20T13:33:40.000Z</time>
      </trkpt>
      <trkpt lat="45.87351" lon="4.71345">
        <ele>208.59338</ele>
        <time>2022-11-20T13:33:41.000Z</time>
      </trkpt>
      <trkpt lat="45.87352" lon="4.71339">
        <ele>208.78467</ele>
        <time>2022-11-20T13:33:42.000Z</time>
      </trkpt>
      <trkpt lat="45.87353" lon="4.71333">
        <ele>208.91592</ele>
        <time>2022-11-20T13:33:43.000Z</time>
      </trkpt>
      <trkpt lat="45.87354" lon="4.71327">
        <ele>209.04016</ele>
        <time>2022-11-20T13:33:44.000Z</time>
      </trkpt>
      <trkpt lat="45.87355" lon="4.71321">
        <ele>209.097</ele>
        <time>2022-11-20T13:33:45.000Z</time>
      </trkpt>
      <trkpt lat="45.87355" lon="4.71315">
        <ele>209.17838</ele>
        <time>2022-11-20T13:33:46.000Z</time>
      </trkpt>
      <trkpt lat="45.87356" lon="4.71309">
        <ele>209.13557</ele>
        <time>2022-11-20T13:33:47.000Z</time>
      </trkpt>
      <trkpt lat="45.87357" lon="4.71304">
        <ele>209.20499</ele>
        <time>2022-11-20T13:33:48.000Z</time>
      </trkpt>
      <trkpt lat="45.87357" lon="4.71298">
        <ele>209.26823</ele>
        <time>2022-11-20T13:33:49.000Z</time>
      </trkpt>
      <trkpt lat="45.87358" lon="4.71292">
        <ele>209.29692</ele>
        <time>2022-11-20T13:33:50.000Z</time>
      </trkpt>
      <trkpt lat="45.87358" lon="4.71286">
        <ele>209.41495</ele>
        <time>2022-11-20T13:33:51.000Z</time>
      </trkpt>
      <trkpt lat="45.87358" lon="4.7128">
        <ele>209.51839</ele>
        <time>2022-11-20T13:33:52.000Z</time>
      </trkpt>
      <trkpt lat="45.87358" lon="4.71274">
        <ele>209.63904</ele>
        <time>2022-11-20T13:33:53.000Z</time>
      </trkpt>
      <trkpt lat="45.87359" lon="4.71269">
        <ele>209.69673</ele>
        <time>2022-11-20T13:33:54.000Z</time>
      </trkpt>
      <trkpt lat="45.87359" lon="4.71264">
        <ele>209.79805</ele>
        <time>2022-11-20T13:33:55.000Z</time>
      </trkpt>
      <trkpt lat="45.87359" lon="4.71258">
        <ele>209.82585</ele>
        <time>2022-11-20T13:33:56.000Z</time>
      </trkpt>
      <trkpt lat="45.87359" lon="4.71252">
        <ele>209.8522</ele>
        <time>2022-11-20T13:33:57.000Z</time>
      </trkpt>
      <trkpt lat="45.87359" lon="4.71247">
        <ele>209.85233</ele>
        <time>2022-11-20T13:33:58.000Z</time>
      </trkpt>
      <trkpt lat="45.8736" lon="4.71241">
        <ele>209.89017</ele>
        <time>2022-11-20T13:33:59.000Z</time>
      </trkpt>
      <trkpt lat="45.8736" lon="4.71236">
        <ele>209.94498</ele>
        <time>2022-11-20T13:34:00.000Z</time>
      </trkpt>
      <trkpt lat="45.8736" lon="4.7123">
        <ele>209.99637</ele>
        <time>2022-11-20T13:34:01.000Z</time>
      </trkpt>
      <trkpt lat="45.87361" lon="4.71224">
        <ele>210.09305</ele>
        <time>2022-11-20T13:34:02.000Z</time>
      </trkpt>
      <trkpt lat="45.87361" lon="4.71219">
        <ele>210.19812</ele>
        <time>2022-11-20T13:34:03.000Z</time>
      </trkpt>
      <trkpt lat="45.87361" lon="4.71213">
        <ele>210.28787</ele>
        <time>2022-11-20T13:34:04.000Z</time>
      </trkpt>
      <trkpt lat="45.87361" lon="4.71208">
        <ele>210.36067</ele>
        <time>2022-11-20T13:34:05.000Z</time>
      </trkpt>
      <trkpt lat="45.87362" lon="4.71202">
        <ele>210.49028</ele>
        <time>2022-11-20T13:34:06.000Z</time>
      </trkpt>
      <trkpt lat="45.87362" lon="4.71197">
        <ele>210.6351</ele>
        <time>2022-11-20T13:34:07.000Z</time>
      </trkpt>
      <trkpt lat="45.87362" lon="4.71192">
        <ele>210.83398</ele>
        <time>2022-11-20T13:34:08.000Z</time>
      </trkpt>
      <trkpt lat="45.87363" lon="4.71187">
        <ele>211.00696</ele>
        <time>2022-11-20T13:34:09.000Z</time>
      </trkpt>
      <trkpt lat="45.87363" lon="4.71183">
        <ele>211.19119</ele>
        <time>2022-11-20T13:34:10.000Z</time>
      </trkpt>
      <trkpt lat="45.87363" lon="4.71179">
        <ele>211.38174</ele>
        <time>2022-11-20T13:34:11.000Z</time>
      </trkpt>
      <trkpt lat="45.87363" lon="4.71175">
        <ele>211.61687</ele>
        <time>2022-11-20T13:34:12.000Z</time>
      </trkpt>
      <trkpt lat="45.87363" lon="4.71172">
        <ele>211.80911</ele>
        <time>2022-11-20T13:34:13.000Z</time>
      </trkpt>
      <trkpt lat="45.87362" lon="4.71169">
        <ele>212.02959</ele>
        <time>2022-11-20T13:34:14.000Z</time>
      </trkpt>
      <trkpt lat="45.87359" lon="4.71166">
        <ele>212.21341</ele>
        <time>2022-11-20T13:34:15.000Z</time>
      </trkpt>
      <trkpt lat="45.87355" lon="4.71165">
        <ele>212.427</ele>
        <time>2022-11-20T13:34:16.000Z</time>
      </trkpt>
      <trkpt lat="45.87351" lon="4.71166">
        <ele>212.62187</ele>
        <time>2022-11-20T13:34:17.000Z</time>
      </trkpt>
      <trkpt lat="45.87347" lon="4.71168">
        <ele>212.80923</ele>
        <time>2022-11-20T13:34:18.000Z</time>
      </trkpt>
      <trkpt lat="45.87343" lon="4.71171">
        <ele>212.95061</ele>
        <time>2022-11-20T13:34:19.000Z</time>
      </trkpt>
      <trkpt lat="45.87339" lon="4.71173">
        <ele>213.08813</ele>
        <time>2022-11-20T13:34:20.000Z</time>
      </trkpt>
      <trkpt lat="45.87335" lon="4.71175">
        <ele>213.2177</ele>
        <time>2022-11-20T13:34:21.000Z</time>
      </trkpt>
      <trkpt lat="45.87331" lon="4.71177">
        <ele>213.2924</ele>
        <time>2022-11-20T13:34:22.000Z</time>
      </trkpt>
      <trkpt lat="45.87326" lon="4.7118">
        <ele>213.35977</ele>
        <time>2022-11-20T13:34:23.000Z</time>
      </trkpt>
      <trkpt lat="45.87322" lon="4.71182">
        <ele>213.42622</ele>
        <time>2022-11-20T13:34:24.000Z</time>
      </trkpt>
      <trkpt lat="45.87317" lon="4.71183">
        <ele>213.50754</ele>
        <time>2022-11-20T13:34:25.000Z</time>
      </trkpt>
      <trkpt lat="45.87311" lon="4.71186">
        <ele>213.45883</ele>
        <time>2022-11-20T13:34:26.000Z</time>
      </trkpt>
      <trkpt lat="45.87306" lon="4.71188">
        <ele>213.4117</ele>
        <time>2022-11-20T13:34:27.000Z</time>
      </trkpt>
      <trkpt lat="45.873" lon="4.7119">
        <ele>213.31425</ele>
        <time>2022-11-20T13:34:28.000Z</time>
      </trkpt>
      <trkpt lat="45.87295" lon="4.71193">
        <ele>213.21855</ele>
        <time>2022-11-20T13:34:29.000Z</time>
      </trkpt>
      <trkpt lat="45.87288" lon="4.71196">
        <ele>213.16122</ele>
        <time>2022-11-20T13:34:30.000Z</time>
      </trkpt>
      <trkpt lat="45.87282" lon="4.71198">
        <ele>213.08199</ele>
        <time>2022-11-20T13:34:31.000Z</time>
      </trkpt>
      <trkpt lat="45.87276" lon="4.71201">
        <ele>212.95984</ele>
        <time>2022-11-20T13:34:32.000Z</time>
      </trkpt>
      <trkpt lat="45.87269" lon="4.71203">
        <ele>212.86172</ele>
        <time>2022-11-20T13:34:33.000Z</time>
      </trkpt>
      <trkpt lat="45.87264" lon="4.71205">
        <ele>212.74019</ele>
        <time>2022-11-20T13:34:34.000Z</time>
      </trkpt>
      <trkpt lat="45.87257" lon="4.71207">
        <ele>212.60039</ele>
        <time>2022-11-20T13:34:35.000Z</time>
      </trkpt>
      <trkpt lat="45.8725" lon="4.71209">
        <ele>212.46123</ele>
        <time>2022-11-20T13:34:36.000Z</time>
      </trkpt>
      <trkpt lat="45.87244" lon="4.71211">
        <ele>212.32629</ele>
        <time>2022-11-20T13:34:37.000Z</time>
      </trkpt>
      <trkpt lat="45.87237" lon="4.71214">
        <ele>212.1947</ele>
        <time>2022-11-20T13:34:38.000Z</time>
      </trkpt>
      <trkpt lat="45.87231" lon="4.71216">
        <ele>212.06831</ele>
        <time>2022-11-20T13:34:39.000Z</time>
      </trkpt>
      <trkpt lat="45.87224" lon="4.71218">
        <ele>211.92961</ele>
        <time>2022-11-20T13:34:40.000Z</time>
      </trkpt>
      <trkpt lat="45.87217" lon="4.71221">
        <ele>211.77766</ele>
        <time>2022-11-20T13:34:41.000Z</time>
      </trkpt>
      <trkpt lat="45.8721" lon="4.71224">
        <ele>211.65039</ele>
        <time>2022-11-20T13:34:42.000Z</time>
      </trkpt>
      <trkpt lat="45.87203" lon="4.71226">
        <ele>211.52383</ele>
        <time>2022-11-20T13:34:43.000Z</time>
      </trkpt>
      <trkpt lat="45.87196" lon="4.71229">
        <ele>211.38684</ele>
        <time>2022-11-20T13:34:44.000Z</time>
      </trkpt>
      <trkpt lat="45.87189" lon="4.71232">
        <ele>211.23938</ele>
        <time>2022-11-20T13:34:45.000Z</time>
      </trkpt>
      <trkpt lat="45.87183" lon="4.71234">
        <ele>211.13179</ele>
        <time>2022-11-20T13:34:46.000Z</time>
      </trkpt>
      <trkpt lat="45.87175" lon="4.71237">
        <ele>210.98984</ele>
        <time>2022-11-20T13:34:47.000Z</time>
      </trkpt>
      <trkpt lat="45.87168" lon="4.71239">
        <ele>210.88223</ele>
        <time>2022-11-20T13:34:48.000Z</time>
      </trkpt>
      <trkpt lat="45.87161" lon="4.71242">
        <ele>210.76694</ele>
        <time>2022-11-20T13:34:49.000Z</time>
      </trkpt>
      <trkpt lat="45.87155" lon="4.71245">
        <ele>210.52144</ele>
        <time>2022-11-20T13:34:50.000Z</time>
      </trkpt>
      <trkpt lat="45.87147" lon="4.71247">
        <ele>210.29182</ele>
        <time>2022-11-20T13:34:51.000Z</time>
      </trkpt>
      <trkpt lat="45.8714" lon="4.7125">
        <ele>210.06631</ele>
        <time>2022-11-20T13:34:52.000Z</time>
      </trkpt>
      <trkpt lat="45.87133" lon="4.71253">
        <ele>209.82381</ele>
        <time>2022-11-20T13:34:53.000Z</time>
      </trkpt>
      <trkpt lat="45.87125" lon="4.71256">
        <ele>209.58235</ele>
        <time>2022-11-20T13:34:54.000Z</time>
      </trkpt>
      <trkpt lat="45.87118" lon="4.71258">
        <ele>209.33841</ele>
        <time>2022-11-20T13:34:55.000Z</time>
      </trkpt>
      <trkpt lat="45.87111" lon="4.71261">
        <ele>209.07649</ele>
        <time>2022-11-20T13:34:56.000Z</time>
      </trkpt>
      <trkpt lat="45.87103" lon="4.71263">
        <ele>208.81633</ele>
        <time>2022-11-20T13:34:57.000Z</time>
      </trkpt>
      <trkpt lat="45.87096" lon="4.71266">
        <ele>208.53777</ele>
        <time>2022-11-20T13:34:58.000Z</time>
      </trkpt>
      <trkpt lat="45.87089" lon="4.71268">
        <ele>208.23196</ele>
        <time>2022-11-20T13:34:59.000Z</time>
      </trkpt>
      <trkpt lat="45.87082" lon="4.7127">
        <ele>207.92676</ele>
        <time>2022-11-20T13:35:00.000Z</time>
      </trkpt>
      <trkpt lat="45.87074" lon="4.71274">
        <ele>207.61926</ele>
        <time>2022-11-20T13:35:01.000Z</time>
      </trkpt>
      <trkpt lat="45.87068" lon="4.71276">
        <ele>207.30757</ele>
        <time>2022-11-20T13:35:02.000Z</time>
      </trkpt>
      <trkpt lat="45.8706" lon="4.71279">
        <ele>207.00464</ele>
        <time>2022-11-20T13:35:03.000Z</time>
      </trkpt>
      <trkpt lat="45.87053" lon="4.71281">
        <ele>206.71826</ele>
        <time>2022-11-20T13:35:04.000Z</time>
      </trkpt>
      <trkpt lat="45.87047" lon="4.71283">
        <ele>206.43152</ele>
        <time>2022-11-20T13:35:05.000Z</time>
      </trkpt>
      <trkpt lat="45.8704" lon="4.71286">
        <ele>206.1622</ele>
        <time>2022-11-20T13:35:06.000Z</time>
      </trkpt>
      <trkpt lat="45.87033" lon="4.71288">
        <ele>205.91306</ele>
        <time>2022-11-20T13:35:07.000Z</time>
      </trkpt>
      <trkpt lat="45.87026" lon="4.71291">
        <ele>205.6689</ele>
        <time>2022-11-20T13:35:08.000Z</time>
      </trkpt>
      <trkpt lat="45.87019" lon="4.71293">
        <ele>205.41451</ele>
        <time>2022-11-20T13:35:09.000Z</time>
      </trkpt>
      <trkpt lat="45.87013" lon="4.71295">
        <ele>205.25566</ele>
        <time>2022-11-20T13:35:10.000Z</time>
      </trkpt>
      <trkpt lat="45.87006" lon="4.71297">
        <ele>205.06429</ele>
        <time>2022-11-20T13:35:11.000Z</time>
      </trkpt>
      <trkpt lat="45.87" lon="4.713">
        <ele>204.86787</ele>
        <time>2022-11-20T13:35:12.000Z</time>
      </trkpt>
      <trkpt lat="45.86993" lon="4.71302">
        <ele>204.68961</ele>
        <time>2022-11-20T13:35:13.000Z</time>
      </trkpt>
      <trkpt lat="45.86987" lon="4.71304">
        <ele>204.52341</ele>
        <time>2022-11-20T13:35:14.000Z</time>
      </trkpt>
      <trkpt lat="45.86981" lon="4.71307">
        <ele>204.35538</ele>
        <time>2022-11-20T13:35:15.000Z</time>
      </trkpt>
      <trkpt lat="45.86975" lon="4.71309">
        <ele>204.20833</ele>
        <time>2022-11-20T13:35:16.000Z</time>
      </trkpt>
      <trkpt lat="45.86969" lon="4.71312">
        <ele>204.07384</ele>
        <time>2022-11-20T13:35:17.000Z</time>
      </trkpt>
      <trkpt lat="45.86964" lon="4.71313">
        <ele>203.95299</ele>
        <time>2022-11-20T13:35:18.000Z</time>
      </trkpt>
      <trkpt lat="45.86958" lon="4.71315">
        <ele>203.86801</ele>
        <time>2022-11-20T13:35:19.000Z</time>
      </trkpt>
      <trkpt lat="45.86953" lon="4.71317">
        <ele>203.80185</ele>
        <time>2022-11-20T13:35:20.000Z</time>
      </trkpt>
      <trkpt lat="45.86948" lon="4.7132">
        <ele>203.73318</ele>
        <time>2022-11-20T13:35:21.000Z</time>
      </trkpt>
      <trkpt lat="45.86942" lon="4.71322">
        <ele>203.67726</ele>
        <time>2022-11-20T13:35:22.000Z</time>
      </trkpt>
      <trkpt lat="45.86937" lon="4.71323">
        <ele>203.59616</ele>
        <time>2022-11-20T13:35:23.000Z</time>
      </trkpt>
      <trkpt lat="45.86932" lon="4.71326">
        <ele>203.51904</ele>
        <time>2022-11-20T13:35:24.000Z</time>
      </trkpt>
      <trkpt lat="45.86926" lon="4.71328">
        <ele>203.46739</ele>
        <time>2022-11-20T13:35:25.000Z</time>
      </trkpt>
      <trkpt lat="45.86921" lon="4.7133">
        <ele>203.41451</ele>
        <time>2022-11-20T13:35:26.000Z</time>
      </trkpt>
      <trkpt lat="45.86916" lon="4.71332">
        <ele>203.35353</ele>
        <time>2022-11-20T13:35:27.000Z</time>
      </trkpt>
      <trkpt lat="45.86911" lon="4.71334">
        <ele>203.28133</ele>
        <time>2022-11-20T13:35:28.000Z</time>
      </trkpt>
      <trkpt lat="45.86906" lon="4.71337">
        <ele>203.24448</ele>
        <time>2022-11-20T13:35:29.000Z</time>
      </trkpt>
      <trkpt lat="45.86901" lon="4.71339">
        <ele>203.19421</ele>
        <time>2022-11-20T13:35:30.000Z</time>
      </trkpt>
      <trkpt lat="45.86896" lon="4.7134">
        <ele>203.16364</ele>
        <time>2022-11-20T13:35:31.000Z</time>
      </trkpt>
      <trkpt lat="45.86891" lon="4.71342">
        <ele>203.15726</ele>
        <time>2022-11-20T13:35:32.000Z</time>
      </trkpt>
      <trkpt lat="45.86886" lon="4.71344">
        <ele>203.1458</ele>
        <time>2022-11-20T13:35:33.000Z</time>
      </trkpt>
      <trkpt lat="45.8688" lon="4.71346">
        <ele>203.12802</ele>
        <time>2022-11-20T13:35:34.000Z</time>
      </trkpt>
      <trkpt lat="45.86875" lon="4.71347">
        <ele>203.13615</ele>
        <time>2022-11-20T13:35:35.000Z</time>
      </trkpt>
      <trkpt lat="45.86869" lon="4.71349">
        <ele>203.12448</ele>
        <time>2022-11-20T13:35:36.000Z</time>
      </trkpt>
      <trkpt lat="45.86864" lon="4.71351">
        <ele>203.1102</ele>
        <time>2022-11-20T13:35:37.000Z</time>
      </trkpt>
      <trkpt lat="45.86859" lon="4.71354">
        <ele>203.0983</ele>
        <time>2022-11-20T13:35:38.000Z</time>
      </trkpt>
      <trkpt lat="45.86854" lon="4.71356">
        <ele>203.06247</ele>
        <time>2022-11-20T13:35:39.000Z</time>
      </trkpt>
      <trkpt lat="45.86849" lon="4.71358">
        <ele>203.01788</ele>
        <time>2022-11-20T13:35:40.000Z</time>
      </trkpt>
      <trkpt lat="45.86843" lon="4.7136">
        <ele>202.96881</ele>
        <time>2022-11-20T13:35:41.000Z</time>
      </trkpt>
      <trkpt lat="45.86838" lon="4.71362">
        <ele>202.9041</ele>
        <time>2022-11-20T13:35:42.000Z</time>
      </trkpt>
      <trkpt lat="45.86833" lon="4.71364">
        <ele>202.88179</ele>
        <time>2022-11-20T13:35:43.000Z</time>
      </trkpt>
      <trkpt lat="45.86828" lon="4.71366">
        <ele>202.85225</ele>
        <time>2022-11-20T13:35:44.000Z</time>
      </trkpt>
      <trkpt lat="45.86822" lon="4.71368">
        <ele>202.78574</ele>
        <time>2022-11-20T13:35:45.000Z</time>
      </trkpt>
      <trkpt lat="45.86817" lon="4.7137">
        <ele>202.73453</ele>
        <time>2022-11-20T13:35:46.000Z</time>
      </trkpt>
      <trkpt lat="45.86811" lon="4.71372">
        <ele>202.68921</ele>
        <time>2022-11-20T13:35:47.000Z</time>
      </trkpt>
      <trkpt lat="45.86806" lon="4.71373">
        <ele>202.64314</ele>
        <time>2022-11-20T13:35:48.000Z</time>
      </trkpt>
      <trkpt lat="45.86801" lon="4.71375">
        <ele>202.58366</ele>
        <time>2022-11-20T13:35:49.000Z</time>
      </trkpt>
      <trkpt lat="45.86795" lon="4.71377">
        <ele>202.53818</ele>
        <time>2022-11-20T13:35:50.000Z</time>
      </trkpt>
      <trkpt lat="45.86789" lon="4.71379">
        <ele>202.48087</ele>
        <time>2022-11-20T13:35:51.000Z</time>
      </trkpt>
      <trkpt lat="45.86784" lon="4.71382">
        <ele>202.39793</ele>
        <time>2022-11-20T13:35:52.000Z</time>
      </trkpt>
      <trkpt lat="45.86779" lon="4.71384">
        <ele>202.35532</ele>
        <time>2022-11-20T13:35:53.000Z</time>
      </trkpt>
      <trkpt lat="45.86773" lon="4.71387">
        <ele>202.35799</ele>
        <time>2022-11-20T13:35:54.000Z</time>
      </trkpt>
      <trkpt lat="45.86767" lon="4.71388">
        <ele>202.33963</ele>
        <time>2022-11-20T13:35:55.000Z</time>
      </trkpt>
      <trkpt lat="45.86762" lon="4.71391">
        <ele>202.33705</ele>
        <time>2022-11-20T13:35:56.000Z</time>
      </trkpt>
      <trkpt lat="45.86756" lon="4.71393">
        <ele>202.33206</ele>
        <time>2022-11-20T13:35:57.000Z</time>
      </trkpt>
      <trkpt lat="45.86751" lon="4.71395">
        <ele>202.3362</ele>
        <time>2022-11-20T13:35:58.000Z</time>
      </trkpt>
      <trkpt lat="45.86745" lon="4.71398">
        <ele>202.35255</ele>
        <time>2022-11-20T13:35:59.000Z</time>
      </trkpt>
      <trkpt lat="45.8674" lon="4.714">
        <ele>202.35387</ele>
        <time>2022-11-20T13:36:00.000Z</time>
      </trkpt>
      <trkpt lat="45.86734" lon="4.71402">
        <ele>202.34811</ele>
        <time>2022-11-20T13:36:01.000Z</time>
      </trkpt>
      <trkpt lat="45.86728" lon="4.71403">
        <ele>202.35278</ele>
        <time>2022-11-20T13:36:02.000Z</time>
      </trkpt>
      <trkpt lat="45.86722" lon="4.71405">
        <ele>202.31625</ele>
        <time>2022-11-20T13:36:03.000Z</time>
      </trkpt>
      <trkpt lat="45.86716" lon="4.71407">
        <ele>202.25572</ele>
        <time>2022-11-20T13:36:04.000Z</time>
      </trkpt>
      <trkpt lat="45.86711" lon="4.71409">
        <ele>202.20718</ele>
        <time>2022-11-20T13:36:05.000Z</time>
      </trkpt>
      <trkpt lat="45.86706" lon="4.71412">
        <ele>202.21173</ele>
        <time>2022-11-20T13:36:06.000Z</time>
      </trkpt>
      <trkpt lat="45.867" lon="4.71414">
        <ele>203.48627</ele>
        <time>2022-11-20T13:36:07.000Z</time>
      </trkpt>
      <trkpt lat="45.86694" lon="4.71415">
        <ele>204.77817</ele>
        <time>2022-11-20T13:36:08.000Z</time>
      </trkpt>
      <trkpt lat="45.86688" lon="4.71418">
        <ele>206.07446</ele>
        <time>2022-11-20T13:36:09.000Z</time>
      </trkpt>
      <trkpt lat="45.86682" lon="4.7142">
        <ele>206.70987</ele>
        <time>2022-11-20T13:36:10.000Z</time>
      </trkpt>
      <trkpt lat="45.86677" lon="4.71423">
        <ele>207.46069</ele>
        <time>2022-11-20T13:36:11.000Z</time>
      </trkpt>
      <trkpt lat="45.86671" lon="4.71424">
        <ele>208.21745</ele>
        <time>2022-11-20T13:36:12.000Z</time>
      </trkpt>
      <trkpt lat="45.86665" lon="4.71426">
        <ele>208.90274</ele>
        <time>2022-11-20T13:36:13.000Z</time>
      </trkpt>
      <trkpt lat="45.8666" lon="4.71428">
        <ele>209.57544</ele>
        <time>2022-11-20T13:36:14.000Z</time>
      </trkpt>
      <trkpt lat="45.86654" lon="4.7143">
        <ele>210.23727</ele>
        <time>2022-11-20T13:36:15.000Z</time>
      </trkpt>
      <trkpt lat="45.86648" lon="4.71431">
        <ele>210.90189</ele>
        <time>2022-11-20T13:36:16.000Z</time>
      </trkpt>
      <trkpt lat="45.86643" lon="4.71434">
        <ele>211.5596</ele>
        <time>2022-11-20T13:36:17.000Z</time>
      </trkpt>
      <trkpt lat="45.86637" lon="4.71436">
        <ele>212.21448</ele>
        <time>2022-11-20T13:36:18.000Z</time>
      </trkpt>
      <trkpt lat="45.86632" lon="4.71437">
        <ele>212.89214</ele>
        <time>2022-11-20T13:36:19.000Z</time>
      </trkpt>
      <trkpt lat="45.86626" lon="4.71439">
        <ele>213.58183</ele>
        <time>2022-11-20T13:36:20.000Z</time>
      </trkpt>
      <trkpt lat="45.8662" lon="4.71442">
        <ele>214.28394</ele>
        <time>2022-11-20T13:36:21.000Z</time>
      </trkpt>
      <trkpt lat="45.86614" lon="4.71444">
        <ele>214.96541</ele>
        <time>2022-11-20T13:36:22.000Z</time>
      </trkpt>
      <trkpt lat="45.86608" lon="4.71445">
        <ele>215.65117</ele>
        <time>2022-11-20T13:36:23.000Z</time>
      </trkpt>
      <trkpt lat="45.86603" lon="4.71447">
        <ele>216.35861</ele>
        <time>2022-11-20T13:36:24.000Z</time>
      </trkpt>
      <trkpt lat="45.86596" lon="4.7145">
        <ele>217.0632</ele>
        <time>2022-11-20T13:36:25.000Z</time>
      </trkpt>
      <trkpt lat="45.86591" lon="4.71452">
        <ele>217.71219</ele>
        <time>2022-11-20T13:36:26.000Z</time>
      </trkpt>
      <trkpt lat="45.86586" lon="4.71454">
        <ele>217.08931</ele>
        <time>2022-11-20T13:36:27.000Z</time>
      </trkpt>
      <trkpt lat="45.8658" lon="4.71455">
        <ele>216.45174</ele>
        <time>2022-11-20T13:36:28.000Z</time>
      </trkpt>
      <trkpt lat="45.86575" lon="4.71457">
        <ele>215.79973</ele>
        <time>2022-11-20T13:36:29.000Z</time>
      </trkpt>
      <trkpt lat="45.8657" lon="4.71459">
        <ele>215.79736</ele>
        <time>2022-11-20T13:36:30.000Z</time>
      </trkpt>
      <trkpt lat="45.86566" lon="4.71461">
        <ele>215.6879</ele>
        <time>2022-11-20T13:36:31.000Z</time>
      </trkpt>
      <trkpt lat="45.86561" lon="4.71462">
        <ele>215.59903</ele>
        <time>2022-11-20T13:36:32.000Z</time>
      </trkpt>
      <trkpt lat="45.86558" lon="4.71461">
        <ele>215.53067</ele>
        <time>2022-11-20T13:36:33.000Z</time>
      </trkpt>
      <trkpt lat="45.86555" lon="4.7146">
        <ele>215.46045</ele>
        <time>2022-11-20T13:36:34.000Z</time>
      </trkpt>
      <trkpt lat="45.86553" lon="4.71457">
        <ele>215.41238</ele>
        <time>2022-11-20T13:36:35.000Z</time>
      </trkpt>
      <trkpt lat="45.86551" lon="4.71453">
        <ele>215.36394</ele>
        <time>2022-11-20T13:36:36.000Z</time>
      </trkpt>
      <trkpt lat="45.86548" lon="4.71449">
        <ele>215.33244</ele>
        <time>2022-11-20T13:36:37.000Z</time>
      </trkpt>
      <trkpt lat="45.86545" lon="4.71445">
        <ele>215.31241</ele>
        <time>2022-11-20T13:36:38.000Z</time>
      </trkpt>
      <trkpt lat="45.86542" lon="4.71441">
        <ele>215.27254</ele>
        <time>2022-11-20T13:36:39.000Z</time>
      </trkpt>
      <trkpt lat="45.86538" lon="4.71436">
        <ele>215.5638</ele>
        <time>2022-11-20T13:36:40.000Z</time>
      </trkpt>
      <trkpt lat="45.86535" lon="4.71431">
        <ele>215.86992</ele>
        <time>2022-11-20T13:36:41.000Z</time>
      </trkpt>
      <trkpt lat="45.86531" lon="4.71427">
        <ele>216.20532</ele>
        <time>2022-11-20T13:36:42.000Z</time>
      </trkpt>
      <trkpt lat="45.86528" lon="4.71422">
        <ele>216.78711</ele>
        <time>2022-11-20T13:36:43.000Z</time>
      </trkpt>
      <trkpt lat="45.86524" lon="4.71418">
        <ele>217.38632</ele>
        <time>2022-11-20T13:36:44.000Z</time>
      </trkpt>
      <trkpt lat="45.86521" lon="4.71413">
        <ele>217.26627</ele>
        <time>2022-11-20T13:36:45.000Z</time>
      </trkpt>
      <trkpt lat="45.86518" lon="4.71408">
        <ele>217.26651</ele>
        <time>2022-11-20T13:36:46.000Z</time>
      </trkpt>
      <trkpt lat="45.86515" lon="4.71404">
        <ele>217.29227</ele>
        <time>2022-11-20T13:36:47.000Z</time>
      </trkpt>
      <trkpt lat="45.86511" lon="4.71399">
        <ele>217.32439</ele>
        <time>2022-11-20T13:36:48.000Z</time>
      </trkpt>
      <trkpt lat="45.86508" lon="4.71394">
        <ele>217.37202</ele>
        <time>2022-11-20T13:36:49.000Z</time>
      </trkpt>
      <trkpt lat="45.86505" lon="4.71389">
        <ele>217.43753</ele>
        <time>2022-11-20T13:36:50.000Z</time>
      </trkpt>
      <trkpt lat="45.86502" lon="4.71385">
        <ele>217.49866</ele>
        <time>2022-11-20T13:36:51.000Z</time>
      </trkpt>
      <trkpt lat="45.86498" lon="4.7138">
        <ele>217.55022</ele>
        <time>2022-11-20T13:36:52.000Z</time>
      </trkpt>
      <trkpt lat="45.86495" lon="4.71375">
        <ele>217.5596</ele>
        <time>2022-11-20T13:36:53.000Z</time>
      </trkpt>
      <trkpt lat="45.86491" lon="4.71371">
        <ele>217.59891</ele>
        <time>2022-11-20T13:36:54.000Z</time>
      </trkpt>
      <trkpt lat="45.86487" lon="4.71366">
        <ele>217.96432</ele>
        <time>2022-11-20T13:36:55.000Z</time>
      </trkpt>
      <trkpt lat="45.86484" lon="4.71361">
        <ele>218.32742</ele>
        <time>2022-11-20T13:36:56.000Z</time>
      </trkpt>
      <trkpt lat="45.8648" lon="4.71357">
        <ele>218.68269</ele>
        <time>2022-11-20T13:36:57.000Z</time>
      </trkpt>
      <trkpt lat="45.86476" lon="4.71353">
        <ele>219.03154</ele>
        <time>2022-11-20T13:36:58.000Z</time>
      </trkpt>
      <trkpt lat="45.86473" lon="4.71348">
        <ele>219.39299</ele>
        <time>2022-11-20T13:36:59.000Z</time>
      </trkpt>
      <trkpt lat="45.86469" lon="4.71343">
        <ele>219.42798</ele>
        <time>2022-11-20T13:37:00.000Z</time>
      </trkpt>
      <trkpt lat="45.86466" lon="4.71337">
        <ele>219.44296</ele>
        <time>2022-11-20T13:37:01.000Z</time>
      </trkpt>
      <trkpt lat="45.86462" lon="4.71333">
        <ele>219.44072</ele>
        <time>2022-11-20T13:37:02.000Z</time>
      </trkpt>
      <trkpt lat="45.86459" lon="4.71328">
        <ele>219.20374</ele>
        <time>2022-11-20T13:37:03.000Z</time>
      </trkpt>
      <trkpt lat="45.86456" lon="4.71322">
        <ele>219.19502</ele>
        <time>2022-11-20T13:37:04.000Z</time>
      </trkpt>
      <trkpt lat="45.86452" lon="4.71318">
        <ele>219.9379</ele>
        <time>2022-11-20T13:37:05.000Z</time>
      </trkpt>
      <trkpt lat="45.86448" lon="4.71313">
        <ele>219.82065</ele>
        <time>2022-11-20T13:37:06.000Z</time>
      </trkpt>
      <trkpt lat="45.86444" lon="4.71308">
        <ele>219.79546</ele>
        <time>2022-11-20T13:37:07.000Z</time>
      </trkpt>
      <trkpt lat="45.8644" lon="4.71302">
        <ele>218.8044</ele>
        <time>2022-11-20T13:37:08.000Z</time>
      </trkpt>
      <trkpt lat="45.86437" lon="4.71296">
        <ele>217.80742</ele>
        <time>2022-11-20T13:37:09.000Z</time>
      </trkpt>
      <trkpt lat="45.86432" lon="4.71291">
        <ele>216.82016</ele>
        <time>2022-11-20T13:37:10.000Z</time>
      </trkpt>
      <trkpt lat="45.86428" lon="4.71286">
        <ele>215.8405</ele>
        <time>2022-11-20T13:37:11.000Z</time>
      </trkpt>
      <trkpt lat="45.86423" lon="4.71281">
        <ele>214.84988</ele>
        <time>2022-11-20T13:37:12.000Z</time>
      </trkpt>
      <trkpt lat="45.86419" lon="4.71276">
        <ele>213.92456</ele>
        <time>2022-11-20T13:37:13.000Z</time>
      </trkpt>
      <trkpt lat="45.86415" lon="4.7127">
        <ele>212.98569</ele>
        <time>2022-11-20T13:37:14.000Z</time>
      </trkpt>
      <trkpt lat="45.8641" lon="4.71264">
        <ele>211.71257</ele>
        <time>2022-11-20T13:37:15.000Z</time>
      </trkpt>
      <trkpt lat="45.86406" lon="4.71259">
        <ele>210.44348</ele>
        <time>2022-11-20T13:37:16.000Z</time>
      </trkpt>
      <trkpt lat="45.86402" lon="4.71252">
        <ele>209.18547</ele>
        <time>2022-11-20T13:37:17.000Z</time>
      </trkpt>
      <trkpt lat="45.86398" lon="4.71246">
        <ele>207.94519</ele>
        <time>2022-11-20T13:37:18.000Z</time>
      </trkpt>
      <trkpt lat="45.86394" lon="4.7124">
        <ele>206.69633</ele>
        <time>2022-11-20T13:37:19.000Z</time>
      </trkpt>
      <trkpt lat="45.8639" lon="4.71235">
        <ele>205.42871</ele>
        <time>2022-11-20T13:37:20.000Z</time>
      </trkpt>
      <trkpt lat="45.86386" lon="4.71229">
        <ele>204.15291</ele>
        <time>2022-11-20T13:37:21.000Z</time>
      </trkpt>
      <trkpt lat="45.86382" lon="4.71223">
        <ele>202.88678</ele>
        <time>2022-11-20T13:37:22.000Z</time>
      </trkpt>
      <trkpt lat="45.86377" lon="4.71217">
        <ele>201.60519</ele>
        <time>2022-11-20T13:37:23.000Z</time>
      </trkpt>
      <trkpt lat="45.86373" lon="4.71211">
        <ele>200.0771</ele>
        <time>2022-11-20T13:37:24.000Z</time>
      </trkpt>
      <trkpt lat="45.86369" lon="4.71206">
        <ele>198.52556</ele>
        <time>2022-11-20T13:37:25.000Z</time>
      </trkpt>
      <trkpt lat="45.86365" lon="4.712">
        <ele>197.69955</ele>
        <time>2022-11-20T13:37:26.000Z</time>
      </trkpt>
      <trkpt lat="45.86361" lon="4.71194">
        <ele>196.77769</ele>
        <time>2022-11-20T13:37:27.000Z</time>
      </trkpt>
      <trkpt lat="45.86357" lon="4.71188">
        <ele>196.81773</ele>
        <time>2022-11-20T13:37:28.000Z</time>
      </trkpt>
      <trkpt lat="45.86352" lon="4.71183">
        <ele>196.82915</ele>
        <time>2022-11-20T13:37:29.000Z</time>
      </trkpt>
      <trkpt lat="45.86348" lon="4.71177">
        <ele>196.84624</ele>
        <time>2022-11-20T13:37:30.000Z</time>
      </trkpt>
      <trkpt lat="45.86344" lon="4.71171">
        <ele>196.85045</ele>
        <time>2022-11-20T13:37:31.000Z</time>
      </trkpt>
      <trkpt lat="45.8634" lon="4.71164">
        <ele>196.87711</ele>
        <time>2022-11-20T13:37:32.000Z</time>
      </trkpt>
      <trkpt lat="45.86336" lon="4.71158">
        <ele>196.90807</ele>
        <time>2022-11-20T13:37:33.000Z</time>
      </trkpt>
      <trkpt lat="45.86331" lon="4.71153">
        <ele>196.90385</ele>
        <time>2022-11-20T13:37:34.000Z</time>
      </trkpt>
      <trkpt lat="45.86327" lon="4.71148">
        <ele>196.91429</ele>
        <time>2022-11-20T13:37:35.000Z</time>
      </trkpt>
      <trkpt lat="45.86323" lon="4.71141">
        <ele>196.92355</ele>
        <time>2022-11-20T13:37:36.000Z</time>
      </trkpt>
      <trkpt lat="45.86319" lon="4.71136">
        <ele>196.92633</ele>
        <time>2022-11-20T13:37:37.000Z</time>
      </trkpt>
      <trkpt lat="45.86315" lon="4.7113">
        <ele>196.92249</ele>
        <time>2022-11-20T13:37:38.000Z</time>
      </trkpt>
      <trkpt lat="45.86311" lon="4.71125">
        <ele>196.92493</ele>
        <time>2022-11-20T13:37:39.000Z</time>
      </trkpt>
      <trkpt lat="45.86307" lon="4.71119">
        <ele>196.94241</ele>
        <time>2022-11-20T13:37:40.000Z</time>
      </trkpt>
      <trkpt lat="45.86303" lon="4.71113">
        <ele>196.99384</ele>
        <time>2022-11-20T13:37:41.000Z</time>
      </trkpt>
      <trkpt lat="45.86298" lon="4.71108">
        <ele>197.04767</ele>
        <time>2022-11-20T13:37:42.000Z</time>
      </trkpt>
      <trkpt lat="45.86294" lon="4.71102">
        <ele>197.13187</ele>
        <time>2022-11-20T13:37:43.000Z</time>
      </trkpt>
      <trkpt lat="45.8629" lon="4.71095">
        <ele>197.22108</ele>
        <time>2022-11-20T13:37:44.000Z</time>
      </trkpt>
      <trkpt lat="45.86286" lon="4.71089">
        <ele>197.31099</ele>
        <time>2022-11-20T13:37:45.000Z</time>
      </trkpt>
      <trkpt lat="45.86281" lon="4.71084">
        <ele>197.37936</ele>
        <time>2022-11-20T13:37:46.000Z</time>
      </trkpt>
      <trkpt lat="45.86276" lon="4.71078">
        <ele>197.45013</ele>
        <time>2022-11-20T13:37:47.000Z</time>
      </trkpt>
      <trkpt lat="45.86273" lon="4.71072">
        <ele>197.5155</ele>
        <time>2022-11-20T13:37:48.000Z</time>
      </trkpt>
      <trkpt lat="45.8627" lon="4.71066">
        <ele>197.59955</ele>
        <time>2022-11-20T13:37:49.000Z</time>
      </trkpt>
      <trkpt lat="45.86268" lon="4.71059">
        <ele>197.65154</ele>
        <time>2022-11-20T13:37:50.000Z</time>
      </trkpt>
      <trkpt lat="45.86266" lon="4.71052">
        <ele>197.69727</ele>
        <time>2022-11-20T13:37:51.000Z</time>
      </trkpt>
      <trkpt lat="45.86265" lon="4.71046">
        <ele>197.72818</ele>
        <time>2022-11-20T13:37:52.000Z</time>
      </trkpt>
      <trkpt lat="45.86263" lon="4.71041">
        <ele>197.77036</ele>
        <time>2022-11-20T13:37:53.000Z</time>
      </trkpt>
      <trkpt lat="45.86262" lon="4.71035">
        <ele>197.81708</ele>
        <time>2022-11-20T13:37:54.000Z</time>
      </trkpt>
      <trkpt lat="45.8626" lon="4.71029">
        <ele>197.86803</ele>
        <time>2022-11-20T13:37:55.000Z</time>
      </trkpt>
      <trkpt lat="45.86257" lon="4.71024">
        <ele>197.92072</ele>
        <time>2022-11-20T13:37:56.000Z</time>
      </trkpt>
      <trkpt lat="45.86254" lon="4.71019">
        <ele>197.97299</ele>
        <time>2022-11-20T13:37:57.000Z</time>
      </trkpt>
      <trkpt lat="45.86251" lon="4.71014">
        <ele>198.00491</ele>
        <time>2022-11-20T13:37:58.000Z</time>
      </trkpt>
      <trkpt lat="45.86248" lon="4.71009">
        <ele>198.03474</ele>
        <time>2022-11-20T13:37:59.000Z</time>
      </trkpt>
      <trkpt lat="45.86244" lon="4.71005">
        <ele>198.06607</ele>
        <time>2022-11-20T13:38:00.000Z</time>
      </trkpt>
      <trkpt lat="45.86241" lon="4.71001">
        <ele>198.08502</ele>
        <time>2022-11-20T13:38:01.000Z</time>
      </trkpt>
      <trkpt lat="45.86237" lon="4.70997">
        <ele>198.10806</ele>
        <time>2022-11-20T13:38:02.000Z</time>
      </trkpt>
      <trkpt lat="45.86232" lon="4.70994">
        <ele>198.12051</ele>
        <time>2022-11-20T13:38:03.000Z</time>
      </trkpt>
      <trkpt lat="45.86227" lon="4.70994">
        <ele>198.14941</ele>
        <time>2022-11-20T13:38:04.000Z</time>
      </trkpt>
      <trkpt lat="45.86222" lon="4.70995">
        <ele>198.17264</ele>
        <time>2022-11-20T13:38:05.000Z</time>
      </trkpt>
      <trkpt lat="45.86218" lon="4.70999">
        <ele>198.23476</ele>
        <time>2022-11-20T13:38:06.000Z</time>
      </trkpt>
      <trkpt lat="45.86214" lon="4.71003">
        <ele>198.28088</ele>
        <time>2022-11-20T13:38:07.000Z</time>
      </trkpt>
      <trkpt lat="45.86211" lon="4.71008">
        <ele>198.34244</ele>
        <time>2022-11-20T13:38:08.000Z</time>
      </trkpt>
      <trkpt lat="45.86207" lon="4.71014">
        <ele>198.41763</ele>
        <time>2022-11-20T13:38:09.000Z</time>
      </trkpt>
      <trkpt lat="45.86204" lon="4.71019">
        <ele>198.48151</ele>
        <time>2022-11-20T13:38:10.000Z</time>
      </trkpt>
      <trkpt lat="45.86199" lon="4.71024">
        <ele>198.51498</ele>
        <time>2022-11-20T13:38:11.000Z</time>
      </trkpt>
      <trkpt lat="45.86195" lon="4.71027">
        <ele>198.53127</ele>
        <time>2022-11-20T13:38:12.000Z</time>
      </trkpt>
      <trkpt lat="45.86192" lon="4.71032">
        <ele>198.52684</ele>
        <time>2022-11-20T13:38:13.000Z</time>
      </trkpt>
      <trkpt lat="45.86187" lon="4.71036">
        <ele>198.5327</ele>
        <time>2022-11-20T13:38:14.000Z</time>
      </trkpt>
      <trkpt lat="45.86183" lon="4.71042">
        <ele>198.53043</ele>
        <time>2022-11-20T13:38:15.000Z</time>
      </trkpt>
      <trkpt lat="45.86178" lon="4.71044">
        <ele>198.53366</ele>
        <time>2022-11-20T13:38:16.000Z</time>
      </trkpt>
      <trkpt lat="45.86172" lon="4.71047">
        <ele>198.45961</ele>
        <time>2022-11-20T13:38:17.000Z</time>
      </trkpt>
      <trkpt lat="45.86166" lon="4.71048">
        <ele>198.40129</ele>
        <time>2022-11-20T13:38:18.000Z</time>
      </trkpt>
      <trkpt lat="45.86162" lon="4.71049">
        <ele>198.39285</ele>
        <time>2022-11-20T13:38:19.000Z</time>
      </trkpt>
      <trkpt lat="45.86157" lon="4.7105">
        <ele>199.32623</ele>
        <time>2022-11-20T13:38:20.000Z</time>
      </trkpt>
      <trkpt lat="45.86153" lon="4.71051">
        <ele>200.27573</ele>
        <time>2022-11-20T13:38:21.000Z</time>
      </trkpt>
      <trkpt lat="45.86149" lon="4.71053">
        <ele>201.22043</ele>
        <time>2022-11-20T13:38:22.000Z</time>
      </trkpt>
      <trkpt lat="45.86143" lon="4.71056">
        <ele>202.14598</ele>
        <time>2022-11-20T13:38:23.000Z</time>
      </trkpt>
      <trkpt lat="45.86139" lon="4.7106">
        <ele>203.04254</ele>
        <time>2022-11-20T13:38:24.000Z</time>
      </trkpt>
      <trkpt lat="45.86135" lon="4.71064">
        <ele>203.9595</ele>
        <time>2022-11-20T13:38:25.000Z</time>
      </trkpt>
      <trkpt lat="45.86131" lon="4.7107">
        <ele>204.86108</ele>
        <time>2022-11-20T13:38:26.000Z</time>
      </trkpt>
      <trkpt lat="45.86129" lon="4.71077">
        <ele>205.74979</ele>
        <time>2022-11-20T13:38:27.000Z</time>
      </trkpt>
      <trkpt lat="45.86127" lon="4.71084">
        <ele>206.95818</ele>
        <time>2022-11-20T13:38:28.000Z</time>
      </trkpt>
      <trkpt lat="45.86124" lon="4.71091">
        <ele>208.14182</ele>
        <time>2022-11-20T13:38:29.000Z</time>
      </trkpt>
      <trkpt lat="45.86122" lon="4.71097">
        <ele>209.35828</ele>
        <time>2022-11-20T13:38:30.000Z</time>
      </trkpt>
      <trkpt lat="45.86119" lon="4.71104">
        <ele>210.63982</ele>
        <time>2022-11-20T13:38:31.000Z</time>
      </trkpt>
      <trkpt lat="45.86117" lon="4.7111">
        <ele>211.96211</ele>
        <time>2022-11-20T13:38:32.000Z</time>
      </trkpt>
      <trkpt lat="45.86115" lon="4.71117">
        <ele>213.29602</ele>
        <time>2022-11-20T13:38:33.000Z</time>
      </trkpt>
      <trkpt lat="45.86112" lon="4.71122">
        <ele>214.60623</ele>
        <time>2022-11-20T13:38:34.000Z</time>
      </trkpt>
      <trkpt lat="45.86108" lon="4.71128">
        <ele>215.91118</ele>
        <time>2022-11-20T13:38:35.000Z</time>
      </trkpt>
      <trkpt lat="45.86104" lon="4.71133">
        <ele>217.21817</ele>
        <time>2022-11-20T13:38:36.000Z</time>
      </trkpt>
      <trkpt lat="45.861" lon="4.71138">
        <ele>218.62358</ele>
        <time>2022-11-20T13:38:37.000Z</time>
      </trkpt>
      <trkpt lat="45.86098" lon="4.71142">
        <ele>219.97356</ele>
        <time>2022-11-20T13:38:38.000Z</time>
      </trkpt>
      <trkpt lat="45.86093" lon="4.71147">
        <ele>221.45291</ele>
        <time>2022-11-20T13:38:39.000Z</time>
      </trkpt>
      <trkpt lat="45.86091" lon="4.71153">
        <ele>222.08101</ele>
        <time>2022-11-20T13:38:40.000Z</time>
      </trkpt>
      <trkpt lat="45.8609" lon="4.71159">
        <ele>222.70845</ele>
        <time>2022-11-20T13:38:41.000Z</time>
      </trkpt>
      <trkpt lat="45.86087" lon="4.71166">
        <ele>223.38876</ele>
        <time>2022-11-20T13:38:42.000Z</time>
      </trkpt>
      <trkpt lat="45.86086" lon="4.71173">
        <ele>224.23116</ele>
        <time>2022-11-20T13:38:43.000Z</time>
      </trkpt>
      <trkpt lat="45.86088" lon="4.71182">
        <ele>225.1855</ele>
        <time>2022-11-20T13:38:44.000Z</time>
      </trkpt>
      <trkpt lat="45.86088" lon="4.7119">
        <ele>226.21648</ele>
        <time>2022-11-20T13:38:45.000Z</time>
      </trkpt>
      <trkpt lat="45.86088" lon="4.71197">
        <ele>227.39661</ele>
        <time>2022-11-20T13:38:46.000Z</time>
      </trkpt>
      <trkpt lat="45.86087" lon="4.71205">
        <ele>228.5098</ele>
        <time>2022-11-20T13:38:47.000Z</time>
      </trkpt>
      <trkpt lat="45.86085" lon="4.71212">
        <ele>229.09688</ele>
        <time>2022-11-20T13:38:48.000Z</time>
      </trkpt>
      <trkpt lat="45.86084" lon="4.7122">
        <ele>229.53036</ele>
        <time>2022-11-20T13:38:49.000Z</time>
      </trkpt>
      <trkpt lat="45.86083" lon="4.71228">
        <ele>229.8824</ele>
        <time>2022-11-20T13:38:50.000Z</time>
      </trkpt>
      <trkpt lat="45.86083" lon="4.71237">
        <ele>230.37576</ele>
        <time>2022-11-20T13:38:51.000Z</time>
      </trkpt>
      <trkpt lat="45.86082" lon="4.71245">
        <ele>230.80496</ele>
        <time>2022-11-20T13:38:52.000Z</time>
      </trkpt>
      <trkpt lat="45.8608" lon="4.71253">
        <ele>230.98901</ele>
        <time>2022-11-20T13:38:53.000Z</time>
      </trkpt>
      <trkpt lat="45.86075" lon="4.71258">
        <ele>231.18022</ele>
        <time>2022-11-20T13:38:54.000Z</time>
      </trkpt>
      <trkpt lat="45.86071" lon="4.71262">
        <ele>230.61633</ele>
        <time>2022-11-20T13:38:55.000Z</time>
      </trkpt>
      <trkpt lat="45.86067" lon="4.71264">
        <ele>230.16743</ele>
        <time>2022-11-20T13:38:56.000Z</time>
      </trkpt>
      <trkpt lat="45.86062" lon="4.71265">
        <ele>229.78854</ele>
        <time>2022-11-20T13:38:57.000Z</time>
      </trkpt>
      <trkpt lat="45.86057" lon="4.71266">
        <ele>229.50664</ele>
        <time>2022-11-20T13:38:58.000Z</time>
      </trkpt>
      <trkpt lat="45.86052" lon="4.71267">
        <ele>229.07954</ele>
        <time>2022-11-20T13:38:59.000Z</time>
      </trkpt>
      <trkpt lat="45.86045" lon="4.71268">
        <ele>228.57137</ele>
        <time>2022-11-20T13:39:00.000Z</time>
      </trkpt>
      <trkpt lat="45.8604" lon="4.71267">
        <ele>228.22537</ele>
        <time>2022-11-20T13:39:01.000Z</time>
      </trkpt>
      <trkpt lat="45.86035" lon="4.71264">
        <ele>227.80936</ele>
        <time>2022-11-20T13:39:02.000Z</time>
      </trkpt>
      <trkpt lat="45.8603" lon="4.7126">
        <ele>227.23404</ele>
        <time>2022-11-20T13:39:03.000Z</time>
      </trkpt>
      <trkpt lat="45.86026" lon="4.71258">
        <ele>226.57524</ele>
        <time>2022-11-20T13:39:04.000Z</time>
      </trkpt>
      <trkpt lat="45.8602" lon="4.71255">
        <ele>225.80347</ele>
        <time>2022-11-20T13:39:05.000Z</time>
      </trkpt>
      <trkpt lat="45.86015" lon="4.71252">
        <ele>224.88765</ele>
        <time>2022-11-20T13:39:06.000Z</time>
      </trkpt>
      <trkpt lat="45.86011" lon="4.71249">
        <ele>224.05473</ele>
        <time>2022-11-20T13:39:07.000Z</time>
      </trkpt>
      <trkpt lat="45.86006" lon="4.71247">
        <ele>223.43497</ele>
        <time>2022-11-20T13:39:08.000Z</time>
      </trkpt>
      <trkpt lat="45.86002" lon="4.71244">
        <ele>222.97612</ele>
        <time>2022-11-20T13:39:09.000Z</time>
      </trkpt>
      <trkpt lat="45.85997" lon="4.71241">
        <ele>222.59766</ele>
        <time>2022-11-20T13:39:10.000Z</time>
      </trkpt>
      <trkpt lat="45.85991" lon="4.7124">
        <ele>222.02632</ele>
        <time>2022-11-20T13:39:11.000Z</time>
      </trkpt>
      <trkpt lat="45.85987" lon="4.71238">
        <ele>221.50349</ele>
        <time>2022-11-20T13:39:12.000Z</time>
      </trkpt>
      <trkpt lat="45.85981" lon="4.71237">
        <ele>221.21201</ele>
        <time>2022-11-20T13:39:13.000Z</time>
      </trkpt>
      <trkpt lat="45.85977" lon="4.71235">
        <ele>221.00674</ele>
        <time>2022-11-20T13:39:14.000Z</time>
      </trkpt>
      <trkpt lat="45.85972" lon="4.71235">
        <ele>221.65608</ele>
        <time>2022-11-20T13:39:15.000Z</time>
      </trkpt>
      <trkpt lat="45.85967" lon="4.71232">
        <ele>222.00342</ele>
        <time>2022-11-20T13:39:16.000Z</time>
      </trkpt>
      <trkpt lat="45.85962" lon="4.7123">
        <ele>222.26399</ele>
        <time>2022-11-20T13:39:17.000Z</time>
      </trkpt>
      <trkpt lat="45.85958" lon="4.7123">
        <ele>222.53906</ele>
        <time>2022-11-20T13:39:18.000Z</time>
      </trkpt>
      <trkpt lat="45.85952" lon="4.71228">
        <ele>222.81613</ele>
        <time>2022-11-20T13:39:19.000Z</time>
      </trkpt>
      <trkpt lat="45.85947" lon="4.71226">
        <ele>223.08133</ele>
        <time>2022-11-20T13:39:20.000Z</time>
      </trkpt>
      <trkpt lat="45.85942" lon="4.71224">
        <ele>223.24947</ele>
        <time>2022-11-20T13:39:21.000Z</time>
      </trkpt>
      <trkpt lat="45.85938" lon="4.71224">
        <ele>223.55229</ele>
        <time>2022-11-20T13:39:22.000Z</time>
      </trkpt>
      <trkpt lat="45.85933" lon="4.71223">
        <ele>224.09673</ele>
        <time>2022-11-20T13:39:23.000Z</time>
      </trkpt>
      <trkpt lat="45.85927" lon="4.71223">
        <ele>222.89978</ele>
        <time>2022-11-20T13:39:24.000Z</time>
      </trkpt>
      <trkpt lat="45.85923" lon="4.71222">
        <ele>221.64221</ele>
        <time>2022-11-20T13:39:25.000Z</time>
      </trkpt>
      <trkpt lat="45.85918" lon="4.71221">
        <ele>220.3782</ele>
        <time>2022-11-20T13:39:26.000Z</time>
      </trkpt>
      <trkpt lat="45.85913" lon="4.7122">
        <ele>219.12129</ele>
        <time>2022-11-20T13:39:27.000Z</time>
      </trkpt>
      <trkpt lat="45.85908" lon="4.7122">
        <ele>217.85693</ele>
        <time>2022-11-20T13:39:28.000Z</time>
      </trkpt>
      <trkpt lat="45.85903" lon="4.71219">
        <ele>216.60434</ele>
        <time>2022-11-20T13:39:29.000Z</time>
      </trkpt>
      <trkpt lat="45.85898" lon="4.71219">
        <ele>215.37015</ele>
        <time>2022-11-20T13:39:30.000Z</time>
      </trkpt>
      <trkpt lat="45.85893" lon="4.71218">
        <ele>214.16458</ele>
        <time>2022-11-20T13:39:31.000Z</time>
      </trkpt>
      <trkpt lat="45.85889" lon="4.71216">
        <ele>212.97151</ele>
        <time>2022-11-20T13:39:32.000Z</time>
      </trkpt>
      <trkpt lat="45.85884" lon="4.71215">
        <ele>211.78386</ele>
        <time>2022-11-20T13:39:33.000Z</time>
      </trkpt>
      <trkpt lat="45.8588" lon="4.71214">
        <ele>210.52286</ele>
        <time>2022-11-20T13:39:34.000Z</time>
      </trkpt>
      <trkpt lat="45.85876" lon="4.71214">
        <ele>209.16292</ele>
        <time>2022-11-20T13:39:35.000Z</time>
      </trkpt>
      <trkpt lat="45.85872" lon="4.71215">
        <ele>208.01172</ele>
        <time>2022-11-20T13:39:36.000Z</time>
      </trkpt>
      <trkpt lat="45.85868" lon="4.71216">
        <ele>206.87222</ele>
        <time>2022-11-20T13:39:37.000Z</time>
      </trkpt>
      <trkpt lat="45.85865" lon="4.71217">
        <ele>205.70261</ele>
        <time>2022-11-20T13:39:38.000Z</time>
      </trkpt>
      <trkpt lat="45.85861" lon="4.71218">
        <ele>204.50247</ele>
        <time>2022-11-20T13:39:39.000Z</time>
      </trkpt>
      <trkpt lat="45.85859" lon="4.7122">
        <ele>203.30699</ele>
        <time>2022-11-20T13:39:40.000Z</time>
      </trkpt>
      <trkpt lat="45.85856" lon="4.71224">
        <ele>202.01407</ele>
        <time>2022-11-20T13:39:41.000Z</time>
      </trkpt>
      <trkpt lat="45.85853" lon="4.71228">
        <ele>200.60165</ele>
        <time>2022-11-20T13:39:42.000Z</time>
      </trkpt>
      <trkpt lat="45.85851" lon="4.71231">
        <ele>198.97742</ele>
        <time>2022-11-20T13:39:43.000Z</time>
      </trkpt>
      <trkpt lat="45.85847" lon="4.71233">
        <ele>199.0715</ele>
        <time>2022-11-20T13:39:44.000Z</time>
      </trkpt>
      <trkpt lat="45.85844" lon="4.71235">
        <ele>199.24837</ele>
        <time>2022-11-20T13:39:45.000Z</time>
      </trkpt>
      <trkpt lat="45.8584" lon="4.71237">
        <ele>199.42976</ele>
        <time>2022-11-20T13:39:46.000Z</time>
      </trkpt>
      <trkpt lat="45.85837" lon="4.71238">
        <ele>199.60419</ele>
        <time>2022-11-20T13:39:47.000Z</time>
      </trkpt>
      <trkpt lat="45.85833" lon="4.71239">
        <ele>199.78578</ele>
        <time>2022-11-20T13:39:48.000Z</time>
      </trkpt>
      <trkpt lat="45.85829" lon="4.71239">
        <ele>199.94548</ele>
        <time>2022-11-20T13:39:49.000Z</time>
      </trkpt>
      <trkpt lat="45.85825" lon="4.71239">
        <ele>200.07715</ele>
        <time>2022-11-20T13:39:50.000Z</time>
      </trkpt>
      <trkpt lat="45.8582" lon="4.71238">
        <ele>200.20325</ele>
        <time>2022-11-20T13:39:51.000Z</time>
      </trkpt>
      <trkpt lat="45.85816" lon="4.71237">
        <ele>200.30676</ele>
        <time>2022-11-20T13:39:52.000Z</time>
      </trkpt>
      <trkpt lat="45.85811" lon="4.71234">
        <ele>200.38583</ele>
        <time>2022-11-20T13:39:53.000Z</time>
      </trkpt>
      <trkpt lat="45.85808" lon="4.71229">
        <ele>200.47284</ele>
        <time>2022-11-20T13:39:54.000Z</time>
      </trkpt>
      <trkpt lat="45.85806" lon="4.71224">
        <ele>200.56935</ele>
        <time>2022-11-20T13:39:55.000Z</time>
      </trkpt>
      <trkpt lat="45.85804" lon="4.71218">
        <ele>200.64133</ele>
        <time>2022-11-20T13:39:56.000Z</time>
      </trkpt>
      <trkpt lat="45.85802" lon="4.71212">
        <ele>200.6985</ele>
        <time>2022-11-20T13:39:57.000Z</time>
      </trkpt>
      <trkpt lat="45.858" lon="4.71207">
        <ele>200.70427</ele>
        <time>2022-11-20T13:39:58.000Z</time>
      </trkpt>
      <trkpt lat="45.85796" lon="4.71203">
        <ele>200.71712</ele>
        <time>2022-11-20T13:39:59.000Z</time>
      </trkpt>
      <trkpt lat="45.85793" lon="4.71199">
        <ele>200.74161</ele>
        <time>2022-11-20T13:40:00.000Z</time>
      </trkpt>
      <trkpt lat="45.85789" lon="4.71196">
        <ele>200.78267</ele>
        <time>2022-11-20T13:40:01.000Z</time>
      </trkpt>
      <trkpt lat="45.85785" lon="4.71195">
        <ele>200.83084</ele>
        <time>2022-11-20T13:40:02.000Z</time>
      </trkpt>
      <trkpt lat="45.85783" lon="4.712">
        <ele>200.84042</ele>
        <time>2022-11-20T13:40:03.000Z</time>
      </trkpt>
      <trkpt lat="45.85779" lon="4.71203">
        <ele>200.88876</ele>
        <time>2022-11-20T13:40:04.000Z</time>
      </trkpt>
      <trkpt lat="45.85776" lon="4.71208">
        <ele>200.96632</ele>
        <time>2022-11-20T13:40:05.000Z</time>
      </trkpt>
      <trkpt lat="45.85775" lon="4.71214">
        <ele>201.02774</ele>
        <time>2022-11-20T13:40:06.000Z</time>
      </trkpt>
      <trkpt lat="45.85774" lon="4.7122">
        <ele>201.13025</ele>
        <time>2022-11-20T13:40:07.000Z</time>
      </trkpt>
      <trkpt lat="45.85772" lon="4.71226">
        <ele>201.21796</ele>
        <time>2022-11-20T13:40:08.000Z</time>
      </trkpt>
      <trkpt lat="45.8577" lon="4.71234">
        <ele>201.31218</ele>
        <time>2022-11-20T13:40:09.000Z</time>
      </trkpt>
      <trkpt lat="45.85769" lon="4.71241">
        <ele>201.39911</ele>
        <time>2022-11-20T13:40:10.000Z</time>
      </trkpt>
      <trkpt lat="45.85767" lon="4.71248">
        <ele>201.48509</ele>
        <time>2022-11-20T13:40:11.000Z</time>
      </trkpt>
      <trkpt lat="45.85765" lon="4.71256">
        <ele>201.56033</ele>
        <time>2022-11-20T13:40:12.000Z</time>
      </trkpt>
      <trkpt lat="45.85763" lon="4.71264">
        <ele>201.67862</ele>
        <time>2022-11-20T13:40:13.000Z</time>
      </trkpt>
      <trkpt lat="45.85761" lon="4.71271">
        <ele>201.79189</ele>
        <time>2022-11-20T13:40:14.000Z</time>
      </trkpt>
      <trkpt lat="45.85759" lon="4.71278">
        <ele>201.87497</ele>
        <time>2022-11-20T13:40:15.000Z</time>
      </trkpt>
      <trkpt lat="45.85756" lon="4.71285">
        <ele>201.9617</ele>
        <time>2022-11-20T13:40:16.000Z</time>
      </trkpt>
      <trkpt lat="45.85754" lon="4.71292">
        <ele>202.05878</ele>
        <time>2022-11-20T13:40:17.000Z</time>
      </trkpt>
      <trkpt lat="45.8575" lon="4.71297">
        <ele>202.1561</ele>
        <time>2022-11-20T13:40:18.000Z</time>
      </trkpt>
      <trkpt lat="45.85745" lon="4.71298">
        <ele>202.23801</ele>
        <time>2022-11-20T13:40:19.000Z</time>
      </trkpt>
      <trkpt lat="45.85742" lon="4.71296">
        <ele>202.31416</ele>
        <time>2022-11-20T13:40:20.000Z</time>
      </trkpt>
      <trkpt lat="45.85737" lon="4.71296">
        <ele>202.38905</ele>
        <time>2022-11-20T13:40:21.000Z</time>
      </trkpt>
      <trkpt lat="45.85733" lon="4.71295">
        <ele>202.47319</ele>
        <time>2022-11-20T13:40:22.000Z</time>
      </trkpt>
      <trkpt lat="45.8573" lon="4.71294">
        <ele>202.57413</ele>
        <time>2022-11-20T13:40:23.000Z</time>
      </trkpt>
      <trkpt lat="45.85726" lon="4.71293">
        <ele>202.67465</ele>
        <time>2022-11-20T13:40:24.000Z</time>
      </trkpt>
      <trkpt lat="45.85721" lon="4.71294">
        <ele>202.75922</ele>
        <time>2022-11-20T13:40:25.000Z</time>
      </trkpt>
      <trkpt lat="45.85717" lon="4.71294">
        <ele>202.86133</ele>
        <time>2022-11-20T13:40:26.000Z</time>
      </trkpt>
      <trkpt lat="45.85711" lon="4.71294">
        <ele>202.93765</ele>
        <time>2022-11-20T13:40:27.000Z</time>
      </trkpt>
      <trkpt lat="45.85706" lon="4.71293">
        <ele>203.98318</ele>
        <time>2022-11-20T13:40:28.000Z</time>
      </trkpt>
      <trkpt lat="45.85702" lon="4.71292">
        <ele>205.09273</ele>
        <time>2022-11-20T13:40:29.000Z</time>
      </trkpt>
      <trkpt lat="45.85698" lon="4.71291">
        <ele>206.22925</ele>
        <time>2022-11-20T13:40:30.000Z</time>
      </trkpt>
      <trkpt lat="45.85694" lon="4.71291">
        <ele>207.35995</ele>
        <time>2022-11-20T13:40:31.000Z</time>
      </trkpt>
      <trkpt lat="45.85689" lon="4.7129">
        <ele>208.57478</ele>
        <time>2022-11-20T13:40:32.000Z</time>
      </trkpt>
      <trkpt lat="45.85685" lon="4.71288">
        <ele>209.7762</ele>
        <time>2022-11-20T13:40:33.000Z</time>
      </trkpt>
      <trkpt lat="45.85681" lon="4.71286">
        <ele>211.01785</ele>
        <time>2022-11-20T13:40:34.000Z</time>
      </trkpt>
      <trkpt lat="45.85678" lon="4.71283">
        <ele>212.28122</ele>
        <time>2022-11-20T13:40:35.000Z</time>
      </trkpt>
      <trkpt lat="45.85674" lon="4.7128">
        <ele>213.57352</ele>
        <time>2022-11-20T13:40:36.000Z</time>
      </trkpt>
      <trkpt lat="45.85671" lon="4.71276">
        <ele>214.85239</ele>
        <time>2022-11-20T13:40:37.000Z</time>
      </trkpt>
      <trkpt lat="45.85667" lon="4.71273">
        <ele>216.15579</ele>
        <time>2022-11-20T13:40:38.000Z</time>
      </trkpt>
      <trkpt lat="45.85663" lon="4.7127">
        <ele>217.47835</ele>
        <time>2022-11-20T13:40:39.000Z</time>
      </trkpt>
      <trkpt lat="45.85659" lon="4.71268">
        <ele>218.79529</ele>
        <time>2022-11-20T13:40:40.000Z</time>
      </trkpt>
      <trkpt lat="45.85655" lon="4.71265">
        <ele>220.1252</ele>
        <time>2022-11-20T13:40:41.000Z</time>
      </trkpt>
      <trkpt lat="45.85651" lon="4.71263">
        <ele>221.42574</ele>
        <time>2022-11-20T13:40:42.000Z</time>
      </trkpt>
      <trkpt lat="45.85647" lon="4.71262">
        <ele>222.72116</ele>
        <time>2022-11-20T13:40:43.000Z</time>
      </trkpt>
      <trkpt lat="45.85643" lon="4.71262">
        <ele>224.00476</ele>
        <time>2022-11-20T13:40:44.000Z</time>
      </trkpt>
      <trkpt lat="45.85639" lon="4.71263">
        <ele>225.27225</ele>
        <time>2022-11-20T13:40:45.000Z</time>
      </trkpt>
      <trkpt lat="45.85635" lon="4.71264">
        <ele>226.55392</ele>
        <time>2022-11-20T13:40:46.000Z</time>
      </trkpt>
      <trkpt lat="45.85631" lon="4.71266">
        <ele>227.83504</ele>
        <time>2022-11-20T13:40:47.000Z</time>
      </trkpt>
      <trkpt lat="45.85627" lon="4.71268">
        <ele>228.16077</ele>
        <time>2022-11-20T13:40:48.000Z</time>
      </trkpt>
      <trkpt lat="45.85624" lon="4.7127">
        <ele>228.42627</ele>
        <time>2022-11-20T13:40:49.000Z</time>
      </trkpt>
      <trkpt lat="45.85621" lon="4.71274">
        <ele>228.70474</ele>
        <time>2022-11-20T13:40:50.000Z</time>
      </trkpt>
      <trkpt lat="45.85618" lon="4.71278">
        <ele>229.02292</ele>
        <time>2022-11-20T13:40:51.000Z</time>
      </trkpt>
      <trkpt lat="45.85615" lon="4.71283">
        <ele>229.29935</ele>
        <time>2022-11-20T13:40:52.000Z</time>
      </trkpt>
      <trkpt lat="45.85613" lon="4.71287">
        <ele>229.57645</ele>
        <time>2022-11-20T13:40:53.000Z</time>
      </trkpt>
      <trkpt lat="45.85611" lon="4.71292">
        <ele>229.84183</ele>
        <time>2022-11-20T13:40:54.000Z</time>
      </trkpt>
      <trkpt lat="45.85608" lon="4.71296">
        <ele>230.11922</ele>
        <time>2022-11-20T13:40:55.000Z</time>
      </trkpt>
      <trkpt lat="45.85605" lon="4.713">
        <ele>230.39648</ele>
        <time>2022-11-20T13:40:56.000Z</time>
      </trkpt>
      <trkpt lat="45.85602" lon="4.71305">
        <ele>230.68115</ele>
        <time>2022-11-20T13:40:57.000Z</time>
      </trkpt>
      <trkpt lat="45.85599" lon="4.71309">
        <ele>230.97209</ele>
        <time>2022-11-20T13:40:58.000Z</time>
      </trkpt>
      <trkpt lat="45.85596" lon="4.71313">
        <ele>230.96982</ele>
        <time>2022-11-20T13:40:59.000Z</time>
      </trkpt>
      <trkpt lat="45.85593" lon="4.71317">
        <ele>231.24663</ele>
        <time>2022-11-20T13:41:00.000Z</time>
      </trkpt>
      <trkpt lat="45.8559" lon="4.71321">
        <ele>231.53989</ele>
        <time>2022-11-20T13:41:01.000Z</time>
      </trkpt>
      <trkpt lat="45.85586" lon="4.71324">
        <ele>231.71358</ele>
        <time>2022-11-20T13:41:02.000Z</time>
      </trkpt>
      <trkpt lat="45.85582" lon="4.71327">
        <ele>231.92586</ele>
        <time>2022-11-20T13:41:03.000Z</time>
      </trkpt>
      <trkpt lat="45.85578" lon="4.7133">
        <ele>232.13522</ele>
        <time>2022-11-20T13:41:04.000Z</time>
      </trkpt>
      <trkpt lat="45.85574" lon="4.71332">
        <ele>232.34941</ele>
        <time>2022-11-20T13:41:05.000Z</time>
      </trkpt>
      <trkpt lat="45.8557" lon="4.71334">
        <ele>232.57654</ele>
        <time>2022-11-20T13:41:06.000Z</time>
      </trkpt>
      <trkpt lat="45.85566" lon="4.71336">
        <ele>232.799</ele>
        <time>2022-11-20T13:41:07.000Z</time>
      </trkpt>
      <trkpt lat="45.85562" lon="4.71338">
        <ele>233.00827</ele>
        <time>2022-11-20T13:41:08.000Z</time>
      </trkpt>
      <trkpt lat="45.85557" lon="4.7134">
        <ele>233.22591</ele>
        <time>2022-11-20T13:41:09.000Z</time>
      </trkpt>
      <trkpt lat="45.85553" lon="4.71341">
        <ele>233.41887</ele>
        <time>2022-11-20T13:41:10.000Z</time>
      </trkpt>
      <trkpt lat="45.85548" lon="4.71342">
        <ele>233.57565</ele>
        <time>2022-11-20T13:41:11.000Z</time>
      </trkpt>
      <trkpt lat="45.85544" lon="4.71343">
        <ele>233.71378</ele>
        <time>2022-11-20T13:41:12.000Z</time>
      </trkpt>
      <trkpt lat="45.85539" lon="4.71344">
        <ele>233.85823</ele>
        <time>2022-11-20T13:41:13.000Z</time>
      </trkpt>
      <trkpt lat="45.85536" lon="4.71346">
        <ele>233.99588</ele>
        <time>2022-11-20T13:41:14.000Z</time>
      </trkpt>
      <trkpt lat="45.85531" lon="4.71348">
        <ele>234.13907</ele>
        <time>2022-11-20T13:41:15.000Z</time>
      </trkpt>
      <trkpt lat="45.85527" lon="4.71349">
        <ele>234.26814</ele>
        <time>2022-11-20T13:41:16.000Z</time>
      </trkpt>
      <trkpt lat="45.85523" lon="4.7135">
        <ele>234.41226</ele>
        <time>2022-11-20T13:41:17.000Z</time>
      </trkpt>
      <trkpt lat="45.85519" lon="4.71351">
        <ele>234.56204</ele>
        <time>2022-11-20T13:41:18.000Z</time>
      </trkpt>
      <trkpt lat="45.85514" lon="4.71352">
        <ele>235.34041</ele>
        <time>2022-11-20T13:41:19.000Z</time>
      </trkpt>
      <trkpt lat="45.8551" lon="4.71353">
        <ele>235.505</ele>
        <time>2022-11-20T13:41:20.000Z</time>
      </trkpt>
      <trkpt lat="45.85506" lon="4.71355">
        <ele>235.79761</ele>
        <time>2022-11-20T13:41:21.000Z</time>
      </trkpt>
      <trkpt lat="45.85502" lon="4.71356">
        <ele>236.25935</ele>
        <time>2022-11-20T13:41:22.000Z</time>
      </trkpt>
      <trkpt lat="45.85497" lon="4.71358">
        <ele>236.70438</ele>
        <time>2022-11-20T13:41:23.000Z</time>
      </trkpt>
      <trkpt lat="45.85493" lon="4.71359">
        <ele>237.14185</ele>
        <time>2022-11-20T13:41:24.000Z</time>
      </trkpt>
      <trkpt lat="45.85488" lon="4.7136">
        <ele>237.58736</ele>
        <time>2022-11-20T13:41:25.000Z</time>
      </trkpt>
      <trkpt lat="45.85484" lon="4.71361">
        <ele>238.01511</ele>
        <time>2022-11-20T13:41:26.000Z</time>
      </trkpt>
      <trkpt lat="45.8548" lon="4.71363">
        <ele>238.44751</ele>
        <time>2022-11-20T13:41:27.000Z</time>
      </trkpt>
      <trkpt lat="45.85475" lon="4.71365">
        <ele>238.90327</ele>
        <time>2022-11-20T13:41:28.000Z</time>
      </trkpt>
      <trkpt lat="45.85471" lon="4.71367">
        <ele>239.3757</ele>
        <time>2022-11-20T13:41:29.000Z</time>
      </trkpt>
      <trkpt lat="45.85467" lon="4.71369">
        <ele>239.85945</ele>
        <time>2022-11-20T13:41:30.000Z</time>
      </trkpt>
      <trkpt lat="45.85464" lon="4.71372">
        <ele>240.36308</ele>
        <time>2022-11-20T13:41:31.000Z</time>
      </trkpt>
      <trkpt lat="45.8546" lon="4.71375">
        <ele>240.88425</ele>
        <time>2022-11-20T13:41:32.000Z</time>
      </trkpt>
      <trkpt lat="45.85457" lon="4.71377">
        <ele>241.40732</ele>
        <time>2022-11-20T13:41:33.000Z</time>
      </trkpt>
      <trkpt lat="45.85453" lon="4.71379">
        <ele>241.92319</ele>
        <time>2022-11-20T13:41:34.000Z</time>
      </trkpt>
      <trkpt lat="45.85449" lon="4.71383">
        <ele>242.41684</ele>
        <time>2022-11-20T13:41:35.000Z</time>
      </trkpt>
      <trkpt lat="45.85445" lon="4.71385">
        <ele>242.88708</ele>
        <time>2022-11-20T13:41:36.000Z</time>
      </trkpt>
      <trkpt lat="45.85441" lon="4.71388">
        <ele>243.34148</ele>
        <time>2022-11-20T13:41:37.000Z</time>
      </trkpt>
      <trkpt lat="45.85438" lon="4.71391">
        <ele>243.79253</ele>
        <time>2022-11-20T13:41:38.000Z</time>
      </trkpt>
      <trkpt lat="45.85434" lon="4.71394">
        <ele>243.89006</ele>
        <time>2022-11-20T13:41:39.000Z</time>
      </trkpt>
      <trkpt lat="45.8543" lon="4.71397">
        <ele>244.34534</ele>
        <time>2022-11-20T13:41:40.000Z</time>
      </trkpt>
      <trkpt lat="45.85427" lon="4.714">
        <ele>244.64571</ele>
        <time>2022-11-20T13:41:41.000Z</time>
      </trkpt>
      <trkpt lat="45.85423" lon="4.71403">
        <ele>244.92197</ele>
        <time>2022-11-20T13:41:42.000Z</time>
      </trkpt>
      <trkpt lat="45.8542" lon="4.71407">
        <ele>245.19351</ele>
        <time>2022-11-20T13:41:43.000Z</time>
      </trkpt>
      <trkpt lat="45.85416" lon="4.7141">
        <ele>245.45874</ele>
        <time>2022-11-20T13:41:44.000Z</time>
      </trkpt>
      <trkpt lat="45.85412" lon="4.71413">
        <ele>245.72852</ele>
        <time>2022-11-20T13:41:45.000Z</time>
      </trkpt>
      <trkpt lat="45.85408" lon="4.71417">
        <ele>245.97124</ele>
        <time>2022-11-20T13:41:46.000Z</time>
      </trkpt>
      <trkpt lat="45.85405" lon="4.71419">
        <ele>246.21353</ele>
        <time>2022-11-20T13:41:47.000Z</time>
      </trkpt>
      <trkpt lat="45.85399" lon="4.71422">
        <ele>246.42241</ele>
        <time>2022-11-20T13:41:48.000Z</time>
      </trkpt>
      <trkpt lat="45.85396" lon="4.71426">
        <ele>246.65633</ele>
        <time>2022-11-20T13:41:49.000Z</time>
      </trkpt>
      <trkpt lat="45.85393" lon="4.7143">
        <ele>246.89014</ele>
        <time>2022-11-20T13:41:50.000Z</time>
      </trkpt>
      <trkpt lat="45.85389" lon="4.71433">
        <ele>247.127</ele>
        <time>2022-11-20T13:41:51.000Z</time>
      </trkpt>
      <trkpt lat="45.85385" lon="4.71437">
        <ele>247.35591</ele>
        <time>2022-11-20T13:41:52.000Z</time>
      </trkpt>
      <trkpt lat="45.85381" lon="4.7144">
        <ele>247.54221</ele>
        <time>2022-11-20T13:41:53.000Z</time>
      </trkpt>
      <trkpt lat="45.85378" lon="4.71443">
        <ele>247.70358</ele>
        <time>2022-11-20T13:41:54.000Z</time>
      </trkpt>
      <trkpt lat="45.85375" lon="4.71446">
        <ele>247.8801</ele>
        <time>2022-11-20T13:41:55.000Z</time>
      </trkpt>
      <trkpt lat="45.85372" lon="4.71449">
        <ele>248.07077</ele>
        <time>2022-11-20T13:41:56.000Z</time>
      </trkpt>
      <trkpt lat="45.85367" lon="4.71452">
        <ele>248.24715</ele>
        <time>2022-11-20T13:41:57.000Z</time>
      </trkpt>
      <trkpt lat="45.85363" lon="4.71456">
        <ele>248.4146</ele>
        <time>2022-11-20T13:41:58.000Z</time>
      </trkpt>
      <trkpt lat="45.85359" lon="4.71458">
        <ele>248.59323</ele>
        <time>2022-11-20T13:41:59.000Z</time>
      </trkpt>
      <trkpt lat="45.85356" lon="4.71462">
        <ele>248.73882</ele>
        <time>2022-11-20T13:42:00.000Z</time>
      </trkpt>
      <trkpt lat="45.85352" lon="4.71465">
        <ele>249.02007</ele>
        <time>2022-11-20T13:42:01.000Z</time>
      </trkpt>
      <trkpt lat="45.85348" lon="4.71469">
        <ele>249.39461</ele>
        <time>2022-11-20T13:42:02.000Z</time>
      </trkpt>
      <trkpt lat="45.85345" lon="4.71474">
        <ele>249.49593</ele>
        <time>2022-11-20T13:42:03.000Z</time>
      </trkpt>
      <trkpt lat="45.85341" lon="4.71478">
        <ele>249.61343</ele>
        <time>2022-11-20T13:42:04.000Z</time>
      </trkpt>
      <trkpt lat="45.85339" lon="4.71481">
        <ele>249.76852</ele>
        <time>2022-11-20T13:42:05.000Z</time>
      </trkpt>
      <trkpt lat="45.85335" lon="4.71484">
        <ele>249.98067</ele>
        <time>2022-11-20T13:42:06.000Z</time>
      </trkpt>
      <trkpt lat="45.85331" lon="4.71488">
        <ele>250.15506</ele>
        <time>2022-11-20T13:42:07.000Z</time>
      </trkpt>
      <trkpt lat="45.85328" lon="4.71491">
        <ele>250.29675</ele>
        <time>2022-11-20T13:42:08.000Z</time>
      </trkpt>
      <trkpt lat="45.85323" lon="4.71494">
        <ele>250.33777</ele>
        <time>2022-11-20T13:42:09.000Z</time>
      </trkpt>
      <trkpt lat="45.85319" lon="4.71496">
        <ele>250.43929</ele>
        <time>2022-11-20T13:42:10.000Z</time>
      </trkpt>
      <trkpt lat="45.85315" lon="4.71499">
        <ele>250.495</ele>
        <time>2022-11-20T13:42:11.000Z</time>
      </trkpt>
      <trkpt lat="45.85311" lon="4.71502">
        <ele>250.51717</ele>
        <time>2022-11-20T13:42:12.000Z</time>
      </trkpt>
      <trkpt lat="45.85308" lon="4.71506">
        <ele>250.60254</ele>
        <time>2022-11-20T13:42:13.000Z</time>
      </trkpt>
      <trkpt lat="45.85304" lon="4.71509">
        <ele>250.72331</ele>
        <time>2022-11-20T13:42:14.000Z</time>
      </trkpt>
      <trkpt lat="45.853" lon="4.71512">
        <ele>250.78716</ele>
        <time>2022-11-20T13:42:15.000Z</time>
      </trkpt>
      <trkpt lat="45.85297" lon="4.71515">
        <ele>250.86873</ele>
        <time>2022-11-20T13:42:16.000Z</time>
      </trkpt>
      <trkpt lat="45.85294" lon="4.71519">
        <ele>250.99405</ele>
        <time>2022-11-20T13:42:17.000Z</time>
      </trkpt>
      <trkpt lat="45.85291" lon="4.71522">
        <ele>251.11983</ele>
        <time>2022-11-20T13:42:18.000Z</time>
      </trkpt>
      <trkpt lat="45.85288" lon="4.71525">
        <ele>251.18169</ele>
        <time>2022-11-20T13:42:19.000Z</time>
      </trkpt>
      <trkpt lat="45.85285" lon="4.71528">
        <ele>251.23784</ele>
        <time>2022-11-20T13:42:20.000Z</time>
      </trkpt>
      <trkpt lat="45.85281" lon="4.71531">
        <ele>251.12827</ele>
        <time>2022-11-20T13:42:21.000Z</time>
      </trkpt>
      <trkpt lat="45.85278" lon="4.71533">
        <ele>250.91394</ele>
        <time>2022-11-20T13:42:22.000Z</time>
      </trkpt>
      <trkpt lat="45.85275" lon="4.71536">
        <ele>250.97029</ele>
        <time>2022-11-20T13:42:23.000Z</time>
      </trkpt>
      <trkpt lat="45.85271" lon="4.71538">
        <ele>251.01152</ele>
        <time>2022-11-20T13:42:24.000Z</time>
      </trkpt>
      <trkpt lat="45.85267" lon="4.7154">
        <ele>251.00183</ele>
        <time>2022-11-20T13:42:25.000Z</time>
      </trkpt>
      <trkpt lat="45.85263" lon="4.71542">
        <ele>250.91028</ele>
        <time>2022-11-20T13:42:26.000Z</time>
      </trkpt>
      <trkpt lat="45.85259" lon="4.71544">
        <ele>250.82878</ele>
        <time>2022-11-20T13:42:27.000Z</time>
      </trkpt>
      <trkpt lat="45.85255" lon="4.71546">
        <ele>250.75497</ele>
        <time>2022-11-20T13:42:28.000Z</time>
      </trkpt>
      <trkpt lat="45.8525" lon="4.71548">
        <ele>250.73694</ele>
        <time>2022-11-20T13:42:29.000Z</time>
      </trkpt>
      <trkpt lat="45.85246" lon="4.71551">
        <ele>250.63509</ele>
        <time>2022-11-20T13:42:30.000Z</time>
      </trkpt>
      <trkpt lat="45.85242" lon="4.71553">
        <ele>250.56003</ele>
        <time>2022-11-20T13:42:31.000Z</time>
      </trkpt>
      <trkpt lat="45.85237" lon="4.71556">
        <ele>250.55159</ele>
        <time>2022-11-20T13:42:32.000Z</time>
      </trkpt>
      <trkpt lat="45.85232" lon="4.71558">
        <ele>250.47348</ele>
        <time>2022-11-20T13:42:33.000Z</time>
      </trkpt>
      <trkpt lat="45.85227" lon="4.71561">
        <ele>250.38042</ele>
        <time>2022-11-20T13:42:34.000Z</time>
      </trkpt>
      <trkpt lat="45.85222" lon="4.71563">
        <ele>250.28647</ele>
        <time>2022-11-20T13:42:35.000Z</time>
      </trkpt>
      <trkpt lat="45.85217" lon="4.71565">
        <ele>250.18033</ele>
        <time>2022-11-20T13:42:36.000Z</time>
      </trkpt>
      <trkpt lat="45.85212" lon="4.71567">
        <ele>250.0853</ele>
        <time>2022-11-20T13:42:37.000Z</time>
      </trkpt>
      <trkpt lat="45.85207" lon="4.71569">
        <ele>249.93985</ele>
        <time>2022-11-20T13:42:38.000Z</time>
      </trkpt>
      <trkpt lat="45.85202" lon="4.71571">
        <ele>249.84602</ele>
        <time>2022-11-20T13:42:39.000Z</time>
      </trkpt>
      <trkpt lat="45.85196" lon="4.71573">
        <ele>249.77226</ele>
        <time>2022-11-20T13:42:40.000Z</time>
      </trkpt>
      <trkpt lat="45.85192" lon="4.71576">
        <ele>249.83247</ele>
        <time>2022-11-20T13:42:41.000Z</time>
      </trkpt>
      <trkpt lat="45.85187" lon="4.71579">
        <ele>249.8912</ele>
        <time>2022-11-20T13:42:42.000Z</time>
      </trkpt>
      <trkpt lat="45.85182" lon="4.71581">
        <ele>249.93228</ele>
        <time>2022-11-20T13:42:43.000Z</time>
      </trkpt>
      <trkpt lat="45.85177" lon="4.71584">
        <ele>250.0518</ele>
        <time>2022-11-20T13:42:44.000Z</time>
      </trkpt>
      <trkpt lat="45.85172" lon="4.71585">
        <ele>250.19267</ele>
        <time>2022-11-20T13:42:45.000Z</time>
      </trkpt>
      <trkpt lat="45.85167" lon="4.71588">
        <ele>250.07397</ele>
        <time>2022-11-20T13:42:46.000Z</time>
      </trkpt>
      <trkpt lat="45.85161" lon="4.7159">
        <ele>250.03348</ele>
        <time>2022-11-20T13:42:47.000Z</time>
      </trkpt>
      <trkpt lat="45.85156" lon="4.71592">
        <ele>250.03792</ele>
        <time>2022-11-20T13:42:48.000Z</time>
      </trkpt>
      <trkpt lat="45.85151" lon="4.71594">
        <ele>250.0229</ele>
        <time>2022-11-20T13:42:49.000Z</time>
      </trkpt>
      <trkpt lat="45.85146" lon="4.71594">
        <ele>249.66745</ele>
        <time>2022-11-20T13:42:50.000Z</time>
      </trkpt>
      <trkpt lat="45.85141" lon="4.71596">
        <ele>249.31076</ele>
        <time>2022-11-20T13:42:51.000Z</time>
      </trkpt>
      <trkpt lat="45.85136" lon="4.71595">
        <ele>248.93176</ele>
        <time>2022-11-20T13:42:52.000Z</time>
      </trkpt>
      <trkpt lat="45.85131" lon="4.71595">
        <ele>248.59097</ele>
        <time>2022-11-20T13:42:53.000Z</time>
      </trkpt>
      <trkpt lat="45.85126" lon="4.71594">
        <ele>248.23999</ele>
        <time>2022-11-20T13:42:54.000Z</time>
      </trkpt>
      <trkpt lat="45.85121" lon="4.71593">
        <ele>247.94327</ele>
        <time>2022-11-20T13:42:55.000Z</time>
      </trkpt>
      <trkpt lat="45.85116" lon="4.71595">
        <ele>247.61499</ele>
        <time>2022-11-20T13:42:56.000Z</time>
      </trkpt>
      <trkpt lat="45.85112" lon="4.71597">
        <ele>247.2343</ele>
        <time>2022-11-20T13:42:57.000Z</time>
      </trkpt>
      <trkpt lat="45.85107" lon="4.71599">
        <ele>246.85437</ele>
        <time>2022-11-20T13:42:58.000Z</time>
      </trkpt>
      <trkpt lat="45.85103" lon="4.71603">
        <ele>246.53</ele>
        <time>2022-11-20T13:42:59.000Z</time>
      </trkpt>
      <trkpt lat="45.85099" lon="4.71606">
        <ele>246.20731</ele>
        <time>2022-11-20T13:43:00.000Z</time>
      </trkpt>
      <trkpt lat="45.85095" lon="4.7161">
        <ele>246.12349</ele>
        <time>2022-11-20T13:43:01.000Z</time>
      </trkpt>
      <trkpt lat="45.85091" lon="4.71613">
        <ele>246.09164</ele>
        <time>2022-11-20T13:43:02.000Z</time>
      </trkpt>
      <trkpt lat="45.85086" lon="4.71617">
        <ele>246.08025</ele>
        <time>2022-11-20T13:43:03.000Z</time>
      </trkpt>
      <trkpt lat="45.85082" lon="4.7162">
        <ele>246.00845</ele>
        <time>2022-11-20T13:43:04.000Z</time>
      </trkpt>
      <trkpt lat="45.85077" lon="4.71623">
        <ele>245.6456</ele>
        <time>2022-11-20T13:43:05.000Z</time>
      </trkpt>
      <trkpt lat="45.85072" lon="4.71625">
        <ele>245.61899</ele>
        <time>2022-11-20T13:43:06.000Z</time>
      </trkpt>
      <trkpt lat="45.85068" lon="4.71627">
        <ele>245.54874</ele>
        <time>2022-11-20T13:43:07.000Z</time>
      </trkpt>
      <trkpt lat="45.85063" lon="4.71629">
        <ele>245.50552</ele>
        <time>2022-11-20T13:43:08.000Z</time>
      </trkpt>
      <trkpt lat="45.85058" lon="4.7163">
        <ele>245.49776</ele>
        <time>2022-11-20T13:43:09.000Z</time>
      </trkpt>
      <trkpt lat="45.85054" lon="4.71632">
        <ele>245.8201</ele>
        <time>2022-11-20T13:43:10.000Z</time>
      </trkpt>
      <trkpt lat="45.8505" lon="4.71635">
        <ele>246.14218</ele>
        <time>2022-11-20T13:43:11.000Z</time>
      </trkpt>
      <trkpt lat="45.85046" lon="4.71638">
        <ele>246.43913</ele>
        <time>2022-11-20T13:43:12.000Z</time>
      </trkpt>
      <trkpt lat="45.85041" lon="4.7164">
        <ele>246.75688</ele>
        <time>2022-11-20T13:43:13.000Z</time>
      </trkpt>
      <trkpt lat="45.85036" lon="4.71643">
        <ele>247.09424</ele>
        <time>2022-11-20T13:43:14.000Z</time>
      </trkpt>
      <trkpt lat="45.85032" lon="4.71645">
        <ele>247.4187</ele>
        <time>2022-11-20T13:43:15.000Z</time>
      </trkpt>
      <trkpt lat="45.85027" lon="4.71646">
        <ele>247.78828</ele>
        <time>2022-11-20T13:43:16.000Z</time>
      </trkpt>
      <trkpt lat="45.85022" lon="4.71648">
        <ele>248.28159</ele>
        <time>2022-11-20T13:43:17.000Z</time>
      </trkpt>
      <trkpt lat="45.85018" lon="4.71651">
        <ele>248.8259</ele>
        <time>2022-11-20T13:43:18.000Z</time>
      </trkpt>
      <trkpt lat="45.85013" lon="4.71653">
        <ele>249.32703</ele>
        <time>2022-11-20T13:43:19.000Z</time>
      </trkpt>
      <trkpt lat="45.85009" lon="4.71654">
        <ele>249.83179</ele>
        <time>2022-11-20T13:43:20.000Z</time>
      </trkpt>
      <trkpt lat="45.85004" lon="4.71656">
        <ele>249.96831</ele>
        <time>2022-11-20T13:43:21.000Z</time>
      </trkpt>
      <trkpt lat="45.85" lon="4.71658">
        <ele>250.05801</ele>
        <time>2022-11-20T13:43:22.000Z</time>
      </trkpt>
      <trkpt lat="45.84996" lon="4.71661">
        <ele>250.14383</ele>
        <time>2022-11-20T13:43:23.000Z</time>
      </trkpt>
      <trkpt lat="45.84993" lon="4.71662">
        <ele>250.2021</ele>
        <time>2022-11-20T13:43:24.000Z</time>
      </trkpt>
      <trkpt lat="45.84989" lon="4.71663">
        <ele>250.60892</ele>
        <time>2022-11-20T13:43:25.000Z</time>
      </trkpt>
      <trkpt lat="45.84984" lon="4.71664">
        <ele>250.98666</ele>
        <time>2022-11-20T13:43:26.000Z</time>
      </trkpt>
      <trkpt lat="45.8498" lon="4.71665">
        <ele>251.11612</ele>
        <time>2022-11-20T13:43:27.000Z</time>
      </trkpt>
      <trkpt lat="45.84975" lon="4.71667">
        <ele>250.98245</ele>
        <time>2022-11-20T13:43:28.000Z</time>
      </trkpt>
      <trkpt lat="45.84972" lon="4.71668">
        <ele>250.83586</ele>
        <time>2022-11-20T13:43:29.000Z</time>
      </trkpt>
      <trkpt lat="45.84968" lon="4.71669">
        <ele>250.73457</ele>
        <time>2022-11-20T13:43:30.000Z</time>
      </trkpt>
      <trkpt lat="45.84964" lon="4.71669">
        <ele>250.63399</ele>
        <time>2022-11-20T13:43:31.000Z</time>
      </trkpt>
      <trkpt lat="45.84961" lon="4.71668">
        <ele>250.53125</ele>
        <time>2022-11-20T13:43:32.000Z</time>
      </trkpt>
      <trkpt lat="45.84957" lon="4.71668">
        <ele>250.41562</ele>
        <time>2022-11-20T13:43:33.000Z</time>
      </trkpt>
      <trkpt lat="45.84954" lon="4.71667">
        <ele>250.28629</ele>
        <time>2022-11-20T13:43:34.000Z</time>
      </trkpt>
      <trkpt lat="45.8495" lon="4.71666">
        <ele>250.17744</ele>
        <time>2022-11-20T13:43:35.000Z</time>
      </trkpt>
      <trkpt lat="45.84947" lon="4.71665">
        <ele>250.04172</ele>
        <time>2022-11-20T13:43:36.000Z</time>
      </trkpt>
      <trkpt lat="45.84943" lon="4.71664">
        <ele>249.8092</ele>
        <time>2022-11-20T13:43:37.000Z</time>
      </trkpt>
      <trkpt lat="45.84939" lon="4.71663">
        <ele>249.56917</ele>
        <time>2022-11-20T13:43:38.000Z</time>
      </trkpt>
      <trkpt lat="45.84936" lon="4.71662">
        <ele>249.34244</ele>
        <time>2022-11-20T13:43:39.000Z</time>
      </trkpt>
      <trkpt lat="45.84931" lon="4.71663">
        <ele>249.09795</ele>
        <time>2022-11-20T13:43:40.000Z</time>
      </trkpt>
      <trkpt lat="45.84928" lon="4.71663">
        <ele>248.88904</ele>
        <time>2022-11-20T13:43:41.000Z</time>
      </trkpt>
      <trkpt lat="45.84924" lon="4.71663">
        <ele>248.66489</ele>
        <time>2022-11-20T13:43:42.000Z</time>
      </trkpt>
      <trkpt lat="45.8492" lon="4.71663">
        <ele>248.43884</ele>
        <time>2022-11-20T13:43:43.000Z</time>
      </trkpt>
      <trkpt lat="45.84917" lon="4.71663">
        <ele>248.22334</ele>
        <time>2022-11-20T13:43:44.000Z</time>
      </trkpt>
      <trkpt lat="45.84913" lon="4.71663">
        <ele>247.94385</ele>
        <time>2022-11-20T13:43:45.000Z</time>
      </trkpt>
      <trkpt lat="45.84909" lon="4.71663">
        <ele>247.65967</ele>
        <time>2022-11-20T13:43:46.000Z</time>
      </trkpt>
      <trkpt lat="45.84906" lon="4.71664">
        <ele>247.61613</ele>
        <time>2022-11-20T13:43:47.000Z</time>
      </trkpt>
      <trkpt lat="45.84902" lon="4.71664">
        <ele>247.82356</ele>
        <time>2022-11-20T13:43:48.000Z</time>
      </trkpt>
      <trkpt lat="45.84898" lon="4.71665">
        <ele>248.01892</ele>
        <time>2022-11-20T13:43:49.000Z</time>
      </trkpt>
      <trkpt lat="45.84894" lon="4.71666">
        <ele>248.18637</ele>
        <time>2022-11-20T13:43:50.000Z</time>
      </trkpt>
      <trkpt lat="45.8489" lon="4.71667">
        <ele>248.30412</ele>
        <time>2022-11-20T13:43:51.000Z</time>
      </trkpt>
      <trkpt lat="45.84886" lon="4.71668">
        <ele>248.39566</ele>
        <time>2022-11-20T13:43:52.000Z</time>
      </trkpt>
      <trkpt lat="45.84883" lon="4.71669">
        <ele>248.48703</ele>
        <time>2022-11-20T13:43:53.000Z</time>
      </trkpt>
      <trkpt lat="45.84879" lon="4.71671">
        <ele>248.57187</ele>
        <time>2022-11-20T13:43:54.000Z</time>
      </trkpt>
      <trkpt lat="45.84875" lon="4.71672">
        <ele>248.64413</ele>
        <time>2022-11-20T13:43:55.000Z</time>
      </trkpt>
      <trkpt lat="45.84872" lon="4.71674">
        <ele>248.75046</ele>
        <time>2022-11-20T13:43:56.000Z</time>
      </trkpt>
      <trkpt lat="45.84868" lon="4.71676">
        <ele>248.82881</ele>
        <time>2022-11-20T13:43:57.000Z</time>
      </trkpt>
      <trkpt lat="45.84864" lon="4.71678">
        <ele>248.92966</ele>
        <time>2022-11-20T13:43:58.000Z</time>
      </trkpt>
      <trkpt lat="45.8486" lon="4.71681">
        <ele>250.23428</ele>
        <time>2022-11-20T13:43:59.000Z</time>
      </trkpt>
      <trkpt lat="45.84857" lon="4.71683">
        <ele>251.02844</ele>
        <time>2022-11-20T13:44:00.000Z</time>
      </trkpt>
      <trkpt lat="45.84852" lon="4.71686">
        <ele>251.90459</ele>
        <time>2022-11-20T13:44:01.000Z</time>
      </trkpt>
      <trkpt lat="45.84848" lon="4.71688">
        <ele>252.78024</ele>
        <time>2022-11-20T13:44:02.000Z</time>
      </trkpt>
      <trkpt lat="45.84844" lon="4.71691">
        <ele>253.64938</ele>
        <time>2022-11-20T13:44:03.000Z</time>
      </trkpt>
      <trkpt lat="45.84839" lon="4.71693">
        <ele>254.51282</ele>
        <time>2022-11-20T13:44:04.000Z</time>
      </trkpt>
      <trkpt lat="45.84834" lon="4.71695">
        <ele>255.3624</ele>
        <time>2022-11-20T13:44:05.000Z</time>
      </trkpt>
      <trkpt lat="45.8483" lon="4.71696">
        <ele>256.20511</ele>
        <time>2022-11-20T13:44:06.000Z</time>
      </trkpt>
      <trkpt lat="45.84825" lon="4.71699">
        <ele>257.05701</ele>
        <time>2022-11-20T13:44:07.000Z</time>
      </trkpt>
      <trkpt lat="45.84821" lon="4.71701">
        <ele>258.12622</ele>
        <time>2022-11-20T13:44:08.000Z</time>
      </trkpt>
      <trkpt lat="45.84817" lon="4.71705">
        <ele>259.22684</ele>
        <time>2022-11-20T13:44:09.000Z</time>
      </trkpt>
      <trkpt lat="45.84813" lon="4.71709">
        <ele>260.32568</ele>
        <time>2022-11-20T13:44:10.000Z</time>
      </trkpt>
      <trkpt lat="45.8481" lon="4.71711">
        <ele>261.02014</ele>
        <time>2022-11-20T13:44:11.000Z</time>
      </trkpt>
      <trkpt lat="45.84807" lon="4.71713">
        <ele>261.89349</ele>
        <time>2022-11-20T13:44:12.000Z</time>
      </trkpt>
      <trkpt lat="45.84803" lon="4.71716">
        <ele>262.60693</ele>
        <time>2022-11-20T13:44:13.000Z</time>
      </trkpt>
      <trkpt lat="45.84799" lon="4.71718">
        <ele>263.33249</ele>
        <time>2022-11-20T13:44:14.000Z</time>
      </trkpt>
      <trkpt lat="45.84795" lon="4.71721">
        <ele>264.05338</ele>
        <time>2022-11-20T13:44:15.000Z</time>
      </trkpt>
      <trkpt lat="45.84792" lon="4.71724">
        <ele>264.73724</ele>
        <time>2022-11-20T13:44:16.000Z</time>
      </trkpt>
      <trkpt lat="45.84788" lon="4.71727">
        <ele>265.4126</ele>
        <time>2022-11-20T13:44:17.000Z</time>
      </trkpt>
      <trkpt lat="45.84783" lon="4.71729">
        <ele>266.06284</ele>
        <time>2022-11-20T13:44:18.000Z</time>
      </trkpt>
      <trkpt lat="45.8478" lon="4.71733">
        <ele>265.45206</ele>
        <time>2022-11-20T13:44:19.000Z</time>
      </trkpt>
      <trkpt lat="45.84776" lon="4.71737">
        <ele>265.32736</ele>
        <time>2022-11-20T13:44:20.000Z</time>
      </trkpt>
      <trkpt lat="45.84771" lon="4.7174">
        <ele>265.11713</ele>
        <time>2022-11-20T13:44:21.000Z</time>
      </trkpt>
      <trkpt lat="45.84767" lon="4.71744">
        <ele>264.90765</ele>
        <time>2022-11-20T13:44:22.000Z</time>
      </trkpt>
      <trkpt lat="45.84762" lon="4.71747">
        <ele>264.69919</ele>
        <time>2022-11-20T13:44:23.000Z</time>
      </trkpt>
      <trkpt lat="45.84758" lon="4.7175">
        <ele>264.48663</ele>
        <time>2022-11-20T13:44:24.000Z</time>
      </trkpt>
      <trkpt lat="45.84753" lon="4.71753">
        <ele>264.27176</ele>
        <time>2022-11-20T13:44:25.000Z</time>
      </trkpt>
      <trkpt lat="45.84748" lon="4.71755">
        <ele>264.0705</ele>
        <time>2022-11-20T13:44:26.000Z</time>
      </trkpt>
      <trkpt lat="45.84743" lon="4.71758">
        <ele>263.83499</ele>
        <time>2022-11-20T13:44:27.000Z</time>
      </trkpt>
      <trkpt lat="45.84738" lon="4.7176">
        <ele>263.35138</ele>
        <time>2022-11-20T13:44:28.000Z</time>
      </trkpt>
      <trkpt lat="45.84734" lon="4.71763">
        <ele>262.8576</ele>
        <time>2022-11-20T13:44:29.000Z</time>
      </trkpt>
      <trkpt lat="45.84729" lon="4.71766">
        <ele>262.36127</ele>
        <time>2022-11-20T13:44:30.000Z</time>
      </trkpt>
      <trkpt lat="45.84724" lon="4.71767">
        <ele>262.30768</ele>
        <time>2022-11-20T13:44:31.000Z</time>
      </trkpt>
      <trkpt lat="45.8472" lon="4.71768">
        <ele>262.09521</ele>
        <time>2022-11-20T13:44:32.000Z</time>
      </trkpt>
      <trkpt lat="45.84715" lon="4.71771">
        <ele>262.0264</ele>
        <time>2022-11-20T13:44:33.000Z</time>
      </trkpt>
      <trkpt lat="45.8471" lon="4.71773">
        <ele>261.94739</ele>
        <time>2022-11-20T13:44:34.000Z</time>
      </trkpt>
      <trkpt lat="45.84706" lon="4.71774">
        <ele>261.86053</ele>
        <time>2022-11-20T13:44:35.000Z</time>
      </trkpt>
      <trkpt lat="45.84701" lon="4.71776">
        <ele>261.76456</ele>
        <time>2022-11-20T13:44:36.000Z</time>
      </trkpt>
      <trkpt lat="45.84696" lon="4.71779">
        <ele>262.13153</ele>
        <time>2022-11-20T13:44:37.000Z</time>
      </trkpt>
      <trkpt lat="45.84692" lon="4.71781">
        <ele>262.49969</ele>
        <time>2022-11-20T13:44:38.000Z</time>
      </trkpt>
      <trkpt lat="45.84687" lon="4.71783">
        <ele>262.92627</ele>
        <time>2022-11-20T13:44:39.000Z</time>
      </trkpt>
      <trkpt lat="45.84683" lon="4.71786">
        <ele>262.83136</ele>
        <time>2022-11-20T13:44:40.000Z</time>
      </trkpt>
      <trkpt lat="45.84678" lon="4.71788">
        <ele>262.72195</ele>
        <time>2022-11-20T13:44:41.000Z</time>
      </trkpt>
      <trkpt lat="45.84674" lon="4.7179">
        <ele>262.62897</ele>
        <time>2022-11-20T13:44:42.000Z</time>
      </trkpt>
      <trkpt lat="45.8467" lon="4.71793">
        <ele>262.52744</ele>
        <time>2022-11-20T13:44:43.000Z</time>
      </trkpt>
      <trkpt lat="45.84665" lon="4.71796">
        <ele>262.43027</ele>
        <time>2022-11-20T13:44:44.000Z</time>
      </trkpt>
      <trkpt lat="45.8466" lon="4.71798">
        <ele>262.32819</ele>
        <time>2022-11-20T13:44:45.000Z</time>
      </trkpt>
      <trkpt lat="45.84656" lon="4.71801">
        <ele>262.21539</ele>
        <time>2022-11-20T13:44:46.000Z</time>
      </trkpt>
      <trkpt lat="45.84651" lon="4.71803">
        <ele>262.0914</ele>
        <time>2022-11-20T13:44:47.000Z</time>
      </trkpt>
      <trkpt lat="45.84647" lon="4.71806">
        <ele>261.98172</ele>
        <time>2022-11-20T13:44:48.000Z</time>
      </trkpt>
      <trkpt lat="45.84642" lon="4.71809">
        <ele>261.85248</ele>
        <time>2022-11-20T13:44:49.000Z</time>
      </trkpt>
      <trkpt lat="45.84638" lon="4.71813">
        <ele>261.74384</ele>
        <time>2022-11-20T13:44:50.000Z</time>
      </trkpt>
      <trkpt lat="45.84634" lon="4.71815">
        <ele>261.65546</ele>
        <time>2022-11-20T13:44:51.000Z</time>
      </trkpt>
      <trkpt lat="45.8463" lon="4.71817">
        <ele>261.55627</ele>
        <time>2022-11-20T13:44:52.000Z</time>
      </trkpt>
      <trkpt lat="45.84625" lon="4.71819">
        <ele>261.48297</ele>
        <time>2022-11-20T13:44:53.000Z</time>
      </trkpt>
      <trkpt lat="45.84621" lon="4.71821">
        <ele>261.41925</ele>
        <time>2022-11-20T13:44:54.000Z</time>
      </trkpt>
      <trkpt lat="45.84617" lon="4.71823">
        <ele>261.36758</ele>
        <time>2022-11-20T13:44:55.000Z</time>
      </trkpt>
      <trkpt lat="45.84611" lon="4.71826">
        <ele>261.34027</ele>
        <time>2022-11-20T13:44:56.000Z</time>
      </trkpt>
      <trkpt lat="45.84607" lon="4.71828">
        <ele>260.86465</ele>
        <time>2022-11-20T13:44:57.000Z</time>
      </trkpt>
      <trkpt lat="45.84603" lon="4.7183">
        <ele>260.17261</ele>
        <time>2022-11-20T13:44:58.000Z</time>
      </trkpt>
      <trkpt lat="45.84599" lon="4.71833">
        <ele>259.55951</ele>
        <time>2022-11-20T13:44:59.000Z</time>
      </trkpt>
      <trkpt lat="45.84595" lon="4.71835">
        <ele>259.59576</ele>
        <time>2022-11-20T13:45:00.000Z</time>
      </trkpt>
      <trkpt lat="45.84591" lon="4.71837">
        <ele>259.1427</ele>
        <time>2022-11-20T13:45:01.000Z</time>
      </trkpt>
      <trkpt lat="45.84587" lon="4.7184">
        <ele>258.68726</ele>
        <time>2022-11-20T13:45:02.000Z</time>
      </trkpt>
      <trkpt lat="45.84583" lon="4.71842">
        <ele>258.25458</ele>
        <time>2022-11-20T13:45:03.000Z</time>
      </trkpt>
      <trkpt lat="45.8458" lon="4.71845">
        <ele>257.81921</ele>
        <time>2022-11-20T13:45:04.000Z</time>
      </trkpt>
      <trkpt lat="45.84576" lon="4.71848">
        <ele>257.40469</ele>
        <time>2022-11-20T13:45:05.000Z</time>
      </trkpt>
      <trkpt lat="45.84572" lon="4.7185">
        <ele>256.96426</ele>
        <time>2022-11-20T13:45:06.000Z</time>
      </trkpt>
      <trkpt lat="45.84568" lon="4.71853">
        <ele>256.57788</ele>
        <time>2022-11-20T13:45:07.000Z</time>
      </trkpt>
      <trkpt lat="45.84564" lon="4.71856">
        <ele>256.19202</ele>
        <time>2022-11-20T13:45:08.000Z</time>
      </trkpt>
      <trkpt lat="45.8456" lon="4.71858">
        <ele>255.81229</ele>
        <time>2022-11-20T13:45:09.000Z</time>
      </trkpt>
      <trkpt lat="45.84556" lon="4.7186">
        <ele>255.4272</ele>
        <time>2022-11-20T13:45:10.000Z</time>
      </trkpt>
      <trkpt lat="45.84551" lon="4.71862">
        <ele>255.03914</ele>
        <time>2022-11-20T13:45:11.000Z</time>
      </trkpt>
      <trkpt lat="45.84548" lon="4.71865">
        <ele>254.65279</ele>
        <time>2022-11-20T13:45:12.000Z</time>
      </trkpt>
      <trkpt lat="45.84544" lon="4.71868">
        <ele>254.2767</ele>
        <time>2022-11-20T13:45:13.000Z</time>
      </trkpt>
      <trkpt lat="45.8454" lon="4.7187">
        <ele>253.93283</ele>
        <time>2022-11-20T13:45:14.000Z</time>
      </trkpt>
      <trkpt lat="45.84536" lon="4.71873">
        <ele>254.40952</ele>
        <time>2022-11-20T13:45:15.000Z</time>
      </trkpt>
      <trkpt lat="45.84533" lon="4.71876">
        <ele>254.89204</ele>
        <time>2022-11-20T13:45:16.000Z</time>
      </trkpt>
      <trkpt lat="45.84529" lon="4.71879">
        <ele>255.39507</ele>
        <time>2022-11-20T13:45:17.000Z</time>
      </trkpt>
      <trkpt lat="45.84527" lon="4.71882">
        <ele>256.10565</ele>
        <time>2022-11-20T13:45:18.000Z</time>
      </trkpt>
      <trkpt lat="45.84523" lon="4.71885">
        <ele>256.7066</ele>
        <time>2022-11-20T13:45:19.000Z</time>
      </trkpt>
      <trkpt lat="45.8452" lon="4.71888">
        <ele>257.20612</ele>
        <time>2022-11-20T13:45:20.000Z</time>
      </trkpt>
      <trkpt lat="45.84517" lon="4.71891">
        <ele>258.1962</ele>
        <time>2022-11-20T13:45:21.000Z</time>
      </trkpt>
      <trkpt lat="45.84513" lon="4.71894">
        <ele>259.20013</ele>
        <time>2022-11-20T13:45:22.000Z</time>
      </trkpt>
      <trkpt lat="45.8451" lon="4.71897">
        <ele>260.19388</ele>
        <time>2022-11-20T13:45:23.000Z</time>
      </trkpt>
      <trkpt lat="45.84506" lon="4.719">
        <ele>261.18573</ele>
        <time>2022-11-20T13:45:24.000Z</time>
      </trkpt>
      <trkpt lat="45.84503" lon="4.71903">
        <ele>262.18378</ele>
        <time>2022-11-20T13:45:25.000Z</time>
      </trkpt>
      <trkpt lat="45.845" lon="4.71906">
        <ele>263.20853</ele>
        <time>2022-11-20T13:45:26.000Z</time>
      </trkpt>
      <trkpt lat="45.84496" lon="4.71909">
        <ele>264.18417</ele>
        <time>2022-11-20T13:45:27.000Z</time>
      </trkpt>
      <trkpt lat="45.84493" lon="4.71912">
        <ele>265.13116</ele>
        <time>2022-11-20T13:45:28.000Z</time>
      </trkpt>
      <trkpt lat="45.8449" lon="4.71915">
        <ele>266.09384</ele>
        <time>2022-11-20T13:45:29.000Z</time>
      </trkpt>
      <trkpt lat="45.84486" lon="4.71918">
        <ele>267.04449</ele>
        <time>2022-11-20T13:45:30.000Z</time>
      </trkpt>
      <trkpt lat="45.84482" lon="4.7192">
        <ele>267.98923</ele>
        <time>2022-11-20T13:45:31.000Z</time>
      </trkpt>
      <trkpt lat="45.84479" lon="4.71923">
        <ele>268.94904</ele>
        <time>2022-11-20T13:45:32.000Z</time>
      </trkpt>
      <trkpt lat="45.84475" lon="4.71925">
        <ele>269.87518</ele>
        <time>2022-11-20T13:45:33.000Z</time>
      </trkpt>
      <trkpt lat="45.84471" lon="4.71927">
        <ele>270.75906</ele>
        <time>2022-11-20T13:45:34.000Z</time>
      </trkpt>
      <trkpt lat="45.84467" lon="4.71929">
        <ele>270.81805</ele>
        <time>2022-11-20T13:45:35.000Z</time>
      </trkpt>
      <trkpt lat="45.84463" lon="4.71931">
        <ele>270.86325</ele>
        <time>2022-11-20T13:45:36.000Z</time>
      </trkpt>
      <trkpt lat="45.8446" lon="4.71932">
        <ele>270.89301</ele>
        <time>2022-11-20T13:45:37.000Z</time>
      </trkpt>
      <trkpt lat="45.84456" lon="4.71933">
        <ele>270.93076</ele>
        <time>2022-11-20T13:45:38.000Z</time>
      </trkpt>
      <trkpt lat="45.84452" lon="4.71934">
        <ele>270.99127</ele>
        <time>2022-11-20T13:45:39.000Z</time>
      </trkpt>
      <trkpt lat="45.84448" lon="4.71935">
        <ele>271.05823</ele>
        <time>2022-11-20T13:45:40.000Z</time>
      </trkpt>
      <trkpt lat="45.84445" lon="4.71936">
        <ele>271.10828</ele>
        <time>2022-11-20T13:45:41.000Z</time>
      </trkpt>
      <trkpt lat="45.84441" lon="4.71937">
        <ele>270.26721</ele>
        <time>2022-11-20T13:45:42.000Z</time>
      </trkpt>
      <trkpt lat="45.84437" lon="4.71938">
        <ele>269.44638</ele>
        <time>2022-11-20T13:45:43.000Z</time>
      </trkpt>
      <trkpt lat="45.84433" lon="4.71939">
        <ele>268.63797</ele>
        <time>2022-11-20T13:45:44.000Z</time>
      </trkpt>
      <trkpt lat="45.84429" lon="4.7194">
        <ele>267.82697</ele>
        <time>2022-11-20T13:45:45.000Z</time>
      </trkpt>
      <trkpt lat="45.84426" lon="4.7194">
        <ele>266.98953</ele>
        <time>2022-11-20T13:45:46.000Z</time>
      </trkpt>
      <trkpt lat="45.84423" lon="4.7194">
        <ele>266.16364</ele>
        <time>2022-11-20T13:45:47.000Z</time>
      </trkpt>
      <trkpt lat="45.8442" lon="4.71941">
        <ele>265.3714</ele>
        <time>2022-11-20T13:45:48.000Z</time>
      </trkpt>
      <trkpt lat="45.84417" lon="4.71942">
        <ele>264.55301</ele>
        <time>2022-11-20T13:45:49.000Z</time>
      </trkpt>
      <trkpt lat="45.84413" lon="4.71943">
        <ele>263.73169</ele>
        <time>2022-11-20T13:45:50.000Z</time>
      </trkpt>
      <trkpt lat="45.84409" lon="4.71944">
        <ele>262.91876</ele>
        <time>2022-11-20T13:45:51.000Z</time>
      </trkpt>
      <trkpt lat="45.84406" lon="4.71946">
        <ele>262.07953</ele>
        <time>2022-11-20T13:45:52.000Z</time>
      </trkpt>
      <trkpt lat="45.84402" lon="4.71948">
        <ele>261.63361</ele>
        <time>2022-11-20T13:45:53.000Z</time>
      </trkpt>
      <trkpt lat="45.84398" lon="4.71949">
        <ele>261.1868</ele>
        <time>2022-11-20T13:45:54.000Z</time>
      </trkpt>
      <trkpt lat="45.84395" lon="4.71951">
        <ele>260.34912</ele>
        <time>2022-11-20T13:45:55.000Z</time>
      </trkpt>
      <trkpt lat="45.84391" lon="4.71953">
        <ele>259.51202</ele>
        <time>2022-11-20T13:45:56.000Z</time>
      </trkpt>
      <trkpt lat="45.84387" lon="4.71955">
        <ele>258.74963</ele>
        <time>2022-11-20T13:45:57.000Z</time>
      </trkpt>
      <trkpt lat="45.84383" lon="4.71956">
        <ele>257.99274</ele>
        <time>2022-11-20T13:45:58.000Z</time>
      </trkpt>
      <trkpt lat="45.84379" lon="4.71957">
        <ele>257.23318</ele>
        <time>2022-11-20T13:45:59.000Z</time>
      </trkpt>
      <trkpt lat="45.84375" lon="4.71959">
        <ele>256.51489</ele>
        <time>2022-11-20T13:46:00.000Z</time>
      </trkpt>
      <trkpt lat="45.84371" lon="4.7196">
        <ele>255.80083</ele>
        <time>2022-11-20T13:46:01.000Z</time>
      </trkpt>
      <trkpt lat="45.84367" lon="4.71961">
        <ele>255.94756</ele>
        <time>2022-11-20T13:46:02.000Z</time>
      </trkpt>
      <trkpt lat="45.84364" lon="4.71962">
        <ele>256.08832</ele>
        <time>2022-11-20T13:46:03.000Z</time>
      </trkpt>
      <trkpt lat="45.84361" lon="4.71962">
        <ele>257.28534</ele>
        <time>2022-11-20T13:46:04.000Z</time>
      </trkpt>
      <trkpt lat="45.84357" lon="4.71963">
        <ele>258.45709</ele>
        <time>2022-11-20T13:46:05.000Z</time>
      </trkpt>
      <trkpt lat="45.84353" lon="4.71964">
        <ele>258.57541</ele>
        <time>2022-11-20T13:46:06.000Z</time>
      </trkpt>
      <trkpt lat="45.8435" lon="4.71964">
        <ele>258.69373</ele>
        <time>2022-11-20T13:46:07.000Z</time>
      </trkpt>
      <trkpt lat="45.84347" lon="4.71965">
        <ele>258.79132</ele>
        <time>2022-11-20T13:46:08.000Z</time>
      </trkpt>
      <trkpt lat="45.84343" lon="4.71966">
        <ele>258.8873</ele>
        <time>2022-11-20T13:46:09.000Z</time>
      </trkpt>
      <trkpt lat="45.8434" lon="4.71967">
        <ele>259.08295</ele>
        <time>2022-11-20T13:46:10.000Z</time>
      </trkpt>
      <trkpt lat="45.84336" lon="4.71969">
        <ele>259.25644</ele>
        <time>2022-11-20T13:46:11.000Z</time>
      </trkpt>
      <trkpt lat="45.84333" lon="4.7197">
        <ele>259.45963</ele>
        <time>2022-11-20T13:46:12.000Z</time>
      </trkpt>
      <trkpt lat="45.84329" lon="4.71972">
        <ele>259.2872</ele>
        <time>2022-11-20T13:46:13.000Z</time>
      </trkpt>
      <trkpt lat="45.84325" lon="4.71974">
        <ele>259.12317</ele>
        <time>2022-11-20T13:46:14.000Z</time>
      </trkpt>
      <trkpt lat="45.84322" lon="4.71975">
        <ele>259.35782</ele>
        <time>2022-11-20T13:46:15.000Z</time>
      </trkpt>
      <trkpt lat="45.84318" lon="4.71977">
        <ele>259.58032</ele>
        <time>2022-11-20T13:46:16.000Z</time>
      </trkpt>
      <trkpt lat="45.84314" lon="4.71978">
        <ele>259.74332</ele>
        <time>2022-11-20T13:46:17.000Z</time>
      </trkpt>
      <trkpt lat="45.84311" lon="4.7198">
        <ele>259.85382</ele>
        <time>2022-11-20T13:46:18.000Z</time>
      </trkpt>
      <trkpt lat="45.84308" lon="4.71982">
        <ele>259.92151</ele>
        <time>2022-11-20T13:46:19.000Z</time>
      </trkpt>
      <trkpt lat="45.84304" lon="4.71984">
        <ele>259.95154</ele>
        <time>2022-11-20T13:46:20.000Z</time>
      </trkpt>
      <trkpt lat="45.843" lon="4.71985">
        <ele>260.00305</ele>
        <time>2022-11-20T13:46:21.000Z</time>
      </trkpt>
      <trkpt lat="45.84297" lon="4.71987">
        <ele>260.18661</ele>
        <time>2022-11-20T13:46:22.000Z</time>
      </trkpt>
      <trkpt lat="45.84294" lon="4.71988">
        <ele>260.23297</ele>
        <time>2022-11-20T13:46:23.000Z</time>
      </trkpt>
      <trkpt lat="45.8429" lon="4.7199">
        <ele>259.31744</ele>
        <time>2022-11-20T13:46:24.000Z</time>
      </trkpt>
      <trkpt lat="45.84287" lon="4.71992">
        <ele>258.42206</ele>
        <time>2022-11-20T13:46:25.000Z</time>
      </trkpt>
      <trkpt lat="45.84285" lon="4.71995">
        <ele>258.60818</ele>
        <time>2022-11-20T13:46:26.000Z</time>
      </trkpt>
      <trkpt lat="45.84282" lon="4.71997">
        <ele>258.79538</ele>
        <time>2022-11-20T13:46:27.000Z</time>
      </trkpt>
      <trkpt lat="45.84279" lon="4.71999">
        <ele>258.9921</ele>
        <time>2022-11-20T13:46:28.000Z</time>
      </trkpt>
      <trkpt lat="45.84276" lon="4.72001">
        <ele>259.21738</ele>
        <time>2022-11-20T13:46:29.000Z</time>
      </trkpt>
      <trkpt lat="45.84273" lon="4.72003">
        <ele>259.3468</ele>
        <time>2022-11-20T13:46:30.000Z</time>
      </trkpt>
      <trkpt lat="45.84269" lon="4.72005">
        <ele>259.48529</ele>
        <time>2022-11-20T13:46:31.000Z</time>
      </trkpt>
      <trkpt lat="45.84266" lon="4.72007">
        <ele>259.62982</ele>
        <time>2022-11-20T13:46:32.000Z</time>
      </trkpt>
      <trkpt lat="45.84263" lon="4.72009">
        <ele>259.76477</ele>
        <time>2022-11-20T13:46:33.000Z</time>
      </trkpt>
      <trkpt lat="45.8426" lon="4.72011">
        <ele>259.89633</ele>
        <time>2022-11-20T13:46:34.000Z</time>
      </trkpt>
      <trkpt lat="45.84256" lon="4.72013">
        <ele>260.01968</ele>
        <time>2022-11-20T13:46:35.000Z</time>
      </trkpt>
      <trkpt lat="45.84253" lon="4.72014">
        <ele>260.16489</ele>
        <time>2022-11-20T13:46:36.000Z</time>
      </trkpt>
      <trkpt lat="45.8425" lon="4.72015">
        <ele>260.30014</ele>
        <time>2022-11-20T13:46:37.000Z</time>
      </trkpt>
      <trkpt lat="45.84247" lon="4.72017">
        <ele>260.50134</ele>
        <time>2022-11-20T13:46:38.000Z</time>
      </trkpt>
      <trkpt lat="45.84245" lon="4.72018">
        <ele>260.76248</ele>
        <time>2022-11-20T13:46:39.000Z</time>
      </trkpt>
      <trkpt lat="45.84242" lon="4.7202">
        <ele>261.03494</ele>
        <time>2022-11-20T13:46:40.000Z</time>
      </trkpt>
      <trkpt lat="45.8424" lon="4.72021">
        <ele>261.29877</ele>
        <time>2022-11-20T13:46:41.000Z</time>
      </trkpt>
      <trkpt lat="45.84237" lon="4.72023">
        <ele>261.43777</ele>
        <time>2022-11-20T13:46:42.000Z</time>
      </trkpt>
      <trkpt lat="45.84234" lon="4.72025">
        <ele>261.71927</ele>
        <time>2022-11-20T13:46:43.000Z</time>
      </trkpt>
      <trkpt lat="45.84232" lon="4.72026">
        <ele>261.90323</ele>
        <time>2022-11-20T13:46:44.000Z</time>
      </trkpt>
      <trkpt lat="45.84229" lon="4.72027">
        <ele>262.05838</ele>
        <time>2022-11-20T13:46:45.000Z</time>
      </trkpt>
      <trkpt lat="45.84225" lon="4.72028">
        <ele>262.20401</ele>
        <time>2022-11-20T13:46:46.000Z</time>
      </trkpt>
      <trkpt lat="45.84222" lon="4.72029">
        <ele>262.37189</ele>
        <time>2022-11-20T13:46:47.000Z</time>
      </trkpt>
      <trkpt lat="45.84219" lon="4.72031">
        <ele>263.21872</ele>
        <time>2022-11-20T13:46:48.000Z</time>
      </trkpt>
      <trkpt lat="45.84217" lon="4.72033">
        <ele>264.05652</ele>
        <time>2022-11-20T13:46:49.000Z</time>
      </trkpt>
      <trkpt lat="45.84214" lon="4.72035">
        <ele>264.89758</ele>
        <time>2022-11-20T13:46:50.000Z</time>
      </trkpt>
      <trkpt lat="45.84211" lon="4.72037">
        <ele>265.75021</ele>
        <time>2022-11-20T13:46:51.000Z</time>
      </trkpt>
      <trkpt lat="45.84208" lon="4.7204">
        <ele>266.60114</ele>
        <time>2022-11-20T13:46:52.000Z</time>
      </trkpt>
      <trkpt lat="45.84205" lon="4.72042">
        <ele>267.42941</ele>
        <time>2022-11-20T13:46:53.000Z</time>
      </trkpt>
      <trkpt lat="45.84201" lon="4.72045">
        <ele>268.27621</ele>
        <time>2022-11-20T13:46:54.000Z</time>
      </trkpt>
      <trkpt lat="45.84198" lon="4.72048">
        <ele>269.13275</ele>
        <time>2022-11-20T13:46:55.000Z</time>
      </trkpt>
      <trkpt lat="45.84195" lon="4.72051">
        <ele>269.97076</ele>
        <time>2022-11-20T13:46:56.000Z</time>
      </trkpt>
      <trkpt lat="45.84192" lon="4.72054">
        <ele>270.79962</ele>
        <time>2022-11-20T13:46:57.000Z</time>
      </trkpt>
      <trkpt lat="45.84188" lon="4.72057">
        <ele>271.61462</ele>
        <time>2022-11-20T13:46:58.000Z</time>
      </trkpt>
      <trkpt lat="45.84185" lon="4.72059">
        <ele>272.40094</ele>
        <time>2022-11-20T13:46:59.000Z</time>
      </trkpt>
      <trkpt lat="45.84182" lon="4.72062">
        <ele>273.29083</ele>
        <time>2022-11-20T13:47:00.000Z</time>
      </trkpt>
      <trkpt lat="45.84179" lon="4.72066">
        <ele>274.38983</ele>
        <time>2022-11-20T13:47:01.000Z</time>
      </trkpt>
      <trkpt lat="45.84175" lon="4.72069">
        <ele>275.49094</ele>
        <time>2022-11-20T13:47:02.000Z</time>
      </trkpt>
      <trkpt lat="45.84172" lon="4.72073">
        <ele>276.57773</ele>
        <time>2022-11-20T13:47:03.000Z</time>
      </trkpt>
      <trkpt lat="45.84169" lon="4.72076">
        <ele>277.66165</ele>
        <time>2022-11-20T13:47:04.000Z</time>
      </trkpt>
      <trkpt lat="45.84166" lon="4.72079">
        <ele>278.75217</ele>
        <time>2022-11-20T13:47:05.000Z</time>
      </trkpt>
      <trkpt lat="45.84162" lon="4.72082">
        <ele>279.85202</ele>
        <time>2022-11-20T13:47:06.000Z</time>
      </trkpt>
      <trkpt lat="45.84159" lon="4.72085">
        <ele>280.92862</ele>
        <time>2022-11-20T13:47:07.000Z</time>
      </trkpt>
      <trkpt lat="45.84156" lon="4.72088">
        <ele>281.33539</ele>
        <time>2022-11-20T13:47:08.000Z</time>
      </trkpt>
      <trkpt lat="45.84153" lon="4.72091">
        <ele>281.09814</ele>
        <time>2022-11-20T13:47:09.000Z</time>
      </trkpt>
      <trkpt lat="45.84151" lon="4.72094">
        <ele>280.8714</ele>
        <time>2022-11-20T13:47:10.000Z</time>
      </trkpt>
      <trkpt lat="45.84148" lon="4.72095">
        <ele>281.29669</ele>
        <time>2022-11-20T13:47:11.000Z</time>
      </trkpt>
      <trkpt lat="45.84145" lon="4.72098">
        <ele>281.71033</ele>
        <time>2022-11-20T13:47:12.000Z</time>
      </trkpt>
      <trkpt lat="45.84143" lon="4.721">
        <ele>282.13147</ele>
        <time>2022-11-20T13:47:13.000Z</time>
      </trkpt>
      <trkpt lat="45.84141" lon="4.72103">
        <ele>282.51895</ele>
        <time>2022-11-20T13:47:14.000Z</time>
      </trkpt>
      <trkpt lat="45.84138" lon="4.72106">
        <ele>282.89514</ele>
        <time>2022-11-20T13:47:15.000Z</time>
      </trkpt>
      <trkpt lat="45.84136" lon="4.72108">
        <ele>283.27237</ele>
        <time>2022-11-20T13:47:16.000Z</time>
      </trkpt>
      <trkpt lat="45.84133" lon="4.72111">
        <ele>283.65237</ele>
        <time>2022-11-20T13:47:17.000Z</time>
      </trkpt>
      <trkpt lat="45.8413" lon="4.72113">
        <ele>284.0253</ele>
        <time>2022-11-20T13:47:18.000Z</time>
      </trkpt>
      <trkpt lat="45.84128" lon="4.72116">
        <ele>284.11688</ele>
        <time>2022-11-20T13:47:19.000Z</time>
      </trkpt>
      <trkpt lat="45.84125" lon="4.72118">
        <ele>284.215</ele>
        <time>2022-11-20T13:47:20.000Z</time>
      </trkpt>
      <trkpt lat="45.84123" lon="4.72119">
        <ele>284.09689</ele>
        <time>2022-11-20T13:47:21.000Z</time>
      </trkpt>
      <trkpt lat="45.8412" lon="4.72121">
        <ele>283.96735</ele>
        <time>2022-11-20T13:47:22.000Z</time>
      </trkpt>
      <trkpt lat="45.84117" lon="4.72123">
        <ele>283.83624</ele>
        <time>2022-11-20T13:47:23.000Z</time>
      </trkpt>
      <trkpt lat="45.84114" lon="4.72124">
        <ele>283.67453</ele>
        <time>2022-11-20T13:47:24.000Z</time>
      </trkpt>
      <trkpt lat="45.8411" lon="4.72126">
        <ele>283.52414</ele>
        <time>2022-11-20T13:47:25.000Z</time>
      </trkpt>
      <trkpt lat="45.84107" lon="4.72127">
        <ele>283.37335</ele>
        <time>2022-11-20T13:47:26.000Z</time>
      </trkpt>
      <trkpt lat="45.84104" lon="4.72129">
        <ele>283.2193</ele>
        <time>2022-11-20T13:47:27.000Z</time>
      </trkpt>
      <trkpt lat="45.841" lon="4.72132">
        <ele>283.08673</ele>
        <time>2022-11-20T13:47:28.000Z</time>
      </trkpt>
      <trkpt lat="45.84097" lon="4.72134">
        <ele>283.57953</ele>
        <time>2022-11-20T13:47:29.000Z</time>
      </trkpt>
      <trkpt lat="45.84093" lon="4.72137">
        <ele>284.06158</ele>
        <time>2022-11-20T13:47:30.000Z</time>
      </trkpt>
      <trkpt lat="45.84089" lon="4.72139">
        <ele>284.04688</ele>
        <time>2022-11-20T13:47:31.000Z</time>
      </trkpt>
      <trkpt lat="45.84086" lon="4.72141">
        <ele>284.02151</ele>
        <time>2022-11-20T13:47:32.000Z</time>
      </trkpt>
      <trkpt lat="45.84082" lon="4.72144">
        <ele>283.99753</ele>
        <time>2022-11-20T13:47:33.000Z</time>
      </trkpt>
      <trkpt lat="45.84078" lon="4.72146">
        <ele>283.98956</ele>
        <time>2022-11-20T13:47:34.000Z</time>
      </trkpt>
      <trkpt lat="45.84074" lon="4.72149">
        <ele>283.99615</ele>
        <time>2022-11-20T13:47:35.000Z</time>
      </trkpt>
      <trkpt lat="45.84071" lon="4.72151">
        <ele>283.98724</ele>
        <time>2022-11-20T13:47:36.000Z</time>
      </trkpt>
      <trkpt lat="45.84067" lon="4.72154">
        <ele>283.97351</ele>
        <time>2022-11-20T13:47:37.000Z</time>
      </trkpt>
      <trkpt lat="45.84063" lon="4.72156">
        <ele>283.9675</ele>
        <time>2022-11-20T13:47:38.000Z</time>
      </trkpt>
      <trkpt lat="45.84059" lon="4.72159">
        <ele>284.25281</ele>
        <time>2022-11-20T13:47:39.000Z</time>
      </trkpt>
      <trkpt lat="45.84055" lon="4.72161">
        <ele>284.39117</ele>
        <time>2022-11-20T13:47:40.000Z</time>
      </trkpt>
      <trkpt lat="45.84051" lon="4.72163">
        <ele>284.52856</ele>
        <time>2022-11-20T13:47:41.000Z</time>
      </trkpt>
      <trkpt lat="45.84047" lon="4.72165">
        <ele>284.77145</ele>
        <time>2022-11-20T13:47:42.000Z</time>
      </trkpt>
      <trkpt lat="45.84042" lon="4.72167">
        <ele>284.99881</ele>
        <time>2022-11-20T13:47:43.000Z</time>
      </trkpt>
      <trkpt lat="45.84038" lon="4.72167">
        <ele>285.24826</ele>
        <time>2022-11-20T13:47:44.000Z</time>
      </trkpt>
      <trkpt lat="45.84034" lon="4.72168">
        <ele>285.13474</ele>
        <time>2022-11-20T13:47:45.000Z</time>
      </trkpt>
      <trkpt lat="45.8403" lon="4.72168">
        <ele>285.07642</ele>
        <time>2022-11-20T13:47:46.000Z</time>
      </trkpt>
      <trkpt lat="45.84026" lon="4.72168">
        <ele>285.02765</ele>
        <time>2022-11-20T13:47:47.000Z</time>
      </trkpt>
      <trkpt lat="45.84022" lon="4.72168">
        <ele>284.94656</ele>
        <time>2022-11-20T13:47:48.000Z</time>
      </trkpt>
      <trkpt lat="45.84019" lon="4.72167">
        <ele>284.88147</ele>
        <time>2022-11-20T13:47:49.000Z</time>
      </trkpt>
      <trkpt lat="45.84015" lon="4.72167">
        <ele>284.78546</ele>
        <time>2022-11-20T13:47:50.000Z</time>
      </trkpt>
      <trkpt lat="45.84012" lon="4.72166">
        <ele>284.55826</ele>
        <time>2022-11-20T13:47:51.000Z</time>
      </trkpt>
      <trkpt lat="45.84008" lon="4.72166">
        <ele>284.341</ele>
        <time>2022-11-20T13:47:52.000Z</time>
      </trkpt>
      <trkpt lat="45.84005" lon="4.72167">
        <ele>284.1192</ele>
        <time>2022-11-20T13:47:53.000Z</time>
      </trkpt>
      <trkpt lat="45.84002" lon="4.72167">
        <ele>283.04483</ele>
        <time>2022-11-20T13:47:54.000Z</time>
      </trkpt>
      <trkpt lat="45.83999" lon="4.72168">
        <ele>281.91479</ele>
        <time>2022-11-20T13:47:55.000Z</time>
      </trkpt>
      <trkpt lat="45.83996" lon="4.72168">
        <ele>280.7861</ele>
        <time>2022-11-20T13:47:56.000Z</time>
      </trkpt>
      <trkpt lat="45.83993" lon="4.72169">
        <ele>280.71234</ele>
        <time>2022-11-20T13:47:57.000Z</time>
      </trkpt>
      <trkpt lat="45.83991" lon="4.72169">
        <ele>280.75623</ele>
        <time>2022-11-20T13:47:58.000Z</time>
      </trkpt>
      <trkpt lat="45.83988" lon="4.72168">
        <ele>280.42853</ele>
        <time>2022-11-20T13:47:59.000Z</time>
      </trkpt>
      <trkpt lat="45.83986" lon="4.72168">
        <ele>280.17123</ele>
        <time>2022-11-20T13:48:00.000Z</time>
      </trkpt>
      <trkpt lat="45.83983" lon="4.72167">
        <ele>279.94693</ele>
        <time>2022-11-20T13:48:01.000Z</time>
      </trkpt>
      <trkpt lat="45.83981" lon="4.72167">
        <ele>279.62558</ele>
        <time>2022-11-20T13:48:02.000Z</time>
      </trkpt>
      <trkpt lat="45.83978" lon="4.72167">
        <ele>279.3309</ele>
        <time>2022-11-20T13:48:03.000Z</time>
      </trkpt>
      <trkpt lat="45.83976" lon="4.72167">
        <ele>279.02008</ele>
        <time>2022-11-20T13:48:04.000Z</time>
      </trkpt>
      <trkpt lat="45.83973" lon="4.72166">
        <ele>279.04889</ele>
        <time>2022-11-20T13:48:05.000Z</time>
      </trkpt>
      <trkpt lat="45.83971" lon="4.72165">
        <ele>279.03595</ele>
        <time>2022-11-20T13:48:06.000Z</time>
      </trkpt>
      <trkpt lat="45.83968" lon="4.72165">
        <ele>279.01062</ele>
        <time>2022-11-20T13:48:07.000Z</time>
      </trkpt>
      <trkpt lat="45.83966" lon="4.72165">
        <ele>278.98288</ele>
        <time>2022-11-20T13:48:08.000Z</time>
      </trkpt>
      <trkpt lat="45.83963" lon="4.72166">
        <ele>278.95056</ele>
        <time>2022-11-20T13:48:09.000Z</time>
      </trkpt>
      <trkpt lat="45.8396" lon="4.72166">
        <ele>279.1004</ele>
        <time>2022-11-20T13:48:10.000Z</time>
      </trkpt>
      <trkpt lat="45.83957" lon="4.72165">
        <ele>279.22147</ele>
        <time>2022-11-20T13:48:11.000Z</time>
      </trkpt>
      <trkpt lat="45.83954" lon="4.72164">
        <ele>279.34344</ele>
        <time>2022-11-20T13:48:12.000Z</time>
      </trkpt>
      <trkpt lat="45.83952" lon="4.72162">
        <ele>279.46539</ele>
        <time>2022-11-20T13:48:13.000Z</time>
      </trkpt>
      <trkpt lat="45.83949" lon="4.72161">
        <ele>280.54926</ele>
        <time>2022-11-20T13:48:14.000Z</time>
      </trkpt>
      <trkpt lat="45.83946" lon="4.7216">
        <ele>281.33115</ele>
        <time>2022-11-20T13:48:15.000Z</time>
      </trkpt>
      <trkpt lat="45.83944" lon="4.7216">
        <ele>282.18597</ele>
        <time>2022-11-20T13:48:16.000Z</time>
      </trkpt>
      <trkpt lat="45.83942" lon="4.72159">
        <ele>281.9902</ele>
        <time>2022-11-20T13:48:17.000Z</time>
      </trkpt>
      <trkpt lat="45.8394" lon="4.72159">
        <ele>281.67181</ele>
        <time>2022-11-20T13:48:18.000Z</time>
      </trkpt>
      <trkpt lat="45.83938" lon="4.72158">
        <ele>281.71716</ele>
        <time>2022-11-20T13:48:19.000Z</time>
      </trkpt>
      <trkpt lat="45.83935" lon="4.72159">
        <ele>281.69244</ele>
        <time>2022-11-20T13:48:21.000Z</time>
      </trkpt>
      <trkpt lat="45.83933" lon="4.72163">
        <ele>281.6424</ele>
        <time>2022-11-20T13:48:23.000Z</time>
      </trkpt>
      <trkpt lat="45.83935" lon="4.72165">
        <ele>281.60641</ele>
        <time>2022-11-20T13:48:24.000Z</time>
      </trkpt>
      <trkpt lat="45.83937" lon="4.72168">
        <ele>281.55157</ele>
        <time>2022-11-20T13:48:25.000Z</time>
      </trkpt>
      <trkpt lat="45.83939" lon="4.72169">
        <ele>281.50891</ele>
        <time>2022-11-20T13:48:26.000Z</time>
      </trkpt>
      <trkpt lat="45.83941" lon="4.72172">
        <ele>281.48898</ele>
        <time>2022-11-20T13:48:27.000Z</time>
      </trkpt>
      <trkpt lat="45.83942" lon="4.72174">
        <ele>281.44116</ele>
        <time>2022-11-20T13:48:28.000Z</time>
      </trkpt>
      <trkpt lat="45.83944" lon="4.72177">
        <ele>281.39377</ele>
        <time>2022-11-20T13:48:29.000Z</time>
      </trkpt>
      <trkpt lat="45.83946" lon="4.7218">
        <ele>281.3317</ele>
        <time>2022-11-20T13:48:30.000Z</time>
      </trkpt>
      <trkpt lat="45.83947" lon="4.72183">
        <ele>281.2511</ele>
        <time>2022-11-20T13:48:31.000Z</time>
      </trkpt>
      <trkpt lat="45.83949" lon="4.72185">
        <ele>281.01022</ele>
        <time>2022-11-20T13:48:32.000Z</time>
      </trkpt>
      <trkpt lat="45.8395" lon="4.72188">
        <ele>280.75244</ele>
        <time>2022-11-20T13:48:33.000Z</time>
      </trkpt>
      <trkpt lat="45.83951" lon="4.72191">
        <ele>280.49734</ele>
        <time>2022-11-20T13:48:34.000Z</time>
      </trkpt>
      <trkpt lat="45.83951" lon="4.72194">
        <ele>280.25656</ele>
        <time>2022-11-20T13:48:35.000Z</time>
      </trkpt>
      <trkpt lat="45.83952" lon="4.72198">
        <ele>279.88263</ele>
        <time>2022-11-20T13:48:36.000Z</time>
      </trkpt>
      <trkpt lat="45.83954" lon="4.72202">
        <ele>279.85941</ele>
        <time>2022-11-20T13:48:37.000Z</time>
      </trkpt>
      <trkpt lat="45.83955" lon="4.72205">
        <ele>279.78265</ele>
        <time>2022-11-20T13:48:38.000Z</time>
      </trkpt>
      <trkpt lat="45.83957" lon="4.72208">
        <ele>279.70987</ele>
        <time>2022-11-20T13:48:39.000Z</time>
      </trkpt>
      <trkpt lat="45.83959" lon="4.72212">
        <ele>279.64377</ele>
        <time>2022-11-20T13:48:40.000Z</time>
      </trkpt>
      <trkpt lat="45.83961" lon="4.72215">
        <ele>279.61826</ele>
        <time>2022-11-20T13:48:41.000Z</time>
      </trkpt>
      <trkpt lat="45.83962" lon="4.72218">
        <ele>279.61493</ele>
        <time>2022-11-20T13:48:42.000Z</time>
      </trkpt>
      <trkpt lat="45.83964" lon="4.72221">
        <ele>279.60623</ele>
        <time>2022-11-20T13:48:43.000Z</time>
      </trkpt>
      <trkpt lat="45.83966" lon="4.72225">
        <ele>279.58109</ele>
        <time>2022-11-20T13:48:44.000Z</time>
      </trkpt>
      <trkpt lat="45.83967" lon="4.72228">
        <ele>279.55774</ele>
        <time>2022-11-20T13:48:45.000Z</time>
      </trkpt>
      <trkpt lat="45.83968" lon="4.72231">
        <ele>279.51447</ele>
        <time>2022-11-20T13:48:46.000Z</time>
      </trkpt>
      <trkpt lat="45.8397" lon="4.72234">
        <ele>279.46344</ele>
        <time>2022-11-20T13:48:47.000Z</time>
      </trkpt>
      <trkpt lat="45.83971" lon="4.72238">
        <ele>279.43683</ele>
        <time>2022-11-20T13:48:48.000Z</time>
      </trkpt>
      <trkpt lat="45.83973" lon="4.72241">
        <ele>279.40384</ele>
        <time>2022-11-20T13:48:49.000Z</time>
      </trkpt>
      <trkpt lat="45.83976" lon="4.72245">
        <ele>279.39273</ele>
        <time>2022-11-20T13:48:50.000Z</time>
      </trkpt>
      <trkpt lat="45.83978" lon="4.72249">
        <ele>279.52353</ele>
        <time>2022-11-20T13:48:51.000Z</time>
      </trkpt>
      <trkpt lat="45.8398" lon="4.72253">
        <ele>279.71973</ele>
        <time>2022-11-20T13:48:52.000Z</time>
      </trkpt>
      <trkpt lat="45.83982" lon="4.72256">
        <ele>280.09323</ele>
        <time>2022-11-20T13:48:53.000Z</time>
      </trkpt>
      <trkpt lat="45.83984" lon="4.7226">
        <ele>280.08484</ele>
        <time>2022-11-20T13:48:54.000Z</time>
      </trkpt>
      <trkpt lat="45.83986" lon="4.72263">
        <ele>280.07513</ele>
        <time>2022-11-20T13:48:55.000Z</time>
      </trkpt>
      <trkpt lat="45.83987" lon="4.72266">
        <ele>280.11932</ele>
        <time>2022-11-20T13:48:56.000Z</time>
      </trkpt>
      <trkpt lat="45.83989" lon="4.7227">
        <ele>280.1431</ele>
        <time>2022-11-20T13:48:57.000Z</time>
      </trkpt>
      <trkpt lat="45.83991" lon="4.72273">
        <ele>280.14661</ele>
        <time>2022-11-20T13:48:58.000Z</time>
      </trkpt>
      <trkpt lat="45.83993" lon="4.72277">
        <ele>280.13278</ele>
        <time>2022-11-20T13:48:59.000Z</time>
      </trkpt>
      <trkpt lat="45.83995" lon="4.7228">
        <ele>280.11588</ele>
        <time>2022-11-20T13:49:00.000Z</time>
      </trkpt>
      <trkpt lat="45.83997" lon="4.72284">
        <ele>280.00339</ele>
        <time>2022-11-20T13:49:01.000Z</time>
      </trkpt>
      <trkpt lat="45.83999" lon="4.72288">
        <ele>279.91721</ele>
        <time>2022-11-20T13:49:02.000Z</time>
      </trkpt>
      <trkpt lat="45.84002" lon="4.72291">
        <ele>279.82434</ele>
        <time>2022-11-20T13:49:03.000Z</time>
      </trkpt>
      <trkpt lat="45.84004" lon="4.72295">
        <ele>279.76163</ele>
        <time>2022-11-20T13:49:04.000Z</time>
      </trkpt>
      <trkpt lat="45.84007" lon="4.72299">
        <ele>279.70551</ele>
        <time>2022-11-20T13:49:05.000Z</time>
      </trkpt>
      <trkpt lat="45.84009" lon="4.72303">
        <ele>279.68332</ele>
        <time>2022-11-20T13:49:06.000Z</time>
      </trkpt>
      <trkpt lat="45.8401" lon="4.72307">
        <ele>279.66306</ele>
        <time>2022-11-20T13:49:07.000Z</time>
      </trkpt>
      <trkpt lat="45.84011" lon="4.72312">
        <ele>279.61105</ele>
        <time>2022-11-20T13:49:08.000Z</time>
      </trkpt>
      <trkpt lat="45.8401" lon="4.72315">
        <ele>279.56744</ele>
        <time>2022-11-20T13:49:09.000Z</time>
      </trkpt>
      <trkpt lat="45.84008" lon="4.72318">
        <ele>279.39471</ele>
        <time>2022-11-20T13:49:11.000Z</time>
      </trkpt>
      <trkpt lat="45.84006" lon="4.72318">
        <ele>279.22702</ele>
        <time>2022-11-20T13:49:14.000Z</time>
      </trkpt>
      <trkpt lat="45.84006" lon="4.72321">
        <ele>279.034</ele>
        <time>2022-11-20T13:49:44.000Z</time>
      </trkpt>
      <trkpt lat="45.84004" lon="4.72326">
        <ele>278.68604</ele>
        <time>2022-11-20T13:49:46.000Z</time>
      </trkpt>
      <trkpt lat="45.84003" lon="4.72329">
        <ele>278.67999</ele>
        <time>2022-11-20T13:49:47.000Z</time>
      </trkpt>
      <trkpt lat="45.84" lon="4.72331">
        <ele>278.633</ele>
        <time>2022-11-20T13:49:48.000Z</time>
      </trkpt>
      <trkpt lat="45.83997" lon="4.72334">
        <ele>278.55161</ele>
        <time>2022-11-20T13:49:49.000Z</time>
      </trkpt>
      <trkpt lat="45.83994" lon="4.72337">
        <ele>278.42328</ele>
        <time>2022-11-20T13:49:50.000Z</time>
      </trkpt>
      <trkpt lat="45.83991" lon="4.7234">
        <ele>278.31113</ele>
        <time>2022-11-20T13:49:51.000Z</time>
      </trkpt>
      <trkpt lat="45.83987" lon="4.72343">
        <ele>278.19638</ele>
        <time>2022-11-20T13:49:52.000Z</time>
      </trkpt>
      <trkpt lat="45.83984" lon="4.72346">
        <ele>278.06537</ele>
        <time>2022-11-20T13:49:53.000Z</time>
      </trkpt>
      <trkpt lat="45.8398" lon="4.72348">
        <ele>277.93732</ele>
        <time>2022-11-20T13:49:54.000Z</time>
      </trkpt>
      <trkpt lat="45.83977" lon="4.7235">
        <ele>277.76938</ele>
        <time>2022-11-20T13:49:55.000Z</time>
      </trkpt>
      <trkpt lat="45.83974" lon="4.72353">
        <ele>277.58948</ele>
        <time>2022-11-20T13:49:56.000Z</time>
      </trkpt>
      <trkpt lat="45.8397" lon="4.72356">
        <ele>277.44434</ele>
        <time>2022-11-20T13:49:57.000Z</time>
      </trkpt>
      <trkpt lat="45.83966" lon="4.72361">
        <ele>277.41898</ele>
        <time>2022-11-20T13:49:58.000Z</time>
      </trkpt>
      <trkpt lat="45.83961" lon="4.72366">
        <ele>277.4986</ele>
        <time>2022-11-20T13:49:59.000Z</time>
      </trkpt>
      <trkpt lat="45.83957" lon="4.7237">
        <ele>277.14728</ele>
        <time>2022-11-20T13:50:00.000Z</time>
      </trkpt>
      <trkpt lat="45.83952" lon="4.72373">
        <ele>277.00433</ele>
        <time>2022-11-20T13:50:01.000Z</time>
      </trkpt>
      <trkpt lat="45.83947" lon="4.72376">
        <ele>276.81284</ele>
        <time>2022-11-20T13:50:02.000Z</time>
      </trkpt>
      <trkpt lat="45.83942" lon="4.72378">
        <ele>276.74664</ele>
        <time>2022-11-20T13:50:03.000Z</time>
      </trkpt>
      <trkpt lat="45.83938" lon="4.72382">
        <ele>276.58664</ele>
        <time>2022-11-20T13:50:04.000Z</time>
      </trkpt>
      <trkpt lat="45.83932" lon="4.72385">
        <ele>276.65198</ele>
        <time>2022-11-20T13:50:05.000Z</time>
      </trkpt>
      <trkpt lat="45.83927" lon="4.72385">
        <ele>276.84918</ele>
        <time>2022-11-20T13:50:06.000Z</time>
      </trkpt>
      <trkpt lat="45.8392" lon="4.72389">
        <ele>277.01166</ele>
        <time>2022-11-20T13:50:07.000Z</time>
      </trkpt>
      <trkpt lat="45.83914" lon="4.72394">
        <ele>277.17215</ele>
        <time>2022-11-20T13:50:08.000Z</time>
      </trkpt>
      <trkpt lat="45.83907" lon="4.72399">
        <ele>277.39246</ele>
        <time>2022-11-20T13:50:09.000Z</time>
      </trkpt>
      <trkpt lat="45.83901" lon="4.724">
        <ele>277.34137</ele>
        <time>2022-11-20T13:50:10.000Z</time>
      </trkpt>
      <trkpt lat="45.83894" lon="4.72403">
        <ele>276.83835</ele>
        <time>2022-11-20T13:50:11.000Z</time>
      </trkpt>
      <trkpt lat="45.83888" lon="4.72406">
        <ele>276.54074</ele>
        <time>2022-11-20T13:50:12.000Z</time>
      </trkpt>
      <trkpt lat="45.83881" lon="4.7241">
        <ele>276.24121</ele>
        <time>2022-11-20T13:50:13.000Z</time>
      </trkpt>
      <trkpt lat="45.83875" lon="4.72413">
        <ele>275.9639</ele>
        <time>2022-11-20T13:50:14.000Z</time>
      </trkpt>
      <trkpt lat="45.83868" lon="4.72415">
        <ele>275.67719</ele>
        <time>2022-11-20T13:50:15.000Z</time>
      </trkpt>
      <trkpt lat="45.83863" lon="4.72419">
        <ele>275.40427</ele>
        <time>2022-11-20T13:50:16.000Z</time>
      </trkpt>
      <trkpt lat="45.83856" lon="4.72425">
        <ele>275.0787</ele>
        <time>2022-11-20T13:50:17.000Z</time>
      </trkpt>
      <trkpt lat="45.8385" lon="4.7243">
        <ele>274.59552</ele>
        <time>2022-11-20T13:50:18.000Z</time>
      </trkpt>
      <trkpt lat="45.83846" lon="4.72436">
        <ele>273.99722</ele>
        <time>2022-11-20T13:50:19.000Z</time>
      </trkpt>
      <trkpt lat="45.83843" lon="4.72441">
        <ele>273.828</ele>
        <time>2022-11-20T13:50:20.000Z</time>
      </trkpt>
      <trkpt lat="45.83841" lon="4.72447">
        <ele>273.44476</ele>
        <time>2022-11-20T13:50:21.000Z</time>
      </trkpt>
      <trkpt lat="45.8384" lon="4.72454">
        <ele>273.11313</ele>
        <time>2022-11-20T13:50:22.000Z</time>
      </trkpt>
      <trkpt lat="45.8384" lon="4.72463">
        <ele>273.0329</ele>
        <time>2022-11-20T13:50:23.000Z</time>
      </trkpt>
      <trkpt lat="45.83841" lon="4.72471">
        <ele>272.99741</ele>
        <time>2022-11-20T13:50:24.000Z</time>
      </trkpt>
      <trkpt lat="45.83841" lon="4.72478">
        <ele>272.78381</ele>
        <time>2022-11-20T13:50:25.000Z</time>
      </trkpt>
      <trkpt lat="45.83841" lon="4.72485">
        <ele>272.38589</ele>
        <time>2022-11-20T13:50:26.000Z</time>
      </trkpt>
      <trkpt lat="45.83842" lon="4.72492">
        <ele>271.93503</ele>
        <time>2022-11-20T13:50:27.000Z</time>
      </trkpt>
      <trkpt lat="45.83841" lon="4.72498">
        <ele>271.53687</ele>
        <time>2022-11-20T13:50:28.000Z</time>
      </trkpt>
      <trkpt lat="45.83841" lon="4.72504">
        <ele>271.05988</ele>
        <time>2022-11-20T13:50:29.000Z</time>
      </trkpt>
      <trkpt lat="45.83842" lon="4.72511">
        <ele>270.90466</ele>
        <time>2022-11-20T13:50:30.000Z</time>
      </trkpt>
      <trkpt lat="45.83841" lon="4.72518">
        <ele>271.20847</ele>
        <time>2022-11-20T13:50:31.000Z</time>
      </trkpt>
      <trkpt lat="45.8384" lon="4.72524">
        <ele>270.88065</ele>
        <time>2022-11-20T13:50:32.000Z</time>
      </trkpt>
      <trkpt lat="45.83839" lon="4.7253">
        <ele>270.74884</ele>
        <time>2022-11-20T13:50:33.000Z</time>
      </trkpt>
      <trkpt lat="45.83838" lon="4.72536">
        <ele>270.65964</ele>
        <time>2022-11-20T13:50:34.000Z</time>
      </trkpt>
      <trkpt lat="45.83838" lon="4.72542">
        <ele>270.55316</ele>
        <time>2022-11-20T13:50:35.000Z</time>
      </trkpt>
      <trkpt lat="45.83838" lon="4.72548">
        <ele>270.44662</ele>
        <time>2022-11-20T13:50:36.000Z</time>
      </trkpt>
      <trkpt lat="45.83837" lon="4.72552">
        <ele>270.35608</ele>
        <time>2022-11-20T13:50:37.000Z</time>
      </trkpt>
      <trkpt lat="45.83835" lon="4.72558">
        <ele>270.30667</ele>
        <time>2022-11-20T13:50:38.000Z</time>
      </trkpt>
      <trkpt lat="45.83834" lon="4.72563">
        <ele>270.25848</ele>
        <time>2022-11-20T13:50:39.000Z</time>
      </trkpt>
      <trkpt lat="45.83832" lon="4.72567">
        <ele>270.21994</ele>
        <time>2022-11-20T13:50:40.000Z</time>
      </trkpt>
      <trkpt lat="45.83831" lon="4.72571">
        <ele>270.23544</ele>
        <time>2022-11-20T13:50:41.000Z</time>
      </trkpt>
      <trkpt lat="45.8383" lon="4.72576">
        <ele>270.21753</ele>
        <time>2022-11-20T13:50:42.000Z</time>
      </trkpt>
      <trkpt lat="45.83829" lon="4.7258">
        <ele>269.95071</ele>
        <time>2022-11-20T13:50:43.000Z</time>
      </trkpt>
      <trkpt lat="45.83828" lon="4.72585">
        <ele>269.57394</ele>
        <time>2022-11-20T13:50:44.000Z</time>
      </trkpt>
      <trkpt lat="45.83826" lon="4.7259">
        <ele>269.24155</ele>
        <time>2022-11-20T13:50:45.000Z</time>
      </trkpt>
      <trkpt lat="45.83825" lon="4.72594">
        <ele>268.94827</ele>
        <time>2022-11-20T13:50:46.000Z</time>
      </trkpt>
      <trkpt lat="45.83823" lon="4.72598">
        <ele>268.3876</ele>
        <time>2022-11-20T13:50:47.000Z</time>
      </trkpt>
      <trkpt lat="45.83821" lon="4.72603">
        <ele>267.87668</ele>
        <time>2022-11-20T13:50:48.000Z</time>
      </trkpt>
      <trkpt lat="45.83819" lon="4.72607">
        <ele>267.44812</ele>
        <time>2022-11-20T13:50:49.000Z</time>
      </trkpt>
      <trkpt lat="45.83816" lon="4.7261">
        <ele>267.01208</ele>
        <time>2022-11-20T13:50:50.000Z</time>
      </trkpt>
      <trkpt lat="45.83813" lon="4.72611">
        <ele>266.67325</ele>
        <time>2022-11-20T13:50:51.000Z</time>
      </trkpt>
      <trkpt lat="45.83809" lon="4.72613">
        <ele>266.80582</ele>
        <time>2022-11-20T13:50:52.000Z</time>
      </trkpt>
      <trkpt lat="45.83806" lon="4.72614">
        <ele>266.81113</ele>
        <time>2022-11-20T13:50:53.000Z</time>
      </trkpt>
      <trkpt lat="45.83802" lon="4.72614">
        <ele>266.82016</ele>
        <time>2022-11-20T13:50:54.000Z</time>
      </trkpt>
      <trkpt lat="45.83798" lon="4.72615">
        <ele>266.79324</ele>
        <time>2022-11-20T13:50:55.000Z</time>
      </trkpt>
      <trkpt lat="45.83794" lon="4.72616">
        <ele>266.76965</ele>
        <time>2022-11-20T13:50:56.000Z</time>
      </trkpt>
      <trkpt lat="45.8379" lon="4.72617">
        <ele>266.70856</ele>
        <time>2022-11-20T13:50:57.000Z</time>
      </trkpt>
      <trkpt lat="45.83787" lon="4.72618">
        <ele>266.55371</ele>
        <time>2022-11-20T13:50:58.000Z</time>
      </trkpt>
      <trkpt lat="45.83783" lon="4.72619">
        <ele>266.4201</ele>
        <time>2022-11-20T13:50:59.000Z</time>
      </trkpt>
      <trkpt lat="45.83779" lon="4.7262">
        <ele>266.29465</ele>
        <time>2022-11-20T13:51:00.000Z</time>
      </trkpt>
      <trkpt lat="45.83776" lon="4.72622">
        <ele>266.31088</ele>
        <time>2022-11-20T13:51:01.000Z</time>
      </trkpt>
      <trkpt lat="45.83772" lon="4.72623">
        <ele>266.62766</ele>
        <time>2022-11-20T13:51:02.000Z</time>
      </trkpt>
      <trkpt lat="45.83769" lon="4.72624">
        <ele>266.97879</ele>
        <time>2022-11-20T13:51:03.000Z</time>
      </trkpt>
      <trkpt lat="45.83765" lon="4.72625">
        <ele>267.25461</ele>
        <time>2022-11-20T13:51:04.000Z</time>
      </trkpt>
      <trkpt lat="45.83761" lon="4.72626">
        <ele>267.38727</ele>
        <time>2022-11-20T13:51:05.000Z</time>
      </trkpt>
      <trkpt lat="45.83757" lon="4.72628">
        <ele>267.55045</ele>
        <time>2022-11-20T13:51:06.000Z</time>
      </trkpt>
      <trkpt lat="45.83753" lon="4.72629">
        <ele>268.06702</ele>
        <time>2022-11-20T13:51:07.000Z</time>
      </trkpt>
      <trkpt lat="45.83749" lon="4.72631">
        <ele>268.63303</ele>
        <time>2022-11-20T13:51:08.000Z</time>
      </trkpt>
      <trkpt lat="45.83746" lon="4.72632">
        <ele>269.06329</ele>
        <time>2022-11-20T13:51:09.000Z</time>
      </trkpt>
      <trkpt lat="45.83743" lon="4.72634">
        <ele>269.41003</ele>
        <time>2022-11-20T13:51:10.000Z</time>
      </trkpt>
      <trkpt lat="45.83739" lon="4.72635">
        <ele>269.64355</ele>
        <time>2022-11-20T13:51:11.000Z</time>
      </trkpt>
      <trkpt lat="45.83736" lon="4.72637">
        <ele>269.71146</ele>
        <time>2022-11-20T13:51:12.000Z</time>
      </trkpt>
      <trkpt lat="45.83732" lon="4.72639">
        <ele>269.72604</ele>
        <time>2022-11-20T13:51:13.000Z</time>
      </trkpt>
      <trkpt lat="45.83729" lon="4.7264">
        <ele>269.74542</ele>
        <time>2022-11-20T13:51:14.000Z</time>
      </trkpt>
      <trkpt lat="45.83726" lon="4.72642">
        <ele>269.8302</ele>
        <time>2022-11-20T13:51:15.000Z</time>
      </trkpt>
      <trkpt lat="45.83723" lon="4.72644">
        <ele>269.92587</ele>
        <time>2022-11-20T13:51:16.000Z</time>
      </trkpt>
      <trkpt lat="45.8372" lon="4.72647">
        <ele>270.06909</ele>
        <time>2022-11-20T13:51:17.000Z</time>
      </trkpt>
      <trkpt lat="45.83717" lon="4.7265">
        <ele>270.31512</ele>
        <time>2022-11-20T13:51:18.000Z</time>
      </trkpt>
      <trkpt lat="45.83714" lon="4.72653">
        <ele>270.55829</ele>
        <time>2022-11-20T13:51:19.000Z</time>
      </trkpt>
      <trkpt lat="45.83711" lon="4.72654">
        <ele>270.89478</ele>
        <time>2022-11-20T13:51:20.000Z</time>
      </trkpt>
      <trkpt lat="45.83708" lon="4.72655">
        <ele>271.0824</ele>
        <time>2022-11-20T13:51:21.000Z</time>
      </trkpt>
      <trkpt lat="45.83704" lon="4.72656">
        <ele>270.9964</ele>
        <time>2022-11-20T13:51:22.000Z</time>
      </trkpt>
      <trkpt lat="45.83701" lon="4.72656">
        <ele>270.79199</ele>
        <time>2022-11-20T13:51:23.000Z</time>
      </trkpt>
      <trkpt lat="45.83698" lon="4.72656">
        <ele>270.69183</ele>
        <time>2022-11-20T13:51:24.000Z</time>
      </trkpt>
      <trkpt lat="45.83694" lon="4.72656">
        <ele>270.58801</ele>
        <time>2022-11-20T13:51:25.000Z</time>
      </trkpt>
      <trkpt lat="45.83691" lon="4.72657">
        <ele>270.45416</ele>
        <time>2022-11-20T13:51:26.000Z</time>
      </trkpt>
      <trkpt lat="45.83688" lon="4.72658">
        <ele>270.39011</ele>
        <time>2022-11-20T13:51:27.000Z</time>
      </trkpt>
      <trkpt lat="45.83684" lon="4.72659">
        <ele>270.20175</ele>
        <time>2022-11-20T13:51:28.000Z</time>
      </trkpt>
      <trkpt lat="45.83681" lon="4.7266">
        <ele>270.14886</ele>
        <time>2022-11-20T13:51:29.000Z</time>
      </trkpt>
      <trkpt lat="45.83677" lon="4.72661">
        <ele>270.13852</ele>
        <time>2022-11-20T13:51:30.000Z</time>
      </trkpt>
      <trkpt lat="45.83675" lon="4.72662">
        <ele>270.23904</ele>
        <time>2022-11-20T13:51:31.000Z</time>
      </trkpt>
      <trkpt lat="45.83671" lon="4.72663">
        <ele>270.53604</ele>
        <time>2022-11-20T13:51:32.000Z</time>
      </trkpt>
      <trkpt lat="45.83667" lon="4.72664">
        <ele>271.04663</ele>
        <time>2022-11-20T13:51:33.000Z</time>
      </trkpt>
      <trkpt lat="45.83665" lon="4.72666">
        <ele>271.46124</ele>
        <time>2022-11-20T13:51:34.000Z</time>
      </trkpt>
      <trkpt lat="45.83662" lon="4.72667">
        <ele>271.6037</ele>
        <time>2022-11-20T13:51:35.000Z</time>
      </trkpt>
      <trkpt lat="45.83659" lon="4.72668">
        <ele>271.845</ele>
        <time>2022-11-20T13:51:36.000Z</time>
      </trkpt>
      <trkpt lat="45.83656" lon="4.7267">
        <ele>271.93735</ele>
        <time>2022-11-20T13:51:37.000Z</time>
      </trkpt>
      <trkpt lat="45.83653" lon="4.72671">
        <ele>272.05054</ele>
        <time>2022-11-20T13:51:38.000Z</time>
      </trkpt>
      <trkpt lat="45.8365" lon="4.72672">
        <ele>272.11435</ele>
        <time>2022-11-20T13:51:39.000Z</time>
      </trkpt>
      <trkpt lat="45.83647" lon="4.72673">
        <ele>271.62338</ele>
        <time>2022-11-20T13:51:40.000Z</time>
      </trkpt>
      <trkpt lat="45.83644" lon="4.72674">
        <ele>271.12668</ele>
        <time>2022-11-20T13:51:41.000Z</time>
      </trkpt>
      <trkpt lat="45.83641" lon="4.72676">
        <ele>270.65414</ele>
        <time>2022-11-20T13:51:42.000Z</time>
      </trkpt>
      <trkpt lat="45.83638" lon="4.72677">
        <ele>270.27634</ele>
        <time>2022-11-20T13:51:43.000Z</time>
      </trkpt>
      <trkpt lat="45.83635" lon="4.72679">
        <ele>269.91229</ele>
        <time>2022-11-20T13:51:44.000Z</time>
      </trkpt>
      <trkpt lat="45.83632" lon="4.7268">
        <ele>269.60413</ele>
        <time>2022-11-20T13:51:45.000Z</time>
      </trkpt>
      <trkpt lat="45.8363" lon="4.72682">
        <ele>269.30646</ele>
        <time>2022-11-20T13:51:46.000Z</time>
      </trkpt>
      <trkpt lat="45.83628" lon="4.72684">
        <ele>268.96997</ele>
        <time>2022-11-20T13:51:47.000Z</time>
      </trkpt>
      <trkpt lat="45.83626" lon="4.72686">
        <ele>269.09729</ele>
        <time>2022-11-20T13:51:48.000Z</time>
      </trkpt>
      <trkpt lat="45.83623" lon="4.7269">
        <ele>269.16003</ele>
        <time>2022-11-20T13:51:49.000Z</time>
      </trkpt>
      <trkpt lat="45.8362" lon="4.72693">
        <ele>269.29315</ele>
        <time>2022-11-20T13:51:50.000Z</time>
      </trkpt>
      <trkpt lat="45.83618" lon="4.72696">
        <ele>269.44168</ele>
        <time>2022-11-20T13:51:51.000Z</time>
      </trkpt>
      <trkpt lat="45.83615" lon="4.72699">
        <ele>269.0878</ele>
        <time>2022-11-20T13:51:52.000Z</time>
      </trkpt>
      <trkpt lat="45.83613" lon="4.72702">
        <ele>268.53973</ele>
        <time>2022-11-20T13:51:53.000Z</time>
      </trkpt>
      <trkpt lat="45.8361" lon="4.72704">
        <ele>268.06589</ele>
        <time>2022-11-20T13:51:54.000Z</time>
      </trkpt>
      <trkpt lat="45.83606" lon="4.72707">
        <ele>267.85486</ele>
        <time>2022-11-20T13:51:55.000Z</time>
      </trkpt>
      <trkpt lat="45.83603" lon="4.72709">
        <ele>267.53922</ele>
        <time>2022-11-20T13:51:56.000Z</time>
      </trkpt>
      <trkpt lat="45.83599" lon="4.72711">
        <ele>267.34747</ele>
        <time>2022-11-20T13:51:57.000Z</time>
      </trkpt>
      <trkpt lat="45.83596" lon="4.72713">
        <ele>267.08694</ele>
        <time>2022-11-20T13:51:58.000Z</time>
      </trkpt>
      <trkpt lat="45.83593" lon="4.72715">
        <ele>266.95709</ele>
        <time>2022-11-20T13:51:59.000Z</time>
      </trkpt>
      <trkpt lat="45.83591" lon="4.72717">
        <ele>267.64944</ele>
        <time>2022-11-20T13:52:00.000Z</time>
      </trkpt>
      <trkpt lat="45.83589" lon="4.72718">
        <ele>268.27304</ele>
        <time>2022-11-20T13:52:01.000Z</time>
      </trkpt>
      <trkpt lat="45.83586" lon="4.72719">
        <ele>268.88715</ele>
        <time>2022-11-20T13:52:02.000Z</time>
      </trkpt>
      <trkpt lat="45.83583" lon="4.7272">
        <ele>269.47675</ele>
        <time>2022-11-20T13:52:03.000Z</time>
      </trkpt>
      <trkpt lat="45.8358" lon="4.72722">
        <ele>270.13217</ele>
        <time>2022-11-20T13:52:04.000Z</time>
      </trkpt>
      <trkpt lat="45.83576" lon="4.72725">
        <ele>270.83881</ele>
        <time>2022-11-20T13:52:05.000Z</time>
      </trkpt>
      <trkpt lat="45.83573" lon="4.72727">
        <ele>271.51614</ele>
        <time>2022-11-20T13:52:06.000Z</time>
      </trkpt>
      <trkpt lat="45.8357" lon="4.72729">
        <ele>272.27216</ele>
        <time>2022-11-20T13:52:07.000Z</time>
      </trkpt>
      <trkpt lat="45.83567" lon="4.72731">
        <ele>272.67407</ele>
        <time>2022-11-20T13:52:08.000Z</time>
      </trkpt>
      <trkpt lat="45.83563" lon="4.72733">
        <ele>273.0463</ele>
        <time>2022-11-20T13:52:09.000Z</time>
      </trkpt>
      <trkpt lat="45.83559" lon="4.72735">
        <ele>273.56512</ele>
        <time>2022-11-20T13:52:10.000Z</time>
      </trkpt>
      <trkpt lat="45.83555" lon="4.72737">
        <ele>273.97559</ele>
        <time>2022-11-20T13:52:11.000Z</time>
      </trkpt>
      <trkpt lat="45.8355" lon="4.72739">
        <ele>274.70132</ele>
        <time>2022-11-20T13:52:12.000Z</time>
      </trkpt>
      <trkpt lat="45.83546" lon="4.72741">
        <ele>275.36923</ele>
        <time>2022-11-20T13:52:13.000Z</time>
      </trkpt>
      <trkpt lat="45.83542" lon="4.72743">
        <ele>276.0506</ele>
        <time>2022-11-20T13:52:14.000Z</time>
      </trkpt>
      <trkpt lat="45.83537" lon="4.72745">
        <ele>276.73935</ele>
        <time>2022-11-20T13:52:15.000Z</time>
      </trkpt>
      <trkpt lat="45.83533" lon="4.72747">
        <ele>277.43475</ele>
        <time>2022-11-20T13:52:16.000Z</time>
      </trkpt>
      <trkpt lat="45.83529" lon="4.72748">
        <ele>278.08774</ele>
        <time>2022-11-20T13:52:17.000Z</time>
      </trkpt>
      <trkpt lat="45.83525" lon="4.7275">
        <ele>278.78412</ele>
        <time>2022-11-20T13:52:18.000Z</time>
      </trkpt>
      <trkpt lat="45.83521" lon="4.72751">
        <ele>279.40112</ele>
        <time>2022-11-20T13:52:19.000Z</time>
      </trkpt>
      <trkpt lat="45.83516" lon="4.72752">
        <ele>279.76074</ele>
        <time>2022-11-20T13:52:20.000Z</time>
      </trkpt>
      <trkpt lat="45.83512" lon="4.72753">
        <ele>280.17429</ele>
        <time>2022-11-20T13:52:21.000Z</time>
      </trkpt>
      <trkpt lat="45.83509" lon="4.72753">
        <ele>280.2179</ele>
        <time>2022-11-20T13:52:22.000Z</time>
      </trkpt>
      <trkpt lat="45.83505" lon="4.72753">
        <ele>280.35568</ele>
        <time>2022-11-20T13:52:23.000Z</time>
      </trkpt>
      <trkpt lat="45.835" lon="4.72755">
        <ele>280.41486</ele>
        <time>2022-11-20T13:52:24.000Z</time>
      </trkpt>
      <trkpt lat="45.83496" lon="4.72756">
        <ele>280.30804</ele>
        <time>2022-11-20T13:52:25.000Z</time>
      </trkpt>
      <trkpt lat="45.83492" lon="4.72757">
        <ele>280.33081</ele>
        <time>2022-11-20T13:52:26.000Z</time>
      </trkpt>
      <trkpt lat="45.83486" lon="4.72759">
        <ele>280.28513</ele>
        <time>2022-11-20T13:52:27.000Z</time>
      </trkpt>
      <trkpt lat="45.83481" lon="4.72761">
        <ele>280.13437</ele>
        <time>2022-11-20T13:52:28.000Z</time>
      </trkpt>
      <trkpt lat="45.83478" lon="4.72763">
        <ele>280.00577</ele>
        <time>2022-11-20T13:52:29.000Z</time>
      </trkpt>
      <trkpt lat="45.83474" lon="4.72765">
        <ele>279.72354</ele>
        <time>2022-11-20T13:52:30.000Z</time>
      </trkpt>
      <trkpt lat="45.8347" lon="4.72766">
        <ele>279.43866</ele>
        <time>2022-11-20T13:52:31.000Z</time>
      </trkpt>
      <trkpt lat="45.83465" lon="4.72768">
        <ele>279.28714</ele>
        <time>2022-11-20T13:52:32.000Z</time>
      </trkpt>
      <trkpt lat="45.83461" lon="4.72769">
        <ele>279.16971</ele>
        <time>2022-11-20T13:52:33.000Z</time>
      </trkpt>
      <trkpt lat="45.83458" lon="4.72771">
        <ele>278.9906</ele>
        <time>2022-11-20T13:52:34.000Z</time>
      </trkpt>
      <trkpt lat="45.83453" lon="4.72772">
        <ele>278.82928</ele>
        <time>2022-11-20T13:52:35.000Z</time>
      </trkpt>
      <trkpt lat="45.83448" lon="4.72774">
        <ele>278.59393</ele>
        <time>2022-11-20T13:52:36.000Z</time>
      </trkpt>
      <trkpt lat="45.83445" lon="4.72776">
        <ele>278.4201</ele>
        <time>2022-11-20T13:52:37.000Z</time>
      </trkpt>
      <trkpt lat="45.8344" lon="4.72778">
        <ele>278.22513</ele>
        <time>2022-11-20T13:52:38.000Z</time>
      </trkpt>
      <trkpt lat="45.83437" lon="4.7278">
        <ele>278.01068</ele>
        <time>2022-11-20T13:52:39.000Z</time>
      </trkpt>
      <trkpt lat="45.83434" lon="4.72782">
        <ele>277.78702</ele>
        <time>2022-11-20T13:52:40.000Z</time>
      </trkpt>
      <trkpt lat="45.83431" lon="4.72784">
        <ele>277.64679</ele>
        <time>2022-11-20T13:52:41.000Z</time>
      </trkpt>
      <trkpt lat="45.83431" lon="4.7279">
        <ele>277.84933</ele>
        <time>2022-11-20T13:52:42.000Z</time>
      </trkpt>
      <trkpt lat="45.8343" lon="4.72794">
        <ele>277.99988</ele>
        <time>2022-11-20T13:52:43.000Z</time>
      </trkpt>
      <trkpt lat="45.83429" lon="4.728">
        <ele>278.14069</ele>
        <time>2022-11-20T13:52:44.000Z</time>
      </trkpt>
      <trkpt lat="45.83429" lon="4.72805">
        <ele>278.36798</ele>
        <time>2022-11-20T13:52:45.000Z</time>
      </trkpt>
      <trkpt lat="45.83428" lon="4.72811">
        <ele>278.50153</ele>
        <time>2022-11-20T13:52:46.000Z</time>
      </trkpt>
      <trkpt lat="45.83426" lon="4.72816">
        <ele>278.5047</ele>
        <time>2022-11-20T13:52:47.000Z</time>
      </trkpt>
      <trkpt lat="45.83425" lon="4.72821">
        <ele>278.54489</ele>
        <time>2022-11-20T13:52:48.000Z</time>
      </trkpt>
      <trkpt lat="45.83424" lon="4.72827">
        <ele>278.62396</ele>
        <time>2022-11-20T13:52:49.000Z</time>
      </trkpt>
      <trkpt lat="45.83427" lon="4.72837">
        <ele>278.73917</ele>
        <time>2022-11-20T13:52:50.000Z</time>
      </trkpt>
      <trkpt lat="45.83429" lon="4.72844">
        <ele>278.9108</ele>
        <time>2022-11-20T13:52:51.000Z</time>
      </trkpt>
      <trkpt lat="45.83431" lon="4.72851">
        <ele>279.01984</ele>
        <time>2022-11-20T13:52:52.000Z</time>
      </trkpt>
      <trkpt lat="45.83433" lon="4.72859">
        <ele>279.14423</ele>
        <time>2022-11-20T13:52:53.000Z</time>
      </trkpt>
      <trkpt lat="45.83434" lon="4.72866">
        <ele>279.38449</ele>
        <time>2022-11-20T13:52:54.000Z</time>
      </trkpt>
      <trkpt lat="45.83436" lon="4.72872">
        <ele>279.62241</ele>
        <time>2022-11-20T13:52:55.000Z</time>
      </trkpt>
      <trkpt lat="45.83438" lon="4.72879">
        <ele>279.87625</ele>
        <time>2022-11-20T13:52:56.000Z</time>
      </trkpt>
      <trkpt lat="45.8344" lon="4.72885">
        <ele>280.10678</ele>
        <time>2022-11-20T13:52:57.000Z</time>
      </trkpt>
      <trkpt lat="45.83441" lon="4.72893">
        <ele>280.33517</ele>
        <time>2022-11-20T13:52:58.000Z</time>
      </trkpt>
      <trkpt lat="45.83441" lon="4.72897">
        <ele>280.55756</ele>
        <time>2022-11-20T13:52:59.000Z</time>
      </trkpt>
      <trkpt lat="45.83442" lon="4.72903">
        <ele>280.60452</ele>
        <time>2022-11-20T13:53:00.000Z</time>
      </trkpt>
      <trkpt lat="45.83444" lon="4.72909">
        <ele>280.6088</ele>
        <time>2022-11-20T13:53:01.000Z</time>
      </trkpt>
      <trkpt lat="45.83445" lon="4.72915">
        <ele>280.63577</ele>
        <time>2022-11-20T13:53:02.000Z</time>
      </trkpt>
      <trkpt lat="45.83446" lon="4.72921">
        <ele>280.5892</ele>
        <time>2022-11-20T13:53:03.000Z</time>
      </trkpt>
      <trkpt lat="45.83447" lon="4.72927">
        <ele>280.66974</ele>
        <time>2022-11-20T13:53:04.000Z</time>
      </trkpt>
      <trkpt lat="45.83448" lon="4.72932">
        <ele>280.73157</ele>
        <time>2022-11-20T13:53:05.000Z</time>
      </trkpt>
      <trkpt lat="45.83451" lon="4.72937">
        <ele>280.7298</ele>
        <time>2022-11-20T13:53:06.000Z</time>
      </trkpt>
      <trkpt lat="45.83453" lon="4.72943">
        <ele>280.86841</ele>
        <time>2022-11-20T13:53:07.000Z</time>
      </trkpt>
      <trkpt lat="45.83456" lon="4.72948">
        <ele>281.05804</ele>
        <time>2022-11-20T13:53:08.000Z</time>
      </trkpt>
      <trkpt lat="45.83459" lon="4.72953">
        <ele>281.05502</ele>
        <time>2022-11-20T13:53:09.000Z</time>
      </trkpt>
      <trkpt lat="45.8346" lon="4.72957">
        <ele>280.96652</ele>
        <time>2022-11-20T13:53:10.000Z</time>
      </trkpt>
      <trkpt lat="45.83461" lon="4.72962">
        <ele>280.86212</ele>
        <time>2022-11-20T13:53:11.000Z</time>
      </trkpt>
      <trkpt lat="45.83462" lon="4.72966">
        <ele>280.96588</ele>
        <time>2022-11-20T13:53:12.000Z</time>
      </trkpt>
      <trkpt lat="45.83463" lon="4.72971">
        <ele>281.1524</ele>
        <time>2022-11-20T13:53:13.000Z</time>
      </trkpt>
      <trkpt lat="45.83465" lon="4.72975">
        <ele>281.26862</ele>
        <time>2022-11-20T13:53:14.000Z</time>
      </trkpt>
      <trkpt lat="45.83467" lon="4.7298">
        <ele>281.40558</ele>
        <time>2022-11-20T13:53:15.000Z</time>
      </trkpt>
      <trkpt lat="45.83469" lon="4.72985">
        <ele>281.69763</ele>
        <time>2022-11-20T13:53:16.000Z</time>
      </trkpt>
      <trkpt lat="45.83472" lon="4.72994">
        <ele>281.93127</ele>
        <time>2022-11-20T13:53:17.000Z</time>
      </trkpt>
      <trkpt lat="45.83474" lon="4.73">
        <ele>282.16724</ele>
        <time>2022-11-20T13:53:18.000Z</time>
      </trkpt>
      <trkpt lat="45.83475" lon="4.73006">
        <ele>282.3186</ele>
        <time>2022-11-20T13:53:19.000Z</time>
      </trkpt>
      <trkpt lat="45.83476" lon="4.73011">
        <ele>282.56207</ele>
        <time>2022-11-20T13:53:20.000Z</time>
      </trkpt>
      <trkpt lat="45.83478" lon="4.73015">
        <ele>282.75772</ele>
        <time>2022-11-20T13:53:21.000Z</time>
      </trkpt>
      <trkpt lat="45.83479" lon="4.73021">
        <ele>283.25699</ele>
        <time>2022-11-20T13:53:22.000Z</time>
      </trkpt>
      <trkpt lat="45.83484" lon="4.73027">
        <ele>283.78339</ele>
        <time>2022-11-20T13:53:23.000Z</time>
      </trkpt>
      <trkpt lat="45.83487" lon="4.73033">
        <ele>284.17316</ele>
        <time>2022-11-20T13:53:24.000Z</time>
      </trkpt>
      <trkpt lat="45.8349" lon="4.73038">
        <ele>284.50623</ele>
        <time>2022-11-20T13:53:25.000Z</time>
      </trkpt>
      <trkpt lat="45.83493" lon="4.73041">
        <ele>284.8255</ele>
        <time>2022-11-20T13:53:26.000Z</time>
      </trkpt>
      <trkpt lat="45.83495" lon="4.73044">
        <ele>285.08902</ele>
        <time>2022-11-20T13:53:27.000Z</time>
      </trkpt>
      <trkpt lat="45.83498" lon="4.73046">
        <ele>285.17065</ele>
        <time>2022-11-20T13:53:28.000Z</time>
      </trkpt>
      <trkpt lat="45.83501" lon="4.73048">
        <ele>285.13269</ele>
        <time>2022-11-20T13:53:29.000Z</time>
      </trkpt>
      <trkpt lat="45.83504" lon="4.7305">
        <ele>285.25604</ele>
        <time>2022-11-20T13:53:30.000Z</time>
      </trkpt>
      <trkpt lat="45.83508" lon="4.73055">
        <ele>285.2468</ele>
        <time>2022-11-20T13:53:31.000Z</time>
      </trkpt>
      <trkpt lat="45.83511" lon="4.73059">
        <ele>285.11334</ele>
        <time>2022-11-20T13:53:32.000Z</time>
      </trkpt>
      <trkpt lat="45.83515" lon="4.73062">
        <ele>284.9046</ele>
        <time>2022-11-20T13:53:33.000Z</time>
      </trkpt>
      <trkpt lat="45.83519" lon="4.73065">
        <ele>284.69421</ele>
        <time>2022-11-20T13:53:34.000Z</time>
      </trkpt>
      <trkpt lat="45.83522" lon="4.73067">
        <ele>284.45544</ele>
        <time>2022-11-20T13:53:35.000Z</time>
      </trkpt>
      <trkpt lat="45.83526" lon="4.73069">
        <ele>284.12552</ele>
        <time>2022-11-20T13:53:36.000Z</time>
      </trkpt>
      <trkpt lat="45.83531" lon="4.73069">
        <ele>283.87039</ele>
        <time>2022-11-20T13:53:37.000Z</time>
      </trkpt>
      <trkpt lat="45.83535" lon="4.7307">
        <ele>283.60748</ele>
        <time>2022-11-20T13:53:38.000Z</time>
      </trkpt>
      <trkpt lat="45.8354" lon="4.73072">
        <ele>283.44928</ele>
        <time>2022-11-20T13:53:39.000Z</time>
      </trkpt>
      <trkpt lat="45.83544" lon="4.73071">
        <ele>283.23627</ele>
        <time>2022-11-20T13:53:40.000Z</time>
      </trkpt>
      <trkpt lat="45.83548" lon="4.73069">
        <ele>283.10593</ele>
        <time>2022-11-20T13:53:41.000Z</time>
      </trkpt>
      <trkpt lat="45.83552" lon="4.73069">
        <ele>282.66153</ele>
        <time>2022-11-20T13:53:42.000Z</time>
      </trkpt>
      <trkpt lat="45.83556" lon="4.73067">
        <ele>282.24603</ele>
        <time>2022-11-20T13:53:43.000Z</time>
      </trkpt>
      <trkpt lat="45.8356" lon="4.73066">
        <ele>281.88745</ele>
        <time>2022-11-20T13:53:44.000Z</time>
      </trkpt>
      <trkpt lat="45.83564" lon="4.73065">
        <ele>281.60248</ele>
        <time>2022-11-20T13:53:45.000Z</time>
      </trkpt>
      <trkpt lat="45.83567" lon="4.73063">
        <ele>281.39679</ele>
        <time>2022-11-20T13:53:46.000Z</time>
      </trkpt>
      <trkpt lat="45.8357" lon="4.73061">
        <ele>281.2533</ele>
        <time>2022-11-20T13:53:47.000Z</time>
      </trkpt>
      <trkpt lat="45.83574" lon="4.7306">
        <ele>281.22134</ele>
        <time>2022-11-20T13:53:48.000Z</time>
      </trkpt>
      <trkpt lat="45.83579" lon="4.73059">
        <ele>281.46771</ele>
        <time>2022-11-20T13:53:49.000Z</time>
      </trkpt>
      <trkpt lat="45.83583" lon="4.73058">
        <ele>281.60712</ele>
        <time>2022-11-20T13:53:50.000Z</time>
      </trkpt>
      <trkpt lat="45.83587" lon="4.73057">
        <ele>281.84442</ele>
        <time>2022-11-20T13:53:51.000Z</time>
      </trkpt>
      <trkpt lat="45.8359" lon="4.73056">
        <ele>282.09891</ele>
        <time>2022-11-20T13:53:52.000Z</time>
      </trkpt>
      <trkpt lat="45.83594" lon="4.73054">
        <ele>282.34106</ele>
        <time>2022-11-20T13:53:53.000Z</time>
      </trkpt>
      <trkpt lat="45.83598" lon="4.73053">
        <ele>282.58002</ele>
        <time>2022-11-20T13:53:54.000Z</time>
      </trkpt>
      <trkpt lat="45.83603" lon="4.73051">
        <ele>282.95169</ele>
        <time>2022-11-20T13:53:55.000Z</time>
      </trkpt>
      <trkpt lat="45.83609" lon="4.73045">
        <ele>283.3653</ele>
        <time>2022-11-20T13:53:56.000Z</time>
      </trkpt>
      <trkpt lat="45.83614" lon="4.73044">
        <ele>283.66504</ele>
        <time>2022-11-20T13:53:57.000Z</time>
      </trkpt>
      <trkpt lat="45.83618" lon="4.73041">
        <ele>283.99573</ele>
        <time>2022-11-20T13:53:58.000Z</time>
      </trkpt>
      <trkpt lat="45.83622" lon="4.73038">
        <ele>284.26736</ele>
        <time>2022-11-20T13:53:59.000Z</time>
      </trkpt>
      <trkpt lat="45.83625" lon="4.73036">
        <ele>284.56232</ele>
        <time>2022-11-20T13:54:00.000Z</time>
      </trkpt>
      <trkpt lat="45.83629" lon="4.73034">
        <ele>284.8945</ele>
        <time>2022-11-20T13:54:01.000Z</time>
      </trkpt>
      <trkpt lat="45.83634" lon="4.73031">
        <ele>285.29361</ele>
        <time>2022-11-20T13:54:02.000Z</time>
      </trkpt>
      <trkpt lat="45.83639" lon="4.73031">
        <ele>285.62216</ele>
        <time>2022-11-20T13:54:03.000Z</time>
      </trkpt>
      <trkpt lat="45.83644" lon="4.7303">
        <ele>285.90024</ele>
        <time>2022-11-20T13:54:04.000Z</time>
      </trkpt>
      <trkpt lat="45.83651" lon="4.73027">
        <ele>286.09097</ele>
        <time>2022-11-20T13:54:05.000Z</time>
      </trkpt>
      <trkpt lat="45.83659" lon="4.73024">
        <ele>286.31299</ele>
        <time>2022-11-20T13:54:06.000Z</time>
      </trkpt>
      <trkpt lat="45.83665" lon="4.73025">
        <ele>286.47491</ele>
        <time>2022-11-20T13:54:07.000Z</time>
      </trkpt>
      <trkpt lat="45.83672" lon="4.73026">
        <ele>286.61395</ele>
        <time>2022-11-20T13:54:08.000Z</time>
      </trkpt>
      <trkpt lat="45.83679" lon="4.73024">
        <ele>286.79431</ele>
        <time>2022-11-20T13:54:09.000Z</time>
      </trkpt>
      <trkpt lat="45.83687" lon="4.73023">
        <ele>287.01624</ele>
        <time>2022-11-20T13:54:10.000Z</time>
      </trkpt>
      <trkpt lat="45.83695" lon="4.73023">
        <ele>287.28491</ele>
        <time>2022-11-20T13:54:11.000Z</time>
      </trkpt>
      <trkpt lat="45.83703" lon="4.73022">
        <ele>287.49734</ele>
        <time>2022-11-20T13:54:12.000Z</time>
      </trkpt>
      <trkpt lat="45.83712" lon="4.73019">
        <ele>287.59674</ele>
        <time>2022-11-20T13:54:13.000Z</time>
      </trkpt>
      <trkpt lat="45.83721" lon="4.73016">
        <ele>287.63068</ele>
        <time>2022-11-20T13:54:14.000Z</time>
      </trkpt>
      <trkpt lat="45.83724" lon="4.73013">
        <ele>287.24335</ele>
        <time>2022-11-20T13:54:15.000Z</time>
      </trkpt>
      <trkpt lat="45.8373" lon="4.73011">
        <ele>286.88263</ele>
        <time>2022-11-20T13:54:16.000Z</time>
      </trkpt>
      <trkpt lat="45.83733" lon="4.73018">
        <ele>286.61655</ele>
        <time>2022-11-20T13:54:17.000Z</time>
      </trkpt>
      <trkpt lat="45.83738" lon="4.73023">
        <ele>286.37711</ele>
        <time>2022-11-20T13:54:18.000Z</time>
      </trkpt>
      <trkpt lat="45.83741" lon="4.73028">
        <ele>286.1394</ele>
        <time>2022-11-20T13:54:19.000Z</time>
      </trkpt>
      <trkpt lat="45.83744" lon="4.73032">
        <ele>285.92416</ele>
        <time>2022-11-20T13:54:20.000Z</time>
      </trkpt>
      <trkpt lat="45.83746" lon="4.73038">
        <ele>285.61151</ele>
        <time>2022-11-20T13:54:21.000Z</time>
      </trkpt>
      <trkpt lat="45.83748" lon="4.73043">
        <ele>285.29791</ele>
        <time>2022-11-20T13:54:22.000Z</time>
      </trkpt>
      <trkpt lat="45.83752" lon="4.7305">
        <ele>285.05157</ele>
        <time>2022-11-20T13:54:23.000Z</time>
      </trkpt>
      <trkpt lat="45.83753" lon="4.73055">
        <ele>284.83807</ele>
        <time>2022-11-20T13:54:24.000Z</time>
      </trkpt>
      <trkpt lat="45.83754" lon="4.7306">
        <ele>284.16376</ele>
        <time>2022-11-20T13:54:25.000Z</time>
      </trkpt>
      <trkpt lat="45.83749" lon="4.73066">
        <ele>283.38425</ele>
        <time>2022-11-20T13:54:26.000Z</time>
      </trkpt>
      <trkpt lat="45.83748" lon="4.73072">
        <ele>282.66519</ele>
        <time>2022-11-20T13:54:27.000Z</time>
      </trkpt>
      <trkpt lat="45.83746" lon="4.73077">
        <ele>281.99442</ele>
        <time>2022-11-20T13:54:28.000Z</time>
      </trkpt>
      <trkpt lat="45.83746" lon="4.73083">
        <ele>281.28629</ele>
        <time>2022-11-20T13:54:29.000Z</time>
      </trkpt>
      <trkpt lat="45.83748" lon="4.73088">
        <ele>280.53052</ele>
        <time>2022-11-20T13:54:30.000Z</time>
      </trkpt>
      <trkpt lat="45.8375" lon="4.73095">
        <ele>279.64972</ele>
        <time>2022-11-20T13:54:31.000Z</time>
      </trkpt>
      <trkpt lat="45.83752" lon="4.73101">
        <ele>278.76913</ele>
        <time>2022-11-20T13:54:32.000Z</time>
      </trkpt>
      <trkpt lat="45.83755" lon="4.73107">
        <ele>277.96625</ele>
        <time>2022-11-20T13:54:33.000Z</time>
      </trkpt>
      <trkpt lat="45.83759" lon="4.73111">
        <ele>277.26703</ele>
        <time>2022-11-20T13:54:34.000Z</time>
      </trkpt>
      <trkpt lat="45.83761" lon="4.73118">
        <ele>276.87076</ele>
        <time>2022-11-20T13:54:35.000Z</time>
      </trkpt>
      <trkpt lat="45.83764" lon="4.73123">
        <ele>276.40829</ele>
        <time>2022-11-20T13:54:36.000Z</time>
      </trkpt>
      <trkpt lat="45.83766" lon="4.73127">
        <ele>275.9675</ele>
        <time>2022-11-20T13:54:37.000Z</time>
      </trkpt>
      <trkpt lat="45.83768" lon="4.73132">
        <ele>275.3941</ele>
        <time>2022-11-20T13:54:38.000Z</time>
      </trkpt>
      <trkpt lat="45.8377" lon="4.73137">
        <ele>274.91446</ele>
        <time>2022-11-20T13:54:39.000Z</time>
      </trkpt>
      <trkpt lat="45.8377" lon="4.73142">
        <ele>274.40256</ele>
        <time>2022-11-20T13:54:40.000Z</time>
      </trkpt>
      <trkpt lat="45.83772" lon="4.73148">
        <ele>273.83566</ele>
        <time>2022-11-20T13:54:41.000Z</time>
      </trkpt>
      <trkpt lat="45.83773" lon="4.73154">
        <ele>273.19391</ele>
        <time>2022-11-20T13:54:42.000Z</time>
      </trkpt>
      <trkpt lat="45.83774" lon="4.7316">
        <ele>272.58813</ele>
        <time>2022-11-20T13:54:43.000Z</time>
      </trkpt>
      <trkpt lat="45.83775" lon="4.73165">
        <ele>271.99017</ele>
        <time>2022-11-20T13:54:44.000Z</time>
      </trkpt>
      <trkpt lat="45.83777" lon="4.73171">
        <ele>271.96759</ele>
        <time>2022-11-20T13:54:45.000Z</time>
      </trkpt>
      <trkpt lat="45.83776" lon="4.73177">
        <ele>272.00623</ele>
        <time>2022-11-20T13:54:46.000Z</time>
      </trkpt>
      <trkpt lat="45.83776" lon="4.73181">
        <ele>272.05359</ele>
        <time>2022-11-20T13:54:47.000Z</time>
      </trkpt>
      <trkpt lat="45.83774" lon="4.73185">
        <ele>272.08218</ele>
        <time>2022-11-20T13:54:48.000Z</time>
      </trkpt>
      <trkpt lat="45.83773" lon="4.73188">
        <ele>272.11716</ele>
        <time>2022-11-20T13:54:49.000Z</time>
      </trkpt>
      <trkpt lat="45.83771" lon="4.73191">
        <ele>272.17996</ele>
        <time>2022-11-20T13:54:50.000Z</time>
      </trkpt>
      <trkpt lat="45.83769" lon="4.73194">
        <ele>272.311</ele>
        <time>2022-11-20T13:54:51.000Z</time>
      </trkpt>
      <trkpt lat="45.83767" lon="4.73197">
        <ele>272.47421</ele>
        <time>2022-11-20T13:54:52.000Z</time>
      </trkpt>
      <trkpt lat="45.83764" lon="4.732">
        <ele>272.66479</ele>
        <time>2022-11-20T13:54:53.000Z</time>
      </trkpt>
      <trkpt lat="45.83761" lon="4.73203">
        <ele>272.82404</ele>
        <time>2022-11-20T13:54:54.000Z</time>
      </trkpt>
      <trkpt lat="45.83759" lon="4.73205">
        <ele>272.96353</ele>
        <time>2022-11-20T13:54:55.000Z</time>
      </trkpt>
      <trkpt lat="45.83756" lon="4.73208">
        <ele>273.1105</ele>
        <time>2022-11-20T13:54:56.000Z</time>
      </trkpt>
      <trkpt lat="45.83753" lon="4.73211">
        <ele>273.24915</ele>
        <time>2022-11-20T13:54:57.000Z</time>
      </trkpt>
      <trkpt lat="45.8375" lon="4.73214">
        <ele>273.47067</ele>
        <time>2022-11-20T13:54:58.000Z</time>
      </trkpt>
      <trkpt lat="45.83747" lon="4.73217">
        <ele>273.66501</ele>
        <time>2022-11-20T13:54:59.000Z</time>
      </trkpt>
      <trkpt lat="45.83744" lon="4.73219">
        <ele>273.88974</ele>
        <time>2022-11-20T13:55:00.000Z</time>
      </trkpt>
      <trkpt lat="45.83741" lon="4.73222">
        <ele>274.15186</ele>
        <time>2022-11-20T13:55:01.000Z</time>
      </trkpt>
      <trkpt lat="45.83738" lon="4.73225">
        <ele>274.44534</ele>
        <time>2022-11-20T13:55:02.000Z</time>
      </trkpt>
      <trkpt lat="45.83736" lon="4.73228">
        <ele>274.62527</ele>
        <time>2022-11-20T13:55:03.000Z</time>
      </trkpt>
      <trkpt lat="45.83734" lon="4.73231">
        <ele>274.7713</ele>
        <time>2022-11-20T13:55:04.000Z</time>
      </trkpt>
      <trkpt lat="45.83731" lon="4.73234">
        <ele>274.86884</ele>
        <time>2022-11-20T13:55:05.000Z</time>
      </trkpt>
      <trkpt lat="45.83729" lon="4.73237">
        <ele>274.94562</ele>
        <time>2022-11-20T13:55:07.000Z</time>
      </trkpt>
      <trkpt lat="45.83727" lon="4.73239">
        <ele>274.99625</ele>
        <time>2022-11-20T13:55:08.000Z</time>
      </trkpt>
      <trkpt lat="45.83725" lon="4.73242">
        <ele>275.04053</ele>
        <time>2022-11-20T13:55:09.000Z</time>
      </trkpt>
      <trkpt lat="45.83723" lon="4.73246">
        <ele>275.01093</ele>
        <time>2022-11-20T13:55:11.000Z</time>
      </trkpt>
      <trkpt lat="45.83722" lon="4.73249">
        <ele>274.93436</ele>
        <time>2022-11-20T13:55:12.000Z</time>
      </trkpt>
      <trkpt lat="45.8372" lon="4.73251">
        <ele>274.82492</ele>
        <time>2022-11-20T13:55:13.000Z</time>
      </trkpt>
      <trkpt lat="45.83719" lon="4.73253">
        <ele>274.72961</ele>
        <time>2022-11-20T13:55:14.000Z</time>
      </trkpt>
      <trkpt lat="45.83717" lon="4.73255">
        <ele>274.64755</ele>
        <time>2022-11-20T13:55:15.000Z</time>
      </trkpt>
      <trkpt lat="45.83715" lon="4.73257">
        <ele>274.56973</ele>
        <time>2022-11-20T13:55:16.000Z</time>
      </trkpt>
      <trkpt lat="45.83713" lon="4.7326">
        <ele>274.53448</ele>
        <time>2022-11-20T13:55:17.000Z</time>
      </trkpt>
      <trkpt lat="45.83712" lon="4.73262">
        <ele>274.48517</ele>
        <time>2022-11-20T13:55:18.000Z</time>
      </trkpt>
      <trkpt lat="45.8371" lon="4.73265">
        <ele>274.47443</ele>
        <time>2022-11-20T13:55:19.000Z</time>
      </trkpt>
      <trkpt lat="45.83707" lon="4.73268">
        <ele>274.49756</ele>
        <time>2022-11-20T13:55:20.000Z</time>
      </trkpt>
      <trkpt lat="45.83705" lon="4.73271">
        <ele>274.52094</ele>
        <time>2022-11-20T13:55:21.000Z</time>
      </trkpt>
      <trkpt lat="45.83702" lon="4.73274">
        <ele>274.53314</ele>
        <time>2022-11-20T13:55:22.000Z</time>
      </trkpt>
      <trkpt lat="45.837" lon="4.73277">
        <ele>274.53732</ele>
        <time>2022-11-20T13:55:23.000Z</time>
      </trkpt>
      <trkpt lat="45.83698" lon="4.73279">
        <ele>274.56363</ele>
        <time>2022-11-20T13:55:24.000Z</time>
      </trkpt>
      <trkpt lat="45.83695" lon="4.73282">
        <ele>274.66617</ele>
        <time>2022-11-20T13:55:25.000Z</time>
      </trkpt>
      <trkpt lat="45.83693" lon="4.73284">
        <ele>274.79037</ele>
        <time>2022-11-20T13:55:26.000Z</time>
      </trkpt>
      <trkpt lat="45.83691" lon="4.73286">
        <ele>274.92987</ele>
        <time>2022-11-20T13:55:27.000Z</time>
      </trkpt>
      <trkpt lat="45.83689" lon="4.73288">
        <ele>275.05176</ele>
        <time>2022-11-20T13:55:28.000Z</time>
      </trkpt>
      <trkpt lat="45.83687" lon="4.73291">
        <ele>275.1954</ele>
        <time>2022-11-20T13:55:29.000Z</time>
      </trkpt>
      <trkpt lat="45.83685" lon="4.73294">
        <ele>275.35077</ele>
        <time>2022-11-20T13:55:30.000Z</time>
      </trkpt>
      <trkpt lat="45.83682" lon="4.73296">
        <ele>275.55389</ele>
        <time>2022-11-20T13:55:31.000Z</time>
      </trkpt>
      <trkpt lat="45.83681" lon="4.73298">
        <ele>275.76456</ele>
        <time>2022-11-20T13:55:32.000Z</time>
      </trkpt>
      <trkpt lat="45.83679" lon="4.73301">
        <ele>276.01218</ele>
        <time>2022-11-20T13:55:33.000Z</time>
      </trkpt>
      <trkpt lat="45.83677" lon="4.73304">
        <ele>276.26398</ele>
        <time>2022-11-20T13:55:34.000Z</time>
      </trkpt>
      <trkpt lat="45.83675" lon="4.73306">
        <ele>276.51236</ele>
        <time>2022-11-20T13:55:35.000Z</time>
      </trkpt>
      <trkpt lat="45.83674" lon="4.73309">
        <ele>276.77328</ele>
        <time>2022-11-20T13:55:36.000Z</time>
      </trkpt>
      <trkpt lat="45.83672" lon="4.73312">
        <ele>276.96683</ele>
        <time>2022-11-20T13:55:37.000Z</time>
      </trkpt>
      <trkpt lat="45.83671" lon="4.73316">
        <ele>277.15356</ele>
        <time>2022-11-20T13:55:38.000Z</time>
      </trkpt>
      <trkpt lat="45.83669" lon="4.73319">
        <ele>277.27814</ele>
        <time>2022-11-20T13:55:39.000Z</time>
      </trkpt>
      <trkpt lat="45.83667" lon="4.73322">
        <ele>277.36444</ele>
        <time>2022-11-20T13:55:40.000Z</time>
      </trkpt>
      <trkpt lat="45.83666" lon="4.73325">
        <ele>277.44354</ele>
        <time>2022-11-20T13:55:41.000Z</time>
      </trkpt>
      <trkpt lat="45.83664" lon="4.73328">
        <ele>277.54568</ele>
        <time>2022-11-20T13:55:42.000Z</time>
      </trkpt>
      <trkpt lat="45.83663" lon="4.73331">
        <ele>277.65387</ele>
        <time>2022-11-20T13:55:43.000Z</time>
      </trkpt>
      <trkpt lat="45.83661" lon="4.73334">
        <ele>277.73871</ele>
        <time>2022-11-20T13:55:44.000Z</time>
      </trkpt>
      <trkpt lat="45.8366" lon="4.73337">
        <ele>277.79224</ele>
        <time>2022-11-20T13:55:45.000Z</time>
      </trkpt>
      <trkpt lat="45.83658" lon="4.7334">
        <ele>277.85321</ele>
        <time>2022-11-20T13:55:46.000Z</time>
      </trkpt>
      <trkpt lat="45.83657" lon="4.73342">
        <ele>277.92154</ele>
        <time>2022-11-20T13:55:47.000Z</time>
      </trkpt>
      <trkpt lat="45.83655" lon="4.73346">
        <ele>278.03098</ele>
        <time>2022-11-20T13:55:48.000Z</time>
      </trkpt>
      <trkpt lat="45.83654" lon="4.73349">
        <ele>278.11807</ele>
        <time>2022-11-20T13:55:49.000Z</time>
      </trkpt>
      <trkpt lat="45.83653" lon="4.73352">
        <ele>278.18967</ele>
        <time>2022-11-20T13:55:50.000Z</time>
      </trkpt>
      <trkpt lat="45.83653" lon="4.73356">
        <ele>278.31903</ele>
        <time>2022-11-20T13:55:51.000Z</time>
      </trkpt>
      <trkpt lat="45.83652" lon="4.73359">
        <ele>278.43399</ele>
        <time>2022-11-20T13:55:52.000Z</time>
      </trkpt>
      <trkpt lat="45.83651" lon="4.73363">
        <ele>278.55103</ele>
        <time>2022-11-20T13:55:53.000Z</time>
      </trkpt>
      <trkpt lat="45.83651" lon="4.73365">
        <ele>278.63354</ele>
        <time>2022-11-20T13:55:54.000Z</time>
      </trkpt>
      <trkpt lat="45.8365" lon="4.73368">
        <ele>278.75137</ele>
        <time>2022-11-20T13:55:55.000Z</time>
      </trkpt>
      <trkpt lat="45.83649" lon="4.73371">
        <ele>278.88449</ele>
        <time>2022-11-20T13:55:56.000Z</time>
      </trkpt>
      <trkpt lat="45.83649" lon="4.73374">
        <ele>279.05219</ele>
        <time>2022-11-20T13:55:57.000Z</time>
      </trkpt>
      <trkpt lat="45.83649" lon="4.73377">
        <ele>279.20993</ele>
        <time>2022-11-20T13:55:58.000Z</time>
      </trkpt>
      <trkpt lat="45.83649" lon="4.7338">
        <ele>279.37509</ele>
        <time>2022-11-20T13:55:59.000Z</time>
      </trkpt>
      <trkpt lat="45.8365" lon="4.73382">
        <ele>279.56915</ele>
        <time>2022-11-20T13:56:00.000Z</time>
      </trkpt>
      <trkpt lat="45.8365" lon="4.73385">
        <ele>279.74222</ele>
        <time>2022-11-20T13:56:01.000Z</time>
      </trkpt>
      <trkpt lat="45.8365" lon="4.73388">
        <ele>279.86844</ele>
        <time>2022-11-20T13:56:02.000Z</time>
      </trkpt>
      <trkpt lat="45.8365" lon="4.73393">
        <ele>279.99249</ele>
        <time>2022-11-20T13:56:04.000Z</time>
      </trkpt>
      <trkpt lat="45.83651" lon="4.73396">
        <ele>280.10284</ele>
        <time>2022-11-20T13:56:05.000Z</time>
      </trkpt>
      <trkpt lat="45.83652" lon="4.73401">
        <ele>280.24799</ele>
        <time>2022-11-20T13:56:07.000Z</time>
      </trkpt>
      <trkpt lat="45.83652" lon="4.73404">
        <ele>280.40063</ele>
        <time>2022-11-20T13:56:08.000Z</time>
      </trkpt>
      <trkpt lat="45.83652" lon="4.73407">
        <ele>280.53946</ele>
        <time>2022-11-20T13:56:09.000Z</time>
      </trkpt>
      <trkpt lat="45.83653" lon="4.7341">
        <ele>280.67401</ele>
        <time>2022-11-20T13:56:10.000Z</time>
      </trkpt>
      <trkpt lat="45.83654" lon="4.73413">
        <ele>280.80646</ele>
        <time>2022-11-20T13:56:11.000Z</time>
      </trkpt>
      <trkpt lat="45.83655" lon="4.73416">
        <ele>280.91885</ele>
        <time>2022-11-20T13:56:12.000Z</time>
      </trkpt>
      <trkpt lat="45.83655" lon="4.73419">
        <ele>280.96475</ele>
        <time>2022-11-20T13:56:13.000Z</time>
      </trkpt>
      <trkpt lat="45.83655" lon="4.73421">
        <ele>281.05646</ele>
        <time>2022-11-20T13:56:14.000Z</time>
      </trkpt>
      <trkpt lat="45.83656" lon="4.73424">
        <ele>281.14499</ele>
        <time>2022-11-20T13:56:15.000Z</time>
      </trkpt>
      <trkpt lat="45.83657" lon="4.73428">
        <ele>281.2236</ele>
        <time>2022-11-20T13:56:16.000Z</time>
      </trkpt>
      <trkpt lat="45.83657" lon="4.73431">
        <ele>281.25052</ele>
        <time>2022-11-20T13:56:17.000Z</time>
      </trkpt>
      <trkpt lat="45.83658" lon="4.73434">
        <ele>281.21793</ele>
        <time>2022-11-20T13:56:18.000Z</time>
      </trkpt>
      <trkpt lat="45.83658" lon="4.73437">
        <ele>281.16684</ele>
        <time>2022-11-20T13:56:19.000Z</time>
      </trkpt>
      <trkpt lat="45.83658" lon="4.7344">
        <ele>281.12762</ele>
        <time>2022-11-20T13:56:20.000Z</time>
      </trkpt>
      <trkpt lat="45.83658" lon="4.73442">
        <ele>281.09317</ele>
        <time>2022-11-20T13:56:21.000Z</time>
      </trkpt>
      <trkpt lat="45.83658" lon="4.73445">
        <ele>281.06247</ele>
        <time>2022-11-20T13:56:22.000Z</time>
      </trkpt>
      <trkpt lat="45.83659" lon="4.73448">
        <ele>281.04007</ele>
        <time>2022-11-20T13:56:23.000Z</time>
      </trkpt>
      <trkpt lat="45.8366" lon="4.73451">
        <ele>281.04929</ele>
        <time>2022-11-20T13:56:24.000Z</time>
      </trkpt>
      <trkpt lat="45.8366" lon="4.73454">
        <ele>281.11371</ele>
        <time>2022-11-20T13:56:25.000Z</time>
      </trkpt>
      <trkpt lat="45.83661" lon="4.73457">
        <ele>281.62219</ele>
        <time>2022-11-20T13:56:26.000Z</time>
      </trkpt>
      <trkpt lat="45.83662" lon="4.7346">
        <ele>282.10455</ele>
        <time>2022-11-20T13:56:27.000Z</time>
      </trkpt>
      <trkpt lat="45.83663" lon="4.73463">
        <ele>282.55829</ele>
        <time>2022-11-20T13:56:28.000Z</time>
      </trkpt>
      <trkpt lat="45.83664" lon="4.73466">
        <ele>283.03696</ele>
        <time>2022-11-20T13:56:29.000Z</time>
      </trkpt>
      <trkpt lat="45.83666" lon="4.73468">
        <ele>283.53668</ele>
        <time>2022-11-20T13:56:30.000Z</time>
      </trkpt>
      <trkpt lat="45.83667" lon="4.73471">
        <ele>284.04034</ele>
        <time>2022-11-20T13:56:31.000Z</time>
      </trkpt>
      <trkpt lat="45.83668" lon="4.73474">
        <ele>284.14835</ele>
        <time>2022-11-20T13:56:32.000Z</time>
      </trkpt>
      <trkpt lat="45.83669" lon="4.73477">
        <ele>284.3027</ele>
        <time>2022-11-20T13:56:33.000Z</time>
      </trkpt>
      <trkpt lat="45.83671" lon="4.73479">
        <ele>284.42242</ele>
        <time>2022-11-20T13:56:34.000Z</time>
      </trkpt>
      <trkpt lat="45.83672" lon="4.73482">
        <ele>284.56512</ele>
        <time>2022-11-20T13:56:35.000Z</time>
      </trkpt>
      <trkpt lat="45.83674" lon="4.73485">
        <ele>284.70547</ele>
        <time>2022-11-20T13:56:36.000Z</time>
      </trkpt>
      <trkpt lat="45.83675" lon="4.73487">
        <ele>284.85699</ele>
        <time>2022-11-20T13:56:37.000Z</time>
      </trkpt>
      <trkpt lat="45.83677" lon="4.7349">
        <ele>285.04556</ele>
        <time>2022-11-20T13:56:38.000Z</time>
      </trkpt>
      <trkpt lat="45.83678" lon="4.73492">
        <ele>285.242</ele>
        <time>2022-11-20T13:56:39.000Z</time>
      </trkpt>
      <trkpt lat="45.8368" lon="4.73495">
        <ele>285.44342</ele>
        <time>2022-11-20T13:56:40.000Z</time>
      </trkpt>
      <trkpt lat="45.83681" lon="4.73498">
        <ele>285.63589</ele>
        <time>2022-11-20T13:56:41.000Z</time>
      </trkpt>
      <trkpt lat="45.83683" lon="4.735">
        <ele>285.76285</ele>
        <time>2022-11-20T13:56:42.000Z</time>
      </trkpt>
      <trkpt lat="45.83684" lon="4.73503">
        <ele>285.92117</ele>
        <time>2022-11-20T13:56:43.000Z</time>
      </trkpt>
      <trkpt lat="45.83686" lon="4.73506">
        <ele>286.07135</ele>
        <time>2022-11-20T13:56:44.000Z</time>
      </trkpt>
      <trkpt lat="45.83687" lon="4.73509">
        <ele>286.16135</ele>
        <time>2022-11-20T13:56:45.000Z</time>
      </trkpt>
      <trkpt lat="45.83689" lon="4.73512">
        <ele>285.80829</ele>
        <time>2022-11-20T13:56:46.000Z</time>
      </trkpt>
      <trkpt lat="45.8369" lon="4.73516">
        <ele>285.46436</ele>
        <time>2022-11-20T13:56:47.000Z</time>
      </trkpt>
      <trkpt lat="45.83691" lon="4.73519">
        <ele>285.11295</ele>
        <time>2022-11-20T13:56:48.000Z</time>
      </trkpt>
      <trkpt lat="45.83692" lon="4.73522">
        <ele>284.74866</ele>
        <time>2022-11-20T13:56:49.000Z</time>
      </trkpt>
      <trkpt lat="45.83693" lon="4.73525">
        <ele>284.36697</ele>
        <time>2022-11-20T13:56:50.000Z</time>
      </trkpt>
      <trkpt lat="45.83694" lon="4.73528">
        <ele>283.97903</ele>
        <time>2022-11-20T13:56:51.000Z</time>
      </trkpt>
      <trkpt lat="45.83695" lon="4.73531">
        <ele>284.01202</ele>
        <time>2022-11-20T13:56:52.000Z</time>
      </trkpt>
      <trkpt lat="45.83696" lon="4.73534">
        <ele>284.01971</ele>
        <time>2022-11-20T13:56:53.000Z</time>
      </trkpt>
      <trkpt lat="45.83697" lon="4.73537">
        <ele>284.03149</ele>
        <time>2022-11-20T13:56:54.000Z</time>
      </trkpt>
      <trkpt lat="45.83697" lon="4.7354">
        <ele>284.01416</ele>
        <time>2022-11-20T13:56:55.000Z</time>
      </trkpt>
      <trkpt lat="45.83698" lon="4.73543">
        <ele>284.00421</ele>
        <time>2022-11-20T13:56:56.000Z</time>
      </trkpt>
      <trkpt lat="45.837" lon="4.73546">
        <ele>283.98477</ele>
        <time>2022-11-20T13:56:57.000Z</time>
      </trkpt>
      <trkpt lat="45.83701" lon="4.73549">
        <ele>283.96027</ele>
        <time>2022-11-20T13:56:58.000Z</time>
      </trkpt>
      <trkpt lat="45.83701" lon="4.73552">
        <ele>283.94263</ele>
        <time>2022-11-20T13:56:59.000Z</time>
      </trkpt>
      <trkpt lat="45.83702" lon="4.73555">
        <ele>283.91721</ele>
        <time>2022-11-20T13:57:00.000Z</time>
      </trkpt>
      <trkpt lat="45.83703" lon="4.73558">
        <ele>283.88614</ele>
        <time>2022-11-20T13:57:01.000Z</time>
      </trkpt>
      <trkpt lat="45.83704" lon="4.73561">
        <ele>283.90826</ele>
        <time>2022-11-20T13:57:02.000Z</time>
      </trkpt>
      <trkpt lat="45.83705" lon="4.73564">
        <ele>283.89297</ele>
        <time>2022-11-20T13:57:03.000Z</time>
      </trkpt>
      <trkpt lat="45.83705" lon="4.73567">
        <ele>283.88458</ele>
        <time>2022-11-20T13:57:04.000Z</time>
      </trkpt>
      <trkpt lat="45.83706" lon="4.7357">
        <ele>283.88513</ele>
        <time>2022-11-20T13:57:05.000Z</time>
      </trkpt>
      <trkpt lat="45.83707" lon="4.73574">
        <ele>283.89752</ele>
        <time>2022-11-20T13:57:06.000Z</time>
      </trkpt>
      <trkpt lat="45.83707" lon="4.73577">
        <ele>283.91705</ele>
        <time>2022-11-20T13:57:07.000Z</time>
      </trkpt>
      <trkpt lat="45.83707" lon="4.73581">
        <ele>283.94727</ele>
        <time>2022-11-20T13:57:08.000Z</time>
      </trkpt>
      <trkpt lat="45.83705" lon="4.73584">
        <ele>284.0152</ele>
        <time>2022-11-20T13:57:09.000Z</time>
      </trkpt>
      <trkpt lat="45.83704" lon="4.73587">
        <ele>284.07388</ele>
        <time>2022-11-20T13:57:10.000Z</time>
      </trkpt>
      <trkpt lat="45.83702" lon="4.7359">
        <ele>284.1517</ele>
        <time>2022-11-20T13:57:11.000Z</time>
      </trkpt>
      <trkpt lat="45.83701" lon="4.73592">
        <ele>284.22964</ele>
        <time>2022-11-20T13:57:12.000Z</time>
      </trkpt>
      <trkpt lat="45.83699" lon="4.73594">
        <ele>284.32767</ele>
        <time>2022-11-20T13:57:13.000Z</time>
      </trkpt>
      <trkpt lat="45.83696" lon="4.73595">
        <ele>284.44061</ele>
        <time>2022-11-20T13:57:14.000Z</time>
      </trkpt>
      <trkpt lat="45.83694" lon="4.73597">
        <ele>284.55197</ele>
        <time>2022-11-20T13:57:15.000Z</time>
      </trkpt>
      <trkpt lat="45.83692" lon="4.73597">
        <ele>284.68381</ele>
        <time>2022-11-20T13:57:16.000Z</time>
      </trkpt>
      <trkpt lat="45.8369" lon="4.73599">
        <ele>284.8125</ele>
        <time>2022-11-20T13:57:17.000Z</time>
      </trkpt>
      <trkpt lat="45.83687" lon="4.736">
        <ele>284.95758</ele>
        <time>2022-11-20T13:57:18.000Z</time>
      </trkpt>
      <trkpt lat="45.83685" lon="4.736">
        <ele>285.08905</ele>
        <time>2022-11-20T13:57:19.000Z</time>
      </trkpt>
      <trkpt lat="45.83682" lon="4.73601">
        <ele>285.19073</ele>
        <time>2022-11-20T13:57:20.000Z</time>
      </trkpt>
      <trkpt lat="45.8368" lon="4.73601">
        <ele>285.3421</ele>
        <time>2022-11-20T13:57:21.000Z</time>
      </trkpt>
      <trkpt lat="45.83677" lon="4.73602">
        <ele>285.49011</ele>
        <time>2022-11-20T13:57:23.000Z</time>
      </trkpt>
      <trkpt lat="45.83674" lon="4.73602">
        <ele>285.67212</ele>
        <time>2022-11-20T13:57:24.000Z</time>
      </trkpt>
      <trkpt lat="45.83671" lon="4.73602">
        <ele>285.88968</ele>
        <time>2022-11-20T13:57:25.000Z</time>
      </trkpt>
      <trkpt lat="45.83668" lon="4.73602">
        <ele>286.1218</ele>
        <time>2022-11-20T13:57:26.000Z</time>
      </trkpt>
      <trkpt lat="45.83665" lon="4.73602">
        <ele>286.28775</ele>
        <time>2022-11-20T13:57:27.000Z</time>
      </trkpt>
      <trkpt lat="45.83663" lon="4.73603">
        <ele>286.41077</ele>
        <time>2022-11-20T13:57:28.000Z</time>
      </trkpt>
      <trkpt lat="45.8366" lon="4.73604">
        <ele>286.53558</ele>
        <time>2022-11-20T13:57:29.000Z</time>
      </trkpt>
      <trkpt lat="45.83658" lon="4.73605">
        <ele>286.5661</ele>
        <time>2022-11-20T13:57:30.000Z</time>
      </trkpt>
      <trkpt lat="45.83655" lon="4.73606">
        <ele>286.59778</ele>
        <time>2022-11-20T13:57:31.000Z</time>
      </trkpt>
      <trkpt lat="45.83653" lon="4.73607">
        <ele>286.61194</ele>
        <time>2022-11-20T13:57:32.000Z</time>
      </trkpt>
      <trkpt lat="45.83651" lon="4.73608">
        <ele>286.61249</ele>
        <time>2022-11-20T13:57:33.000Z</time>
      </trkpt>
      <trkpt lat="45.83649" lon="4.73609">
        <ele>286.60828</ele>
        <time>2022-11-20T13:57:34.000Z</time>
      </trkpt>
      <trkpt lat="45.83646" lon="4.7361">
        <ele>286.58261</ele>
        <time>2022-11-20T13:57:35.000Z</time>
      </trkpt>
      <trkpt lat="45.83644" lon="4.73611">
        <ele>286.54449</ele>
        <time>2022-11-20T13:57:36.000Z</time>
      </trkpt>
      <trkpt lat="45.83642" lon="4.73612">
        <ele>286.49762</ele>
        <time>2022-11-20T13:57:37.000Z</time>
      </trkpt>
      <trkpt lat="45.83639" lon="4.73612">
        <ele>286.4371</ele>
        <time>2022-11-20T13:57:38.000Z</time>
      </trkpt>
      <trkpt lat="45.83636" lon="4.73613">
        <ele>286.37128</ele>
        <time>2022-11-20T13:57:39.000Z</time>
      </trkpt>
      <trkpt lat="45.83633" lon="4.73614">
        <ele>286.34537</ele>
        <time>2022-11-20T13:57:40.000Z</time>
      </trkpt>
      <trkpt lat="45.83631" lon="4.73615">
        <ele>286.3158</ele>
        <time>2022-11-20T13:57:41.000Z</time>
      </trkpt>
      <trkpt lat="45.83629" lon="4.73616">
        <ele>286.22394</ele>
        <time>2022-11-20T13:57:42.000Z</time>
      </trkpt>
      <trkpt lat="45.83627" lon="4.73616">
        <ele>286.13605</ele>
        <time>2022-11-20T13:57:43.000Z</time>
      </trkpt>
      <trkpt lat="45.83624" lon="4.73617">
        <ele>286.04605</ele>
        <time>2022-11-20T13:57:44.000Z</time>
      </trkpt>
      <trkpt lat="45.83621" lon="4.73619">
        <ele>285.95392</ele>
        <time>2022-11-20T13:57:45.000Z</time>
      </trkpt>
      <trkpt lat="45.83618" lon="4.7362">
        <ele>285.87503</ele>
        <time>2022-11-20T13:57:46.000Z</time>
      </trkpt>
      <trkpt lat="45.83616" lon="4.73621">
        <ele>285.85483</ele>
        <time>2022-11-20T13:57:47.000Z</time>
      </trkpt>
      <trkpt lat="45.83613" lon="4.73622">
        <ele>285.88971</ele>
        <time>2022-11-20T13:57:48.000Z</time>
      </trkpt>
      <trkpt lat="45.8361" lon="4.73624">
        <ele>285.92447</ele>
        <time>2022-11-20T13:57:49.000Z</time>
      </trkpt>
      <trkpt lat="45.83608" lon="4.73625">
        <ele>285.98871</ele>
        <time>2022-11-20T13:57:50.000Z</time>
      </trkpt>
      <trkpt lat="45.83606" lon="4.73627">
        <ele>286.06122</ele>
        <time>2022-11-20T13:57:51.000Z</time>
      </trkpt>
      <trkpt lat="45.83603" lon="4.73629">
        <ele>286.10938</ele>
        <time>2022-11-20T13:57:52.000Z</time>
      </trkpt>
      <trkpt lat="45.836" lon="4.73631">
        <ele>286.28214</ele>
        <time>2022-11-20T13:57:53.000Z</time>
      </trkpt>
      <trkpt lat="45.83597" lon="4.73633">
        <ele>286.40665</ele>
        <time>2022-11-20T13:57:54.000Z</time>
      </trkpt>
      <trkpt lat="45.83594" lon="4.73634">
        <ele>286.53326</ele>
        <time>2022-11-20T13:57:55.000Z</time>
      </trkpt>
      <trkpt lat="45.83592" lon="4.73635">
        <ele>286.6384</ele>
        <time>2022-11-20T13:57:56.000Z</time>
      </trkpt>
      <trkpt lat="45.83589" lon="4.73637">
        <ele>286.73251</ele>
        <time>2022-11-20T13:57:57.000Z</time>
      </trkpt>
      <trkpt lat="45.83586" lon="4.73639">
        <ele>286.86169</ele>
        <time>2022-11-20T13:57:58.000Z</time>
      </trkpt>
      <trkpt lat="45.83583" lon="4.7364">
        <ele>287.00073</ele>
        <time>2022-11-20T13:57:59.000Z</time>
      </trkpt>
      <trkpt lat="45.83581" lon="4.73642">
        <ele>287.09167</ele>
        <time>2022-11-20T13:58:00.000Z</time>
      </trkpt>
      <trkpt lat="45.83578" lon="4.73643">
        <ele>287.22345</ele>
        <time>2022-11-20T13:58:01.000Z</time>
      </trkpt>
      <trkpt lat="45.83575" lon="4.73646">
        <ele>287.39453</ele>
        <time>2022-11-20T13:58:02.000Z</time>
      </trkpt>
      <trkpt lat="45.83573" lon="4.73648">
        <ele>287.58667</ele>
        <time>2022-11-20T13:58:03.000Z</time>
      </trkpt>
      <trkpt lat="45.8357" lon="4.7365">
        <ele>287.77386</ele>
        <time>2022-11-20T13:58:04.000Z</time>
      </trkpt>
      <trkpt lat="45.83568" lon="4.73653">
        <ele>287.90094</ele>
        <time>2022-11-20T13:58:05.000Z</time>
      </trkpt>
      <trkpt lat="45.83565" lon="4.73655">
        <ele>287.96997</ele>
        <time>2022-11-20T13:58:06.000Z</time>
      </trkpt>
      <trkpt lat="45.83562" lon="4.73658">
        <ele>288.00146</ele>
        <time>2022-11-20T13:58:07.000Z</time>
      </trkpt>
      <trkpt lat="45.8356" lon="4.7366">
        <ele>288.01788</ele>
        <time>2022-11-20T13:58:08.000Z</time>
      </trkpt>
      <trkpt lat="45.83558" lon="4.73663">
        <ele>287.99857</ele>
        <time>2022-11-20T13:58:09.000Z</time>
      </trkpt>
      <trkpt lat="45.83556" lon="4.73667">
        <ele>288.01581</ele>
        <time>2022-11-20T13:58:10.000Z</time>
      </trkpt>
      <trkpt lat="45.83554" lon="4.7367">
        <ele>288.02521</ele>
        <time>2022-11-20T13:58:11.000Z</time>
      </trkpt>
      <trkpt lat="45.83552" lon="4.73674">
        <ele>288.082</ele>
        <time>2022-11-20T13:58:12.000Z</time>
      </trkpt>
      <trkpt lat="45.83549" lon="4.73677">
        <ele>288.00113</ele>
        <time>2022-11-20T13:58:13.000Z</time>
      </trkpt>
      <trkpt lat="45.83547" lon="4.7368">
        <ele>287.96637</ele>
        <time>2022-11-20T13:58:14.000Z</time>
      </trkpt>
      <trkpt lat="45.83545" lon="4.73683">
        <ele>287.93839</ele>
        <time>2022-11-20T13:58:15.000Z</time>
      </trkpt>
      <trkpt lat="45.83543" lon="4.73686">
        <ele>287.97559</ele>
        <time>2022-11-20T13:58:16.000Z</time>
      </trkpt>
      <trkpt lat="45.8354" lon="4.73689">
        <ele>288.021</ele>
        <time>2022-11-20T13:58:17.000Z</time>
      </trkpt>
      <trkpt lat="45.83537" lon="4.73692">
        <ele>287.9744</ele>
        <time>2022-11-20T13:58:18.000Z</time>
      </trkpt>
      <trkpt lat="45.83535" lon="4.73695">
        <ele>288.4053</ele>
        <time>2022-11-20T13:58:19.000Z</time>
      </trkpt>
      <trkpt lat="45.83533" lon="4.73697">
        <ele>288.84</ele>
        <time>2022-11-20T13:58:20.000Z</time>
      </trkpt>
      <trkpt lat="45.8353" lon="4.73699">
        <ele>289.29465</ele>
        <time>2022-11-20T13:58:21.000Z</time>
      </trkpt>
      <trkpt lat="45.83527" lon="4.73701">
        <ele>289.75391</ele>
        <time>2022-11-20T13:58:22.000Z</time>
      </trkpt>
      <trkpt lat="45.83525" lon="4.73703">
        <ele>290.21249</ele>
        <time>2022-11-20T13:58:23.000Z</time>
      </trkpt>
      <trkpt lat="45.83522" lon="4.73705">
        <ele>290.63608</ele>
        <time>2022-11-20T13:58:24.000Z</time>
      </trkpt>
      <trkpt lat="45.83519" lon="4.73707">
        <ele>291.09598</ele>
        <time>2022-11-20T13:58:25.000Z</time>
      </trkpt>
      <trkpt lat="45.83517" lon="4.73709">
        <ele>291.57584</ele>
        <time>2022-11-20T13:58:26.000Z</time>
      </trkpt>
      <trkpt lat="45.83514" lon="4.7371">
        <ele>292.08188</ele>
        <time>2022-11-20T13:58:27.000Z</time>
      </trkpt>
      <trkpt lat="45.83511" lon="4.73712">
        <ele>292.58313</ele>
        <time>2022-11-20T13:58:28.000Z</time>
      </trkpt>
      <trkpt lat="45.83508" lon="4.73713">
        <ele>293.104</ele>
        <time>2022-11-20T13:58:29.000Z</time>
      </trkpt>
      <trkpt lat="45.83505" lon="4.73714">
        <ele>293.67719</ele>
        <time>2022-11-20T13:58:30.000Z</time>
      </trkpt>
      <trkpt lat="45.83502" lon="4.73716">
        <ele>294.25876</ele>
        <time>2022-11-20T13:58:31.000Z</time>
      </trkpt>
      <trkpt lat="45.83499" lon="4.73717">
        <ele>294.82755</ele>
        <time>2022-11-20T13:58:32.000Z</time>
      </trkpt>
      <trkpt lat="45.83497" lon="4.73718">
        <ele>295.4118</ele>
        <time>2022-11-20T13:58:33.000Z</time>
      </trkpt>
      <trkpt lat="45.83494" lon="4.73719">
        <ele>295.99857</ele>
        <time>2022-11-20T13:58:34.000Z</time>
      </trkpt>
      <trkpt lat="45.83491" lon="4.7372">
        <ele>296.60373</ele>
        <time>2022-11-20T13:58:35.000Z</time>
      </trkpt>
      <trkpt lat="45.83488" lon="4.73721">
        <ele>297.18893</ele>
        <time>2022-11-20T13:58:36.000Z</time>
      </trkpt>
      <trkpt lat="45.83485" lon="4.73721">
        <ele>297.76453</ele>
        <time>2022-11-20T13:58:37.000Z</time>
      </trkpt>
      <trkpt lat="45.83482" lon="4.73721">
        <ele>298.43158</ele>
        <time>2022-11-20T13:58:38.000Z</time>
      </trkpt>
      <trkpt lat="45.83479" lon="4.73721">
        <ele>298.59647</ele>
        <time>2022-11-20T13:58:39.000Z</time>
      </trkpt>
      <trkpt lat="45.83476" lon="4.73721">
        <ele>298.77838</ele>
        <time>2022-11-20T13:58:40.000Z</time>
      </trkpt>
      <trkpt lat="45.83473" lon="4.73721">
        <ele>298.92792</ele>
        <time>2022-11-20T13:58:41.000Z</time>
      </trkpt>
      <trkpt lat="45.8347" lon="4.73722">
        <ele>299.05246</ele>
        <time>2022-11-20T13:58:42.000Z</time>
      </trkpt>
      <trkpt lat="45.83467" lon="4.73722">
        <ele>299.13617</ele>
        <time>2022-11-20T13:58:43.000Z</time>
      </trkpt>
      <trkpt lat="45.83464" lon="4.73722">
        <ele>299.23291</ele>
        <time>2022-11-20T13:58:44.000Z</time>
      </trkpt>
      <trkpt lat="45.83461" lon="4.73722">
        <ele>299.29468</ele>
        <time>2022-11-20T13:58:45.000Z</time>
      </trkpt>
      <trkpt lat="45.83458" lon="4.73722">
        <ele>299.37015</ele>
        <time>2022-11-20T13:58:46.000Z</time>
      </trkpt>
      <trkpt lat="45.83455" lon="4.73722">
        <ele>299.45624</ele>
        <time>2022-11-20T13:58:47.000Z</time>
      </trkpt>
      <trkpt lat="45.83452" lon="4.73722">
        <ele>299.54868</ele>
        <time>2022-11-20T13:58:48.000Z</time>
      </trkpt>
      <trkpt lat="45.83449" lon="4.73722">
        <ele>299.64984</ele>
        <time>2022-11-20T13:58:49.000Z</time>
      </trkpt>
      <trkpt lat="45.83446" lon="4.73723">
        <ele>299.69305</ele>
        <time>2022-11-20T13:58:50.000Z</time>
      </trkpt>
      <trkpt lat="45.83443" lon="4.73723">
        <ele>299.72946</ele>
        <time>2022-11-20T13:58:51.000Z</time>
      </trkpt>
      <trkpt lat="45.8344" lon="4.73723">
        <ele>299.74948</ele>
        <time>2022-11-20T13:58:52.000Z</time>
      </trkpt>
      <trkpt lat="45.83437" lon="4.73723">
        <ele>299.77789</ele>
        <time>2022-11-20T13:58:53.000Z</time>
      </trkpt>
      <trkpt lat="45.83434" lon="4.73723">
        <ele>299.8421</ele>
        <time>2022-11-20T13:58:54.000Z</time>
      </trkpt>
      <trkpt lat="45.83431" lon="4.73723">
        <ele>299.74844</ele>
        <time>2022-11-20T13:58:55.000Z</time>
      </trkpt>
      <trkpt lat="45.83428" lon="4.73723">
        <ele>299.67072</ele>
        <time>2022-11-20T13:58:56.000Z</time>
      </trkpt>
      <trkpt lat="45.83425" lon="4.73723">
        <ele>299.57904</ele>
        <time>2022-11-20T13:58:57.000Z</time>
      </trkpt>
      <trkpt lat="45.83422" lon="4.73723">
        <ele>299.46521</ele>
        <time>2022-11-20T13:58:58.000Z</time>
      </trkpt>
      <trkpt lat="45.83419" lon="4.73724">
        <ele>299.34262</ele>
        <time>2022-11-20T13:58:59.000Z</time>
      </trkpt>
      <trkpt lat="45.83416" lon="4.73724">
        <ele>299.22119</ele>
        <time>2022-11-20T13:59:00.000Z</time>
      </trkpt>
      <trkpt lat="45.83413" lon="4.73724">
        <ele>299.10773</ele>
        <time>2022-11-20T13:59:01.000Z</time>
      </trkpt>
      <trkpt lat="45.8341" lon="4.73724">
        <ele>299.00848</ele>
        <time>2022-11-20T13:59:02.000Z</time>
      </trkpt>
      <trkpt lat="45.83407" lon="4.73724">
        <ele>298.92703</ele>
        <time>2022-11-20T13:59:03.000Z</time>
      </trkpt>
      <trkpt lat="45.83404" lon="4.73725">
        <ele>298.85797</ele>
        <time>2022-11-20T13:59:04.000Z</time>
      </trkpt>
      <trkpt lat="45.83401" lon="4.73725">
        <ele>298.80017</ele>
        <time>2022-11-20T13:59:05.000Z</time>
      </trkpt>
      <trkpt lat="45.83398" lon="4.73726">
        <ele>298.73978</ele>
        <time>2022-11-20T13:59:06.000Z</time>
      </trkpt>
      <trkpt lat="45.83395" lon="4.73726">
        <ele>298.68762</ele>
        <time>2022-11-20T13:59:07.000Z</time>
      </trkpt>
      <trkpt lat="45.83392" lon="4.73727">
        <ele>298.63177</ele>
        <time>2022-11-20T13:59:08.000Z</time>
      </trkpt>
      <trkpt lat="45.83389" lon="4.73727">
        <ele>298.60275</ele>
        <time>2022-11-20T13:59:09.000Z</time>
      </trkpt>
      <trkpt lat="45.83386" lon="4.73727">
        <ele>298.56985</ele>
        <time>2022-11-20T13:59:10.000Z</time>
      </trkpt>
      <trkpt lat="45.83383" lon="4.73728">
        <ele>298.52823</ele>
        <time>2022-11-20T13:59:11.000Z</time>
      </trkpt>
      <trkpt lat="45.8338" lon="4.73728">
        <ele>298.50052</ele>
        <time>2022-11-20T13:59:12.000Z</time>
      </trkpt>
      <trkpt lat="45.83377" lon="4.73728">
        <ele>298.46439</ele>
        <time>2022-11-20T13:59:13.000Z</time>
      </trkpt>
      <trkpt lat="45.83374" lon="4.73729">
        <ele>298.39276</ele>
        <time>2022-11-20T13:59:14.000Z</time>
      </trkpt>
      <trkpt lat="45.83371" lon="4.73729">
        <ele>298.46155</ele>
        <time>2022-11-20T13:59:15.000Z</time>
      </trkpt>
      <trkpt lat="45.83368" lon="4.73729">
        <ele>298.4985</ele>
        <time>2022-11-20T13:59:16.000Z</time>
      </trkpt>
      <trkpt lat="45.83365" lon="4.73729">
        <ele>298.54352</ele>
        <time>2022-11-20T13:59:17.000Z</time>
      </trkpt>
      <trkpt lat="45.83362" lon="4.73729">
        <ele>298.60605</ele>
        <time>2022-11-20T13:59:18.000Z</time>
      </trkpt>
      <trkpt lat="45.83359" lon="4.73729">
        <ele>298.69098</ele>
        <time>2022-11-20T13:59:19.000Z</time>
      </trkpt>
      <trkpt lat="45.83356" lon="4.73729">
        <ele>298.7836</ele>
        <time>2022-11-20T13:59:20.000Z</time>
      </trkpt>
      <trkpt lat="45.83352" lon="4.73729">
        <ele>298.87399</ele>
        <time>2022-11-20T13:59:21.000Z</time>
      </trkpt>
      <trkpt lat="45.83349" lon="4.73729">
        <ele>298.9408</ele>
        <time>2022-11-20T13:59:22.000Z</time>
      </trkpt>
      <trkpt lat="45.83346" lon="4.73729">
        <ele>299.0177</ele>
        <time>2022-11-20T13:59:23.000Z</time>
      </trkpt>
      <trkpt lat="45.83343" lon="4.73729">
        <ele>299.07932</ele>
        <time>2022-11-20T13:59:24.000Z</time>
      </trkpt>
      <trkpt lat="45.83339" lon="4.73729">
        <ele>299.13507</ele>
        <time>2022-11-20T13:59:25.000Z</time>
      </trkpt>
      <trkpt lat="45.83336" lon="4.7373">
        <ele>299.20282</ele>
        <time>2022-11-20T13:59:26.000Z</time>
      </trkpt>
      <trkpt lat="45.83332" lon="4.7373">
        <ele>299.24692</ele>
        <time>2022-11-20T13:59:27.000Z</time>
      </trkpt>
      <trkpt lat="45.83328" lon="4.73731">
        <ele>299.2901</ele>
        <time>2022-11-20T13:59:28.000Z</time>
      </trkpt>
      <trkpt lat="45.83324" lon="4.73732">
        <ele>299.30963</ele>
        <time>2022-11-20T13:59:29.000Z</time>
      </trkpt>
      <trkpt lat="45.83321" lon="4.73733">
        <ele>299.36768</ele>
        <time>2022-11-20T13:59:30.000Z</time>
      </trkpt>
      <trkpt lat="45.83317" lon="4.73734">
        <ele>299.44601</ele>
        <time>2022-11-20T13:59:31.000Z</time>
      </trkpt>
      <trkpt lat="45.83314" lon="4.73734">
        <ele>299.52924</ele>
        <time>2022-11-20T13:59:32.000Z</time>
      </trkpt>
      <trkpt lat="45.8331" lon="4.73735">
        <ele>299.61496</ele>
        <time>2022-11-20T13:59:33.000Z</time>
      </trkpt>
      <trkpt lat="45.83306" lon="4.73736">
        <ele>299.71393</ele>
        <time>2022-11-20T13:59:34.000Z</time>
      </trkpt>
      <trkpt lat="45.83302" lon="4.73736">
        <ele>299.8248</ele>
        <time>2022-11-20T13:59:35.000Z</time>
      </trkpt>
      <trkpt lat="45.83298" lon="4.73737">
        <ele>299.96884</ele>
        <time>2022-11-20T13:59:36.000Z</time>
      </trkpt>
      <trkpt lat="45.83295" lon="4.73737">
        <ele>300.13403</ele>
        <time>2022-11-20T13:59:37.000Z</time>
      </trkpt>
      <trkpt lat="45.83291" lon="4.73737">
        <ele>300.30927</ele>
        <time>2022-11-20T13:59:38.000Z</time>
      </trkpt>
      <trkpt lat="45.83287" lon="4.73737">
        <ele>300.47467</ele>
        <time>2022-11-20T13:59:39.000Z</time>
      </trkpt>
      <trkpt lat="45.83283" lon="4.73737">
        <ele>300.65564</ele>
        <time>2022-11-20T13:59:40.000Z</time>
      </trkpt>
      <trkpt lat="45.83279" lon="4.73736">
        <ele>300.84509</ele>
        <time>2022-11-20T13:59:41.000Z</time>
      </trkpt>
      <trkpt lat="45.83276" lon="4.73736">
        <ele>301.05621</ele>
        <time>2022-11-20T13:59:42.000Z</time>
      </trkpt>
      <trkpt lat="45.83272" lon="4.73736">
        <ele>301.28421</ele>
        <time>2022-11-20T13:59:43.000Z</time>
      </trkpt>
      <trkpt lat="45.83268" lon="4.73736">
        <ele>301.5108</ele>
        <time>2022-11-20T13:59:44.000Z</time>
      </trkpt>
      <trkpt lat="45.83264" lon="4.73737">
        <ele>301.76263</ele>
        <time>2022-11-20T13:59:45.000Z</time>
      </trkpt>
      <trkpt lat="45.83261" lon="4.73737">
        <ele>302.00681</ele>
        <time>2022-11-20T13:59:46.000Z</time>
      </trkpt>
      <trkpt lat="45.83257" lon="4.73738">
        <ele>302.272</ele>
        <time>2022-11-20T13:59:47.000Z</time>
      </trkpt>
      <trkpt lat="45.83253" lon="4.73738">
        <ele>302.55066</ele>
        <time>2022-11-20T13:59:48.000Z</time>
      </trkpt>
      <trkpt lat="45.83249" lon="4.73738">
        <ele>302.7648</ele>
        <time>2022-11-20T13:59:49.000Z</time>
      </trkpt>
      <trkpt lat="45.83246" lon="4.73739">
        <ele>302.97568</ele>
        <time>2022-11-20T13:59:50.000Z</time>
      </trkpt>
      <trkpt lat="45.83243" lon="4.73739">
        <ele>303.18195</ele>
        <time>2022-11-20T13:59:51.000Z</time>
      </trkpt>
      <trkpt lat="45.83239" lon="4.73739">
        <ele>303.37579</ele>
        <time>2022-11-20T13:59:52.000Z</time>
      </trkpt>
      <trkpt lat="45.83236" lon="4.73739">
        <ele>303.55679</ele>
        <time>2022-11-20T13:59:53.000Z</time>
      </trkpt>
      <trkpt lat="45.83232" lon="4.73738">
        <ele>303.73059</ele>
        <time>2022-11-20T13:59:54.000Z</time>
      </trkpt>
      <trkpt lat="45.83229" lon="4.73737">
        <ele>303.89819</ele>
        <time>2022-11-20T13:59:55.000Z</time>
      </trkpt>
      <trkpt lat="45.83225" lon="4.73737">
        <ele>304.02698</ele>
        <time>2022-11-20T13:59:56.000Z</time>
      </trkpt>
      <trkpt lat="45.83221" lon="4.73737">
        <ele>304.12787</ele>
        <time>2022-11-20T13:59:57.000Z</time>
      </trkpt>
      <trkpt lat="45.83217" lon="4.73737">
        <ele>304.21002</ele>
        <time>2022-11-20T13:59:58.000Z</time>
      </trkpt>
      <trkpt lat="45.83214" lon="4.73737">
        <ele>304.30096</ele>
        <time>2022-11-20T13:59:59.000Z</time>
      </trkpt>
      <trkpt lat="45.8321" lon="4.73738">
        <ele>304.37134</ele>
        <time>2022-11-20T14:00:00.000Z</time>
      </trkpt>
      <trkpt lat="45.83206" lon="4.73738">
        <ele>304.43665</ele>
        <time>2022-11-20T14:00:01.000Z</time>
      </trkpt>
      <trkpt lat="45.83202" lon="4.73738">
        <ele>304.50116</ele>
        <time>2022-11-20T14:00:02.000Z</time>
      </trkpt>
      <trkpt lat="45.83198" lon="4.73738">
        <ele>304.56134</ele>
        <time>2022-11-20T14:00:03.000Z</time>
      </trkpt>
      <trkpt lat="45.83194" lon="4.73737">
        <ele>304.63861</ele>
        <time>2022-11-20T14:00:04.000Z</time>
      </trkpt>
      <trkpt lat="45.83191" lon="4.73737">
        <ele>304.72141</ele>
        <time>2022-11-20T14:00:05.000Z</time>
      </trkpt>
      <trkpt lat="45.83187" lon="4.73737">
        <ele>304.7999</ele>
        <time>2022-11-20T14:00:06.000Z</time>
      </trkpt>
      <trkpt lat="45.83183" lon="4.73737">
        <ele>304.81113</ele>
        <time>2022-11-20T14:00:07.000Z</time>
      </trkpt>
      <trkpt lat="45.83178" lon="4.73737">
        <ele>304.83066</ele>
        <time>2022-11-20T14:00:08.000Z</time>
      </trkpt>
      <trkpt lat="45.83174" lon="4.73737">
        <ele>304.9119</ele>
        <time>2022-11-20T14:00:09.000Z</time>
      </trkpt>
      <trkpt lat="45.8317" lon="4.73737">
        <ele>304.96121</ele>
        <time>2022-11-20T14:00:10.000Z</time>
      </trkpt>
      <trkpt lat="45.83166" lon="4.73737">
        <ele>305.00372</ele>
        <time>2022-11-20T14:00:11.000Z</time>
      </trkpt>
      <trkpt lat="45.83162" lon="4.73737">
        <ele>305.06073</ele>
        <time>2022-11-20T14:00:12.000Z</time>
      </trkpt>
      <trkpt lat="45.83158" lon="4.73737">
        <ele>305.1344</ele>
        <time>2022-11-20T14:00:13.000Z</time>
      </trkpt>
      <trkpt lat="45.83154" lon="4.73737">
        <ele>305.20074</ele>
        <time>2022-11-20T14:00:14.000Z</time>
      </trkpt>
      <trkpt lat="45.8315" lon="4.73737">
        <ele>305.27734</ele>
        <time>2022-11-20T14:00:15.000Z</time>
      </trkpt>
      <trkpt lat="45.83146" lon="4.73737">
        <ele>305.36707</ele>
        <time>2022-11-20T14:00:16.000Z</time>
      </trkpt>
      <trkpt lat="45.83142" lon="4.73737">
        <ele>305.48944</ele>
        <time>2022-11-20T14:00:17.000Z</time>
      </trkpt>
      <trkpt lat="45.83138" lon="4.73737">
        <ele>305.62592</ele>
        <time>2022-11-20T14:00:18.000Z</time>
      </trkpt>
      <trkpt lat="45.83135" lon="4.73736">
        <ele>305.7507</ele>
        <time>2022-11-20T14:00:19.000Z</time>
      </trkpt>
      <trkpt lat="45.83131" lon="4.73736">
        <ele>305.84927</ele>
        <time>2022-11-20T14:00:20.000Z</time>
      </trkpt>
      <trkpt lat="45.83128" lon="4.73736">
        <ele>305.94781</ele>
        <time>2022-11-20T14:00:21.000Z</time>
      </trkpt>
      <trkpt lat="45.83124" lon="4.73735">
        <ele>305.53116</ele>
        <time>2022-11-20T14:00:22.000Z</time>
      </trkpt>
      <trkpt lat="45.83121" lon="4.73735">
        <ele>305.10489</ele>
        <time>2022-11-20T14:00:23.000Z</time>
      </trkpt>
      <trkpt lat="45.83117" lon="4.73735">
        <ele>305.20746</ele>
        <time>2022-11-20T14:00:24.000Z</time>
      </trkpt>
      <trkpt lat="45.83113" lon="4.73735">
        <ele>305.30649</ele>
        <time>2022-11-20T14:00:25.000Z</time>
      </trkpt>
      <trkpt lat="45.8311" lon="4.73735">
        <ele>305.4183</ele>
        <time>2022-11-20T14:00:26.000Z</time>
      </trkpt>
      <trkpt lat="45.83106" lon="4.73735">
        <ele>305.56223</ele>
        <time>2022-11-20T14:00:27.000Z</time>
      </trkpt>
      <trkpt lat="45.83103" lon="4.73735">
        <ele>305.638</ele>
        <time>2022-11-20T14:00:28.000Z</time>
      </trkpt>
      <trkpt lat="45.831" lon="4.73735">
        <ele>305.74326</ele>
        <time>2022-11-20T14:00:29.000Z</time>
      </trkpt>
      <trkpt lat="45.83097" lon="4.73735">
        <ele>305.85577</ele>
        <time>2022-11-20T14:00:30.000Z</time>
      </trkpt>
      <trkpt lat="45.83093" lon="4.73735">
        <ele>305.98285</ele>
        <time>2022-11-20T14:00:31.000Z</time>
      </trkpt>
      <trkpt lat="45.8309" lon="4.73735">
        <ele>306.09866</ele>
        <time>2022-11-20T14:00:32.000Z</time>
      </trkpt>
      <trkpt lat="45.83086" lon="4.73735">
        <ele>306.23172</ele>
        <time>2022-11-20T14:00:33.000Z</time>
      </trkpt>
      <trkpt lat="45.83082" lon="4.73735">
        <ele>306.36136</ele>
        <time>2022-11-20T14:00:34.000Z</time>
      </trkpt>
      <trkpt lat="45.83079" lon="4.73735">
        <ele>306.48267</ele>
        <time>2022-11-20T14:00:35.000Z</time>
      </trkpt>
      <trkpt lat="45.83076" lon="4.73735">
        <ele>306.60687</ele>
        <time>2022-11-20T14:00:36.000Z</time>
      </trkpt>
      <trkpt lat="45.83073" lon="4.73735">
        <ele>306.71313</ele>
        <time>2022-11-20T14:00:37.000Z</time>
      </trkpt>
      <trkpt lat="45.8307" lon="4.73735">
        <ele>306.81964</ele>
        <time>2022-11-20T14:00:38.000Z</time>
      </trkpt>
      <trkpt lat="45.83066" lon="4.73735">
        <ele>306.94293</ele>
        <time>2022-11-20T14:00:39.000Z</time>
      </trkpt>
      <trkpt lat="45.83062" lon="4.73734">
        <ele>307.09799</ele>
        <time>2022-11-20T14:00:40.000Z</time>
      </trkpt>
      <trkpt lat="45.83058" lon="4.73734">
        <ele>307.24057</ele>
        <time>2022-11-20T14:00:41.000Z</time>
      </trkpt>
      <trkpt lat="45.83054" lon="4.73733">
        <ele>307.91095</ele>
        <time>2022-11-20T14:00:42.000Z</time>
      </trkpt>
      <trkpt lat="45.83051" lon="4.73733">
        <ele>308.58661</ele>
        <time>2022-11-20T14:00:43.000Z</time>
      </trkpt>
      <trkpt lat="45.83047" lon="4.73733">
        <ele>308.73303</ele>
        <time>2022-11-20T14:00:44.000Z</time>
      </trkpt>
      <trkpt lat="45.83043" lon="4.73732">
        <ele>308.88455</ele>
        <time>2022-11-20T14:00:45.000Z</time>
      </trkpt>
      <trkpt lat="45.83039" lon="4.73732">
        <ele>309.04147</ele>
        <time>2022-11-20T14:00:46.000Z</time>
      </trkpt>
      <trkpt lat="45.83035" lon="4.73732">
        <ele>309.26941</ele>
        <time>2022-11-20T14:00:47.000Z</time>
      </trkpt>
      <trkpt lat="45.83031" lon="4.73732">
        <ele>309.54059</ele>
        <time>2022-11-20T14:00:48.000Z</time>
      </trkpt>
      <trkpt lat="45.83027" lon="4.73732">
        <ele>309.80042</ele>
        <time>2022-11-20T14:00:49.000Z</time>
      </trkpt>
      <trkpt lat="45.83023" lon="4.73731">
        <ele>310.0592</ele>
        <time>2022-11-20T14:00:50.000Z</time>
      </trkpt>
      <trkpt lat="45.83019" lon="4.73731">
        <ele>310.3183</ele>
        <time>2022-11-20T14:00:51.000Z</time>
      </trkpt>
      <trkpt lat="45.83015" lon="4.73731">
        <ele>310.59024</ele>
        <time>2022-11-20T14:00:52.000Z</time>
      </trkpt>
      <trkpt lat="45.83011" lon="4.73731">
        <ele>310.86215</ele>
        <time>2022-11-20T14:00:53.000Z</time>
      </trkpt>
      <trkpt lat="45.83007" lon="4.73731">
        <ele>311.13126</ele>
        <time>2022-11-20T14:00:54.000Z</time>
      </trkpt>
      <trkpt lat="45.83004" lon="4.73731">
        <ele>311.3746</ele>
        <time>2022-11-20T14:00:55.000Z</time>
      </trkpt>
      <trkpt lat="45.83" lon="4.73731">
        <ele>311.62326</ele>
        <time>2022-11-20T14:00:56.000Z</time>
      </trkpt>
      <trkpt lat="45.82996" lon="4.73731">
        <ele>311.88773</ele>
        <time>2022-11-20T14:00:57.000Z</time>
      </trkpt>
      <trkpt lat="45.82992" lon="4.7373">
        <ele>312.16147</ele>
        <time>2022-11-20T14:00:58.000Z</time>
      </trkpt>
      <trkpt lat="45.82989" lon="4.7373">
        <ele>312.42511</ele>
        <time>2022-11-20T14:00:59.000Z</time>
      </trkpt>
      <trkpt lat="45.82985" lon="4.7373">
        <ele>312.68561</ele>
        <time>2022-11-20T14:01:00.000Z</time>
      </trkpt>
      <trkpt lat="45.82981" lon="4.7373">
        <ele>312.94061</ele>
        <time>2022-11-20T14:01:01.000Z</time>
      </trkpt>
      <trkpt lat="45.82977" lon="4.7373">
        <ele>313.1734</ele>
        <time>2022-11-20T14:01:02.000Z</time>
      </trkpt>
      <trkpt lat="45.82973" lon="4.7373">
        <ele>313.38828</ele>
        <time>2022-11-20T14:01:03.000Z</time>
      </trkpt>
      <trkpt lat="45.82969" lon="4.73729">
        <ele>313.65695</ele>
        <time>2022-11-20T14:01:04.000Z</time>
      </trkpt>
      <trkpt lat="45.82966" lon="4.73729">
        <ele>313.90253</ele>
        <time>2022-11-20T14:01:05.000Z</time>
      </trkpt>
      <trkpt lat="45.82962" lon="4.73729">
        <ele>314.13947</ele>
        <time>2022-11-20T14:01:06.000Z</time>
      </trkpt>
      <trkpt lat="45.82958" lon="4.73729">
        <ele>314.358</ele>
        <time>2022-11-20T14:01:07.000Z</time>
      </trkpt>
      <trkpt lat="45.82954" lon="4.73728">
        <ele>314.58759</ele>
        <time>2022-11-20T14:01:08.000Z</time>
      </trkpt>
      <trkpt lat="45.8295" lon="4.73728">
        <ele>314.80139</ele>
        <time>2022-11-20T14:01:09.000Z</time>
      </trkpt>
      <trkpt lat="45.82946" lon="4.73728">
        <ele>314.99838</ele>
        <time>2022-11-20T14:01:10.000Z</time>
      </trkpt>
      <trkpt lat="45.82942" lon="4.73728">
        <ele>315.17218</ele>
        <time>2022-11-20T14:01:11.000Z</time>
      </trkpt>
      <trkpt lat="45.82938" lon="4.73728">
        <ele>315.3205</ele>
        <time>2022-11-20T14:01:12.000Z</time>
      </trkpt>
      <trkpt lat="45.82934" lon="4.73728">
        <ele>315.46643</ele>
        <time>2022-11-20T14:01:13.000Z</time>
      </trkpt>
      <trkpt lat="45.8293" lon="4.73727">
        <ele>315.62115</ele>
        <time>2022-11-20T14:01:14.000Z</time>
      </trkpt>
      <trkpt lat="45.82926" lon="4.73727">
        <ele>315.80261</ele>
        <time>2022-11-20T14:01:15.000Z</time>
      </trkpt>
      <trkpt lat="45.82922" lon="4.73727">
        <ele>315.99438</ele>
        <time>2022-11-20T14:01:16.000Z</time>
      </trkpt>
      <trkpt lat="45.82918" lon="4.73727">
        <ele>316.18484</ele>
        <time>2022-11-20T14:01:17.000Z</time>
      </trkpt>
      <trkpt lat="45.82913" lon="4.73726">
        <ele>316.38245</ele>
        <time>2022-11-20T14:01:18.000Z</time>
      </trkpt>
      <trkpt lat="45.82909" lon="4.73726">
        <ele>316.57407</ele>
        <time>2022-11-20T14:01:19.000Z</time>
      </trkpt>
      <trkpt lat="45.82905" lon="4.73726">
        <ele>316.7468</ele>
        <time>2022-11-20T14:01:20.000Z</time>
      </trkpt>
      <trkpt lat="45.82901" lon="4.73726">
        <ele>316.93903</ele>
        <time>2022-11-20T14:01:21.000Z</time>
      </trkpt>
      <trkpt lat="45.82897" lon="4.73726">
        <ele>317.14636</ele>
        <time>2022-11-20T14:01:22.000Z</time>
      </trkpt>
      <trkpt lat="45.82893" lon="4.73726">
        <ele>317.37186</ele>
        <time>2022-11-20T14:01:23.000Z</time>
      </trkpt>
      <trkpt lat="45.82889" lon="4.73726">
        <ele>317.54309</ele>
        <time>2022-11-20T14:01:24.000Z</time>
      </trkpt>
      <trkpt lat="45.82885" lon="4.73725">
        <ele>317.75134</ele>
        <time>2022-11-20T14:01:25.000Z</time>
      </trkpt>
      <trkpt lat="45.82881" lon="4.73725">
        <ele>317.95432</ele>
        <time>2022-11-20T14:01:26.000Z</time>
      </trkpt>
      <trkpt lat="45.82877" lon="4.73725">
        <ele>318.15302</ele>
        <time>2022-11-20T14:01:27.000Z</time>
      </trkpt>
      <trkpt lat="45.82873" lon="4.73724">
        <ele>318.35187</ele>
        <time>2022-11-20T14:01:28.000Z</time>
      </trkpt>
      <trkpt lat="45.82869" lon="4.73724">
        <ele>318.56229</ele>
        <time>2022-11-20T14:01:29.000Z</time>
      </trkpt>
      <trkpt lat="45.82865" lon="4.73723">
        <ele>318.78998</ele>
        <time>2022-11-20T14:01:30.000Z</time>
      </trkpt>
      <trkpt lat="45.82861" lon="4.73723">
        <ele>319.01743</ele>
        <time>2022-11-20T14:01:31.000Z</time>
      </trkpt>
      <trkpt lat="45.82857" lon="4.73723">
        <ele>319.25696</ele>
        <time>2022-11-20T14:01:32.000Z</time>
      </trkpt>
      <trkpt lat="45.82853" lon="4.73722">
        <ele>319.48071</ele>
        <time>2022-11-20T14:01:33.000Z</time>
      </trkpt>
      <trkpt lat="45.82849" lon="4.73722">
        <ele>319.69598</ele>
        <time>2022-11-20T14:01:34.000Z</time>
      </trkpt>
      <trkpt lat="45.82844" lon="4.73722">
        <ele>319.92218</ele>
        <time>2022-11-20T14:01:35.000Z</time>
      </trkpt>
      <trkpt lat="45.8284" lon="4.73722">
        <ele>320.13232</ele>
        <time>2022-11-20T14:01:36.000Z</time>
      </trkpt>
      <trkpt lat="45.82836" lon="4.73722">
        <ele>320.34796</ele>
        <time>2022-11-20T14:01:37.000Z</time>
      </trkpt>
      <trkpt lat="45.82832" lon="4.73722">
        <ele>320.53171</ele>
        <time>2022-11-20T14:01:38.000Z</time>
      </trkpt>
      <trkpt lat="45.82827" lon="4.73721">
        <ele>320.73761</ele>
        <time>2022-11-20T14:01:39.000Z</time>
      </trkpt>
      <trkpt lat="45.82823" lon="4.73721">
        <ele>320.93533</ele>
        <time>2022-11-20T14:01:40.000Z</time>
      </trkpt>
      <trkpt lat="45.82819" lon="4.73721">
        <ele>321.12827</ele>
        <time>2022-11-20T14:01:41.000Z</time>
      </trkpt>
      <trkpt lat="45.82814" lon="4.73721">
        <ele>321.3205</ele>
        <time>2022-11-20T14:01:42.000Z</time>
      </trkpt>
      <trkpt lat="45.8281" lon="4.73721">
        <ele>321.51895</ele>
        <time>2022-11-20T14:01:43.000Z</time>
      </trkpt>
      <trkpt lat="45.82806" lon="4.73721">
        <ele>321.71402</ele>
        <time>2022-11-20T14:01:44.000Z</time>
      </trkpt>
      <trkpt lat="45.82802" lon="4.7372">
        <ele>321.91498</ele>
        <time>2022-11-20T14:01:45.000Z</time>
      </trkpt>
      <trkpt lat="45.82797" lon="4.7372">
        <ele>322.02628</ele>
        <time>2022-11-20T14:01:46.000Z</time>
      </trkpt>
      <trkpt lat="45.82793" lon="4.7372">
        <ele>322.12054</ele>
        <time>2022-11-20T14:01:47.000Z</time>
      </trkpt>
      <trkpt lat="45.82789" lon="4.7372">
        <ele>322.19797</ele>
        <time>2022-11-20T14:01:48.000Z</time>
      </trkpt>
      <trkpt lat="45.82785" lon="4.73719">
        <ele>322.2832</ele>
        <time>2022-11-20T14:01:49.000Z</time>
      </trkpt>
      <trkpt lat="45.82781" lon="4.7372">
        <ele>322.36404</ele>
        <time>2022-11-20T14:01:50.000Z</time>
      </trkpt>
      <trkpt lat="45.82777" lon="4.73719">
        <ele>322.44232</ele>
        <time>2022-11-20T14:01:51.000Z</time>
      </trkpt>
      <trkpt lat="45.82773" lon="4.73719">
        <ele>322.54242</ele>
        <time>2022-11-20T14:01:52.000Z</time>
      </trkpt>
      <trkpt lat="45.82769" lon="4.73718">
        <ele>322.61444</ele>
        <time>2022-11-20T14:01:53.000Z</time>
      </trkpt>
      <trkpt lat="45.82764" lon="4.73717">
        <ele>322.68439</ele>
        <time>2022-11-20T14:01:54.000Z</time>
      </trkpt>
      <trkpt lat="45.8276" lon="4.73717">
        <ele>322.73526</ele>
        <time>2022-11-20T14:01:55.000Z</time>
      </trkpt>
      <trkpt lat="45.82756" lon="4.73716">
        <ele>322.77997</ele>
        <time>2022-11-20T14:01:56.000Z</time>
      </trkpt>
      <trkpt lat="45.82751" lon="4.73717">
        <ele>322.81146</ele>
        <time>2022-11-20T14:01:57.000Z</time>
      </trkpt>
      <trkpt lat="45.82747" lon="4.73716">
        <ele>322.8587</ele>
        <time>2022-11-20T14:01:58.000Z</time>
      </trkpt>
      <trkpt lat="45.82742" lon="4.73717">
        <ele>322.89764</ele>
        <time>2022-11-20T14:01:59.000Z</time>
      </trkpt>
      <trkpt lat="45.82737" lon="4.73717">
        <ele>322.97241</ele>
        <time>2022-11-20T14:02:00.000Z</time>
      </trkpt>
      <trkpt lat="45.82733" lon="4.73718">
        <ele>323.0434</ele>
        <time>2022-11-20T14:02:01.000Z</time>
      </trkpt>
      <trkpt lat="45.82729" lon="4.73717">
        <ele>323.08661</ele>
        <time>2022-11-20T14:02:02.000Z</time>
      </trkpt>
      <trkpt lat="45.82725" lon="4.73717">
        <ele>323.10968</ele>
        <time>2022-11-20T14:02:03.000Z</time>
      </trkpt>
      <trkpt lat="45.8272" lon="4.73717">
        <ele>323.35501</ele>
        <time>2022-11-20T14:02:04.000Z</time>
      </trkpt>
      <trkpt lat="45.82716" lon="4.73717">
        <ele>323.54803</ele>
        <time>2022-11-20T14:02:05.000Z</time>
      </trkpt>
      <trkpt lat="45.82712" lon="4.73717">
        <ele>323.83319</ele>
        <time>2022-11-20T14:02:06.000Z</time>
      </trkpt>
      <trkpt lat="45.82708" lon="4.73718">
        <ele>324.10577</ele>
        <time>2022-11-20T14:02:07.000Z</time>
      </trkpt>
      <trkpt lat="45.82704" lon="4.73718">
        <ele>324.39822</ele>
        <time>2022-11-20T14:02:08.000Z</time>
      </trkpt>
      <trkpt lat="45.827" lon="4.73718">
        <ele>324.71124</ele>
        <time>2022-11-20T14:02:09.000Z</time>
      </trkpt>
      <trkpt lat="45.82695" lon="4.73718">
        <ele>325.02274</ele>
        <time>2022-11-20T14:02:10.000Z</time>
      </trkpt>
      <trkpt lat="45.82691" lon="4.73718">
        <ele>325.3526</ele>
        <time>2022-11-20T14:02:11.000Z</time>
      </trkpt>
      <trkpt lat="45.82687" lon="4.73718">
        <ele>325.67419</ele>
        <time>2022-11-20T14:02:12.000Z</time>
      </trkpt>
      <trkpt lat="45.82684" lon="4.73718">
        <ele>326.00693</ele>
        <time>2022-11-20T14:02:13.000Z</time>
      </trkpt>
      <trkpt lat="45.8268" lon="4.73718">
        <ele>326.33859</ele>
        <time>2022-11-20T14:02:14.000Z</time>
      </trkpt>
      <trkpt lat="45.82676" lon="4.73719">
        <ele>326.67154</ele>
        <time>2022-11-20T14:02:15.000Z</time>
      </trkpt>
      <trkpt lat="45.82673" lon="4.73718">
        <ele>327.01111</ele>
        <time>2022-11-20T14:02:16.000Z</time>
      </trkpt>
      <trkpt lat="45.82669" lon="4.73718">
        <ele>327.34534</ele>
        <time>2022-11-20T14:02:17.000Z</time>
      </trkpt>
      <trkpt lat="45.82667" lon="4.73716">
        <ele>327.64066</ele>
        <time>2022-11-20T14:02:18.000Z</time>
      </trkpt>
      <trkpt lat="45.82665" lon="4.73712">
        <ele>327.85373</ele>
        <time>2022-11-20T14:02:19.000Z</time>
      </trkpt>
      <trkpt lat="45.82666" lon="4.73708">
        <ele>328.04785</ele>
        <time>2022-11-20T14:02:20.000Z</time>
      </trkpt>
      <trkpt lat="45.82668" lon="4.73705">
        <ele>328.23825</ele>
        <time>2022-11-20T14:02:21.000Z</time>
      </trkpt>
      <trkpt lat="45.82671" lon="4.73703">
        <ele>328.45523</ele>
        <time>2022-11-20T14:02:22.000Z</time>
      </trkpt>
      <trkpt lat="45.82675" lon="4.73701">
        <ele>328.67453</ele>
        <time>2022-11-20T14:02:23.000Z</time>
      </trkpt>
      <trkpt lat="45.82678" lon="4.73699">
        <ele>328.66635</ele>
        <time>2022-11-20T14:02:24.000Z</time>
      </trkpt>
      <trkpt lat="45.82681" lon="4.73697">
        <ele>328.67709</ele>
        <time>2022-11-20T14:02:25.000Z</time>
      </trkpt>
      <trkpt lat="45.82684" lon="4.73695">
        <ele>328.69043</ele>
        <time>2022-11-20T14:02:26.000Z</time>
      </trkpt>
      <trkpt lat="45.82687" lon="4.73692">
        <ele>328.698</ele>
        <time>2022-11-20T14:02:27.000Z</time>
      </trkpt>
      <trkpt lat="45.8269" lon="4.7369">
        <ele>328.69852</ele>
        <time>2022-11-20T14:02:28.000Z</time>
      </trkpt>
      <trkpt lat="45.82693" lon="4.73688">
        <ele>328.67111</ele>
        <time>2022-11-20T14:02:29.000Z</time>
      </trkpt>
      <trkpt lat="45.82696" lon="4.73685">
        <ele>328.64142</ele>
        <time>2022-11-20T14:02:30.000Z</time>
      </trkpt>
      <trkpt lat="45.82699" lon="4.73683">
        <ele>328.60861</ele>
        <time>2022-11-20T14:02:31.000Z</time>
      </trkpt>
      <trkpt lat="45.82702" lon="4.73681">
        <ele>328.55838</ele>
        <time>2022-11-20T14:02:32.000Z</time>
      </trkpt>
      <trkpt lat="45.82706" lon="4.73678">
        <ele>328.4881</ele>
        <time>2022-11-20T14:02:33.000Z</time>
      </trkpt>
      <trkpt lat="45.82709" lon="4.73675">
        <ele>328.35614</ele>
        <time>2022-11-20T14:02:34.000Z</time>
      </trkpt>
      <trkpt lat="45.82712" lon="4.73672">
        <ele>328.46097</ele>
        <time>2022-11-20T14:02:35.000Z</time>
      </trkpt>
      <trkpt lat="45.82715" lon="4.73669">
        <ele>328.51886</ele>
        <time>2022-11-20T14:02:36.000Z</time>
      </trkpt>
      <trkpt lat="45.82719" lon="4.73666">
        <ele>328.57916</ele>
        <time>2022-11-20T14:02:37.000Z</time>
      </trkpt>
      <trkpt lat="45.82722" lon="4.73663">
        <ele>328.65823</ele>
        <time>2022-11-20T14:02:38.000Z</time>
      </trkpt>
      <trkpt lat="45.82725" lon="4.7366">
        <ele>328.79401</ele>
        <time>2022-11-20T14:02:39.000Z</time>
      </trkpt>
      <trkpt lat="45.82729" lon="4.73657">
        <ele>328.95004</ele>
        <time>2022-11-20T14:02:40.000Z</time>
      </trkpt>
      <trkpt lat="45.82732" lon="4.73653">
        <ele>329.08432</ele>
        <time>2022-11-20T14:02:41.000Z</time>
      </trkpt>
      <trkpt lat="45.82736" lon="4.7365">
        <ele>329.20172</ele>
        <time>2022-11-20T14:02:42.000Z</time>
      </trkpt>
      <trkpt lat="45.82739" lon="4.73646">
        <ele>329.3046</ele>
        <time>2022-11-20T14:02:43.000Z</time>
      </trkpt>
      <trkpt lat="45.82743" lon="4.73643">
        <ele>329.40231</ele>
        <time>2022-11-20T14:02:44.000Z</time>
      </trkpt>
      <trkpt lat="45.82746" lon="4.73639">
        <ele>329.48541</ele>
        <time>2022-11-20T14:02:45.000Z</time>
      </trkpt>
      <trkpt lat="45.82749" lon="4.73636">
        <ele>329.55484</ele>
        <time>2022-11-20T14:02:46.000Z</time>
      </trkpt>
      <trkpt lat="45.82752" lon="4.73632">
        <ele>329.61725</ele>
        <time>2022-11-20T14:02:47.000Z</time>
      </trkpt>
      <trkpt lat="45.82756" lon="4.73629">
        <ele>329.6683</ele>
        <time>2022-11-20T14:02:48.000Z</time>
      </trkpt>
      <trkpt lat="45.8276" lon="4.73625">
        <ele>329.69077</ele>
        <time>2022-11-20T14:02:49.000Z</time>
      </trkpt>
      <trkpt lat="45.82765" lon="4.73621">
        <ele>329.68805</ele>
        <time>2022-11-20T14:02:50.000Z</time>
      </trkpt>
      <trkpt lat="45.8277" lon="4.73616">
        <ele>329.65717</ele>
        <time>2022-11-20T14:02:51.000Z</time>
      </trkpt>
      <trkpt lat="45.82775" lon="4.73609">
        <ele>329.68649</ele>
        <time>2022-11-20T14:02:52.000Z</time>
      </trkpt>
      <trkpt lat="45.82781" lon="4.73603">
        <ele>329.62109</ele>
        <time>2022-11-20T14:02:53.000Z</time>
      </trkpt>
      <trkpt lat="45.82786" lon="4.73597">
        <ele>329.55103</ele>
        <time>2022-11-20T14:02:54.000Z</time>
      </trkpt>
      <trkpt lat="45.82791" lon="4.7359">
        <ele>329.22675</ele>
        <time>2022-11-20T14:02:55.000Z</time>
      </trkpt>
      <trkpt lat="45.82796" lon="4.73583">
        <ele>328.86539</ele>
        <time>2022-11-20T14:02:56.000Z</time>
      </trkpt>
      <trkpt lat="45.82802" lon="4.73578">
        <ele>328.70941</ele>
        <time>2022-11-20T14:02:57.000Z</time>
      </trkpt>
      <trkpt lat="45.82808" lon="4.73571">
        <ele>328.49527</ele>
        <time>2022-11-20T14:02:58.000Z</time>
      </trkpt>
      <trkpt lat="45.82814" lon="4.73565">
        <ele>328.26794</ele>
        <time>2022-11-20T14:02:59.000Z</time>
      </trkpt>
      <trkpt lat="45.82823" lon="4.73555">
        <ele>327.93726</ele>
        <time>2022-11-20T14:03:00.000Z</time>
      </trkpt>
      <trkpt lat="45.82829" lon="4.73549">
        <ele>327.63336</ele>
        <time>2022-11-20T14:03:01.000Z</time>
      </trkpt>
      <trkpt lat="45.82836" lon="4.73542">
        <ele>327.33594</ele>
        <time>2022-11-20T14:03:02.000Z</time>
      </trkpt>
      <trkpt lat="45.82841" lon="4.73534">
        <ele>327.01978</ele>
        <time>2022-11-20T14:03:03.000Z</time>
      </trkpt>
      <trkpt lat="45.82847" lon="4.73526">
        <ele>326.67929</ele>
        <time>2022-11-20T14:03:04.000Z</time>
      </trkpt>
      <trkpt lat="45.82855" lon="4.73519">
        <ele>326.28397</ele>
        <time>2022-11-20T14:03:05.000Z</time>
      </trkpt>
      <trkpt lat="45.82862" lon="4.73511">
        <ele>325.85287</ele>
        <time>2022-11-20T14:03:06.000Z</time>
      </trkpt>
      <trkpt lat="45.82869" lon="4.73503">
        <ele>325.40314</ele>
        <time>2022-11-20T14:03:07.000Z</time>
      </trkpt>
      <trkpt lat="45.82876" lon="4.73495">
        <ele>324.96301</ele>
        <time>2022-11-20T14:03:08.000Z</time>
      </trkpt>
      <trkpt lat="45.82883" lon="4.73487">
        <ele>324.5246</ele>
        <time>2022-11-20T14:03:09.000Z</time>
      </trkpt>
      <trkpt lat="45.8289" lon="4.73479">
        <ele>324.10025</ele>
        <time>2022-11-20T14:03:10.000Z</time>
      </trkpt>
      <trkpt lat="45.82896" lon="4.73471">
        <ele>323.66989</ele>
        <time>2022-11-20T14:03:11.000Z</time>
      </trkpt>
      <trkpt lat="45.82902" lon="4.73465">
        <ele>323.16516</ele>
        <time>2022-11-20T14:03:12.000Z</time>
      </trkpt>
      <trkpt lat="45.8291" lon="4.73457">
        <ele>322.71283</ele>
        <time>2022-11-20T14:03:13.000Z</time>
      </trkpt>
      <trkpt lat="45.82917" lon="4.7345">
        <ele>322.27579</ele>
        <time>2022-11-20T14:03:14.000Z</time>
      </trkpt>
      <trkpt lat="45.82923" lon="4.73443">
        <ele>321.81476</ele>
        <time>2022-11-20T14:03:15.000Z</time>
      </trkpt>
      <trkpt lat="45.8293" lon="4.73436">
        <ele>321.43872</ele>
        <time>2022-11-20T14:03:16.000Z</time>
      </trkpt>
      <trkpt lat="45.82936" lon="4.7343">
        <ele>320.81577</ele>
        <time>2022-11-20T14:03:17.000Z</time>
      </trkpt>
      <trkpt lat="45.82944" lon="4.73425">
        <ele>320.22577</ele>
        <time>2022-11-20T14:03:18.000Z</time>
      </trkpt>
      <trkpt lat="45.8295" lon="4.73418">
        <ele>319.63464</ele>
        <time>2022-11-20T14:03:19.000Z</time>
      </trkpt>
      <trkpt lat="45.82957" lon="4.7341">
        <ele>319.12775</ele>
        <time>2022-11-20T14:03:20.000Z</time>
      </trkpt>
      <trkpt lat="45.82964" lon="4.73406">
        <ele>318.58719</ele>
        <time>2022-11-20T14:03:21.000Z</time>
      </trkpt>
      <trkpt lat="45.8297" lon="4.73402">
        <ele>318.0239</ele>
        <time>2022-11-20T14:03:22.000Z</time>
      </trkpt>
      <trkpt lat="45.82976" lon="4.73397">
        <ele>317.47726</ele>
        <time>2022-11-20T14:03:23.000Z</time>
      </trkpt>
      <trkpt lat="45.82982" lon="4.73392">
        <ele>316.95056</ele>
        <time>2022-11-20T14:03:24.000Z</time>
      </trkpt>
      <trkpt lat="45.82988" lon="4.73385">
        <ele>316.46667</ele>
        <time>2022-11-20T14:03:25.000Z</time>
      </trkpt>
      <trkpt lat="45.82994" lon="4.7338">
        <ele>316.00708</ele>
        <time>2022-11-20T14:03:26.000Z</time>
      </trkpt>
      <trkpt lat="45.83001" lon="4.73375">
        <ele>315.55789</ele>
        <time>2022-11-20T14:03:27.000Z</time>
      </trkpt>
      <trkpt lat="45.83008" lon="4.7337">
        <ele>315.08896</ele>
        <time>2022-11-20T14:03:28.000Z</time>
      </trkpt>
      <trkpt lat="45.83015" lon="4.73363">
        <ele>314.61761</ele>
        <time>2022-11-20T14:03:29.000Z</time>
      </trkpt>
      <trkpt lat="45.83022" lon="4.73358">
        <ele>314.1358</ele>
        <time>2022-11-20T14:03:30.000Z</time>
      </trkpt>
      <trkpt lat="45.83028" lon="4.73351">
        <ele>313.68872</ele>
        <time>2022-11-20T14:03:31.000Z</time>
      </trkpt>
      <trkpt lat="45.83034" lon="4.73346">
        <ele>313.21109</ele>
        <time>2022-11-20T14:03:32.000Z</time>
      </trkpt>
      <trkpt lat="45.83041" lon="4.73339">
        <ele>312.75879</ele>
        <time>2022-11-20T14:03:33.000Z</time>
      </trkpt>
      <trkpt lat="45.83048" lon="4.73334">
        <ele>312.33185</ele>
        <time>2022-11-20T14:03:34.000Z</time>
      </trkpt>
      <trkpt lat="45.83055" lon="4.73327">
        <ele>311.9118</ele>
        <time>2022-11-20T14:03:35.000Z</time>
      </trkpt>
      <trkpt lat="45.83062" lon="4.73321">
        <ele>311.45416</ele>
        <time>2022-11-20T14:03:36.000Z</time>
      </trkpt>
      <trkpt lat="45.83069" lon="4.73313">
        <ele>311.03122</ele>
        <time>2022-11-20T14:03:37.000Z</time>
      </trkpt>
      <trkpt lat="45.83076" lon="4.73306">
        <ele>310.59958</ele>
        <time>2022-11-20T14:03:38.000Z</time>
      </trkpt>
      <trkpt lat="45.83083" lon="4.73299">
        <ele>310.20224</ele>
        <time>2022-11-20T14:03:39.000Z</time>
      </trkpt>
      <trkpt lat="45.8309" lon="4.73291">
        <ele>309.78314</ele>
        <time>2022-11-20T14:03:40.000Z</time>
      </trkpt>
      <trkpt lat="45.83097" lon="4.73284">
        <ele>309.36295</ele>
        <time>2022-11-20T14:03:41.000Z</time>
      </trkpt>
      <trkpt lat="45.83104" lon="4.73277">
        <ele>308.9545</ele>
        <time>2022-11-20T14:03:42.000Z</time>
      </trkpt>
      <trkpt lat="45.83111" lon="4.7327">
        <ele>308.53018</ele>
        <time>2022-11-20T14:03:43.000Z</time>
      </trkpt>
      <trkpt lat="45.83117" lon="4.73261">
        <ele>308.06558</ele>
        <time>2022-11-20T14:03:44.000Z</time>
      </trkpt>
      <trkpt lat="45.83123" lon="4.73254">
        <ele>307.59186</ele>
        <time>2022-11-20T14:03:45.000Z</time>
      </trkpt>
      <trkpt lat="45.83128" lon="4.73246">
        <ele>307.11087</ele>
        <time>2022-11-20T14:03:46.000Z</time>
      </trkpt>
      <trkpt lat="45.83134" lon="4.73241">
        <ele>306.64349</ele>
        <time>2022-11-20T14:03:47.000Z</time>
      </trkpt>
      <trkpt lat="45.8314" lon="4.73236">
        <ele>306.19012</ele>
        <time>2022-11-20T14:03:48.000Z</time>
      </trkpt>
      <trkpt lat="45.83145" lon="4.73233">
        <ele>305.75992</ele>
        <time>2022-11-20T14:03:49.000Z</time>
      </trkpt>
      <trkpt lat="45.83148" lon="4.73228">
        <ele>305.3634</ele>
        <time>2022-11-20T14:03:50.000Z</time>
      </trkpt>
      <trkpt lat="45.83153" lon="4.73224">
        <ele>304.93024</ele>
        <time>2022-11-20T14:03:51.000Z</time>
      </trkpt>
      <trkpt lat="45.83158" lon="4.73221">
        <ele>304.52814</ele>
        <time>2022-11-20T14:03:52.000Z</time>
      </trkpt>
      <trkpt lat="45.83162" lon="4.73216">
        <ele>304.21887</ele>
        <time>2022-11-20T14:03:53.000Z</time>
      </trkpt>
      <trkpt lat="45.83167" lon="4.73212">
        <ele>303.87842</ele>
        <time>2022-11-20T14:03:54.000Z</time>
      </trkpt>
      <trkpt lat="45.83172" lon="4.73208">
        <ele>303.52493</ele>
        <time>2022-11-20T14:03:55.000Z</time>
      </trkpt>
      <trkpt lat="45.83176" lon="4.73204">
        <ele>303.19302</ele>
        <time>2022-11-20T14:03:56.000Z</time>
      </trkpt>
      <trkpt lat="45.83181" lon="4.732">
        <ele>302.83679</ele>
        <time>2022-11-20T14:03:57.000Z</time>
      </trkpt>
      <trkpt lat="45.83186" lon="4.73193">
        <ele>302.51138</ele>
        <time>2022-11-20T14:03:58.000Z</time>
      </trkpt>
      <trkpt lat="45.8319" lon="4.73187">
        <ele>302.17169</ele>
        <time>2022-11-20T14:03:59.000Z</time>
      </trkpt>
      <trkpt lat="45.83194" lon="4.73181">
        <ele>301.85391</ele>
        <time>2022-11-20T14:04:00.000Z</time>
      </trkpt>
      <trkpt lat="45.83198" lon="4.73175">
        <ele>301.56607</ele>
        <time>2022-11-20T14:04:01.000Z</time>
      </trkpt>
      <trkpt lat="45.832" lon="4.73167">
        <ele>301.26337</ele>
        <time>2022-11-20T14:04:02.000Z</time>
      </trkpt>
      <trkpt lat="45.83202" lon="4.73158">
        <ele>300.98849</ele>
        <time>2022-11-20T14:04:03.000Z</time>
      </trkpt>
      <trkpt lat="45.83204" lon="4.73151">
        <ele>300.85168</ele>
        <time>2022-11-20T14:04:04.000Z</time>
      </trkpt>
      <trkpt lat="45.83206" lon="4.73143">
        <ele>300.70102</ele>
        <time>2022-11-20T14:04:05.000Z</time>
      </trkpt>
      <trkpt lat="45.83207" lon="4.73135">
        <ele>300.55081</ele>
        <time>2022-11-20T14:04:06.000Z</time>
      </trkpt>
      <trkpt lat="45.83209" lon="4.73127">
        <ele>300.43661</ele>
        <time>2022-11-20T14:04:07.000Z</time>
      </trkpt>
      <trkpt lat="45.83208" lon="4.73118">
        <ele>300.29974</ele>
        <time>2022-11-20T14:04:08.000Z</time>
      </trkpt>
      <trkpt lat="45.83209" lon="4.7311">
        <ele>300.13727</ele>
        <time>2022-11-20T14:04:09.000Z</time>
      </trkpt>
      <trkpt lat="45.83212" lon="4.73102">
        <ele>299.99234</ele>
        <time>2022-11-20T14:04:10.000Z</time>
      </trkpt>
      <trkpt lat="45.83214" lon="4.73095">
        <ele>299.89493</ele>
        <time>2022-11-20T14:04:11.000Z</time>
      </trkpt>
      <trkpt lat="45.83216" lon="4.73088">
        <ele>299.77911</ele>
        <time>2022-11-20T14:04:12.000Z</time>
      </trkpt>
      <trkpt lat="45.83219" lon="4.73083">
        <ele>299.67804</ele>
        <time>2022-11-20T14:04:13.000Z</time>
      </trkpt>
      <trkpt lat="45.83221" lon="4.73077">
        <ele>299.65805</ele>
        <time>2022-11-20T14:04:14.000Z</time>
      </trkpt>
      <trkpt lat="45.83224" lon="4.73073">
        <ele>299.64639</ele>
        <time>2022-11-20T14:04:15.000Z</time>
      </trkpt>
      <trkpt lat="45.83228" lon="4.73068">
        <ele>299.48981</ele>
        <time>2022-11-20T14:04:16.000Z</time>
      </trkpt>
      <trkpt lat="45.83231" lon="4.73064">
        <ele>299.32721</ele>
        <time>2022-11-20T14:04:17.000Z</time>
      </trkpt>
      <trkpt lat="45.83234" lon="4.73059">
        <ele>299.19388</ele>
        <time>2022-11-20T14:04:18.000Z</time>
      </trkpt>
      <trkpt lat="45.83236" lon="4.73054">
        <ele>299.05823</ele>
        <time>2022-11-20T14:04:19.000Z</time>
      </trkpt>
      <trkpt lat="45.83238" lon="4.7305">
        <ele>298.91388</ele>
        <time>2022-11-20T14:04:20.000Z</time>
      </trkpt>
      <trkpt lat="45.8324" lon="4.73046">
        <ele>298.71902</ele>
        <time>2022-11-20T14:04:21.000Z</time>
      </trkpt>
      <trkpt lat="45.83242" lon="4.73041">
        <ele>298.54959</ele>
        <time>2022-11-20T14:04:22.000Z</time>
      </trkpt>
      <trkpt lat="45.83243" lon="4.73037">
        <ele>298.36688</ele>
        <time>2022-11-20T14:04:23.000Z</time>
      </trkpt>
      <trkpt lat="45.83245" lon="4.73033">
        <ele>298.08432</ele>
        <time>2022-11-20T14:04:24.000Z</time>
      </trkpt>
      <trkpt lat="45.83247" lon="4.73029">
        <ele>297.83685</ele>
        <time>2022-11-20T14:04:25.000Z</time>
      </trkpt>
      <trkpt lat="45.83248" lon="4.73026">
        <ele>297.60406</ele>
        <time>2022-11-20T14:04:26.000Z</time>
      </trkpt>
      <trkpt lat="45.8325" lon="4.73022">
        <ele>297.3316</ele>
        <time>2022-11-20T14:04:27.000Z</time>
      </trkpt>
      <trkpt lat="45.83251" lon="4.73018">
        <ele>297.08746</ele>
        <time>2022-11-20T14:04:28.000Z</time>
      </trkpt>
      <trkpt lat="45.83253" lon="4.73014">
        <ele>296.87076</ele>
        <time>2022-11-20T14:04:29.000Z</time>
      </trkpt>
      <trkpt lat="45.83254" lon="4.7301">
        <ele>296.61957</ele>
        <time>2022-11-20T14:04:30.000Z</time>
      </trkpt>
      <trkpt lat="45.83256" lon="4.73006">
        <ele>296.30966</ele>
        <time>2022-11-20T14:04:31.000Z</time>
      </trkpt>
      <trkpt lat="45.83258" lon="4.73002">
        <ele>296.01135</ele>
        <time>2022-11-20T14:04:32.000Z</time>
      </trkpt>
      <trkpt lat="45.83259" lon="4.72998">
        <ele>295.6763</ele>
        <time>2022-11-20T14:04:33.000Z</time>
      </trkpt>
      <trkpt lat="45.83261" lon="4.72993">
        <ele>295.32904</ele>
        <time>2022-11-20T14:04:34.000Z</time>
      </trkpt>
      <trkpt lat="45.83263" lon="4.72989">
        <ele>295.02582</ele>
        <time>2022-11-20T14:04:35.000Z</time>
      </trkpt>
      <trkpt lat="45.83264" lon="4.72984">
        <ele>294.86594</ele>
        <time>2022-11-20T14:04:36.000Z</time>
      </trkpt>
      <trkpt lat="45.83266" lon="4.72979">
        <ele>294.70731</ele>
        <time>2022-11-20T14:04:37.000Z</time>
      </trkpt>
      <trkpt lat="45.83268" lon="4.72975">
        <ele>294.51431</ele>
        <time>2022-11-20T14:04:38.000Z</time>
      </trkpt>
      <trkpt lat="45.8327" lon="4.72969">
        <ele>294.30817</ele>
        <time>2022-11-20T14:04:39.000Z</time>
      </trkpt>
      <trkpt lat="45.83272" lon="4.72962">
        <ele>294.07709</ele>
        <time>2022-11-20T14:04:40.000Z</time>
      </trkpt>
      <trkpt lat="45.83274" lon="4.72955">
        <ele>293.90503</ele>
        <time>2022-11-20T14:04:41.000Z</time>
      </trkpt>
      <trkpt lat="45.83277" lon="4.72948">
        <ele>293.73663</ele>
        <time>2022-11-20T14:04:42.000Z</time>
      </trkpt>
      <trkpt lat="45.83279" lon="4.7294">
        <ele>293.5419</ele>
        <time>2022-11-20T14:04:43.000Z</time>
      </trkpt>
      <trkpt lat="45.83281" lon="4.72933">
        <ele>293.47772</ele>
        <time>2022-11-20T14:04:44.000Z</time>
      </trkpt>
      <trkpt lat="45.83285" lon="4.72924">
        <ele>293.37827</ele>
        <time>2022-11-20T14:04:45.000Z</time>
      </trkpt>
      <trkpt lat="45.83288" lon="4.72916">
        <ele>293.27069</ele>
        <time>2022-11-20T14:04:46.000Z</time>
      </trkpt>
      <trkpt lat="45.83292" lon="4.72907">
        <ele>293.18579</ele>
        <time>2022-11-20T14:04:47.000Z</time>
      </trkpt>
      <trkpt lat="45.83295" lon="4.729">
        <ele>293.08807</ele>
        <time>2022-11-20T14:04:48.000Z</time>
      </trkpt>
      <trkpt lat="45.83298" lon="4.72893">
        <ele>292.96478</ele>
        <time>2022-11-20T14:04:49.000Z</time>
      </trkpt>
      <trkpt lat="45.83301" lon="4.72888">
        <ele>292.82687</ele>
        <time>2022-11-20T14:04:50.000Z</time>
      </trkpt>
      <trkpt lat="45.83303" lon="4.72886">
        <ele>292.73907</ele>
        <time>2022-11-20T14:04:51.000Z</time>
      </trkpt>
      <trkpt lat="45.83306" lon="4.72884">
        <ele>292.65839</ele>
        <time>2022-11-20T14:04:52.000Z</time>
      </trkpt>
      <trkpt lat="45.83309" lon="4.72883">
        <ele>292.56168</ele>
        <time>2022-11-20T14:04:53.000Z</time>
      </trkpt>
      <trkpt lat="45.83313" lon="4.7288">
        <ele>292.49435</ele>
        <time>2022-11-20T14:04:54.000Z</time>
      </trkpt>
      <trkpt lat="45.83317" lon="4.72878">
        <ele>292.5249</ele>
        <time>2022-11-20T14:04:55.000Z</time>
      </trkpt>
      <trkpt lat="45.8332" lon="4.72875">
        <ele>292.58521</ele>
        <time>2022-11-20T14:04:56.000Z</time>
      </trkpt>
      <trkpt lat="45.83327" lon="4.72876">
        <ele>292.34851</ele>
        <time>2022-11-20T14:04:57.000Z</time>
      </trkpt>
      <trkpt lat="45.83334" lon="4.72876">
        <ele>292.1745</ele>
        <time>2022-11-20T14:04:58.000Z</time>
      </trkpt>
      <trkpt lat="45.83342" lon="4.72877">
        <ele>291.96396</ele>
        <time>2022-11-20T14:04:59.000Z</time>
      </trkpt>
      <trkpt lat="45.83349" lon="4.72877">
        <ele>291.89713</ele>
        <time>2022-11-20T14:05:00.000Z</time>
      </trkpt>
      <trkpt lat="45.83357" lon="4.72877">
        <ele>291.79263</ele>
        <time>2022-11-20T14:05:01.000Z</time>
      </trkpt>
      <trkpt lat="45.83363" lon="4.72877">
        <ele>291.75729</ele>
        <time>2022-11-20T14:05:02.000Z</time>
      </trkpt>
      <trkpt lat="45.83369" lon="4.72876">
        <ele>291.75623</ele>
        <time>2022-11-20T14:05:03.000Z</time>
      </trkpt>
      <trkpt lat="45.83375" lon="4.72877">
        <ele>291.84985</ele>
        <time>2022-11-20T14:05:04.000Z</time>
      </trkpt>
      <trkpt lat="45.83383" lon="4.72877">
        <ele>291.78412</ele>
        <time>2022-11-20T14:05:05.000Z</time>
      </trkpt>
      <trkpt lat="45.83388" lon="4.72877">
        <ele>291.41882</ele>
        <time>2022-11-20T14:05:06.000Z</time>
      </trkpt>
      <trkpt lat="45.83395" lon="4.72874">
        <ele>291.138</ele>
        <time>2022-11-20T14:05:07.000Z</time>
      </trkpt>
      <trkpt lat="45.83403" lon="4.72869">
        <ele>290.67706</ele>
        <time>2022-11-20T14:05:08.000Z</time>
      </trkpt>
      <trkpt lat="45.83409" lon="4.72865">
        <ele>290.17825</ele>
        <time>2022-11-20T14:05:09.000Z</time>
      </trkpt>
      <trkpt lat="45.83416" lon="4.72858">
        <ele>289.64679</ele>
        <time>2022-11-20T14:05:10.000Z</time>
      </trkpt>
      <trkpt lat="45.83423" lon="4.72849">
        <ele>289.18268</ele>
        <time>2022-11-20T14:05:11.000Z</time>
      </trkpt>
      <trkpt lat="45.83427" lon="4.72843">
        <ele>288.80704</ele>
        <time>2022-11-20T14:05:12.000Z</time>
      </trkpt>
      <trkpt lat="45.83429" lon="4.72839">
        <ele>288.36951</ele>
        <time>2022-11-20T14:05:13.000Z</time>
      </trkpt>
      <trkpt lat="45.83431" lon="4.72832">
        <ele>287.88458</ele>
        <time>2022-11-20T14:05:14.000Z</time>
      </trkpt>
      <trkpt lat="45.83433" lon="4.72826">
        <ele>287.44623</ele>
        <time>2022-11-20T14:05:15.000Z</time>
      </trkpt>
      <trkpt lat="45.83433" lon="4.72822">
        <ele>287.05191</ele>
        <time>2022-11-20T14:05:16.000Z</time>
      </trkpt>
      <trkpt lat="45.83433" lon="4.72815">
        <ele>287.08368</ele>
        <time>2022-11-20T14:05:17.000Z</time>
      </trkpt>
      <trkpt lat="45.83431" lon="4.72807">
        <ele>286.59866</ele>
        <time>2022-11-20T14:05:18.000Z</time>
      </trkpt>
      <trkpt lat="45.8343" lon="4.728">
        <ele>286.36057</ele>
        <time>2022-11-20T14:05:19.000Z</time>
      </trkpt>
      <trkpt lat="45.8343" lon="4.72795">
        <ele>286.1355</ele>
        <time>2022-11-20T14:05:20.000Z</time>
      </trkpt>
      <trkpt lat="45.8343" lon="4.7279">
        <ele>285.93332</ele>
        <time>2022-11-20T14:05:21.000Z</time>
      </trkpt>
      <trkpt lat="45.8343" lon="4.72785">
        <ele>285.7359</ele>
        <time>2022-11-20T14:05:22.000Z</time>
      </trkpt>
      <trkpt lat="45.83432" lon="4.72781">
        <ele>285.56808</ele>
        <time>2022-11-20T14:05:23.000Z</time>
      </trkpt>
      <trkpt lat="45.83434" lon="4.72778">
        <ele>285.09933</ele>
        <time>2022-11-20T14:05:24.000Z</time>
      </trkpt>
      <trkpt lat="45.83437" lon="4.72776">
        <ele>284.86108</ele>
        <time>2022-11-20T14:05:25.000Z</time>
      </trkpt>
      <trkpt lat="45.8344" lon="4.72775">
        <ele>284.76401</ele>
        <time>2022-11-20T14:05:26.000Z</time>
      </trkpt>
      <trkpt lat="45.83443" lon="4.72773">
        <ele>284.52789</ele>
        <time>2022-11-20T14:05:27.000Z</time>
      </trkpt>
      <trkpt lat="45.83447" lon="4.72772">
        <ele>284.51111</ele>
        <time>2022-11-20T14:05:28.000Z</time>
      </trkpt>
      <trkpt lat="45.83451" lon="4.72772">
        <ele>284.62314</ele>
        <time>2022-11-20T14:05:29.000Z</time>
      </trkpt>
      <trkpt lat="45.83454" lon="4.72771">
        <ele>284.71869</ele>
        <time>2022-11-20T14:05:30.000Z</time>
      </trkpt>
      <trkpt lat="45.83457" lon="4.7277">
        <ele>284.74686</ele>
        <time>2022-11-20T14:05:31.000Z</time>
      </trkpt>
      <trkpt lat="45.83461" lon="4.72769">
        <ele>284.65128</ele>
        <time>2022-11-20T14:05:32.000Z</time>
      </trkpt>
      <trkpt lat="45.83464" lon="4.72768">
        <ele>284.60175</ele>
        <time>2022-11-20T14:05:33.000Z</time>
      </trkpt>
      <trkpt lat="45.83468" lon="4.72766">
        <ele>284.54388</ele>
        <time>2022-11-20T14:05:34.000Z</time>
      </trkpt>
      <trkpt lat="45.8347" lon="4.72765">
        <ele>284.31064</ele>
        <time>2022-11-20T14:05:35.000Z</time>
      </trkpt>
      <trkpt lat="45.83474" lon="4.72763">
        <ele>284.08636</ele>
        <time>2022-11-20T14:05:36.000Z</time>
      </trkpt>
      <trkpt lat="45.83478" lon="4.72762">
        <ele>283.80792</ele>
        <time>2022-11-20T14:05:37.000Z</time>
      </trkpt>
      <trkpt lat="45.83482" lon="4.7276">
        <ele>283.94986</ele>
        <time>2022-11-20T14:05:38.000Z</time>
      </trkpt>
      <trkpt lat="45.83486" lon="4.72758">
        <ele>283.86481</ele>
        <time>2022-11-20T14:05:39.000Z</time>
      </trkpt>
      <trkpt lat="45.8349" lon="4.72757">
        <ele>283.65326</ele>
        <time>2022-11-20T14:05:40.000Z</time>
      </trkpt>
      <trkpt lat="45.83498" lon="4.72753">
        <ele>283.33765</ele>
        <time>2022-11-20T14:05:41.000Z</time>
      </trkpt>
      <trkpt lat="45.83503" lon="4.72751">
        <ele>282.98608</ele>
        <time>2022-11-20T14:05:42.000Z</time>
      </trkpt>
      <trkpt lat="45.83507" lon="4.72749">
        <ele>282.51227</ele>
        <time>2022-11-20T14:05:43.000Z</time>
      </trkpt>
      <trkpt lat="45.83513" lon="4.72749">
        <ele>281.91803</ele>
        <time>2022-11-20T14:05:44.000Z</time>
      </trkpt>
      <trkpt lat="45.83518" lon="4.72748">
        <ele>281.28714</ele>
        <time>2022-11-20T14:05:45.000Z</time>
      </trkpt>
      <trkpt lat="45.83524" lon="4.72746">
        <ele>280.79922</ele>
        <time>2022-11-20T14:05:46.000Z</time>
      </trkpt>
      <trkpt lat="45.83527" lon="4.72744">
        <ele>280.39658</ele>
        <time>2022-11-20T14:05:47.000Z</time>
      </trkpt>
      <trkpt lat="45.83532" lon="4.72743">
        <ele>279.95563</ele>
        <time>2022-11-20T14:05:48.000Z</time>
      </trkpt>
      <trkpt lat="45.83537" lon="4.72741">
        <ele>279.44629</ele>
        <time>2022-11-20T14:05:49.000Z</time>
      </trkpt>
      <trkpt lat="45.83541" lon="4.7274">
        <ele>278.99896</ele>
        <time>2022-11-20T14:05:50.000Z</time>
      </trkpt>
      <trkpt lat="45.83545" lon="4.72738">
        <ele>278.52222</ele>
        <time>2022-11-20T14:05:51.000Z</time>
      </trkpt>
      <trkpt lat="45.83549" lon="4.72738">
        <ele>278.04279</ele>
        <time>2022-11-20T14:05:52.000Z</time>
      </trkpt>
      <trkpt lat="45.83554" lon="4.72736">
        <ele>277.6709</ele>
        <time>2022-11-20T14:05:53.000Z</time>
      </trkpt>
      <trkpt lat="45.83559" lon="4.72734">
        <ele>277.71341</ele>
        <time>2022-11-20T14:05:54.000Z</time>
      </trkpt>
      <trkpt lat="45.83564" lon="4.72732">
        <ele>277.9632</ele>
        <time>2022-11-20T14:05:55.000Z</time>
      </trkpt>
      <trkpt lat="45.83569" lon="4.7273">
        <ele>278.13641</ele>
        <time>2022-11-20T14:05:56.000Z</time>
      </trkpt>
      <trkpt lat="45.83572" lon="4.72727">
        <ele>277.81683</ele>
        <time>2022-11-20T14:05:57.000Z</time>
      </trkpt>
      <trkpt lat="45.83576" lon="4.72725">
        <ele>277.68436</ele>
        <time>2022-11-20T14:05:58.000Z</time>
      </trkpt>
      <trkpt lat="45.83581" lon="4.72722">
        <ele>277.55591</ele>
        <time>2022-11-20T14:05:59.000Z</time>
      </trkpt>
      <trkpt lat="45.83586" lon="4.72719">
        <ele>277.23477</ele>
        <time>2022-11-20T14:06:00.000Z</time>
      </trkpt>
      <trkpt lat="45.8359" lon="4.72715">
        <ele>277.10895</ele>
        <time>2022-11-20T14:06:01.000Z</time>
      </trkpt>
      <trkpt lat="45.83594" lon="4.72712">
        <ele>276.83661</ele>
        <time>2022-11-20T14:06:02.000Z</time>
      </trkpt>
      <trkpt lat="45.83597" lon="4.72709">
        <ele>276.63348</ele>
        <time>2022-11-20T14:06:03.000Z</time>
      </trkpt>
      <trkpt lat="45.83603" lon="4.72706">
        <ele>276.60779</ele>
        <time>2022-11-20T14:06:04.000Z</time>
      </trkpt>
      <trkpt lat="45.83608" lon="4.72703">
        <ele>276.12912</ele>
        <time>2022-11-20T14:06:05.000Z</time>
      </trkpt>
      <trkpt lat="45.83614" lon="4.72698">
        <ele>275.68137</ele>
        <time>2022-11-20T14:06:06.000Z</time>
      </trkpt>
      <trkpt lat="45.83619" lon="4.72694">
        <ele>275.14902</ele>
        <time>2022-11-20T14:06:07.000Z</time>
      </trkpt>
      <trkpt lat="45.83624" lon="4.72687">
        <ele>274.63354</ele>
        <time>2022-11-20T14:06:08.000Z</time>
      </trkpt>
      <trkpt lat="45.8363" lon="4.72682">
        <ele>274.07968</ele>
        <time>2022-11-20T14:06:09.000Z</time>
      </trkpt>
      <trkpt lat="45.83636" lon="4.72678">
        <ele>273.51788</ele>
        <time>2022-11-20T14:06:10.000Z</time>
      </trkpt>
      <trkpt lat="45.83642" lon="4.72673">
        <ele>272.9473</ele>
        <time>2022-11-20T14:06:11.000Z</time>
      </trkpt>
      <trkpt lat="45.83649" lon="4.72671">
        <ele>272.4223</ele>
        <time>2022-11-20T14:06:12.000Z</time>
      </trkpt>
      <trkpt lat="45.83656" lon="4.72665">
        <ele>271.76392</ele>
        <time>2022-11-20T14:06:13.000Z</time>
      </trkpt>
      <trkpt lat="45.83663" lon="4.72662">
        <ele>270.71945</ele>
        <time>2022-11-20T14:06:14.000Z</time>
      </trkpt>
      <trkpt lat="45.8367" lon="4.7266">
        <ele>269.46906</ele>
        <time>2022-11-20T14:06:15.000Z</time>
      </trkpt>
      <trkpt lat="45.83676" lon="4.72658">
        <ele>268.21149</ele>
        <time>2022-11-20T14:06:16.000Z</time>
      </trkpt>
      <trkpt lat="45.83683" lon="4.72655">
        <ele>267.36826</ele>
        <time>2022-11-20T14:06:17.000Z</time>
      </trkpt>
      <trkpt lat="45.83689" lon="4.72653">
        <ele>266.37616</ele>
        <time>2022-11-20T14:06:18.000Z</time>
      </trkpt>
      <trkpt lat="45.83696" lon="4.72651">
        <ele>265.39954</ele>
        <time>2022-11-20T14:06:19.000Z</time>
      </trkpt>
      <trkpt lat="45.83703" lon="4.7265">
        <ele>264.59018</ele>
        <time>2022-11-20T14:06:20.000Z</time>
      </trkpt>
      <trkpt lat="45.83709" lon="4.72649">
        <ele>263.702</ele>
        <time>2022-11-20T14:06:21.000Z</time>
      </trkpt>
      <trkpt lat="45.83715" lon="4.72644">
        <ele>262.89017</ele>
        <time>2022-11-20T14:06:22.000Z</time>
      </trkpt>
      <trkpt lat="45.83721" lon="4.72641">
        <ele>262.0806</ele>
        <time>2022-11-20T14:06:23.000Z</time>
      </trkpt>
      <trkpt lat="45.83728" lon="4.72638">
        <ele>261.27402</ele>
        <time>2022-11-20T14:06:24.000Z</time>
      </trkpt>
      <trkpt lat="45.83734" lon="4.72635">
        <ele>260.92227</ele>
        <time>2022-11-20T14:06:25.000Z</time>
      </trkpt>
      <trkpt lat="45.8374" lon="4.72635">
        <ele>260.56534</ele>
        <time>2022-11-20T14:06:26.000Z</time>
      </trkpt>
      <trkpt lat="45.83746" lon="4.72632">
        <ele>260.31335</ele>
        <time>2022-11-20T14:06:27.000Z</time>
      </trkpt>
      <trkpt lat="45.83752" lon="4.72631">
        <ele>260.03265</ele>
        <time>2022-11-20T14:06:28.000Z</time>
      </trkpt>
      <trkpt lat="45.83758" lon="4.72631">
        <ele>260.3223</ele>
        <time>2022-11-20T14:06:29.000Z</time>
      </trkpt>
      <trkpt lat="45.83764" lon="4.7263">
        <ele>260.57364</ele>
        <time>2022-11-20T14:06:30.000Z</time>
      </trkpt>
      <trkpt lat="45.83769" lon="4.72627">
        <ele>260.83807</ele>
        <time>2022-11-20T14:06:31.000Z</time>
      </trkpt>
      <trkpt lat="45.83774" lon="4.72625">
        <ele>261.1308</ele>
        <time>2022-11-20T14:06:32.000Z</time>
      </trkpt>
      <trkpt lat="45.83779" lon="4.72623">
        <ele>261.47919</ele>
        <time>2022-11-20T14:06:33.000Z</time>
      </trkpt>
      <trkpt lat="45.83786" lon="4.72621">
        <ele>262.0592</ele>
        <time>2022-11-20T14:06:34.000Z</time>
      </trkpt>
      <trkpt lat="45.8379" lon="4.7262">
        <ele>262.79123</ele>
        <time>2022-11-20T14:06:35.000Z</time>
      </trkpt>
      <trkpt lat="45.83796" lon="4.72618">
        <ele>263.48383</ele>
        <time>2022-11-20T14:06:36.000Z</time>
      </trkpt>
      <trkpt lat="45.83801" lon="4.72616">
        <ele>264.12668</ele>
        <time>2022-11-20T14:06:37.000Z</time>
      </trkpt>
      <trkpt lat="45.83806" lon="4.72612">
        <ele>264.31439</ele>
        <time>2022-11-20T14:06:38.000Z</time>
      </trkpt>
      <trkpt lat="45.8381" lon="4.72609">
        <ele>264.70355</ele>
        <time>2022-11-20T14:06:39.000Z</time>
      </trkpt>
      <trkpt lat="45.83815" lon="4.72605">
        <ele>265.08981</ele>
        <time>2022-11-20T14:06:40.000Z</time>
      </trkpt>
      <trkpt lat="45.83819" lon="4.72601">
        <ele>265.49081</ele>
        <time>2022-11-20T14:06:41.000Z</time>
      </trkpt>
      <trkpt lat="45.83822" lon="4.72595">
        <ele>265.93854</ele>
        <time>2022-11-20T14:06:42.000Z</time>
      </trkpt>
      <trkpt lat="45.83823" lon="4.7259">
        <ele>266.47119</ele>
        <time>2022-11-20T14:06:43.000Z</time>
      </trkpt>
      <trkpt lat="45.83827" lon="4.72584">
        <ele>266.44321</ele>
        <time>2022-11-20T14:06:44.000Z</time>
      </trkpt>
      <trkpt lat="45.83828" lon="4.72578">
        <ele>266.43616</ele>
        <time>2022-11-20T14:06:45.000Z</time>
      </trkpt>
      <trkpt lat="45.8383" lon="4.72571">
        <ele>266.48016</ele>
        <time>2022-11-20T14:06:46.000Z</time>
      </trkpt>
      <trkpt lat="45.83831" lon="4.72566">
        <ele>267.12241</ele>
        <time>2022-11-20T14:06:47.000Z</time>
      </trkpt>
      <trkpt lat="45.83833" lon="4.72561">
        <ele>267.76389</ele>
        <time>2022-11-20T14:06:48.000Z</time>
      </trkpt>
      <trkpt lat="45.83834" lon="4.72555">
        <ele>267.867</ele>
        <time>2022-11-20T14:06:49.000Z</time>
      </trkpt>
      <trkpt lat="45.83835" lon="4.72549">
        <ele>268.04932</ele>
        <time>2022-11-20T14:06:50.000Z</time>
      </trkpt>
      <trkpt lat="45.83837" lon="4.72543">
        <ele>268.22855</ele>
        <time>2022-11-20T14:06:51.000Z</time>
      </trkpt>
      <trkpt lat="45.83837" lon="4.72536">
        <ele>268.37729</ele>
        <time>2022-11-20T14:06:52.000Z</time>
      </trkpt>
      <trkpt lat="45.83838" lon="4.7253">
        <ele>268.49948</ele>
        <time>2022-11-20T14:06:53.000Z</time>
      </trkpt>
      <trkpt lat="45.83839" lon="4.72524">
        <ele>268.55252</ele>
        <time>2022-11-20T14:06:54.000Z</time>
      </trkpt>
      <trkpt lat="45.8384" lon="4.72519">
        <ele>267.94128</ele>
        <time>2022-11-20T14:06:55.000Z</time>
      </trkpt>
      <trkpt lat="45.83841" lon="4.72513">
        <ele>267.49432</ele>
        <time>2022-11-20T14:06:56.000Z</time>
      </trkpt>
      <trkpt lat="45.83841" lon="4.72507">
        <ele>267.13083</ele>
        <time>2022-11-20T14:06:57.000Z</time>
      </trkpt>
      <trkpt lat="45.8384" lon="4.72502">
        <ele>267.27859</ele>
        <time>2022-11-20T14:06:58.000Z</time>
      </trkpt>
      <trkpt lat="45.83839" lon="4.72496">
        <ele>267.23071</ele>
        <time>2022-11-20T14:06:59.000Z</time>
      </trkpt>
      <trkpt lat="45.83839" lon="4.72491">
        <ele>267.23126</ele>
        <time>2022-11-20T14:07:00.000Z</time>
      </trkpt>
      <trkpt lat="45.83838" lon="4.72485">
        <ele>267.25949</ele>
        <time>2022-11-20T14:07:01.000Z</time>
      </trkpt>
      <trkpt lat="45.83838" lon="4.7248">
        <ele>267.276</ele>
        <time>2022-11-20T14:07:02.000Z</time>
      </trkpt>
      <trkpt lat="45.83838" lon="4.72475">
        <ele>267.28085</ele>
        <time>2022-11-20T14:07:03.000Z</time>
      </trkpt>
      <trkpt lat="45.83838" lon="4.7247">
        <ele>268.02328</ele>
        <time>2022-11-20T14:07:04.000Z</time>
      </trkpt>
      <trkpt lat="45.83838" lon="4.72465">
        <ele>268.67316</ele>
        <time>2022-11-20T14:07:05.000Z</time>
      </trkpt>
      <trkpt lat="45.83838" lon="4.7246">
        <ele>269.20822</ele>
        <time>2022-11-20T14:07:06.000Z</time>
      </trkpt>
      <trkpt lat="45.83838" lon="4.72456">
        <ele>269.14447</ele>
        <time>2022-11-20T14:07:07.000Z</time>
      </trkpt>
      <trkpt lat="45.83838" lon="4.72451">
        <ele>268.93433</ele>
        <time>2022-11-20T14:07:08.000Z</time>
      </trkpt>
      <trkpt lat="45.8384" lon="4.72446">
        <ele>268.75201</ele>
        <time>2022-11-20T14:07:09.000Z</time>
      </trkpt>
      <trkpt lat="45.83843" lon="4.72441">
        <ele>268.5177</ele>
        <time>2022-11-20T14:07:10.000Z</time>
      </trkpt>
      <trkpt lat="45.83845" lon="4.72437">
        <ele>268.30234</ele>
        <time>2022-11-20T14:07:11.000Z</time>
      </trkpt>
      <trkpt lat="45.83848" lon="4.72433">
        <ele>268.12448</ele>
        <time>2022-11-20T14:07:12.000Z</time>
      </trkpt>
      <trkpt lat="45.83851" lon="4.7243">
        <ele>268.05737</ele>
        <time>2022-11-20T14:07:13.000Z</time>
      </trkpt>
      <trkpt lat="45.83853" lon="4.72427">
        <ele>267.79364</ele>
        <time>2022-11-20T14:07:14.000Z</time>
      </trkpt>
      <trkpt lat="45.83857" lon="4.72424">
        <ele>268.06439</ele>
        <time>2022-11-20T14:07:15.000Z</time>
      </trkpt>
      <trkpt lat="45.8386" lon="4.72421">
        <ele>268.21072</ele>
        <time>2022-11-20T14:07:16.000Z</time>
      </trkpt>
      <trkpt lat="45.83863" lon="4.7242">
        <ele>268.33398</ele>
        <time>2022-11-20T14:07:17.000Z</time>
      </trkpt>
      <trkpt lat="45.83865" lon="4.72418">
        <ele>268.43222</ele>
        <time>2022-11-20T14:07:18.000Z</time>
      </trkpt>
      <trkpt lat="45.83868" lon="4.72416">
        <ele>268.56754</ele>
        <time>2022-11-20T14:07:19.000Z</time>
      </trkpt>
      <trkpt lat="45.83872" lon="4.72415">
        <ele>268.69891</ele>
        <time>2022-11-20T14:07:20.000Z</time>
      </trkpt>
      <trkpt lat="45.83875" lon="4.72413">
        <ele>268.80405</ele>
        <time>2022-11-20T14:07:21.000Z</time>
      </trkpt>
      <trkpt lat="45.83878" lon="4.72411">
        <ele>268.93854</ele>
        <time>2022-11-20T14:07:22.000Z</time>
      </trkpt>
      <trkpt lat="45.83882" lon="4.7241">
        <ele>269.06476</ele>
        <time>2022-11-20T14:07:23.000Z</time>
      </trkpt>
      <trkpt lat="45.83885" lon="4.72408">
        <ele>269.02206</ele>
        <time>2022-11-20T14:07:24.000Z</time>
      </trkpt>
      <trkpt lat="45.83888" lon="4.72407">
        <ele>269.03165</ele>
        <time>2022-11-20T14:07:25.000Z</time>
      </trkpt>
      <trkpt lat="45.83891" lon="4.72406">
        <ele>269.11414</ele>
        <time>2022-11-20T14:07:26.000Z</time>
      </trkpt>
      <trkpt lat="45.83894" lon="4.72404">
        <ele>269.0506</ele>
        <time>2022-11-20T14:07:27.000Z</time>
      </trkpt>
      <trkpt lat="45.83897" lon="4.72403">
        <ele>269.30215</ele>
        <time>2022-11-20T14:07:28.000Z</time>
      </trkpt>
      <trkpt lat="45.839" lon="4.72401">
        <ele>269.50336</ele>
        <time>2022-11-20T14:07:29.000Z</time>
      </trkpt>
      <trkpt lat="45.83903" lon="4.72399">
        <ele>269.76541</ele>
        <time>2022-11-20T14:07:30.000Z</time>
      </trkpt>
      <trkpt lat="45.83906" lon="4.72397">
        <ele>269.9838</ele>
        <time>2022-11-20T14:07:31.000Z</time>
      </trkpt>
      <trkpt lat="45.83908" lon="4.72395">
        <ele>270.24811</ele>
        <time>2022-11-20T14:07:32.000Z</time>
      </trkpt>
      <trkpt lat="45.83911" lon="4.72394">
        <ele>270.43591</ele>
        <time>2022-11-20T14:07:33.000Z</time>
      </trkpt>
      <trkpt lat="45.83914" lon="4.72392">
        <ele>270.64008</ele>
        <time>2022-11-20T14:07:34.000Z</time>
      </trkpt>
      <trkpt lat="45.83917" lon="4.72392">
        <ele>270.86661</ele>
        <time>2022-11-20T14:07:35.000Z</time>
      </trkpt>
      <trkpt lat="45.83919" lon="4.72391">
        <ele>271.15762</ele>
        <time>2022-11-20T14:07:36.000Z</time>
      </trkpt>
      <trkpt lat="45.83922" lon="4.7239">
        <ele>271.48297</ele>
        <time>2022-11-20T14:07:37.000Z</time>
      </trkpt>
      <trkpt lat="45.83924" lon="4.72389">
        <ele>271.73041</ele>
        <time>2022-11-20T14:07:38.000Z</time>
      </trkpt>
      <trkpt lat="45.83927" lon="4.72388">
        <ele>271.90952</ele>
        <time>2022-11-20T14:07:39.000Z</time>
      </trkpt>
      <trkpt lat="45.8393" lon="4.72387">
        <ele>272.05829</ele>
        <time>2022-11-20T14:07:40.000Z</time>
      </trkpt>
      <trkpt lat="45.83933" lon="4.72385">
        <ele>272.19876</ele>
        <time>2022-11-20T14:07:41.000Z</time>
      </trkpt>
      <trkpt lat="45.83935" lon="4.72383">
        <ele>272.31927</ele>
        <time>2022-11-20T14:07:42.000Z</time>
      </trkpt>
      <trkpt lat="45.83938" lon="4.72381">
        <ele>272.4184</ele>
        <time>2022-11-20T14:07:43.000Z</time>
      </trkpt>
      <trkpt lat="45.83941" lon="4.72379">
        <ele>272.54205</ele>
        <time>2022-11-20T14:07:44.000Z</time>
      </trkpt>
      <trkpt lat="45.83943" lon="4.72378">
        <ele>272.60342</ele>
        <time>2022-11-20T14:07:45.000Z</time>
      </trkpt>
      <trkpt lat="45.83946" lon="4.72376">
        <ele>272.59454</ele>
        <time>2022-11-20T14:07:46.000Z</time>
      </trkpt>
      <trkpt lat="45.83948" lon="4.72374">
        <ele>272.70444</ele>
        <time>2022-11-20T14:07:47.000Z</time>
      </trkpt>
      <trkpt lat="45.83951" lon="4.72371">
        <ele>272.88986</ele>
        <time>2022-11-20T14:07:48.000Z</time>
      </trkpt>
      <trkpt lat="45.83953" lon="4.72369">
        <ele>273.14145</ele>
        <time>2022-11-20T14:07:49.000Z</time>
      </trkpt>
      <trkpt lat="45.83955" lon="4.72368">
        <ele>273.52167</ele>
        <time>2022-11-20T14:07:50.000Z</time>
      </trkpt>
      <trkpt lat="45.83958" lon="4.72366">
        <ele>273.97449</ele>
        <time>2022-11-20T14:07:51.000Z</time>
      </trkpt>
      <trkpt lat="45.8396" lon="4.72364">
        <ele>273.9248</ele>
        <time>2022-11-20T14:07:52.000Z</time>
      </trkpt>
      <trkpt lat="45.83963" lon="4.72363">
        <ele>273.92413</ele>
        <time>2022-11-20T14:07:53.000Z</time>
      </trkpt>
      <trkpt lat="45.83965" lon="4.72361">
        <ele>273.91107</ele>
        <time>2022-11-20T14:07:54.000Z</time>
      </trkpt>
      <trkpt lat="45.83967" lon="4.72359">
        <ele>273.84344</ele>
        <time>2022-11-20T14:07:55.000Z</time>
      </trkpt>
      <trkpt lat="45.83969" lon="4.72357">
        <ele>273.73929</ele>
        <time>2022-11-20T14:07:56.000Z</time>
      </trkpt>
      <trkpt lat="45.83971" lon="4.72355">
        <ele>273.63043</ele>
        <time>2022-11-20T14:07:57.000Z</time>
      </trkpt>
      <trkpt lat="45.83974" lon="4.72353">
        <ele>273.60211</ele>
        <time>2022-11-20T14:07:58.000Z</time>
      </trkpt>
      <trkpt lat="45.83976" lon="4.72351">
        <ele>273.62491</ele>
        <time>2022-11-20T14:07:59.000Z</time>
      </trkpt>
      <trkpt lat="45.83979" lon="4.72349">
        <ele>273.70621</ele>
        <time>2022-11-20T14:08:00.000Z</time>
      </trkpt>
      <trkpt lat="45.83981" lon="4.72347">
        <ele>273.78882</ele>
        <time>2022-11-20T14:08:01.000Z</time>
      </trkpt>
      <trkpt lat="45.83983" lon="4.72345">
        <ele>273.87051</ele>
        <time>2022-11-20T14:08:02.000Z</time>
      </trkpt>
      <trkpt lat="45.83986" lon="4.72342">
        <ele>273.9415</ele>
        <time>2022-11-20T14:08:03.000Z</time>
      </trkpt>
      <trkpt lat="45.83988" lon="4.7234">
        <ele>274.0032</ele>
        <time>2022-11-20T14:08:04.000Z</time>
      </trkpt>
      <trkpt lat="45.83991" lon="4.72338">
        <ele>274.16058</ele>
        <time>2022-11-20T14:08:05.000Z</time>
      </trkpt>
      <trkpt lat="45.83993" lon="4.72336">
        <ele>274.38712</ele>
        <time>2022-11-20T14:08:06.000Z</time>
      </trkpt>
      <trkpt lat="45.83995" lon="4.72334">
        <ele>274.61261</ele>
        <time>2022-11-20T14:08:07.000Z</time>
      </trkpt>
      <trkpt lat="45.83997" lon="4.72331">
        <ele>274.6575</ele>
        <time>2022-11-20T14:08:08.000Z</time>
      </trkpt>
      <trkpt lat="45.83999" lon="4.72328">
        <ele>274.86761</ele>
        <time>2022-11-20T14:08:09.000Z</time>
      </trkpt>
      <trkpt lat="45.84" lon="4.72326">
        <ele>274.88608</ele>
        <time>2022-11-20T14:08:10.000Z</time>
      </trkpt>
      <trkpt lat="45.84002" lon="4.72324">
        <ele>274.87271</ele>
        <time>2022-11-20T14:08:11.000Z</time>
      </trkpt>
      <trkpt lat="45.84004" lon="4.72321">
        <ele>275.28125</ele>
        <time>2022-11-20T14:08:12.000Z</time>
      </trkpt>
      <trkpt lat="45.84006" lon="4.72318">
        <ele>275.59589</ele>
        <time>2022-11-20T14:08:13.000Z</time>
      </trkpt>
      <trkpt lat="45.84008" lon="4.72315">
        <ele>275.96985</ele>
        <time>2022-11-20T14:08:14.000Z</time>
      </trkpt>
      <trkpt lat="45.8401" lon="4.72312">
        <ele>276.38898</ele>
        <time>2022-11-20T14:08:15.000Z</time>
      </trkpt>
      <trkpt lat="45.84011" lon="4.72309">
        <ele>276.77975</ele>
        <time>2022-11-20T14:08:17.000Z</time>
      </trkpt>
      <trkpt lat="45.8401" lon="4.72305">
        <ele>277.25583</ele>
        <time>2022-11-20T14:08:19.000Z</time>
      </trkpt>
      <trkpt lat="45.84008" lon="4.72302">
        <ele>277.75546</ele>
        <time>2022-11-20T14:08:21.000Z</time>
      </trkpt>
      <trkpt lat="45.84006" lon="4.72299">
        <ele>277.84528</ele>
        <time>2022-11-20T14:08:23.000Z</time>
      </trkpt>
      <trkpt lat="45.84005" lon="4.72294">
        <ele>277.96609</ele>
        <time>2022-11-20T14:08:25.000Z</time>
      </trkpt>
      <trkpt lat="45.84005" lon="4.72291">
        <ele>278.06277</ele>
        <time>2022-11-20T14:08:26.000Z</time>
      </trkpt>
      <trkpt lat="45.84004" lon="4.72287">
        <ele>278.19891</ele>
        <time>2022-11-20T14:08:27.000Z</time>
      </trkpt>
      <trkpt lat="45.84003" lon="4.72283">
        <ele>278.31741</ele>
        <time>2022-11-20T14:08:28.000Z</time>
      </trkpt>
      <trkpt lat="45.84002" lon="4.7228">
        <ele>278.45517</ele>
        <time>2022-11-20T14:08:29.000Z</time>
      </trkpt>
      <trkpt lat="45.84" lon="4.72278">
        <ele>278.5618</ele>
        <time>2022-11-20T14:08:30.000Z</time>
      </trkpt>
      <trkpt lat="45.83998" lon="4.72275">
        <ele>278.69553</ele>
        <time>2022-11-20T14:08:31.000Z</time>
      </trkpt>
      <trkpt lat="45.83996" lon="4.72272">
        <ele>278.80426</ele>
        <time>2022-11-20T14:08:32.000Z</time>
      </trkpt>
      <trkpt lat="45.83995" lon="4.72269">
        <ele>278.86505</ele>
        <time>2022-11-20T14:08:33.000Z</time>
      </trkpt>
      <trkpt lat="45.83993" lon="4.72266">
        <ele>278.7298</ele>
        <time>2022-11-20T14:08:34.000Z</time>
      </trkpt>
      <trkpt lat="45.83992" lon="4.72263">
        <ele>278.65768</ele>
        <time>2022-11-20T14:08:35.000Z</time>
      </trkpt>
      <trkpt lat="45.8399" lon="4.72259">
        <ele>278.58899</ele>
        <time>2022-11-20T14:08:36.000Z</time>
      </trkpt>
      <trkpt lat="45.83988" lon="4.72256">
        <ele>278.49945</ele>
        <time>2022-11-20T14:08:37.000Z</time>
      </trkpt>
      <trkpt lat="45.83987" lon="4.72253">
        <ele>278.4267</ele>
        <time>2022-11-20T14:08:38.000Z</time>
      </trkpt>
      <trkpt lat="45.83985" lon="4.72249">
        <ele>278.29938</ele>
        <time>2022-11-20T14:08:39.000Z</time>
      </trkpt>
      <trkpt lat="45.83983" lon="4.72245">
        <ele>278.17316</ele>
        <time>2022-11-20T14:08:40.000Z</time>
      </trkpt>
      <trkpt lat="45.83981" lon="4.72242">
        <ele>278.07877</ele>
        <time>2022-11-20T14:08:41.000Z</time>
      </trkpt>
      <trkpt lat="45.83979" lon="4.72238">
        <ele>277.87802</ele>
        <time>2022-11-20T14:08:42.000Z</time>
      </trkpt>
      <trkpt lat="45.83977" lon="4.72234">
        <ele>277.62585</ele>
        <time>2022-11-20T14:08:43.000Z</time>
      </trkpt>
      <trkpt lat="45.83975" lon="4.7223">
        <ele>277.79495</ele>
        <time>2022-11-20T14:08:44.000Z</time>
      </trkpt>
      <trkpt lat="45.83973" lon="4.72226">
        <ele>277.91092</ele>
        <time>2022-11-20T14:08:45.000Z</time>
      </trkpt>
      <trkpt lat="45.83971" lon="4.72222">
        <ele>278.021</ele>
        <time>2022-11-20T14:08:46.000Z</time>
      </trkpt>
      <trkpt lat="45.83969" lon="4.72218">
        <ele>278.10144</ele>
        <time>2022-11-20T14:08:47.000Z</time>
      </trkpt>
      <trkpt lat="45.83967" lon="4.72213">
        <ele>278.18488</ele>
        <time>2022-11-20T14:08:48.000Z</time>
      </trkpt>
      <trkpt lat="45.83965" lon="4.72208">
        <ele>278.24832</ele>
        <time>2022-11-20T14:08:49.000Z</time>
      </trkpt>
      <trkpt lat="45.83963" lon="4.72204">
        <ele>278.33255</ele>
        <time>2022-11-20T14:08:50.000Z</time>
      </trkpt>
      <trkpt lat="45.83961" lon="4.72199">
        <ele>278.37015</ele>
        <time>2022-11-20T14:08:51.000Z</time>
      </trkpt>
      <trkpt lat="45.83959" lon="4.72195">
        <ele>278.40195</ele>
        <time>2022-11-20T14:08:52.000Z</time>
      </trkpt>
      <trkpt lat="45.83956" lon="4.7219">
        <ele>278.43732</ele>
        <time>2022-11-20T14:08:53.000Z</time>
      </trkpt>
      <trkpt lat="45.83954" lon="4.72186">
        <ele>278.43475</ele>
        <time>2022-11-20T14:08:54.000Z</time>
      </trkpt>
      <trkpt lat="45.83952" lon="4.72181">
        <ele>278.41852</ele>
        <time>2022-11-20T14:08:55.000Z</time>
      </trkpt>
      <trkpt lat="45.8395" lon="4.72177">
        <ele>278.4035</ele>
        <time>2022-11-20T14:08:56.000Z</time>
      </trkpt>
      <trkpt lat="45.83947" lon="4.72173">
        <ele>278.41339</ele>
        <time>2022-11-20T14:08:57.000Z</time>
      </trkpt>
      <trkpt lat="45.83944" lon="4.7217">
        <ele>278.42493</ele>
        <time>2022-11-20T14:08:58.000Z</time>
      </trkpt>
      <trkpt lat="45.83942" lon="4.72167">
        <ele>278.4516</ele>
        <time>2022-11-20T14:08:59.000Z</time>
      </trkpt>
      <trkpt lat="45.8394" lon="4.72163">
        <ele>278.47699</ele>
        <time>2022-11-20T14:09:00.000Z</time>
      </trkpt>
      <trkpt lat="45.83941" lon="4.72159">
        <ele>278.48157</ele>
        <time>2022-11-20T14:09:01.000Z</time>
      </trkpt>
      <trkpt lat="45.83943" lon="4.72156">
        <ele>278.6785</ele>
        <time>2022-11-20T14:09:02.000Z</time>
      </trkpt>
      <trkpt lat="45.83946" lon="4.72155">
        <ele>278.88663</ele>
        <time>2022-11-20T14:09:03.000Z</time>
      </trkpt>
      <trkpt lat="45.8395" lon="4.72156">
        <ele>279.07001</ele>
        <time>2022-11-20T14:09:04.000Z</time>
      </trkpt>
      <trkpt lat="45.83952" lon="4.72158">
        <ele>279.2225</ele>
        <time>2022-11-20T14:09:05.000Z</time>
      </trkpt>
      <trkpt lat="45.83955" lon="4.72159">
        <ele>279.40112</ele>
        <time>2022-11-20T14:09:06.000Z</time>
      </trkpt>
      <trkpt lat="45.83959" lon="4.7216">
        <ele>279.55374</ele>
        <time>2022-11-20T14:09:07.000Z</time>
      </trkpt>
      <trkpt lat="45.83963" lon="4.72161">
        <ele>279.69171</ele>
        <time>2022-11-20T14:09:08.000Z</time>
      </trkpt>
      <trkpt lat="45.83966" lon="4.72162">
        <ele>279.83365</ele>
        <time>2022-11-20T14:09:09.000Z</time>
      </trkpt>
      <trkpt lat="45.83969" lon="4.72163">
        <ele>279.96759</ele>
        <time>2022-11-20T14:09:10.000Z</time>
      </trkpt>
      <trkpt lat="45.83972" lon="4.72163">
        <ele>280.33929</ele>
        <time>2022-11-20T14:09:11.000Z</time>
      </trkpt>
      <trkpt lat="45.83975" lon="4.72164">
        <ele>280.30585</ele>
        <time>2022-11-20T14:09:12.000Z</time>
      </trkpt>
      <trkpt lat="45.83978" lon="4.72165">
        <ele>280.28198</ele>
        <time>2022-11-20T14:09:13.000Z</time>
      </trkpt>
      <trkpt lat="45.83981" lon="4.72165">
        <ele>280.16559</ele>
        <time>2022-11-20T14:09:14.000Z</time>
      </trkpt>
      <trkpt lat="45.83984" lon="4.72166">
        <ele>280.01117</ele>
        <time>2022-11-20T14:09:15.000Z</time>
      </trkpt>
      <trkpt lat="45.83987" lon="4.72166">
        <ele>279.8559</ele>
        <time>2022-11-20T14:09:16.000Z</time>
      </trkpt>
      <trkpt lat="45.83991" lon="4.72167">
        <ele>279.72891</ele>
        <time>2022-11-20T14:09:17.000Z</time>
      </trkpt>
      <trkpt lat="45.83994" lon="4.72167">
        <ele>279.58246</ele>
        <time>2022-11-20T14:09:18.000Z</time>
      </trkpt>
      <trkpt lat="45.83997" lon="4.72167">
        <ele>279.43707</ele>
        <time>2022-11-20T14:09:19.000Z</time>
      </trkpt>
      <trkpt lat="45.84001" lon="4.72168">
        <ele>279.28415</ele>
        <time>2022-11-20T14:09:20.000Z</time>
      </trkpt>
      <trkpt lat="45.84005" lon="4.72168">
        <ele>279.14511</ele>
        <time>2022-11-20T14:09:21.000Z</time>
      </trkpt>
      <trkpt lat="45.84008" lon="4.72167">
        <ele>278.83066</ele>
        <time>2022-11-20T14:09:22.000Z</time>
      </trkpt>
      <trkpt lat="45.84012" lon="4.72165">
        <ele>278.51828</ele>
        <time>2022-11-20T14:09:23.000Z</time>
      </trkpt>
      <trkpt lat="45.84015" lon="4.72163">
        <ele>278.20993</ele>
        <time>2022-11-20T14:09:24.000Z</time>
      </trkpt>
      <trkpt lat="45.84018" lon="4.72159">
        <ele>277.27231</ele>
        <time>2022-11-20T14:09:25.000Z</time>
      </trkpt>
      <trkpt lat="45.8402" lon="4.72155">
        <ele>276.32965</ele>
        <time>2022-11-20T14:09:26.000Z</time>
      </trkpt>
      <trkpt lat="45.84021" lon="4.72149">
        <ele>275.41061</ele>
        <time>2022-11-20T14:09:27.000Z</time>
      </trkpt>
      <trkpt lat="45.84022" lon="4.72142">
        <ele>274.51038</ele>
        <time>2022-11-20T14:09:28.000Z</time>
      </trkpt>
      <trkpt lat="45.84021" lon="4.72135">
        <ele>273.59784</ele>
        <time>2022-11-20T14:09:29.000Z</time>
      </trkpt>
      <trkpt lat="45.84021" lon="4.72128">
        <ele>272.67944</ele>
        <time>2022-11-20T14:09:30.000Z</time>
      </trkpt>
      <trkpt lat="45.8402" lon="4.72121">
        <ele>271.5343</ele>
        <time>2022-11-20T14:09:31.000Z</time>
      </trkpt>
      <trkpt lat="45.8402" lon="4.72113">
        <ele>270.79669</ele>
        <time>2022-11-20T14:09:32.000Z</time>
      </trkpt>
      <trkpt lat="45.84019" lon="4.72105">
        <ele>270.04495</ele>
        <time>2022-11-20T14:09:33.000Z</time>
      </trkpt>
      <trkpt lat="45.84019" lon="4.72097">
        <ele>269.2934</ele>
        <time>2022-11-20T14:09:34.000Z</time>
      </trkpt>
      <trkpt lat="45.84018" lon="4.7209">
        <ele>268.55707</ele>
        <time>2022-11-20T14:09:35.000Z</time>
      </trkpt>
      <trkpt lat="45.84018" lon="4.72082">
        <ele>267.82385</ele>
        <time>2022-11-20T14:09:36.000Z</time>
      </trkpt>
      <trkpt lat="45.84017" lon="4.72074">
        <ele>267.06485</ele>
        <time>2022-11-20T14:09:37.000Z</time>
      </trkpt>
      <trkpt lat="45.84016" lon="4.72066">
        <ele>266.33853</ele>
        <time>2022-11-20T14:09:38.000Z</time>
      </trkpt>
      <trkpt lat="45.84015" lon="4.72058">
        <ele>265.61191</ele>
        <time>2022-11-20T14:09:39.000Z</time>
      </trkpt>
      <trkpt lat="45.84015" lon="4.7205">
        <ele>264.8826</ele>
        <time>2022-11-20T14:09:40.000Z</time>
      </trkpt>
      <trkpt lat="45.84014" lon="4.72042">
        <ele>264.15103</ele>
        <time>2022-11-20T14:09:41.000Z</time>
      </trkpt>
      <trkpt lat="45.84014" lon="4.72034">
        <ele>263.42499</ele>
        <time>2022-11-20T14:09:42.000Z</time>
      </trkpt>
      <trkpt lat="45.84014" lon="4.72027">
        <ele>262.69125</ele>
        <time>2022-11-20T14:09:43.000Z</time>
      </trkpt>
      <trkpt lat="45.84013" lon="4.7202">
        <ele>261.96942</ele>
        <time>2022-11-20T14:09:44.000Z</time>
      </trkpt>
      <trkpt lat="45.84013" lon="4.72013">
        <ele>261.9054</ele>
        <time>2022-11-20T14:09:45.000Z</time>
      </trkpt>
      <trkpt lat="45.84012" lon="4.72007">
        <ele>262.92142</ele>
        <time>2022-11-20T14:09:46.000Z</time>
      </trkpt>
      <trkpt lat="45.84012" lon="4.72">
        <ele>263.92505</ele>
        <time>2022-11-20T14:09:47.000Z</time>
      </trkpt>
      <trkpt lat="45.84011" lon="4.71993">
        <ele>264.92883</ele>
        <time>2022-11-20T14:09:48.000Z</time>
      </trkpt>
      <trkpt lat="45.84011" lon="4.71987">
        <ele>265.95471</ele>
        <time>2022-11-20T14:09:49.000Z</time>
      </trkpt>
      <trkpt lat="45.84011" lon="4.71981">
        <ele>266.99664</ele>
        <time>2022-11-20T14:09:50.000Z</time>
      </trkpt>
      <trkpt lat="45.8401" lon="4.71975">
        <ele>268.04791</ele>
        <time>2022-11-20T14:09:51.000Z</time>
      </trkpt>
      <trkpt lat="45.8401" lon="4.71969">
        <ele>269.10931</ele>
        <time>2022-11-20T14:09:52.000Z</time>
      </trkpt>
      <trkpt lat="45.8401" lon="4.71964">
        <ele>270.19122</ele>
        <time>2022-11-20T14:09:53.000Z</time>
      </trkpt>
      <trkpt lat="45.8401" lon="4.71958">
        <ele>271.39917</ele>
        <time>2022-11-20T14:09:54.000Z</time>
      </trkpt>
      <trkpt lat="45.84009" lon="4.71953">
        <ele>272.62042</ele>
        <time>2022-11-20T14:09:55.000Z</time>
      </trkpt>
      <trkpt lat="45.84009" lon="4.71948">
        <ele>273.84491</ele>
        <time>2022-11-20T14:09:56.000Z</time>
      </trkpt>
      <trkpt lat="45.84009" lon="4.71943">
        <ele>274.77966</ele>
        <time>2022-11-20T14:09:57.000Z</time>
      </trkpt>
      <trkpt lat="45.84009" lon="4.71938">
        <ele>275.81186</ele>
        <time>2022-11-20T14:09:58.000Z</time>
      </trkpt>
      <trkpt lat="45.84008" lon="4.71933">
        <ele>276.85324</ele>
        <time>2022-11-20T14:09:59.000Z</time>
      </trkpt>
      <trkpt lat="45.84008" lon="4.71928">
        <ele>277.922</ele>
        <time>2022-11-20T14:10:00.000Z</time>
      </trkpt>
      <trkpt lat="45.84008" lon="4.71924">
        <ele>278.96774</ele>
        <time>2022-11-20T14:10:01.000Z</time>
      </trkpt>
      <trkpt lat="45.84008" lon="4.7192">
        <ele>280.03381</ele>
        <time>2022-11-20T14:10:02.000Z</time>
      </trkpt>
      <trkpt lat="45.84008" lon="4.71916">
        <ele>281.08774</ele>
        <time>2022-11-20T14:10:03.000Z</time>
      </trkpt>
      <trkpt lat="45.84008" lon="4.71912">
        <ele>282.15045</ele>
        <time>2022-11-20T14:10:04.000Z</time>
      </trkpt>
      <trkpt lat="45.84007" lon="4.71907">
        <ele>283.22916</ele>
        <time>2022-11-20T14:10:05.000Z</time>
      </trkpt>
      <trkpt lat="45.84007" lon="4.71903">
        <ele>283.22604</ele>
        <time>2022-11-20T14:10:06.000Z</time>
      </trkpt>
      <trkpt lat="45.84007" lon="4.71899">
        <ele>283.22641</ele>
        <time>2022-11-20T14:10:07.000Z</time>
      </trkpt>
      <trkpt lat="45.84007" lon="4.71895">
        <ele>283.23706</ele>
        <time>2022-11-20T14:10:08.000Z</time>
      </trkpt>
      <trkpt lat="45.84007" lon="4.71891">
        <ele>283.23758</ele>
        <time>2022-11-20T14:10:09.000Z</time>
      </trkpt>
      <trkpt lat="45.84006" lon="4.71887">
        <ele>283.23761</ele>
        <time>2022-11-20T14:10:10.000Z</time>
      </trkpt>
      <trkpt lat="45.84005" lon="4.71884">
        <ele>283.23154</ele>
        <time>2022-11-20T14:10:11.000Z</time>
      </trkpt>
      <trkpt lat="45.84003" lon="4.71882">
        <ele>283.1734</ele>
        <time>2022-11-20T14:10:12.000Z</time>
      </trkpt>
      <trkpt lat="45.84001" lon="4.71879">
        <ele>283.10574</ele>
        <time>2022-11-20T14:10:13.000Z</time>
      </trkpt>
      <trkpt lat="45.83999" lon="4.71876">
        <ele>283.0329</ele>
        <time>2022-11-20T14:10:14.000Z</time>
      </trkpt>
      <trkpt lat="45.83997" lon="4.71873">
        <ele>282.94711</ele>
        <time>2022-11-20T14:10:15.000Z</time>
      </trkpt>
      <trkpt lat="45.83996" lon="4.71871">
        <ele>282.84552</ele>
        <time>2022-11-20T14:10:16.000Z</time>
      </trkpt>
      <trkpt lat="45.83993" lon="4.71868">
        <ele>283.03714</ele>
        <time>2022-11-20T14:10:17.000Z</time>
      </trkpt>
      <trkpt lat="45.83991" lon="4.71864">
        <ele>283.09393</ele>
        <time>2022-11-20T14:10:18.000Z</time>
      </trkpt>
      <trkpt lat="45.83989" lon="4.71861">
        <ele>283.09854</ele>
        <time>2022-11-20T14:10:19.000Z</time>
      </trkpt>
      <trkpt lat="45.83986" lon="4.71858">
        <ele>283.06747</ele>
        <time>2022-11-20T14:10:20.000Z</time>
      </trkpt>
      <trkpt lat="45.83984" lon="4.71854">
        <ele>283.11444</ele>
        <time>2022-11-20T14:10:21.000Z</time>
      </trkpt>
      <trkpt lat="45.83981" lon="4.7185">
        <ele>283.13541</ele>
        <time>2022-11-20T14:10:22.000Z</time>
      </trkpt>
      <trkpt lat="45.83978" lon="4.71845">
        <ele>283.14862</ele>
        <time>2022-11-20T14:10:23.000Z</time>
      </trkpt>
      <trkpt lat="45.83975" lon="4.71841">
        <ele>283.10629</ele>
        <time>2022-11-20T14:10:24.000Z</time>
      </trkpt>
      <trkpt lat="45.83972" lon="4.71837">
        <ele>283.01239</ele>
        <time>2022-11-20T14:10:25.000Z</time>
      </trkpt>
      <trkpt lat="45.83969" lon="4.71834">
        <ele>282.87134</ele>
        <time>2022-11-20T14:10:26.000Z</time>
      </trkpt>
      <trkpt lat="45.83967" lon="4.7183">
        <ele>282.72775</ele>
        <time>2022-11-20T14:10:27.000Z</time>
      </trkpt>
      <trkpt lat="45.83964" lon="4.71825">
        <ele>282.54221</ele>
        <time>2022-11-20T14:10:28.000Z</time>
      </trkpt>
      <trkpt lat="45.83961" lon="4.71821">
        <ele>282.35193</ele>
        <time>2022-11-20T14:10:29.000Z</time>
      </trkpt>
      <trkpt lat="45.83959" lon="4.71817">
        <ele>282.14053</ele>
        <time>2022-11-20T14:10:30.000Z</time>
      </trkpt>
      <trkpt lat="45.83956" lon="4.71812">
        <ele>281.90207</ele>
        <time>2022-11-20T14:10:31.000Z</time>
      </trkpt>
      <trkpt lat="45.83953" lon="4.71807">
        <ele>281.74261</ele>
        <time>2022-11-20T14:10:32.000Z</time>
      </trkpt>
      <trkpt lat="45.83952" lon="4.71802">
        <ele>281.58661</ele>
        <time>2022-11-20T14:10:33.000Z</time>
      </trkpt>
      <trkpt lat="45.8395" lon="4.71797">
        <ele>281.4744</ele>
        <time>2022-11-20T14:10:34.000Z</time>
      </trkpt>
      <trkpt lat="45.8395" lon="4.71793">
        <ele>281.362</ele>
        <time>2022-11-20T14:10:35.000Z</time>
      </trkpt>
      <trkpt lat="45.83949" lon="4.71788">
        <ele>281.20428</ele>
        <time>2022-11-20T14:10:36.000Z</time>
      </trkpt>
      <trkpt lat="45.83948" lon="4.71783">
        <ele>281.0459</ele>
        <time>2022-11-20T14:10:37.000Z</time>
      </trkpt>
      <trkpt lat="45.83947" lon="4.71777">
        <ele>280.93863</ele>
        <time>2022-11-20T14:10:38.000Z</time>
      </trkpt>
      <trkpt lat="45.83946" lon="4.71772">
        <ele>280.91861</ele>
        <time>2022-11-20T14:10:39.000Z</time>
      </trkpt>
      <trkpt lat="45.83944" lon="4.71767">
        <ele>280.87064</ele>
        <time>2022-11-20T14:10:40.000Z</time>
      </trkpt>
      <trkpt lat="45.83942" lon="4.71762">
        <ele>280.8588</ele>
        <time>2022-11-20T14:10:41.000Z</time>
      </trkpt>
      <trkpt lat="45.83939" lon="4.71759">
        <ele>280.77924</ele>
        <time>2022-11-20T14:10:42.000Z</time>
      </trkpt>
      <trkpt lat="45.83936" lon="4.71756">
        <ele>280.71396</ele>
        <time>2022-11-20T14:10:43.000Z</time>
      </trkpt>
      <trkpt lat="45.83933" lon="4.71754">
        <ele>280.64236</ele>
        <time>2022-11-20T14:10:44.000Z</time>
      </trkpt>
      <trkpt lat="45.83929" lon="4.71752">
        <ele>280.58569</ele>
        <time>2022-11-20T14:10:45.000Z</time>
      </trkpt>
      <trkpt lat="45.83926" lon="4.7175">
        <ele>280.53244</ele>
        <time>2022-11-20T14:10:46.000Z</time>
      </trkpt>
      <trkpt lat="45.83923" lon="4.71749">
        <ele>280.48666</ele>
        <time>2022-11-20T14:10:47.000Z</time>
      </trkpt>
      <trkpt lat="45.8392" lon="4.71748">
        <ele>280.4808</ele>
        <time>2022-11-20T14:10:48.000Z</time>
      </trkpt>
      <trkpt lat="45.83916" lon="4.71747">
        <ele>280.49057</ele>
        <time>2022-11-20T14:10:49.000Z</time>
      </trkpt>
      <trkpt lat="45.83912" lon="4.71745">
        <ele>280.53787</ele>
        <time>2022-11-20T14:10:50.000Z</time>
      </trkpt>
      <trkpt lat="45.83909" lon="4.71744">
        <ele>280.63629</ele>
        <time>2022-11-20T14:10:51.000Z</time>
      </trkpt>
      <trkpt lat="45.83905" lon="4.71743">
        <ele>280.6618</ele>
        <time>2022-11-20T14:10:52.000Z</time>
      </trkpt>
      <trkpt lat="45.839" lon="4.71741">
        <ele>280.65277</ele>
        <time>2022-11-20T14:10:53.000Z</time>
      </trkpt>
      <trkpt lat="45.83895" lon="4.71738">
        <ele>280.7558</ele>
        <time>2022-11-20T14:10:54.000Z</time>
      </trkpt>
      <trkpt lat="45.8389" lon="4.71734">
        <ele>280.84161</ele>
        <time>2022-11-20T14:10:55.000Z</time>
      </trkpt>
      <trkpt lat="45.83884" lon="4.71731">
        <ele>280.99747</ele>
        <time>2022-11-20T14:10:56.000Z</time>
      </trkpt>
      <trkpt lat="45.83878" lon="4.71728">
        <ele>281.11972</ele>
        <time>2022-11-20T14:10:57.000Z</time>
      </trkpt>
      <trkpt lat="45.83873" lon="4.71727">
        <ele>281.22269</ele>
        <time>2022-11-20T14:10:58.000Z</time>
      </trkpt>
      <trkpt lat="45.83868" lon="4.71725">
        <ele>281.25299</ele>
        <time>2022-11-20T14:10:59.000Z</time>
      </trkpt>
      <trkpt lat="45.83865" lon="4.71724">
        <ele>281.36691</ele>
        <time>2022-11-20T14:11:00.000Z</time>
      </trkpt>
      <trkpt lat="45.83862" lon="4.71724">
        <ele>281.32648</ele>
        <time>2022-11-20T14:11:01.000Z</time>
      </trkpt>
      <trkpt lat="45.83858" lon="4.71723">
        <ele>281.3566</ele>
        <time>2022-11-20T14:11:02.000Z</time>
      </trkpt>
      <trkpt lat="45.83854" lon="4.71722">
        <ele>281.34927</ele>
        <time>2022-11-20T14:11:03.000Z</time>
      </trkpt>
      <trkpt lat="45.8385" lon="4.71721">
        <ele>281.37833</ele>
        <time>2022-11-20T14:11:04.000Z</time>
      </trkpt>
      <trkpt lat="45.83846" lon="4.7172">
        <ele>281.47849</ele>
        <time>2022-11-20T14:11:05.000Z</time>
      </trkpt>
      <trkpt lat="45.83842" lon="4.71718">
        <ele>281.74036</ele>
        <time>2022-11-20T14:11:06.000Z</time>
      </trkpt>
      <trkpt lat="45.8384" lon="4.71716">
        <ele>282.09213</ele>
        <time>2022-11-20T14:11:07.000Z</time>
      </trkpt>
      <trkpt lat="45.83836" lon="4.71716">
        <ele>282.46194</ele>
        <time>2022-11-20T14:11:08.000Z</time>
      </trkpt>
      <trkpt lat="45.83831" lon="4.71715">
        <ele>282.85623</ele>
        <time>2022-11-20T14:11:09.000Z</time>
      </trkpt>
      <trkpt lat="45.83828" lon="4.71714">
        <ele>283.25397</ele>
        <time>2022-11-20T14:11:10.000Z</time>
      </trkpt>
      <trkpt lat="45.83825" lon="4.71713">
        <ele>283.65204</ele>
        <time>2022-11-20T14:11:11.000Z</time>
      </trkpt>
      <trkpt lat="45.83821" lon="4.71712">
        <ele>283.68268</ele>
        <time>2022-11-20T14:11:12.000Z</time>
      </trkpt>
      <trkpt lat="45.83818" lon="4.7171">
        <ele>283.75</ele>
        <time>2022-11-20T14:11:13.000Z</time>
      </trkpt>
      <trkpt lat="45.83814" lon="4.71709">
        <ele>283.68808</ele>
        <time>2022-11-20T14:11:14.000Z</time>
      </trkpt>
      <trkpt lat="45.8381" lon="4.71707">
        <ele>283.65662</ele>
        <time>2022-11-20T14:11:15.000Z</time>
      </trkpt>
      <trkpt lat="45.83806" lon="4.71706">
        <ele>283.64581</ele>
        <time>2022-11-20T14:11:16.000Z</time>
      </trkpt>
      <trkpt lat="45.83802" lon="4.71705">
        <ele>283.62891</ele>
        <time>2022-11-20T14:11:17.000Z</time>
      </trkpt>
      <trkpt lat="45.83797" lon="4.71704">
        <ele>283.54865</ele>
        <time>2022-11-20T14:11:18.000Z</time>
      </trkpt>
      <trkpt lat="45.8379" lon="4.71704">
        <ele>283.46008</ele>
        <time>2022-11-20T14:11:19.000Z</time>
      </trkpt>
      <trkpt lat="45.83783" lon="4.71704">
        <ele>283.341</ele>
        <time>2022-11-20T14:11:20.000Z</time>
      </trkpt>
      <trkpt lat="45.83777" lon="4.71703">
        <ele>283.24771</ele>
        <time>2022-11-20T14:11:21.000Z</time>
      </trkpt>
      <trkpt lat="45.8377" lon="4.71701">
        <ele>283.4187</ele>
        <time>2022-11-20T14:11:22.000Z</time>
      </trkpt>
      <trkpt lat="45.83762" lon="4.71698">
        <ele>283.67621</ele>
        <time>2022-11-20T14:11:23.000Z</time>
      </trkpt>
      <trkpt lat="45.83754" lon="4.71698">
        <ele>283.88065</ele>
        <time>2022-11-20T14:11:24.000Z</time>
      </trkpt>
      <trkpt lat="45.83746" lon="4.71697">
        <ele>283.92871</ele>
        <time>2022-11-20T14:11:25.000Z</time>
      </trkpt>
      <trkpt lat="45.83738" lon="4.71698">
        <ele>283.8028</ele>
        <time>2022-11-20T14:11:26.000Z</time>
      </trkpt>
      <trkpt lat="45.8373" lon="4.71698">
        <ele>283.4379</ele>
        <time>2022-11-20T14:11:27.000Z</time>
      </trkpt>
      <trkpt lat="45.83724" lon="4.71696">
        <ele>282.99796</ele>
        <time>2022-11-20T14:11:28.000Z</time>
      </trkpt>
      <trkpt lat="45.8372" lon="4.71692">
        <ele>282.46271</ele>
        <time>2022-11-20T14:11:29.000Z</time>
      </trkpt>
      <trkpt lat="45.83719" lon="4.71687">
        <ele>281.87173</ele>
        <time>2022-11-20T14:11:30.000Z</time>
      </trkpt>
      <trkpt lat="45.83717" lon="4.71683">
        <ele>281.38947</ele>
        <time>2022-11-20T14:11:31.000Z</time>
      </trkpt>
      <trkpt lat="45.83716" lon="4.71678">
        <ele>281.38278</ele>
        <time>2022-11-20T14:11:32.000Z</time>
      </trkpt>
      <trkpt lat="45.83714" lon="4.71674">
        <ele>281.64169</ele>
        <time>2022-11-20T14:11:33.000Z</time>
      </trkpt>
      <trkpt lat="45.83711" lon="4.7167">
        <ele>282.00485</ele>
        <time>2022-11-20T14:11:34.000Z</time>
      </trkpt>
      <trkpt lat="45.83708" lon="4.71664">
        <ele>282.33636</ele>
        <time>2022-11-20T14:11:35.000Z</time>
      </trkpt>
      <trkpt lat="45.83708" lon="4.71659">
        <ele>282.66058</ele>
        <time>2022-11-20T14:11:36.000Z</time>
      </trkpt>
      <trkpt lat="45.83706" lon="4.71655">
        <ele>282.89658</ele>
        <time>2022-11-20T14:11:37.000Z</time>
      </trkpt>
      <trkpt lat="45.83703" lon="4.7165">
        <ele>282.73685</ele>
        <time>2022-11-20T14:11:38.000Z</time>
      </trkpt>
      <trkpt lat="45.83701" lon="4.71647">
        <ele>282.92084</ele>
        <time>2022-11-20T14:11:39.000Z</time>
      </trkpt>
      <trkpt lat="45.83699" lon="4.71646">
        <ele>283.08502</ele>
        <time>2022-11-20T14:11:40.000Z</time>
      </trkpt>
      <trkpt lat="45.83696" lon="4.71646">
        <ele>283.06546</ele>
        <time>2022-11-20T14:11:41.000Z</time>
      </trkpt>
      <trkpt lat="45.83694" lon="4.71646">
        <ele>282.75882</ele>
        <time>2022-11-20T14:11:42.000Z</time>
      </trkpt>
      <trkpt lat="45.83692" lon="4.71646">
        <ele>282.38339</ele>
        <time>2022-11-20T14:11:43.000Z</time>
      </trkpt>
      <trkpt lat="45.83689" lon="4.71648">
        <ele>282.01309</ele>
        <time>2022-11-20T14:11:44.000Z</time>
      </trkpt>
      <trkpt lat="45.83687" lon="4.71649">
        <ele>281.69516</ele>
        <time>2022-11-20T14:11:45.000Z</time>
      </trkpt>
      <trkpt lat="45.83684" lon="4.71651">
        <ele>281.43399</ele>
        <time>2022-11-20T14:11:47.000Z</time>
      </trkpt>
      <trkpt lat="45.83681" lon="4.71652">
        <ele>281.48428</ele>
        <time>2022-11-20T14:11:48.000Z</time>
      </trkpt>
      <trkpt lat="45.83679" lon="4.71653">
        <ele>281.59586</ele>
        <time>2022-11-20T14:11:49.000Z</time>
      </trkpt>
      <trkpt lat="45.83676" lon="4.71654">
        <ele>281.81747</ele>
        <time>2022-11-20T14:11:50.000Z</time>
      </trkpt>
      <trkpt lat="45.83673" lon="4.71655">
        <ele>282.05386</ele>
        <time>2022-11-20T14:11:51.000Z</time>
      </trkpt>
      <trkpt lat="45.83669" lon="4.71656">
        <ele>282.17416</ele>
        <time>2022-11-20T14:11:52.000Z</time>
      </trkpt>
      <trkpt lat="45.83666" lon="4.71656">
        <ele>282.0932</ele>
        <time>2022-11-20T14:11:53.000Z</time>
      </trkpt>
      <trkpt lat="45.83663" lon="4.71657">
        <ele>281.69916</ele>
        <time>2022-11-20T14:11:54.000Z</time>
      </trkpt>
      <trkpt lat="45.8366" lon="4.71657">
        <ele>281.23505</ele>
        <time>2022-11-20T14:11:55.000Z</time>
      </trkpt>
      <trkpt lat="45.83657" lon="4.71656">
        <ele>280.79639</ele>
        <time>2022-11-20T14:11:56.000Z</time>
      </trkpt>
      <trkpt lat="45.83654" lon="4.71656">
        <ele>280.42538</ele>
        <time>2022-11-20T14:11:57.000Z</time>
      </trkpt>
      <trkpt lat="45.83651" lon="4.71654">
        <ele>280.15881</ele>
        <time>2022-11-20T14:11:58.000Z</time>
      </trkpt>
      <trkpt lat="45.83649" lon="4.71653">
        <ele>280.42389</ele>
        <time>2022-11-20T14:11:59.000Z</time>
      </trkpt>
      <trkpt lat="45.83646" lon="4.71651">
        <ele>280.4776</ele>
        <time>2022-11-20T14:12:00.000Z</time>
      </trkpt>
      <trkpt lat="45.83643" lon="4.71649">
        <ele>280.52762</ele>
        <time>2022-11-20T14:12:01.000Z</time>
      </trkpt>
      <trkpt lat="45.83641" lon="4.71647">
        <ele>280.79092</ele>
        <time>2022-11-20T14:12:02.000Z</time>
      </trkpt>
      <trkpt lat="45.83638" lon="4.71644">
        <ele>281.06232</ele>
        <time>2022-11-20T14:12:03.000Z</time>
      </trkpt>
      <trkpt lat="45.83635" lon="4.71641">
        <ele>281.3822</ele>
        <time>2022-11-20T14:12:04.000Z</time>
      </trkpt>
      <trkpt lat="45.83633" lon="4.71638">
        <ele>281.7366</ele>
        <time>2022-11-20T14:12:05.000Z</time>
      </trkpt>
      <trkpt lat="45.83631" lon="4.71635">
        <ele>282.14178</ele>
        <time>2022-11-20T14:12:06.000Z</time>
      </trkpt>
      <trkpt lat="45.83629" lon="4.71631">
        <ele>282.56305</ele>
        <time>2022-11-20T14:12:07.000Z</time>
      </trkpt>
      <trkpt lat="45.83628" lon="4.71628">
        <ele>282.81927</ele>
        <time>2022-11-20T14:12:08.000Z</time>
      </trkpt>
      <trkpt lat="45.83626" lon="4.71624">
        <ele>283.05621</ele>
        <time>2022-11-20T14:12:09.000Z</time>
      </trkpt>
      <trkpt lat="45.83625" lon="4.7162">
        <ele>283.25381</ele>
        <time>2022-11-20T14:12:10.000Z</time>
      </trkpt>
      <trkpt lat="45.83625" lon="4.71616">
        <ele>283.47675</ele>
        <time>2022-11-20T14:12:11.000Z</time>
      </trkpt>
      <trkpt lat="45.83624" lon="4.71612">
        <ele>283.68924</ele>
        <time>2022-11-20T14:12:12.000Z</time>
      </trkpt>
      <trkpt lat="45.83624" lon="4.71608">
        <ele>284.05777</ele>
        <time>2022-11-20T14:12:13.000Z</time>
      </trkpt>
      <trkpt lat="45.83623" lon="4.71604">
        <ele>284.50354</ele>
        <time>2022-11-20T14:12:14.000Z</time>
      </trkpt>
      <trkpt lat="45.83622" lon="4.716">
        <ele>284.88727</ele>
        <time>2022-11-20T14:12:15.000Z</time>
      </trkpt>
      <trkpt lat="45.83621" lon="4.71596">
        <ele>285.29901</ele>
        <time>2022-11-20T14:12:16.000Z</time>
      </trkpt>
      <trkpt lat="45.8362" lon="4.71592">
        <ele>285.60706</ele>
        <time>2022-11-20T14:12:17.000Z</time>
      </trkpt>
      <trkpt lat="45.83619" lon="4.71589">
        <ele>285.96237</ele>
        <time>2022-11-20T14:12:18.000Z</time>
      </trkpt>
      <trkpt lat="45.83618" lon="4.71586">
        <ele>286.27203</ele>
        <time>2022-11-20T14:12:19.000Z</time>
      </trkpt>
      <trkpt lat="45.83617" lon="4.71583">
        <ele>286.47107</ele>
        <time>2022-11-20T14:12:20.000Z</time>
      </trkpt>
      <trkpt lat="45.83617" lon="4.71579">
        <ele>286.68353</ele>
        <time>2022-11-20T14:12:21.000Z</time>
      </trkpt>
      <trkpt lat="45.83616" lon="4.71575">
        <ele>286.89694</ele>
        <time>2022-11-20T14:12:22.000Z</time>
      </trkpt>
      <trkpt lat="45.83616" lon="4.71571">
        <ele>287.15253</ele>
        <time>2022-11-20T14:12:23.000Z</time>
      </trkpt>
      <trkpt lat="45.83616" lon="4.71567">
        <ele>287.18256</ele>
        <time>2022-11-20T14:12:24.000Z</time>
      </trkpt>
      <trkpt lat="45.83617" lon="4.71564">
        <ele>287.32358</ele>
        <time>2022-11-20T14:12:25.000Z</time>
      </trkpt>
      <trkpt lat="45.83617" lon="4.71559">
        <ele>287.45859</ele>
        <time>2022-11-20T14:12:26.000Z</time>
      </trkpt>
      <trkpt lat="45.83617" lon="4.71556">
        <ele>287.59894</ele>
        <time>2022-11-20T14:12:27.000Z</time>
      </trkpt>
      <trkpt lat="45.83617" lon="4.71553">
        <ele>287.71429</ele>
        <time>2022-11-20T14:12:28.000Z</time>
      </trkpt>
      <trkpt lat="45.83618" lon="4.71549">
        <ele>287.8465</ele>
        <time>2022-11-20T14:12:29.000Z</time>
      </trkpt>
      <trkpt lat="45.83618" lon="4.71546">
        <ele>287.96915</ele>
        <time>2022-11-20T14:12:30.000Z</time>
      </trkpt>
      <trkpt lat="45.83618" lon="4.71542">
        <ele>288.10947</ele>
        <time>2022-11-20T14:12:31.000Z</time>
      </trkpt>
      <trkpt lat="45.83618" lon="4.71538">
        <ele>288.27252</ele>
        <time>2022-11-20T14:12:32.000Z</time>
      </trkpt>
      <trkpt lat="45.83618" lon="4.71533">
        <ele>288.40677</ele>
        <time>2022-11-20T14:12:33.000Z</time>
      </trkpt>
      <trkpt lat="45.83618" lon="4.7153">
        <ele>288.50629</ele>
        <time>2022-11-20T14:12:34.000Z</time>
      </trkpt>
      <trkpt lat="45.83616" lon="4.71526">
        <ele>288.60025</ele>
        <time>2022-11-20T14:12:35.000Z</time>
      </trkpt>
      <trkpt lat="45.83615" lon="4.71522">
        <ele>288.66974</ele>
        <time>2022-11-20T14:12:36.000Z</time>
      </trkpt>
      <trkpt lat="45.83613" lon="4.71519">
        <ele>288.76407</ele>
        <time>2022-11-20T14:12:37.000Z</time>
      </trkpt>
      <trkpt lat="45.83611" lon="4.71516">
        <ele>288.81021</ele>
        <time>2022-11-20T14:12:38.000Z</time>
      </trkpt>
      <trkpt lat="45.8361" lon="4.71513">
        <ele>288.89764</ele>
        <time>2022-11-20T14:12:39.000Z</time>
      </trkpt>
      <trkpt lat="45.83608" lon="4.7151">
        <ele>289.11423</ele>
        <time>2022-11-20T14:12:40.000Z</time>
      </trkpt>
      <trkpt lat="45.83607" lon="4.71506">
        <ele>289.40744</ele>
        <time>2022-11-20T14:12:41.000Z</time>
      </trkpt>
      <trkpt lat="45.83606" lon="4.71502">
        <ele>289.65485</ele>
        <time>2022-11-20T14:12:42.000Z</time>
      </trkpt>
      <trkpt lat="45.83606" lon="4.71498">
        <ele>289.93182</ele>
        <time>2022-11-20T14:12:43.000Z</time>
      </trkpt>
      <trkpt lat="45.83606" lon="4.71495">
        <ele>290.36542</ele>
        <time>2022-11-20T14:12:44.000Z</time>
      </trkpt>
      <trkpt lat="45.83607" lon="4.71491">
        <ele>290.70502</ele>
        <time>2022-11-20T14:12:45.000Z</time>
      </trkpt>
      <trkpt lat="45.83609" lon="4.71488">
        <ele>291.01208</ele>
        <time>2022-11-20T14:12:46.000Z</time>
      </trkpt>
      <trkpt lat="45.83612" lon="4.71485">
        <ele>291.29205</ele>
        <time>2022-11-20T14:12:47.000Z</time>
      </trkpt>
      <trkpt lat="45.83615" lon="4.71483">
        <ele>291.58154</ele>
        <time>2022-11-20T14:12:48.000Z</time>
      </trkpt>
      <trkpt lat="45.83617" lon="4.7148">
        <ele>291.8414</ele>
        <time>2022-11-20T14:12:49.000Z</time>
      </trkpt>
      <trkpt lat="45.8362" lon="4.71478">
        <ele>291.6767</ele>
        <time>2022-11-20T14:12:50.000Z</time>
      </trkpt>
      <trkpt lat="45.83623" lon="4.71476">
        <ele>291.50488</ele>
        <time>2022-11-20T14:12:51.000Z</time>
      </trkpt>
      <trkpt lat="45.83626" lon="4.71473">
        <ele>291.75385</ele>
        <time>2022-11-20T14:12:52.000Z</time>
      </trkpt>
      <trkpt lat="45.83629" lon="4.71469">
        <ele>291.98993</ele>
        <time>2022-11-20T14:12:53.000Z</time>
      </trkpt>
      <trkpt lat="45.83631" lon="4.71464">
        <ele>292.21851</ele>
        <time>2022-11-20T14:12:54.000Z</time>
      </trkpt>
      <trkpt lat="45.83633" lon="4.71458">
        <ele>292.48004</ele>
        <time>2022-11-20T14:12:55.000Z</time>
      </trkpt>
      <trkpt lat="45.83634" lon="4.71453">
        <ele>292.72513</ele>
        <time>2022-11-20T14:12:56.000Z</time>
      </trkpt>
      <trkpt lat="45.83636" lon="4.71448">
        <ele>292.9682</ele>
        <time>2022-11-20T14:12:57.000Z</time>
      </trkpt>
      <trkpt lat="45.83637" lon="4.71443">
        <ele>293.26511</ele>
        <time>2022-11-20T14:12:58.000Z</time>
      </trkpt>
      <trkpt lat="45.83638" lon="4.71438">
        <ele>293.48407</ele>
        <time>2022-11-20T14:12:59.000Z</time>
      </trkpt>
      <trkpt lat="45.8364" lon="4.71433">
        <ele>293.57816</ele>
        <time>2022-11-20T14:13:00.000Z</time>
      </trkpt>
      <trkpt lat="45.83641" lon="4.71429">
        <ele>293.58624</ele>
        <time>2022-11-20T14:13:01.000Z</time>
      </trkpt>
      <trkpt lat="45.83642" lon="4.71423">
        <ele>293.63736</ele>
        <time>2022-11-20T14:13:02.000Z</time>
      </trkpt>
      <trkpt lat="45.83643" lon="4.71418">
        <ele>293.60773</ele>
        <time>2022-11-20T14:13:03.000Z</time>
      </trkpt>
      <trkpt lat="45.83643" lon="4.71412">
        <ele>293.61774</ele>
        <time>2022-11-20T14:13:04.000Z</time>
      </trkpt>
      <trkpt lat="45.83643" lon="4.71406">
        <ele>293.62579</ele>
        <time>2022-11-20T14:13:05.000Z</time>
      </trkpt>
      <trkpt lat="45.83643" lon="4.71401">
        <ele>293.65488</ele>
        <time>2022-11-20T14:13:06.000Z</time>
      </trkpt>
      <trkpt lat="45.83644" lon="4.71395">
        <ele>293.67746</ele>
        <time>2022-11-20T14:13:07.000Z</time>
      </trkpt>
      <trkpt lat="45.83646" lon="4.71389">
        <ele>293.70538</ele>
        <time>2022-11-20T14:13:08.000Z</time>
      </trkpt>
      <trkpt lat="45.83647" lon="4.71384">
        <ele>293.75528</ele>
        <time>2022-11-20T14:13:09.000Z</time>
      </trkpt>
      <trkpt lat="45.83649" lon="4.71378">
        <ele>294.24689</ele>
        <time>2022-11-20T14:13:10.000Z</time>
      </trkpt>
      <trkpt lat="45.8365" lon="4.71372">
        <ele>294.72653</ele>
        <time>2022-11-20T14:13:11.000Z</time>
      </trkpt>
      <trkpt lat="45.83651" lon="4.71366">
        <ele>294.7627</ele>
        <time>2022-11-20T14:13:12.000Z</time>
      </trkpt>
      <trkpt lat="45.83652" lon="4.7136">
        <ele>294.80316</ele>
        <time>2022-11-20T14:13:13.000Z</time>
      </trkpt>
      <trkpt lat="45.83653" lon="4.71354">
        <ele>294.9447</ele>
        <time>2022-11-20T14:13:14.000Z</time>
      </trkpt>
      <trkpt lat="45.83654" lon="4.71348">
        <ele>295.04987</ele>
        <time>2022-11-20T14:13:15.000Z</time>
      </trkpt>
      <trkpt lat="45.83655" lon="4.71342">
        <ele>295.15588</ele>
        <time>2022-11-20T14:13:16.000Z</time>
      </trkpt>
      <trkpt lat="45.83656" lon="4.71336">
        <ele>295.2486</ele>
        <time>2022-11-20T14:13:17.000Z</time>
      </trkpt>
      <trkpt lat="45.83658" lon="4.7133">
        <ele>295.36578</ele>
        <time>2022-11-20T14:13:18.000Z</time>
      </trkpt>
      <trkpt lat="45.83659" lon="4.71324">
        <ele>295.48199</ele>
        <time>2022-11-20T14:13:19.000Z</time>
      </trkpt>
      <trkpt lat="45.83661" lon="4.71319">
        <ele>295.42972</ele>
        <time>2022-11-20T14:13:20.000Z</time>
      </trkpt>
      <trkpt lat="45.83662" lon="4.71312">
        <ele>295.40771</ele>
        <time>2022-11-20T14:13:21.000Z</time>
      </trkpt>
      <trkpt lat="45.83661" lon="4.71306">
        <ele>295.36728</ele>
        <time>2022-11-20T14:13:22.000Z</time>
      </trkpt>
      <trkpt lat="45.83661" lon="4.71301">
        <ele>295.33926</ele>
        <time>2022-11-20T14:13:23.000Z</time>
      </trkpt>
      <trkpt lat="45.83663" lon="4.71294">
        <ele>295.32239</ele>
        <time>2022-11-20T14:13:24.000Z</time>
      </trkpt>
      <trkpt lat="45.83664" lon="4.71288">
        <ele>295.31277</ele>
        <time>2022-11-20T14:13:25.000Z</time>
      </trkpt>
      <trkpt lat="45.83666" lon="4.71282">
        <ele>295.33841</ele>
        <time>2022-11-20T14:13:26.000Z</time>
      </trkpt>
      <trkpt lat="45.83668" lon="4.71276">
        <ele>295.36426</ele>
        <time>2022-11-20T14:13:27.000Z</time>
      </trkpt>
      <trkpt lat="45.8367" lon="4.7127">
        <ele>295.37274</ele>
        <time>2022-11-20T14:13:28.000Z</time>
      </trkpt>
      <trkpt lat="45.83671" lon="4.71264">
        <ele>295.35242</ele>
        <time>2022-11-20T14:13:29.000Z</time>
      </trkpt>
      <trkpt lat="45.83672" lon="4.71258">
        <ele>295.327</ele>
        <time>2022-11-20T14:13:30.000Z</time>
      </trkpt>
      <trkpt lat="45.83672" lon="4.71251">
        <ele>295.29285</ele>
        <time>2022-11-20T14:13:31.000Z</time>
      </trkpt>
      <trkpt lat="45.83673" lon="4.71244">
        <ele>295.25409</ele>
        <time>2022-11-20T14:13:32.000Z</time>
      </trkpt>
      <trkpt lat="45.83674" lon="4.71239">
        <ele>295.23615</ele>
        <time>2022-11-20T14:13:33.000Z</time>
      </trkpt>
      <trkpt lat="45.83676" lon="4.71233">
        <ele>294.68338</ele>
        <time>2022-11-20T14:13:34.000Z</time>
      </trkpt>
      <trkpt lat="45.83677" lon="4.71229">
        <ele>294.12372</ele>
        <time>2022-11-20T14:13:35.000Z</time>
      </trkpt>
      <trkpt lat="45.83678" lon="4.71224">
        <ele>293.53864</ele>
        <time>2022-11-20T14:13:36.000Z</time>
      </trkpt>
      <trkpt lat="45.83677" lon="4.7122">
        <ele>293.02057</ele>
        <time>2022-11-20T14:13:37.000Z</time>
      </trkpt>
      <trkpt lat="45.83677" lon="4.71217">
        <ele>292.44028</ele>
        <time>2022-11-20T14:13:38.000Z</time>
      </trkpt>
      <trkpt lat="45.83675" lon="4.71216">
        <ele>291.85211</ele>
        <time>2022-11-20T14:13:39.000Z</time>
      </trkpt>
      <trkpt lat="45.83673" lon="4.71215">
        <ele>291.44641</ele>
        <time>2022-11-20T14:13:40.000Z</time>
      </trkpt>
      <trkpt lat="45.8367" lon="4.71212">
        <ele>290.95374</ele>
        <time>2022-11-20T14:13:42.000Z</time>
      </trkpt>
      <trkpt lat="45.83667" lon="4.7121">
        <ele>290.49469</ele>
        <time>2022-11-20T14:13:44.000Z</time>
      </trkpt>
      <trkpt lat="45.83665" lon="4.71208">
        <ele>290.10669</ele>
        <time>2022-11-20T14:13:46.000Z</time>
      </trkpt>
      <trkpt lat="45.83664" lon="4.71206">
        <ele>289.70166</ele>
        <time>2022-11-20T14:13:48.000Z</time>
      </trkpt>
      <trkpt lat="45.83662" lon="4.71205">
        <ele>289.3457</ele>
        <time>2022-11-20T14:13:56.000Z</time>
      </trkpt>
      <trkpt lat="45.8366" lon="4.71204">
        <ele>288.96118</ele>
        <time>2022-11-20T14:13:57.000Z</time>
      </trkpt>
      <trkpt lat="45.83658" lon="4.71202">
        <ele>288.57373</ele>
        <time>2022-11-20T14:13:58.000Z</time>
      </trkpt>
      <trkpt lat="45.83655" lon="4.71201">
        <ele>288.20026</ele>
        <time>2022-11-20T14:13:59.000Z</time>
      </trkpt>
      <trkpt lat="45.83653" lon="4.712">
        <ele>287.858</ele>
        <time>2022-11-20T14:14:00.000Z</time>
      </trkpt>
      <trkpt lat="45.83652" lon="4.71199">
        <ele>287.51883</ele>
        <time>2022-11-20T14:14:01.000Z</time>
      </trkpt>
      <trkpt lat="45.83649" lon="4.71198">
        <ele>287.18048</ele>
        <time>2022-11-20T14:14:02.000Z</time>
      </trkpt>
      <trkpt lat="45.83647" lon="4.71197">
        <ele>286.86023</ele>
        <time>2022-11-20T14:14:03.000Z</time>
      </trkpt>
      <trkpt lat="45.83645" lon="4.71196">
        <ele>286.53815</ele>
        <time>2022-11-20T14:14:04.000Z</time>
      </trkpt>
      <trkpt lat="45.83643" lon="4.71195">
        <ele>286.67017</ele>
        <time>2022-11-20T14:14:05.000Z</time>
      </trkpt>
      <trkpt lat="45.8364" lon="4.71193">
        <ele>286.83759</ele>
        <time>2022-11-20T14:14:06.000Z</time>
      </trkpt>
      <trkpt lat="45.83637" lon="4.71191">
        <ele>287.0477</ele>
        <time>2022-11-20T14:14:07.000Z</time>
      </trkpt>
      <trkpt lat="45.83635" lon="4.71189">
        <ele>287.18518</ele>
        <time>2022-11-20T14:14:08.000Z</time>
      </trkpt>
      <trkpt lat="45.83632" lon="4.71186">
        <ele>287.3371</ele>
        <time>2022-11-20T14:14:09.000Z</time>
      </trkpt>
      <trkpt lat="45.83629" lon="4.71184">
        <ele>287.49005</ele>
        <time>2022-11-20T14:14:10.000Z</time>
      </trkpt>
      <trkpt lat="45.83627" lon="4.71182">
        <ele>287.64496</ele>
        <time>2022-11-20T14:14:11.000Z</time>
      </trkpt>
      <trkpt lat="45.83624" lon="4.7118">
        <ele>287.88007</ele>
        <time>2022-11-20T14:14:12.000Z</time>
      </trkpt>
      <trkpt lat="45.83621" lon="4.71178">
        <ele>288.0939</ele>
        <time>2022-11-20T14:14:13.000Z</time>
      </trkpt>
      <trkpt lat="45.83617" lon="4.71177">
        <ele>288.23746</ele>
        <time>2022-11-20T14:14:14.000Z</time>
      </trkpt>
      <trkpt lat="45.83614" lon="4.71175">
        <ele>288.36179</ele>
        <time>2022-11-20T14:14:15.000Z</time>
      </trkpt>
      <trkpt lat="45.83611" lon="4.71173">
        <ele>288.42648</ele>
        <time>2022-11-20T14:14:16.000Z</time>
      </trkpt>
      <trkpt lat="45.83608" lon="4.7117">
        <ele>288.49341</ele>
        <time>2022-11-20T14:14:17.000Z</time>
      </trkpt>
      <trkpt lat="45.83605" lon="4.71168">
        <ele>288.58075</ele>
        <time>2022-11-20T14:14:18.000Z</time>
      </trkpt>
      <trkpt lat="45.83601" lon="4.71166">
        <ele>288.65948</ele>
        <time>2022-11-20T14:14:19.000Z</time>
      </trkpt>
      <trkpt lat="45.83598" lon="4.71164">
        <ele>288.71576</ele>
        <time>2022-11-20T14:14:20.000Z</time>
      </trkpt>
      <trkpt lat="45.83595" lon="4.71161">
        <ele>288.77371</ele>
        <time>2022-11-20T14:14:21.000Z</time>
      </trkpt>
      <trkpt lat="45.83592" lon="4.71159">
        <ele>288.85532</ele>
        <time>2022-11-20T14:14:22.000Z</time>
      </trkpt>
      <trkpt lat="45.83588" lon="4.71158">
        <ele>288.90594</ele>
        <time>2022-11-20T14:14:23.000Z</time>
      </trkpt>
      <trkpt lat="45.83585" lon="4.71156">
        <ele>288.96259</ele>
        <time>2022-11-20T14:14:24.000Z</time>
      </trkpt>
      <trkpt lat="45.83582" lon="4.71155">
        <ele>289.42386</ele>
        <time>2022-11-20T14:14:25.000Z</time>
      </trkpt>
      <trkpt lat="45.83579" lon="4.71153">
        <ele>289.87589</ele>
        <time>2022-11-20T14:14:26.000Z</time>
      </trkpt>
      <trkpt lat="45.83576" lon="4.7115">
        <ele>290.30234</ele>
        <time>2022-11-20T14:14:27.000Z</time>
      </trkpt>
      <trkpt lat="45.83573" lon="4.71148">
        <ele>290.7265</ele>
        <time>2022-11-20T14:14:28.000Z</time>
      </trkpt>
      <trkpt lat="45.83571" lon="4.71144">
        <ele>291.1478</ele>
        <time>2022-11-20T14:14:29.000Z</time>
      </trkpt>
      <trkpt lat="45.8357" lon="4.7114">
        <ele>291.5831</ele>
        <time>2022-11-20T14:14:30.000Z</time>
      </trkpt>
      <trkpt lat="45.83569" lon="4.71134">
        <ele>292.0058</ele>
        <time>2022-11-20T14:14:31.000Z</time>
      </trkpt>
      <trkpt lat="45.8357" lon="4.71129">
        <ele>292.47644</ele>
        <time>2022-11-20T14:14:32.000Z</time>
      </trkpt>
      <trkpt lat="45.83571" lon="4.71124">
        <ele>292.94232</ele>
        <time>2022-11-20T14:14:33.000Z</time>
      </trkpt>
      <trkpt lat="45.83572" lon="4.71119">
        <ele>293.41046</ele>
        <time>2022-11-20T14:14:34.000Z</time>
      </trkpt>
      <trkpt lat="45.83573" lon="4.71114">
        <ele>293.92148</ele>
        <time>2022-11-20T14:14:35.000Z</time>
      </trkpt>
      <trkpt lat="45.83574" lon="4.71108">
        <ele>294.45111</ele>
        <time>2022-11-20T14:14:36.000Z</time>
      </trkpt>
      <trkpt lat="45.83575" lon="4.71104">
        <ele>295.0274</ele>
        <time>2022-11-20T14:14:37.000Z</time>
      </trkpt>
      <trkpt lat="45.83576" lon="4.71099">
        <ele>295.44568</ele>
        <time>2022-11-20T14:14:38.000Z</time>
      </trkpt>
      <trkpt lat="45.83577" lon="4.71095">
        <ele>295.91519</ele>
        <time>2022-11-20T14:14:39.000Z</time>
      </trkpt>
      <trkpt lat="45.83579" lon="4.7109">
        <ele>296.39694</ele>
        <time>2022-11-20T14:14:40.000Z</time>
      </trkpt>
      <trkpt lat="45.83582" lon="4.71086">
        <ele>296.86945</ele>
        <time>2022-11-20T14:14:41.000Z</time>
      </trkpt>
      <trkpt lat="45.83584" lon="4.71082">
        <ele>297.33286</ele>
        <time>2022-11-20T14:14:42.000Z</time>
      </trkpt>
      <trkpt lat="45.83586" lon="4.71078">
        <ele>297.81262</ele>
        <time>2022-11-20T14:14:43.000Z</time>
      </trkpt>
      <trkpt lat="45.83588" lon="4.71074">
        <ele>298.28656</ele>
        <time>2022-11-20T14:14:44.000Z</time>
      </trkpt>
      <trkpt lat="45.8359" lon="4.7107">
        <ele>298.34784</ele>
        <time>2022-11-20T14:14:45.000Z</time>
      </trkpt>
      <trkpt lat="45.83592" lon="4.71066">
        <ele>298.40695</ele>
        <time>2022-11-20T14:14:46.000Z</time>
      </trkpt>
      <trkpt lat="45.83593" lon="4.71062">
        <ele>298.45786</ele>
        <time>2022-11-20T14:14:47.000Z</time>
      </trkpt>
      <trkpt lat="45.83593" lon="4.71058">
        <ele>298.51309</ele>
        <time>2022-11-20T14:14:48.000Z</time>
      </trkpt>
      <trkpt lat="45.83592" lon="4.71054">
        <ele>298.56952</ele>
        <time>2022-11-20T14:14:49.000Z</time>
      </trkpt>
      <trkpt lat="45.83589" lon="4.7105">
        <ele>298.63608</ele>
        <time>2022-11-20T14:14:50.000Z</time>
      </trkpt>
      <trkpt lat="45.83586" lon="4.71047">
        <ele>298.71466</ele>
        <time>2022-11-20T14:14:51.000Z</time>
      </trkpt>
      <trkpt lat="45.83583" lon="4.71044">
        <ele>298.74432</ele>
        <time>2022-11-20T14:14:52.000Z</time>
      </trkpt>
      <trkpt lat="45.8358" lon="4.71042">
        <ele>298.80414</ele>
        <time>2022-11-20T14:14:53.000Z</time>
      </trkpt>
      <trkpt lat="45.83577" lon="4.7104">
        <ele>298.92072</ele>
        <time>2022-11-20T14:14:54.000Z</time>
      </trkpt>
      <trkpt lat="45.83574" lon="4.71038">
        <ele>299.03375</ele>
        <time>2022-11-20T14:14:55.000Z</time>
      </trkpt>
      <trkpt lat="45.83571" lon="4.71036">
        <ele>299.1333</ele>
        <time>2022-11-20T14:14:56.000Z</time>
      </trkpt>
      <trkpt lat="45.83569" lon="4.71033">
        <ele>299.17767</ele>
        <time>2022-11-20T14:14:57.000Z</time>
      </trkpt>
      <trkpt lat="45.83566" lon="4.71031">
        <ele>299.36038</ele>
        <time>2022-11-20T14:14:58.000Z</time>
      </trkpt>
      <trkpt lat="45.83562" lon="4.71029">
        <ele>299.49402</ele>
        <time>2022-11-20T14:14:59.000Z</time>
      </trkpt>
      <trkpt lat="45.83559" lon="4.71027">
        <ele>299.62518</ele>
        <time>2022-11-20T14:15:00.000Z</time>
      </trkpt>
      <trkpt lat="45.83556" lon="4.71025">
        <ele>299.76343</ele>
        <time>2022-11-20T14:15:01.000Z</time>
      </trkpt>
      <trkpt lat="45.83552" lon="4.71023">
        <ele>299.88522</ele>
        <time>2022-11-20T14:15:02.000Z</time>
      </trkpt>
      <trkpt lat="45.83549" lon="4.7102">
        <ele>300.05075</ele>
        <time>2022-11-20T14:15:03.000Z</time>
      </trkpt>
      <trkpt lat="45.83546" lon="4.71018">
        <ele>300.09711</ele>
        <time>2022-11-20T14:15:04.000Z</time>
      </trkpt>
      <trkpt lat="45.83542" lon="4.71016">
        <ele>300.17657</ele>
        <time>2022-11-20T14:15:05.000Z</time>
      </trkpt>
      <trkpt lat="45.83539" lon="4.71013">
        <ele>300.25641</ele>
        <time>2022-11-20T14:15:06.000Z</time>
      </trkpt>
      <trkpt lat="45.83536" lon="4.7101">
        <ele>300.34796</ele>
        <time>2022-11-20T14:15:07.000Z</time>
      </trkpt>
      <trkpt lat="45.83532" lon="4.71007">
        <ele>300.43118</ele>
        <time>2022-11-20T14:15:08.000Z</time>
      </trkpt>
      <trkpt lat="45.83529" lon="4.71005">
        <ele>300.49484</ele>
        <time>2022-11-20T14:15:09.000Z</time>
      </trkpt>
      <trkpt lat="45.83526" lon="4.71002">
        <ele>300.56494</ele>
        <time>2022-11-20T14:15:10.000Z</time>
      </trkpt>
      <trkpt lat="45.83523" lon="4.70999">
        <ele>300.62933</ele>
        <time>2022-11-20T14:15:11.000Z</time>
      </trkpt>
      <trkpt lat="45.8352" lon="4.70996">
        <ele>300.68701</ele>
        <time>2022-11-20T14:15:12.000Z</time>
      </trkpt>
      <trkpt lat="45.83517" lon="4.70993">
        <ele>300.73956</ele>
        <time>2022-11-20T14:15:13.000Z</time>
      </trkpt>
      <trkpt lat="45.83513" lon="4.70991">
        <ele>300.74408</ele>
        <time>2022-11-20T14:15:14.000Z</time>
      </trkpt>
      <trkpt lat="45.83509" lon="4.7099">
        <ele>300.737</ele>
        <time>2022-11-20T14:15:15.000Z</time>
      </trkpt>
      <trkpt lat="45.83506" lon="4.70989">
        <ele>300.74518</ele>
        <time>2022-11-20T14:15:16.000Z</time>
      </trkpt>
      <trkpt lat="45.83501" lon="4.70989">
        <ele>300.75491</ele>
        <time>2022-11-20T14:15:17.000Z</time>
      </trkpt>
      <trkpt lat="45.83497" lon="4.70988">
        <ele>300.74753</ele>
        <time>2022-11-20T14:15:18.000Z</time>
      </trkpt>
      <trkpt lat="45.83495" lon="4.70989">
        <ele>300.77866</ele>
        <time>2022-11-20T14:15:19.000Z</time>
      </trkpt>
      <trkpt lat="45.83491" lon="4.70988">
        <ele>300.82672</ele>
        <time>2022-11-20T14:15:20.000Z</time>
      </trkpt>
      <trkpt lat="45.83487" lon="4.70989">
        <ele>300.83569</ele>
        <time>2022-11-20T14:15:21.000Z</time>
      </trkpt>
      <trkpt lat="45.83484" lon="4.70987">
        <ele>300.81818</ele>
        <time>2022-11-20T14:15:22.000Z</time>
      </trkpt>
      <trkpt lat="45.8348" lon="4.70988">
        <ele>300.80176</ele>
        <time>2022-11-20T14:15:23.000Z</time>
      </trkpt>
      <trkpt lat="45.83476" lon="4.70987">
        <ele>300.89685</ele>
        <time>2022-11-20T14:15:24.000Z</time>
      </trkpt>
      <trkpt lat="45.83471" lon="4.70988">
        <ele>300.98062</ele>
        <time>2022-11-20T14:15:25.000Z</time>
      </trkpt>
      <trkpt lat="45.83468" lon="4.70988">
        <ele>301.05118</ele>
        <time>2022-11-20T14:15:26.000Z</time>
      </trkpt>
      <trkpt lat="45.83464" lon="4.70988">
        <ele>301.14273</ele>
        <time>2022-11-20T14:15:27.000Z</time>
      </trkpt>
      <trkpt lat="45.8346" lon="4.70987">
        <ele>301.24283</ele>
        <time>2022-11-20T14:15:28.000Z</time>
      </trkpt>
      <trkpt lat="45.83456" lon="4.70986">
        <ele>301.40622</ele>
        <time>2022-11-20T14:15:29.000Z</time>
      </trkpt>
      <trkpt lat="45.83452" lon="4.70986">
        <ele>301.56976</ele>
        <time>2022-11-20T14:15:30.000Z</time>
      </trkpt>
      <trkpt lat="45.83449" lon="4.70986">
        <ele>301.77484</ele>
        <time>2022-11-20T14:15:31.000Z</time>
      </trkpt>
      <trkpt lat="45.83445" lon="4.70986">
        <ele>301.98242</ele>
        <time>2022-11-20T14:15:32.000Z</time>
      </trkpt>
      <trkpt lat="45.83442" lon="4.70986">
        <ele>302.15891</ele>
        <time>2022-11-20T14:15:33.000Z</time>
      </trkpt>
      <trkpt lat="45.83439" lon="4.70986">
        <ele>302.3067</ele>
        <time>2022-11-20T14:15:34.000Z</time>
      </trkpt>
      <trkpt lat="45.83435" lon="4.70986">
        <ele>302.48999</ele>
        <time>2022-11-20T14:15:35.000Z</time>
      </trkpt>
      <trkpt lat="45.83431" lon="4.70986">
        <ele>302.65683</ele>
        <time>2022-11-20T14:15:36.000Z</time>
      </trkpt>
      <trkpt lat="45.83428" lon="4.70986">
        <ele>302.82596</ele>
        <time>2022-11-20T14:15:37.000Z</time>
      </trkpt>
      <trkpt lat="45.83424" lon="4.70986">
        <ele>303.03159</ele>
        <time>2022-11-20T14:15:38.000Z</time>
      </trkpt>
      <trkpt lat="45.8342" lon="4.70986">
        <ele>303.21051</ele>
        <time>2022-11-20T14:15:39.000Z</time>
      </trkpt>
      <trkpt lat="45.83417" lon="4.70986">
        <ele>303.36914</ele>
        <time>2022-11-20T14:15:40.000Z</time>
      </trkpt>
      <trkpt lat="45.83413" lon="4.70987">
        <ele>303.569</ele>
        <time>2022-11-20T14:15:41.000Z</time>
      </trkpt>
      <trkpt lat="45.83409" lon="4.70987">
        <ele>303.80728</ele>
        <time>2022-11-20T14:15:42.000Z</time>
      </trkpt>
      <trkpt lat="45.83406" lon="4.70987">
        <ele>303.97629</ele>
        <time>2022-11-20T14:15:43.000Z</time>
      </trkpt>
      <trkpt lat="45.83402" lon="4.70987">
        <ele>304.15128</ele>
        <time>2022-11-20T14:15:44.000Z</time>
      </trkpt>
      <trkpt lat="45.83398" lon="4.70987">
        <ele>304.31165</ele>
        <time>2022-11-20T14:15:45.000Z</time>
      </trkpt>
      <trkpt lat="45.83394" lon="4.70988">
        <ele>304.41489</ele>
        <time>2022-11-20T14:15:46.000Z</time>
      </trkpt>
      <trkpt lat="45.8339" lon="4.70989">
        <ele>304.52509</ele>
        <time>2022-11-20T14:15:47.000Z</time>
      </trkpt>
      <trkpt lat="45.83386" lon="4.70989">
        <ele>304.65668</ele>
        <time>2022-11-20T14:15:48.000Z</time>
      </trkpt>
      <trkpt lat="45.83382" lon="4.7099">
        <ele>304.73312</ele>
        <time>2022-11-20T14:15:49.000Z</time>
      </trkpt>
      <trkpt lat="45.83378" lon="4.70991">
        <ele>304.79214</ele>
        <time>2022-11-20T14:15:50.000Z</time>
      </trkpt>
      <trkpt lat="45.83375" lon="4.70992">
        <ele>304.79291</ele>
        <time>2022-11-20T14:15:51.000Z</time>
      </trkpt>
      <trkpt lat="45.83372" lon="4.70992">
        <ele>304.78391</ele>
        <time>2022-11-20T14:15:52.000Z</time>
      </trkpt>
      <trkpt lat="45.83369" lon="4.70993">
        <ele>304.81805</ele>
        <time>2022-11-20T14:15:53.000Z</time>
      </trkpt>
      <trkpt lat="45.83366" lon="4.70993">
        <ele>304.91876</ele>
        <time>2022-11-20T14:15:54.000Z</time>
      </trkpt>
      <trkpt lat="45.83363" lon="4.70993">
        <ele>304.9873</ele>
        <time>2022-11-20T14:15:55.000Z</time>
      </trkpt>
      <trkpt lat="45.8336" lon="4.70993">
        <ele>305.05463</ele>
        <time>2022-11-20T14:15:56.000Z</time>
      </trkpt>
      <trkpt lat="45.83357" lon="4.70992">
        <ele>305.13657</ele>
        <time>2022-11-20T14:15:57.000Z</time>
      </trkpt>
      <trkpt lat="45.83354" lon="4.70992">
        <ele>305.24658</ele>
        <time>2022-11-20T14:15:58.000Z</time>
      </trkpt>
      <trkpt lat="45.83352" lon="4.70992">
        <ele>305.3775</ele>
        <time>2022-11-20T14:15:59.000Z</time>
      </trkpt>
      <trkpt lat="45.83349" lon="4.70992">
        <ele>305.49118</ele>
        <time>2022-11-20T14:16:01.000Z</time>
      </trkpt>
      <trkpt lat="45.83346" lon="4.70992">
        <ele>305.60431</ele>
        <time>2022-11-20T14:16:02.000Z</time>
      </trkpt>
      <trkpt lat="45.83344" lon="4.70993">
        <ele>305.68741</ele>
        <time>2022-11-20T14:16:03.000Z</time>
      </trkpt>
      <trkpt lat="45.83342" lon="4.70993">
        <ele>305.7951</ele>
        <time>2022-11-20T14:16:04.000Z</time>
      </trkpt>
      <trkpt lat="45.83339" lon="4.70993">
        <ele>305.88544</ele>
        <time>2022-11-20T14:16:05.000Z</time>
      </trkpt>
      <trkpt lat="45.83337" lon="4.70993">
        <ele>305.98392</ele>
        <time>2022-11-20T14:16:06.000Z</time>
      </trkpt>
      <trkpt lat="45.83335" lon="4.70993">
        <ele>306.1557</ele>
        <time>2022-11-20T14:16:07.000Z</time>
      </trkpt>
      <trkpt lat="45.83332" lon="4.70993">
        <ele>306.29648</ele>
        <time>2022-11-20T14:16:08.000Z</time>
      </trkpt>
    </trkseg>
  </trk>
</gpx>